# Wetter Temperatur Luftdruck Luftfeuchtigkeit Sichtweite Windgeschwindigkeit Windrichtung Zeit
1 Clouds 27 1024 71 10000 3.6 130 16:45 01.02.2023
2 Clouds 23 1023 89 10000 1.54 350 14:21 01.02.2023
3 Clouds 23 1023 89 10000 1.54 350 14:21 01.02.2023
4 Clouds 22 1022 90 10000 0 0 13:19 01.02.2023
5 Clouds 22 1022 90 10000 0 0 13:19 01.02.2023
6 Clouds 22 1022 91 10000 0.89 160 12:26 01.02.2023
7 Clouds 22 1021 89 10000 0 0 10:46 01.02.2023
8 Clouds 22 1021 87 10000 2.68 90 08:26 01.02.2023
9 Clouds 26 1021 74 10000 0.89 114 22:59 31.01.2023
10 Clouds 28 1021 68 10000 5.14 130 21:20 31.01.2023
11 Clouds 28 1022 67 10000 5.81 120 19:24 31.01.2023
12 Clouds 28 1023 69 10000 4.63 130 17:41 31.01.2023
13 Clouds 26 1023 76 10000 2.06 0 15:36 31.01.2023
14 Clouds 25 1023 80 10000 1.79 158 15:18 31.01.2023
15 Clouds 22 1021 85 10000 2.24 130 13:34 31.01.2023
16 Clouds 23 1020 81 10000 1.54 120 11:28 31.01.2023
17 Clouds 23 1020 82 10000 2.24 110 10:25 31.01.2023
18 Clouds 23 1020 81 10000 3.13 110 09:44 31.01.2023
19 Clouds 23 1021 81 10000 3.13 110 08:36 31.01.2023
20 Clouds 23 1021 83 10000 3.6 110 07:36 31.01.2023
21 Clouds 24 1022 81 10000 3.6 90 03:34 31.01.2023
22 Clouds 26 1021 70 10000 5.36 100 23:27 30.01.2023
23 Clouds 27 1020 67 10000 4.63 120 22:50 30.01.2023
24 Clouds 28 1020 65 10000 4.63 130 21:43 30.01.2023
25 Clouds 28 1020 66 10000 5.66 140 20:44 30.01.2023
26 Clouds 28 1022 68 10000 5.14 130 18:26 30.01.2023
27 Clouds 27 1023 69 10000 6.26 110 17:25 30.01.2023
28 Clouds 24 1022 83 10000 3.13 110 14:47 30.01.2023
29 Clouds 23 1023 85 10000 3.88 121 13:55 30.01.2023
30 Clouds 22 1021 89 10000 0 0 12:18 30.01.2023
31 Clouds 23 1021 86 10000 3.09 100 10:21 30.01.2023
32 Clouds 24 1020 85 10000 0.89 108 09:53 30.01.2023
33 Clouds 24 1020 85 10000 5.36 110 08:23 30.01.2023
34 Clouds 24 1022 85 10000 2.68 100 06:23 30.01.2023
35 Clouds 24 1022 82 10000 5.14 110 00:50 30.01.2023
36 Clouds 25 1021 76 10000 6.26 100 23:31 29.01.2023
37 Clouds 26 1022 74 10000 7.2 110 22:36 29.01.2023
38 Clouds 26 1021 73 10000 1.34 89 20:54 29.01.2023
39 Clouds 27 1022 69 10000 6.71 100 20:19 29.01.2023
40 Clouds 27 1022 68 10000 7.2 100 19:32 29.01.2023
41 Clouds 26 1024 72 10000 2.24 97 17:56 29.01.2023
42 Clouds 26 1025 71 10000 8.23 90 16:43 29.01.2023
43 Clouds 26 1025 72 10000 8.23 90 16:19 29.01.2023
44 Clouds 23 1024 78 10000 4.63 70 14:20 29.01.2023
45 Clouds 23 1023 81 10000 1.79 71 12:59 29.01.2023
46 Clouds 23 1023 79 10000 5.81 100 12:36 29.01.2023
47 Clear 23 1023 79 10000 5.81 100 12:18 29.01.2023
48 Clouds 23 1023 78 10000 4.63 80 11:36 29.01.2023
49 Clouds 23 1023 77 10000 6.71 90 10:45 29.01.2023
50 Clouds 23 1023 79 10000 6.69 70 08:32 29.01.2023
51 Clouds 23 1025 78 10000 6.69 90 04:44 29.01.2023
52 Clouds 24 1023 77 10000 6.69 90 23:51 28.01.2023
53 Clouds 24 1023 75 10000 7.72 80 20:53 28.01.2023
54 Clouds 24 1023 77 10000 1.79 0 19:56 28.01.2023
55 Clouds 24 1024 76 10000 2.24 52 18:53 28.01.2023
56 Clouds 24 1025 73 10000 7.72 70 17:44 28.01.2023
57 Clouds 24 1026 75 10000 7.2 70 16:41 28.01.2023
58 Clouds 23 1026 76 10000 7.2 70 16:19 28.01.2023
59 Clouds 23 1025 77 10000 7.2 70 15:36 28.01.2023
60 Clouds 22 1024 81 10000 2.57 340 13:50 28.01.2023
61 Clouds 21 1024 81 10000 2.57 340 12:28 28.01.2023
62 Clouds 21 1023 80 10000 2.24 10 10:35 28.01.2023
63 Clouds 21 1023 81 10000 2.57 350 09:49 28.01.2023
64 Clouds 20 1025 76 10000 4.63 350 04:38 28.01.2023
65 Clouds 19 1023 77 10000 3.6 10 01:31 28.01.2023
66 Clouds 20 1023 77 10000 4.63 10 00:19 28.01.2023
67 Clouds 21 1022 71 10000 5.66 350 20:25 27.01.2023
68 Clouds 19 1024 70 10000 1.34 264 17:58 27.01.2023
69 Clouds 18 1024 71 10000 5.66 360 17:21 27.01.2023
70 Clouds 19 1024 72 10000 7.71 26 16:58 27.01.2023
71 Clouds 17 1024 69 10000 5.66 340 15:49 27.01.2023
72 Clouds 18 1023 72 10000 5.14 360 14:28 27.01.2023
73 Clouds 18 1022 72 10000 5.14 340 13:39 27.01.2023
74 Clouds 19 1021 80 10000 4.63 350 11:51 27.01.2023
75 Clouds 19 1020 73 10000 3.6 350 08:35 27.01.2023
76 Clouds 22 1020 69 10000 4.63 340 00:45 27.01.2023
77 Clouds 25 1018 70 10000 4.63 330 22:45 26.01.2023
78 Clear 27 1018 66 10000 3.6 340 21:21 26.01.2023
79 Clouds 27 1018 65 10000 4.63 300 20:34 26.01.2023
80 Clouds 26 1019 71 10000 2.57 310 18:20 26.01.2023
81 Clouds 25 1019 76 10000 5.66 340 17:40 26.01.2023
82 Clouds 24 1019 83 10000 7.2 340 16:26 26.01.2023
83 Clouds 26 1019 84 10000 7.72 330 15:48 26.01.2023
84 Clouds 25 1019 90 10000 3.6 220 15:28 26.01.2023
85 Clear 23 1018 96 10000 2.68 284 13:58 26.01.2023
86 Clouds 22 1017 96 10000 2.06 200 12:43 26.01.2023
87 Clouds 22 1016 95 10000 2.57 200 11:25 26.01.2023
88 Clear 22 1016 95 10000 2.57 190 10:27 26.01.2023
89 Clear 22 1016 94 10000 2.57 190 09:44 26.01.2023
90 Clear 22 1016 93 10000 2.06 180 08:25 26.01.2023
91 Clear 22 1016 93 10000 2.06 180 08:25 26.01.2023
92 Clear 25 1016 80 10000 0.89 134 23:58 25.01.2023
93 Clouds 26 1016 77 10000 6.69 170 23:37 25.01.2023
94 Clear 27 1015 74 10000 2.68 187 21:57 25.01.2023
95 Clouds 28 1016 71 10000 8.75 170 21:21 25.01.2023
96 Clear 28 1016 71 10000 3.13 193 18:57 25.01.2023
97 Clouds 28 1018 69 10000 10.29 160 18:22 25.01.2023
98 Clouds 26 1018 79 10000 6.69 130 15:44 25.01.2023
99 Clouds 23 1018 90 10000 3.6 130 12:59 25.01.2023
100 Clouds 23 1018 87 10000 3.6 110 11:21 25.01.2023
101 Clouds 23 1018 83 10000 4.63 110 09:48 25.01.2023
102 Clouds 23 1018 84 10000 5.66 110 07:45 25.01.2023
103 Clouds 23 1020 82 10000 4.63 110 01:36 25.01.2023
104 Clouds 24 1020 81 10000 4.12 90 00:25 25.01.2023
105 Clouds 25 1020 73 10000 5.66 90 21:35 24.01.2023
106 Clouds 26 1020 72 10000 6.17 70 20:23 24.01.2023
107 Clouds 25 1021 72 10000 8.23 90 18:47 24.01.2023
108 Clouds 25 1023 72 10000 6.69 60 17:31 24.01.2023
109 Clouds 25 1023 72 10000 7.72 90 16:53 24.01.2023
110 Clouds 24 1023 73 10000 7.72 90 16:26 24.01.2023
111 Clouds 22 1021 80 10000 5.66 70 13:46 24.01.2023
112 Clouds 22 1021 80 10000 5.14 80 11:43 24.01.2023
113 Clouds 21 1020 80 10000 3.09 360 08:43 24.01.2023
114 Clouds 21 1020 81 10000 3.09 360 08:18 24.01.2023
115 Clouds 21 1020 82 10000 4.12 360 07:48 24.01.2023
116 Clouds 22 1021 79 10000 2.57 30 02:43 24.01.2023
117 Clouds 23 1019 75 10000 5.66 350 00:38 24.01.2023
118 Clouds 27 1018 72 10000 4.12 330 22:32 23.01.2023
119 Clouds 29 1017 66 10000 6.69 240 20:43 23.01.2023
120 Clouds 30 1017 59 10000 6.17 230 19:21 23.01.2023
121 Clouds 28 1018 67 10000 5.14 230 17:20 23.01.2023
122 Clouds 26 1018 82 10000 4.12 200 15:32 23.01.2023
123 Clear 23 1018 95 10000 1.34 150 13:56 23.01.2023
124 Clear 22 1017 95 10000 0.89 159 12:55 23.01.2023
125 Clouds 22 1016 95 10000 1.34 119 11:57 23.01.2023
126 Clear 22 1016 94 10000 2.57 190 11:28 23.01.2023
127 Clouds 22 1016 93 10000 2.06 190 08:25 23.01.2023
128 Clouds 25 1015 78 10000 5.14 190 00:24 23.01.2023
129 Clouds 27 1014 69 10000 8.23 210 22:19 22.01.2023
130 Clouds 28 1014 69 10000 7.2 200 21:19 22.01.2023
131 Clouds 28 1014 73 10000 7.2 180 19:58 22.01.2023
132 Clouds 28 1014 72 10000 7.72 180 19:40 22.01.2023
133 Clouds 28 1015 72 10000 9.77 180 18:43 22.01.2023
134 Clouds 28 1016 73 10000 8.23 150 17:55 22.01.2023
135 Clouds 27 1016 73 10000 8.75 170 17:24 22.01.2023
136 Clouds 25 1017 78 10000 6.69 160 15:30 22.01.2023
137 Clouds 24 1016 83 10000 3.6 160 14:43 22.01.2023
138 Clouds 23 1016 86 10000 3.6 140 13:28 22.01.2023
139 Clouds 23 1016 86 10000 4.63 130 12:32 22.01.2023
140 Clouds 23 1016 85 10000 4.12 150 11:34 22.01.2023
141 Clouds 22 1016 82 10000 4.12 120 09:35 22.01.2023
142 Clouds 22 1018 81 10000 3.6 110 05:51 22.01.2023
143 Clouds 24 1018 79 10000 4.12 130 00:40 22.01.2023
144 Clouds 25 1018 75 10000 5.66 130 23:30 21.01.2023
145 Clouds 27 1018 68 10000 4.63 120 21:40 21.01.2023
146 Clouds 27 1018 65 10000 4.12 130 19:46 21.01.2023
147 Clouds 26 1020 71 10000 0.89 124 16:55 21.01.2023
148 Clouds 20 1020 87 10000 0 0 14:24 21.01.2023
149 Clouds 19 1020 89 10000 1.12 322 12:57 21.01.2023
150 Clear 19 1019 88 10000 0 0 11:42 21.01.2023
151 Clouds 19 1018 72 10000 0.97 277 10:56 21.01.2023
152 Clouds 20 1019 83 10000 0 0 09:29 21.01.2023
153 Clouds 21 1020 82 10000 1.54 210 04:34 21.01.2023
154 Clouds 26 1019 64 10000 3.6 130 22:29 20.01.2023
155 Clouds 27 1018 61 10000 3.6 130 21:38 20.01.2023
156 Clear 27 1018 64 10000 1.79 130 20:57 20.01.2023
157 Clouds 28 1019 59 10000 3.09 160 19:52 20.01.2023
158 Clouds 26 1022 68 10000 2.57 230 16:47 20.01.2023
159 Clear 21 1021 93 10000 0 0 14:47 20.01.2023
160 Clear 19 1021 94 10000 0 0 13:51 20.01.2023
161 Clouds 19 1019 93 10000 0 0 10:24 20.01.2023
162 Clouds 20 1020 92 10000 2.32 216 08:55 20.01.2023
163 Clouds 21 1020 87 10000 2.9 190 05:56 20.01.2023
164 Clouds 22 1020 81 10000 3.09 170 02:31 20.01.2023
165 Clouds 26 1019 61 10000 5.66 180 22:36 19.01.2023
166 Clouds 26 1019 61 10000 5.66 180 22:36 19.01.2023
167 Clouds 27 1019 58 10000 4.63 160 21:20 19.01.2023
168 Clouds 27 1020 56 10000 4.12 120 19:29 19.01.2023
169 Clouds 27 1021 58 10000 4.12 160 17:20 19.01.2023
170 Clouds 19 1020 80 10000 0.45 190 13:47 19.01.2023
171 Clouds 20 1019 80 10000 0.89 160 10:18 19.01.2023
172 Clouds 21 1018 79 10000 3.09 130 08:49 19.01.2023
173 Clouds 25 1017 66 10000 6.69 150 22:30 18.01.2023
174 Clouds 26 1017 60 10000 5.14 140 20:20 18.01.2023
175 Clouds 26 1018 59 10000 4.63 130 19:38 18.01.2023
176 Clouds 26 1018 59 10000 4.63 130 19:20 18.01.2023
177 Clouds 24 1021 64 10000 2.57 120 16:19 18.01.2023
178 Clear 20 1019 64 10000 1.3 134 13:59 18.01.2023
179 Clouds 14 1018 91 10000 0 0 11:46 18.01.2023
180 Clouds 15 1018 88 10000 0 0 09:28 18.01.2023
181 Clear 16 1019 74 10000 0 0 05:35 18.01.2023
182 Clouds 20 1017 73 10000 3.6 170 00:37 18.01.2023
183 Clouds 24 1016 59 10000 5.66 190 21:27 17.01.2023
184 Clouds 24 1017 57 10000 5.14 160 19:37 17.01.2023
185 Clouds 24 1018 57 10000 6.17 130 18:48 17.01.2023
186 Clouds 23 1019 58 10000 5.14 150 17:38 17.01.2023
187 Clouds 18 1020 72 10000 0.45 317 15:27 17.01.2023
188 Clouds 15 1019 78 10000 0 0 14:45 17.01.2023
189 Clear 12 1019 60 10000 0.52 104 13:32 17.01.2023
190 Clouds 12 1017 79 10000 1.54 340 11:47 17.01.2023
191 Clouds 12 1018 76 10000 0 0 09:36 17.01.2023
192 Clouds 12 1018 76 10000 0 0 08:45 17.01.2023
193 Clouds 13 1018 74 10000 0 0 07:28 17.01.2023
194 Clear 17 1019 62 10000 2.06 110 01:32 17.01.2023
195 Clouds 18 1018 69 10000 3.09 130 00:48 17.01.2023
196 Clouds 21 1018 50 10000 3.6 130 22:38 16.01.2023
197 Clouds 22 1018 48 10000 2.57 100 21:39 16.01.2023
198 Clear 22 1019 51 10000 1.79 128 19:55 16.01.2023
199 Clear 21 1020 54 10000 0.89 125 18:57 16.01.2023
200 Clouds 21 1021 53 10000 1.54 0 18:37 16.01.2023
201 Clouds 21 1021 52 10000 1.54 0 18:18 16.01.2023
202 Clouds 20 1022 53 10000 2.06 360 17:20 16.01.2023
203 Clear 11 1021 72 10000 2.06 340 14:19 16.01.2023
204 Clear 8 1021 78 10000 3.09 340 13:36 16.01.2023
205 Clear 8 1020 71 10000 2.06 340 10:25 16.01.2023
206 Clear 8 1020 70 10000 0 0 08:23 16.01.2023
207 Clouds 17 1020 44 10000 2.57 320 22:44 15.01.2023
208 Clouds 17 1020 43 10000 3.6 310 21:23 15.01.2023
209 Clouds 17 1021 44 10000 3.09 310 20:28 15.01.2023
210 Clouds 17 1022 46 10000 3.6 290 19:31 15.01.2023
211 Clear 14 1023 58 10000 3.09 0 17:25 15.01.2023
212 Clear 6 1023 71 10000 1.79 296 13:55 15.01.2023
213 Clear 6 1022 75 10000 3.09 330 12:23 15.01.2023
214 Clear 6 1022 83 10000 4.12 330 11:29 15.01.2023
215 Clear 7 1021 86 10000 3.09 340 10:24 15.01.2023
216 Clear 8 1021 82 10000 4.12 300 08:29 15.01.2023
217 Clear 14 1018 52 10000 1.79 321 23:56 14.01.2023
218 Clouds 16 1018 45 10000 8.23 290 22:44 14.01.2023
219 Clear 16 1017 47 10000 3.13 288 21:54 14.01.2023
220 Clouds 16 1018 45 10000 6.69 300 21:36 14.01.2023
221 Clouds 16 1018 45 10000 6.69 300 21:36 14.01.2023
222 Clouds 16 1017 44 10000 6.69 300 21:18 14.01.2023
223 Clouds 16 1017 44 10000 6.69 300 21:18 14.01.2023
224 Clouds 15 1018 46 10000 8.23 310 20:28 14.01.2023
225 Clear 13 1020 54 10000 7.2 310 18:18 14.01.2023
226 Clouds 11 1021 60 10000 7.72 320 15:41 14.01.2023
227 Clouds 10 1021 61 10000 7.72 320 15:23 14.01.2023
228 Clouds 9 1020 67 10000 8.75 320 14:19 14.01.2023
229 Clouds 9 1019 72 10000 9.26 330 13:25 14.01.2023
230 Clouds 11 1016 72 10000 7.72 320 10:50 14.01.2023
231 Clouds 12 1016 73 10000 8.75 310 09:23 14.01.2023
232 Clear 17 1014 73 10000 5.66 300 02:39 14.01.2023
233 Clouds 21 1012 69 10000 8.23 280 23:20 13.01.2023
234 Clouds 21 1012 76 10000 8.23 270 22:41 13.01.2023
235 Clouds 21 1011 86 10000 2.24 268 21:58 13.01.2023
236 Clouds 24 1011 74 10000 11.32 280 20:38 13.01.2023
237 Clouds 27 1012 54 10000 8.23 240 19:27 13.01.2023
238 Clouds 25 1015 67 10000 7.2 230 17:42 13.01.2023
239 Clouds 23 1015 77 10000 4.12 190 15:20 13.01.2023
240 Clouds 17 1016 87 10000 1.54 270 12:25 13.01.2023
241 Clear 18 1015 84 10000 1.54 210 10:43 13.01.2023
242 Clear 18 1015 80 10000 1.54 210 10:23 13.01.2023
243 Clear 19 1016 81 10000 2.06 170 09:44 13.01.2023
244 Clear 19 1017 78 10000 2.57 170 08:51 13.01.2023
245 Clear 18 1018 80 10000 3.13 202 06:57 13.01.2023
246 Clouds 18 1019 75 10000 0 0 06:30 13.01.2023
247 Clouds 20 1020 64 10000 1.54 190 02:29 13.01.2023
248 Clear 24 1018 62 10000 1.34 139 22:57 12.01.2023
249 Clouds 25 1018 61 10000 2.68 139 21:59 12.01.2023
250 Clouds 26 1019 58 10000 5.14 160 20:52 12.01.2023
251 Clouds 26 1022 59 10000 5.66 120 18:27 12.01.2023
252 Clouds 26 1022 63 10000 4.63 120 17:20 12.01.2023
253 Clouds 22 1022 75 10000 1.54 20 15:28 12.01.2023
254 Clouds 19 1022 83 10000 0 0 14:42 12.01.2023
255 Clouds 19 1022 83 10000 0 0 14:19 12.01.2023
256 Clouds 18 1021 76 10000 0 0 12:29 12.01.2023
257 Clouds 18 1020 77 10000 0 0 10:26 12.01.2023
258 Clouds 19 1021 70 10000 0 0 07:38 12.01.2023
259 Clear 21 1020 74 10000 2.57 70 00:34 12.01.2023
260 Clear 22 1020 72 10000 0.89 92 23:57 11.01.2023
261 Clouds 23 1020 66 10000 4.63 70 23:38 11.01.2023
262 Clouds 23 1020 65 10000 4.63 70 23:19 11.01.2023
263 Clouds 24 1020 58 10000 4.63 70 21:32 11.01.2023
264 Clouds 24 1020 49 10000 2.06 120 19:19 11.01.2023
265 Clear 23 1022 44 10000 3.09 350 17:49 11.01.2023
266 Clear 19 1022 68 10000 1.34 16 15:53 11.01.2023
267 Clear 12 1021 52 10000 3.21 352 13:59 11.01.2023
268 Clear 12 1020 87 10000 2.57 330 12:34 11.01.2023
269 Clear 13 1020 82 10000 3.6 320 11:40 11.01.2023
270 Clear 14 1020 75 10000 3.6 320 09:32 11.01.2023
271 Clear 16 1020 67 10000 3.09 310 07:31 11.01.2023
272 Clear 15 1021 63 10000 4.12 310 06:47 11.01.2023
273 Clear 23 1018 55 10000 1.04 279 23:55 10.01.2023
274 Clouds 26 1018 44 10000 3.6 290 22:34 10.01.2023
275 Clouds 26 1018 42 10000 3.6 310 21:29 10.01.2023
276 Clear 26 1018 43 10000 0.89 278 19:56 10.01.2023
277 Clouds 26 1018 43 10000 4.12 320 19:29 10.01.2023
278 Clouds 26 1019 51 10000 4.12 310 18:47 10.01.2023
279 Clouds 25 1020 63 10000 3.09 280 17:33 10.01.2023
280 Clouds 20 1020 80 10000 3.6 340 15:47 10.01.2023
281 Clouds 19 1020 84 10000 3.6 340 15:21 10.01.2023
282 Clear 16 1019 87 10000 2.57 330 13:42 10.01.2023
283 Clear 17 1018 85 10000 2.06 330 11:28 10.01.2023
284 Clouds 17 1018 85 10000 0 0 08:44 10.01.2023
285 Clear 18 1018 60 10000 2.24 8 07:59 10.01.2023
286 Clear 18 1018 60 10000 2.24 8 07:59 10.01.2023
287 Clouds 18 1019 80 10000 0 0 07:25 10.01.2023
288 Clear 20 1020 66 10000 3.09 340 03:33 10.01.2023
289 Clouds 25 1018 59 10000 4.63 350 22:41 09.01.2023
290 Clouds 26 1018 58 10000 3.6 310 21:20 09.01.2023
291 Clouds 26 1018 62 10000 4.12 290 20:32 09.01.2023
292 Clouds 26 1020 66 10000 5.66 330 18:41 09.01.2023
293 Clouds 26 1020 66 10000 5.14 290 17:51 09.01.2023
294 Clouds 24 1021 74 10000 3.6 310 16:41 09.01.2023
295 Clear 23 1021 83 10000 1.34 306 15:59 09.01.2023
296 Clouds 21 1020 87 10000 5.14 320 15:22 09.01.2023
297 Clouds 20 1020 93 10000 5.14 330 14:42 09.01.2023
298 Clear 18 1020 96 10000 0.45 314 12:54 09.01.2023
299 Clear 19 1019 95 10000 0.45 52 11:59 09.01.2023
300 Clear 18 1018 93 10000 0 0 11:19 09.01.2023
301 Clouds 19 1021 90 10000 0 0 07:20 09.01.2023
302 Clouds 21 1022 82 10000 2.06 110 04:46 09.01.2023
303 Clouds 22 1022 78 10000 2.57 100 02:52 09.01.2023
304 Clouds 25 1021 68 10000 4.12 100 22:29 08.01.2023
305 Clouds 26 1021 65 10000 5.14 100 21:22 08.01.2023
306 Clouds 25 1021 66 10000 0.89 110 20:53 08.01.2023
307 Clouds 25 1023 63 10000 5.14 100 18:51 08.01.2023
308 Clouds 25 1024 65 10000 5.14 120 17:23 08.01.2023
309 Clouds 24 1024 66 10000 3.6 110 16:46 08.01.2023
310 Clouds 23 1024 72 10000 0.45 74 15:36 08.01.2023
311 Clear 21 1023 79 10000 4.59 81 13:59 08.01.2023
312 Clouds 19 1022 80 10000 0 0 13:31 08.01.2023
313 Clear 21 1022 76 10000 4.47 78 12:54 08.01.2023
314 Clouds 20 1022 75 10000 2.06 30 10:52 08.01.2023
315 Clouds 20 1022 74 10000 2.57 60 09:36 08.01.2023
316 Clouds 21 1023 70 10000 3.09 60 07:49 08.01.2023
317 Clear 22 1023 69 10000 4.12 40 00:30 08.01.2023
318 Clear 23 1022 64 10000 5.14 70 22:48 07.01.2023
319 Clouds 24 1022 62 10000 5.14 60 22:24 07.01.2023
320 Clouds 24 1022 61 10000 5.14 70 21:49 07.01.2023
321 Clouds 25 1022 59 10000 5.14 50 20:48 07.01.2023
322 Clouds 25 1022 59 10000 5.14 50 20:24 07.01.2023
323 Clouds 25 1023 59 10000 4.63 60 18:52 07.01.2023
324 Clear 25 1023 62 10000 1.79 62 17:53 07.01.2023
325 Clouds 24 1024 61 10000 3.09 90 17:33 07.01.2023
326 Clouds 24 1024 63 10000 1.79 85 16:37 07.01.2023
327 Clouds 21 1024 68 10000 4.12 360 15:50 07.01.2023
328 Clouds 20 1024 70 10000 4.12 360 15:29 07.01.2023
329 Clouds 17 1023 71 10000 3.6 360 14:30 07.01.2023
330 Clear 15 1023 55 10000 3.76 25 13:54 07.01.2023
331 Clear 14 1023 72 10000 3.09 360 13:26 07.01.2023
332 Clear 14 1023 72 10000 4.12 360 12:23 07.01.2023
333 Clear 15 1022 67 10000 3.6 360 11:50 07.01.2023
334 Clear 16 1022 67 10000 3.6 360 10:25 07.01.2023
335 Clear 16 1023 59 10000 3.6 360 08:38 07.01.2023
336 Clear 17 1023 61 10000 3.6 360 07:45 07.01.2023
337 Clear 17 1023 61 10000 3.6 360 07:19 07.01.2023
338 Clear 20 1024 68 10000 3.6 20 02:49 07.01.2023
339 Clear 24 1022 52 10000 4.12 340 22:24 06.01.2023
340 Clear 24 1021 54 10000 1.79 42 22:00 06.01.2023
341 Clouds 25 1021 49 10000 5.14 350 21:27 06.01.2023
342 Clear 25 1021 46 10000 1.34 347 19:58 06.01.2023
343 Clouds 25 1021 44 10000 4.63 10 19:40 06.01.2023
344 Clouds 25 1022 43 10000 4.63 10 19:22 06.01.2023
345 Clouds 25 1022 46 10000 5.66 350 18:42 06.01.2023
346 Clouds 23 1024 53 10000 6.69 350 17:23 06.01.2023
347 Clouds 22 1024 53 10000 4.63 350 16:32 06.01.2023
348 Clouds 21 1024 57 10000 0.89 328 15:57 06.01.2023
349 Clear 21 1023 58 10000 5.14 350 15:39 06.01.2023
350 Clouds 20 1023 64 10000 1.34 34 14:54 06.01.2023
351 Clouds 19 1021 74 10000 4.12 350 12:42 06.01.2023
352 Clouds 20 1020 84 10000 4.27 348 10:58 06.01.2023
353 Clouds 20 1022 88 10000 4.33 346 08:56 06.01.2023
354 Clouds 21 1022 85 10000 2.57 340 07:44 06.01.2023
355 Clouds 24 1021 84 10000 3.6 170 01:45 06.01.2023
356 Clouds 26 1019 78 10000 1.34 129 22:55 05.01.2023
357 Clouds 27 1019 74 10000 0.89 87 21:54 05.01.2023
358 Clouds 29 1020 67 10000 3.09 260 19:32 05.01.2023
359 Clouds 28 1022 69 10000 3.6 200 17:28 05.01.2023
360 Clouds 27 1023 75 10000 3.6 200 16:28 05.01.2023
361 Clouds 26 1023 80 10000 3.09 170 15:46 05.01.2023
362 Clouds 24 1022 89 10000 2.57 0 14:47 05.01.2023
363 Clouds 22 1021 93 10000 0.45 142 12:43 05.01.2023
364 Clouds 23 1021 91 10000 0.89 116 11:54 05.01.2023
365 Clouds 23 1021 92 10000 1.79 158 09:55 05.01.2023
366 Clear 22 1021 91 10000 2.06 170 08:31 05.01.2023
367 Clear 23 1021 91 10000 2.57 130 07:20 05.01.2023
368 Clear 23 1022 92 10000 2.57 120 05:20 05.01.2023
369 Clouds 26 1020 80 10000 5.66 130 23:19 04.01.2023
370 Clouds 28 1019 74 10000 4.63 120 21:33 04.01.2023
371 Clouds 28 1020 76 10000 2.24 131 20:55 04.01.2023
372 Clouds 28 1019 74 10000 5.14 160 19:57 04.01.2023
373 Clouds 28 1019 74 10000 6.69 130 19:33 04.01.2023
374 Clouds 28 1020 74 10000 7.72 180 18:37 04.01.2023
375 Clouds 27 1021 77 10000 5.66 160 16:32 04.01.2023
376 Clouds 27 1021 77 10000 5.66 160 16:32 04.01.2023
377 Clouds 27 1021 80 10000 1.34 105 15:55 04.01.2023
378 Clouds 25 1021 87 10000 2.57 140 14:39 04.01.2023
379 Clouds 23 1019 88 10000 3.09 140 11:41 04.01.2023
380 Clouds 23 1019 88 10000 3.09 140 11:20 04.01.2023
381 Clouds 23 1019 88 10000 3.6 150 10:43 04.01.2023
382 Clouds 24 1019 88 10000 3.6 150 10:22 04.01.2023
383 Clouds 24 1019 88 10000 4.12 130 08:52 04.01.2023
384 Clouds 24 1020 89 10000 4.12 120 05:35 04.01.2023
385 Clouds 24 1019 86 10000 4.12 130 00:32 04.01.2023
386 Clouds 26 1019 82 10000 5.14 130 23:35 03.01.2023
387 Clouds 26 1019 79 10000 5.14 140 22:44 03.01.2023
388 Clouds 27 1019 78 10000 2.24 153 20:53 03.01.2023
389 Clouds 27 1020 75 10000 7.2 120 19:26 03.01.2023
390 Clouds 27 1022 75 10000 6.69 130 17:37 03.01.2023
391 Clouds 27 1023 76 10000 5.14 110 16:36 03.01.2023
392 Clouds 24 1022 87 10000 0.45 114 13:55 03.01.2023
393 Clouds 24 1021 87 10000 3.6 100 13:30 03.01.2023
394 Clouds 24 1021 87 10000 3.6 100 13:30 03.01.2023
395 Clouds 23 1021 88 10000 0.89 129 12:57 03.01.2023
396 Clouds 23 1021 87 10000 4.12 100 12:30 03.01.2023
397 Clouds 23 1021 87 10000 4.12 100 12:30 03.01.2023
398 Clouds 23 1021 88 10000 4.12 90 11:21 03.01.2023
399 Clouds 23 1021 85 10000 3.6 110 07:29 03.01.2023
400 Clouds 24 1022 83 10000 4.63 90 04:22 03.01.2023
401 Clouds 24 1022 82 10000 5.66 100 03:43 03.01.2023
402 Clouds 24 1022 82 10000 5.66 90 01:39 03.01.2023
403 Clouds 26 1021 76 10000 6.17 60 22:42 02.01.2023
404 Clouds 26 1021 75 10000 6.17 60 22:19 02.01.2023
405 Clouds 27 1021 72 10000 5.14 110 20:40 02.01.2023
406 Clouds 28 1021 71 10000 5.14 80 19:52 02.01.2023
407 Clouds 27 1023 74 10000 6.17 110 17:29 02.01.2023
408 Clouds 25 1022 86 10000 1.54 50 15:19 02.01.2023
409 Clouds 22 1022 90 10000 1.54 360 13:23 02.01.2023
410 Clear 23 1021 89 10000 3.56 82 11:57 02.01.2023
411 Clouds 22 1020 89 10000 0 0 10:43 02.01.2023
412 Clear 23 1021 84 10000 0 0 07:33 02.01.2023
413 Clouds 24 1020 87 10000 0.45 104 00:58 02.01.2023
414 Clouds 27 1019 75 10000 4.12 120 22:20 01.01.2023
415 Clouds 28 1019 74 10000 3.6 120 21:28 01.01.2023
416 Clouds 28 1019 73 10000 3.6 140 20:47 01.01.2023
417 Clouds 28 1020 71 10000 2.06 340 19:44 01.01.2023
418 Clouds 28 1021 75 10000 1.79 121 17:59 01.01.2023
419 Clouds 27 1021 75 10000 2.06 100 17:21 01.01.2023
420 Haze 27 1022 80 10000 1.54 90 16:32 01.01.2023
421 Clear 22 1021 96 10000 0.89 354 14:53 01.01.2023
422 Mist 21 1020 96 10000 0 0 13:38 01.01.2023
423 Mist 20 1020 95 1207 0 0 12:40 01.01.2023
424 Fog 21 1019 94 10000 0 0 11:36 01.01.2023
425 Fog 22 1018 94 10000 0.45 143 10:36 01.01.2023
426 Mist 22 1018 94 4828 1.54 170 08:51 01.01.2023
427 Mist 22 1019 94 4828 3.09 170 08:20 01.01.2023
428 Mist 22 1019 94 6437 0 0 07:18 01.01.2023
429 Clouds 23 1020 90 10000 1.54 150 01:42 01.01.2023
430 Clouds 26 1019 82 10000 4.63 170 23:42 31.12.2022
431 Clouds 27 1019 78 10000 5.66 170 22:33 31.12.2022
432 Clouds 28 1019 75 10000 5.66 130 21:36 31.12.2022
433 Clouds 28 1019 74 10000 5.66 130 21:18 31.12.2022
434 Clouds 28 1019 72 10000 5.14 160 19:33 31.12.2022
435 Clouds 28 1020 73 10000 5.14 170 18:42 31.12.2022
436 Clouds 28 1020 74 10000 5.14 170 18:18 31.12.2022
437 Clouds 28 1021 75 10000 4.63 170 17:46 31.12.2022
438 Clouds 27 1021 78 10000 5.66 140 16:42 31.12.2022
439 Clouds 27 1021 79 10000 6.17 170 16:20 31.12.2022
440 Clouds 24 1020 92 10000 1.54 130 14:39 31.12.2022
441 Clouds 22 1020 92 10000 1.54 140 13:37 31.12.2022
442 Fog 22 1019 93 10000 2.57 120 12:40 31.12.2022
443 Fog 22 1019 92 10000 2.57 120 12:19 31.12.2022
444 Fog 22 1019 92 10000 2.57 120 12:19 31.12.2022
445 Fog 22 1019 93 10000 1.54 0 11:50 31.12.2022
446 Fog 22 1019 93 10000 0 0 10:35 31.12.2022
447 Clear 22 1019 92 10000 2.79 154 09:53 31.12.2022
448 Mist 22 1019 94 10000 2.06 120 09:18 31.12.2022
449 Clouds 22 1019 94 10000 1.54 130 07:25 31.12.2022
450 Clear 24 1018 88 10000 3.09 110 00:35 31.12.2022
451 Clear 24 1018 88 10000 3.09 110 00:35 31.12.2022
452 Clear 24 1018 88 10000 3.09 110 00:35 31.12.2022
453 Clouds 25 1018 82 10000 4.12 140 23:45 30.12.2022
454 Clouds 26 1018 79 10000 3.6 150 22:49 30.12.2022
455 Clouds 27 1018 76 10000 4.63 120 21:43 30.12.2022
456 Clouds 27 1018 75 10000 4.63 120 21:23 30.12.2022
457 Clouds 28 1019 76 10000 1.79 149 18:58 30.12.2022
458 Clouds 28 1020 76 10000 4.63 140 17:42 30.12.2022
459 Clouds 27 1020 79 10000 6.17 130 17:23 30.12.2022
460 Clear 25 1021 88 10000 0.45 150 15:50 30.12.2022
461 Clouds 23 1021 94 10000 0 0 14:35 30.12.2022
462 Clouds 23 1020 91 10000 2.06 20 10:24 30.12.2022
463 Clear 23 1020 88 1609 3.09 60 07:59 30.12.2022
464 Clouds 23 1022 83 10000 5.14 50 02:41 30.12.2022
465 Clouds 23 1022 84 10000 1.34 41 01:53 30.12.2022
466 Clouds 24 1021 79 10000 6.17 50 22:50 29.12.2022
467 Clouds 25 1021 75 10000 6.69 40 21:31 29.12.2022
468 Clouds 25 1021 77 10000 1.34 56 20:54 29.12.2022
469 Clouds 26 1022 74 10000 7.72 60 20:25 29.12.2022
470 Clouds 25 1023 75 10000 5.66 50 18:26 29.12.2022
471 Clouds 25 1024 76 10000 9.26 70 17:29 29.12.2022
472 Clouds 25 1024 78 10000 7.72 60 16:55 29.12.2022
473 Clouds 24 1024 79 10000 5.66 70 15:59 29.12.2022
474 Clouds 24 1024 80 10000 6.17 70 15:18 29.12.2022
475 Clouds 22 1023 83 10000 5.66 70 13:33 29.12.2022
476 Clouds 21 1022 83 10000 4.12 60 11:28 29.12.2022
477 Clouds 22 1023 80 10000 3.09 60 07:43 29.12.2022
478 Clouds 22 1022 70 10000 6.69 50 23:45 28.12.2022
479 Clouds 22 1022 70 10000 6.69 50 23:26 28.12.2022
480 Clouds 24 1022 63 10000 6.69 70 21:21 28.12.2022
481 Clouds 24 1022 63 10000 8.23 80 20:24 28.12.2022
482 Clouds 24 1023 63 10000 8.23 80 19:23 28.12.2022
483 Clear 24 1024 67 10000 2.24 59 16:56 28.12.2022
484 Clouds 18 1023 80 10000 0 0 14:39 28.12.2022
485 Clouds 20 1022 77 10000 5.45 50 12:54 28.12.2022
486 Clouds 17 1021 83 10000 2.57 340 11:52 28.12.2022
487 Mist 14 1021 88 10000 3.09 350 10:37 28.12.2022
488 Clouds 15 1021 82 10000 4.12 360 08:42 28.12.2022
489 Clouds 15 1022 82 10000 2.57 350 06:50 28.12.2022
490 Clouds 17 1022 86 10000 4.12 350 03:45 28.12.2022
491 Clouds 21 1020 80 10000 0.45 4 23:23 27.12.2022
492 Clouds 19 1020 86 10000 1.34 0 19:58 27.12.2022
493 Clouds 18 1021 87 10000 3.6 360 19:24 27.12.2022
494 Clouds 16 1022 95 10000 5.66 360 17:20 27.12.2022
495 Clouds 15 1023 95 10000 4.12 330 16:39 27.12.2022
496 Clouds 15 1022 96 10000 4.12 330 15:22 27.12.2022
497 Rain 14 1021 98 6437 3.09 330 12:28 27.12.2022
498 Mist 13 1021 96 8047 3.6 330 11:24 27.12.2022
499 Rain 14 1020 97 10000 3.09 310 09:45 27.12.2022
500 Rain 13 1020 97 10000 3.09 310 09:22 27.12.2022
501 Rain 13 1022 99 10000 3.09 350 06:48 27.12.2022
502 Rain 13 1022 97 10000 2.57 350 04:29 27.12.2022
503 Clouds 13 1020 88 10000 3.09 350 22:20 26.12.2022
504 Clouds 13 1020 90 10000 3.09 330 20:46 26.12.2022
505 Clouds 12 1021 89 10000 3.09 330 20:24 26.12.2022
506 Clouds 11 1023 82 10000 3.09 340 18:43 26.12.2022
507 Rain 10 1023 87 10000 5.66 340 17:26 26.12.2022
508 Rain 10 1024 84 10000 4.63 320 15:44 26.12.2022
509 Clouds 10 1023 73 10000 1.79 305 12:59 26.12.2022
510 Clouds 10 1023 70 10000 3.09 330 11:46 26.12.2022
511 Clouds 9 1024 57 10000 5.14 340 06:42 26.12.2022
512 Clouds 9 1023 61 10000 5.14 350 23:46 25.12.2022
513 Clouds 9 1022 64 10000 5.14 330 22:57 25.12.2022
514 Clouds 9 1023 57 10000 5.14 350 22:26 25.12.2022
515 Clouds 8 1023 63 10000 6.69 320 20:40 25.12.2022
516 Clouds 8 1025 71 10000 5.14 330 18:27 25.12.2022
517 Clouds 7 1026 71 10000 4.63 320 17:51 25.12.2022
518 Clouds 7 1026 71 10000 4.63 320 17:33 25.12.2022
519 Clouds 8 1024 60 10000 6.69 340 14:38 25.12.2022
520 Clouds 9 1022 60 10000 6.17 340 11:49 25.12.2022
521 Clouds 9 1023 60 10000 4.12 330 06:20 25.12.2022
522 Clouds 10 1023 50 10000 3.6 310 23:22 24.12.2022
523 Clouds 12 1023 51 10000 1.79 37 19:58 24.12.2022
524 Clouds 11 1022 55 10000 6.3 351 17:55 24.12.2022
525 Clouds 11 1024 61 10000 7.2 330 16:27 24.12.2022
526 Clouds 9 1023 62 10000 6.69 340 14:37 24.12.2022
527 Clouds 9 1021 58 10000 6.17 340 12:41 24.12.2022
528 Clouds 10 1020 71 10000 7.72 350 10:31 24.12.2022
529 Clouds 11 1020 77 10000 8.89 343 09:55 24.12.2022
530 Clouds 11 1020 74 10000 6.17 340 09:36 24.12.2022
531 Clouds 18 1019 78 10000 7.2 310 04:28 24.12.2022
532 Clouds 23 1016 79 10000 6.69 330 00:52 24.12.2022
533 Clouds 25 1015 72 10000 5.14 240 23:31 23.12.2022
534 Clouds 26 1014 71 10000 1.34 276 21:55 23.12.2022
535 Clouds 27 1015 71 10000 5.66 270 20:22 23.12.2022
536 Clouds 27 1015 73 10000 5.66 240 19:39 23.12.2022
537 Clouds 27 1015 75 10000 5.66 240 19:21 23.12.2022
538 Clouds 26 1016 82 10000 1.79 288 18:38 23.12.2022
539 Clouds 25 1016 84 10000 5.66 240 18:18 23.12.2022
540 Clouds 22 1018 86 10000 5.14 260 16:25 23.12.2022
541 Rain 23 1018 95 10000 5.66 220 14:44 23.12.2022
542 Clouds 22 1015 95 10000 0.45 245 10:57 23.12.2022
543 Clouds 22 1016 93 10000 2.57 210 09:36 23.12.2022
544 Clouds 22 1016 91 10000 2.57 200 07:45 23.12.2022
545 Clouds 22 1016 90 10000 0.45 238 06:50 23.12.2022
546 Clouds 22 1017 88 10000 2.06 0 05:20 23.12.2022
547 Clear 26 1015 72 10000 4.63 250 23:21 22.12.2022
548 Clouds 28 1014 69 10000 1.34 0 21:57 22.12.2022
549 Clouds 28 1014 66 10000 5.14 250 20:25 22.12.2022
550 Clouds 29 1014 67 10000 4.12 260 19:23 22.12.2022
551 Clouds 28 1016 69 10000 4.63 190 18:37 22.12.2022
552 Clouds 27 1017 77 10000 1.79 0 16:59 22.12.2022
553 Clouds 27 1017 77 10000 3.6 180 16:37 22.12.2022
554 Clouds 25 1017 88 10000 2.57 170 15:32 22.12.2022
555 Clouds 22 1017 97 10000 1.54 170 14:45 22.12.2022
556 Mist 20 1016 94 10000 1.54 110 13:32 22.12.2022
557 Fog 20 1016 94 10000 0 0 12:40 22.12.2022
558 Mist 20 1016 93 10000 0 0 10:32 22.12.2022
559 Clouds 21 1016 93 10000 1.5 78 09:59 22.12.2022
560 Clear 21 1016 92 10000 0 0 09:19 22.12.2022
561 Clouds 22 1016 90 10000 0 0 08:22 22.12.2022
562 Clouds 23 1017 87 10000 3.6 110 05:18 22.12.2022
563 Clouds 23 1017 89 10000 2.06 110 04:18 22.12.2022
564 Clouds 25 1015 81 10000 4.63 80 22:56 21.12.2022
565 Clouds 25 1015 81 10000 0.89 90 21:53 21.12.2022
566 Clouds 26 1015 80 10000 3.6 60 21:21 21.12.2022
567 Clouds 26 1015 80 10000 3.09 70 20:48 21.12.2022
568 Clouds 26 1015 80 10000 0.89 78 19:58 21.12.2022
569 Clouds 26 1015 78 10000 3.09 50 19:40 21.12.2022
570 Clouds 26 1016 78 10000 3.09 50 19:21 21.12.2022
571 Clouds 27 1016 78 10000 2.06 40 18:43 21.12.2022
572 Clouds 26 1017 81 10000 2.06 90 17:35 21.12.2022
573 Clouds 23 1017 94 10000 1.54 60 14:24 21.12.2022
574 Clouds 22 1017 93 10000 1.54 40 12:33 21.12.2022
575 Clouds 22 1016 93 10000 2.06 40 11:41 21.12.2022
576 Clouds 22 1016 92 10000 3.09 90 11:19 21.12.2022
577 Clouds 22 1017 85 10000 0.45 56 08:52 21.12.2022
578 Clouds 22 1016 85 10000 1.34 92 06:59 21.12.2022
579 Rain 21 1020 86 10000 3.6 30 00:32 21.12.2022
580 Rain 24 1020 78 10000 5.14 40 22:41 20.12.2022
581 Clouds 24 1019 76 10000 5.14 60 21:18 20.12.2022
582 Clouds 25 1019 73 10000 7.2 100 20:18 20.12.2022
583 Clouds 25 1020 73 10000 6.69 50 18:49 20.12.2022
584 Clouds 26 1020 73 10000 6.69 50 18:26 20.12.2022
585 Clouds 26 1020 73 10000 6.69 50 18:26 20.12.2022
586 Clouds 26 1021 72 10000 7.2 80 17:51 20.12.2022
587 Clouds 26 1022 72 10000 7.2 80 17:28 20.12.2022
588 Clouds 25 1022 73 10000 7.72 70 16:32 20.12.2022
589 Clouds 24 1022 79 10000 1.34 79 14:57 20.12.2022
590 Clouds 23 1022 80 10000 4.12 60 14:36 20.12.2022
591 Clouds 22 1021 84 10000 2.57 60 13:52 20.12.2022
592 Clouds 22 1020 85 10000 2.57 50 12:40 20.12.2022
593 Clouds 22 1020 86 10000 0.89 37 11:55 20.12.2022
594 Clouds 22 1020 84 10000 2.57 40 10:42 20.12.2022
595 Clouds 22 1021 80 10000 3.09 60 07:41 20.12.2022
596 Clouds 22 1021 76 10000 3.6 40 00:23 20.12.2022
597 Clouds 23 1021 71 10000 6.17 70 22:36 19.12.2022
598 Clouds 24 1021 69 10000 6.69 70 21:33 19.12.2022
599 Clouds 25 1021 68 10000 6.17 60 19:50 19.12.2022
600 Clouds 25 1021 68 10000 6.17 60 19:31 19.12.2022
601 Clouds 25 1022 68 10000 7.2 70 18:23 19.12.2022
602 Clouds 24 1023 69 10000 4.12 50 16:29 19.12.2022
603 Clouds 18 1021 82 10000 3.6 350 13:22 19.12.2022
604 Clear 16 1020 82 10000 3.09 340 11:46 19.12.2022
605 Clear 18 1020 80 10000 5.14 350 08:27 19.12.2022
606 Clear 19 1020 84 10000 4.63 350 07:22 19.12.2022
607 Clouds 22 1019 76 10000 1.79 23 00:54 19.12.2022
608 Clouds 24 1016 76 10000 4.12 80 21:50 18.12.2022
609 Clouds 25 1016 76 10000 4.12 80 21:31 18.12.2022
610 Clouds 26 1015 76 10000 1.79 36 20:57 18.12.2022
611 Clouds 26 1016 74 10000 5.14 10 19:45 18.12.2022
612 Clouds 25 1016 75 10000 5.14 10 19:23 18.12.2022
613 Clouds 24 1017 80 10000 4.63 330 17:52 18.12.2022
614 Clouds 23 1017 94 10000 4.12 350 16:18 18.12.2022
615 Mist 23 1017 96 9656 3.6 350 15:37 18.12.2022
616 Clouds 23 1017 96 10000 3.6 350 15:18 18.12.2022
617 Mist 22 1016 96 8047 1.54 330 13:35 18.12.2022
618 Rain 22 1015 96 10000 2.06 360 12:51 18.12.2022
619 Clouds 22 1015 96 10000 4.69 310 11:53 18.12.2022
620 Clouds 22 1015 96 10000 0.45 322 10:19 18.12.2022
621 Clouds 22 1015 96 10000 1.54 330 08:46 18.12.2022
622 Clouds 22 1014 96 10000 2.06 150 07:20 18.12.2022
623 Clouds 22 1015 96 10000 0 0 06:19 18.12.2022
624 Clouds 23 1016 95 10000 0.45 139 01:58 18.12.2022
625 Clear 24 1014 89 10000 4.12 70 23:39 17.12.2022
626 Clouds 25 1014 81 10000 3.6 80 21:33 17.12.2022
627 Clouds 24 1015 85 10000 4.12 30 18:54 17.12.2022
628 Clouds 23 1017 88 10000 3.6 320 16:39 17.12.2022
629 Clouds 20 1015 91 10000 3.6 340 13:57 17.12.2022
630 Clouds 20 1015 91 10000 3.09 350 11:24 17.12.2022
631 Clouds 20 1015 86 10000 2.06 340 10:44 17.12.2022
632 Clouds 20 1014 92 10000 2.57 360 09:41 17.12.2022
633 Clouds 20 1015 88 10000 2.57 360 07:26 17.12.2022
634 Clouds 21 1015 89 10000 2.06 30 06:45 17.12.2022
635 Clear 23 1015 79 10000 3.6 360 23:39 16.12.2022
636 Clouds 25 1014 80 10000 0.89 93 20:55 16.12.2022
637 Clouds 25 1015 80 10000 2.57 0 18:46 16.12.2022
638 Clouds 24 1016 89 10000 2.57 330 15:43 16.12.2022
639 Clouds 23 1015 93 10000 2.06 310 14:47 16.12.2022
640 Clouds 22 1015 94 10000 4.12 260 13:44 16.12.2022
641 Mist 23 1014 93 4828 2.06 0 11:58 16.12.2022
642 Clear 23 1013 94 10000 3.39 228 09:53 16.12.2022
643 Clouds 23 1014 92 10000 0 0 09:24 16.12.2022
644 Clear 23 1014 92 10000 0.45 214 07:55 16.12.2022
645 Clouds 23 1014 91 10000 1.54 190 07:31 16.12.2022
646 Clouds 26 1014 76 10000 4.63 190 23:30 15.12.2022
647 Clouds 26 1014 76 10000 4.63 190 23:30 15.12.2022
648 Clouds 27 1014 74 10000 5.66 170 22:20 15.12.2022
649 Clouds 28 1014 71 10000 8.23 170 20:36 15.12.2022
650 Clouds 28 1014 71 10000 5.66 200 19:36 15.12.2022
651 Clouds 28 1016 72 10000 7.72 190 18:20 15.12.2022
652 Clouds 28 1016 74 10000 8.23 180 17:24 15.12.2022
653 Clouds 26 1017 78 10000 4.63 170 15:35 15.12.2022
654 Clouds 26 1017 78 10000 4.63 170 15:35 15.12.2022
655 Clouds 24 1015 84 10000 4.63 170 13:36 15.12.2022
656 Clouds 24 1015 84 10000 4.12 160 12:33 15.12.2022
657 Clouds 23 1016 85 10000 3.09 160 09:41 15.12.2022
658 Clear 23 1016 86 10000 1.34 103 08:53 15.12.2022
659 Clouds 24 1016 81 10000 4.12 150 06:19 15.12.2022
660 Clear 24 1016 82 10000 2.68 118 04:54 15.12.2022
661 Clouds 27 1016 68 10000 6.17 160 21:25 14.12.2022
662 Clear 27 1015 69 10000 2.68 128 20:59 14.12.2022
663 Clouds 27 1016 66 10000 7.72 150 20:31 14.12.2022
664 Clouds 27 1017 67 10000 6.17 160 18:26 14.12.2022
665 Clear 27 1018 69 10000 2.68 109 16:57 14.12.2022
666 Clouds 26 1018 71 10000 3.6 130 15:40 14.12.2022
667 Clear 24 1017 78 10000 2.24 179 13:53 14.12.2022
668 Clouds 21 1016 82 10000 1.34 124 11:31 14.12.2022
669 Clouds 22 1016 79 10000 1.54 360 10:36 14.12.2022
670 Clear 22 1016 81 10000 1.34 191 08:54 14.12.2022
671 Clouds 25 1016 73 10000 4.12 90 23:22 13.12.2022
672 Clouds 26 1016 66 10000 2.57 140 21:49 13.12.2022
673 Clouds 27 1016 65 10000 2.06 0 20:49 13.12.2022
674 Clouds 27 1016 64 10000 2.06 0 20:25 13.12.2022
675 Clouds 27 1017 64 10000 1.34 102 17:55 13.12.2022
676 Clear 24 1018 74 10000 0.89 320 15:58 13.12.2022
677 Mist 20 1017 91 9656 1.54 360 14:52 13.12.2022
678 Mist 17 1016 94 9656 0 0 12:27 13.12.2022
679 Clear 18 1016 88 10000 2.57 350 10:36 13.12.2022
680 Clear 18 1016 87 10000 3.09 350 09:43 13.12.2022
681 Clear 19 1017 82 10000 1.54 360 06:21 13.12.2022
682 Clouds 25 1015 64 10000 3.6 290 22:23 12.12.2022
683 Clouds 26 1015 61 10000 3.09 260 21:27 12.12.2022
684 Clouds 26 1016 61 10000 3.6 300 19:28 12.12.2022
685 Clouds 25 1018 69 10000 2.06 0 17:21 12.12.2022
686 Mist 20 1018 93 9656 2.06 50 15:22 12.12.2022
687 Mist 20 1018 93 9656 2.06 50 15:22 12.12.2022
688 Fog 19 1017 97 402 3.09 340 12:26 12.12.2022
689 Clear 19 1016 94 10000 1.54 330 09:20 12.12.2022
690 Clear 20 1018 80 10000 1.54 360 05:42 12.12.2022
691 Clear 21 1019 77 10000 2.57 350 03:51 12.12.2022
692 Clear 26 1016 57 10000 0.89 277 22:57 11.12.2022
693 Clear 27 1016 54 10000 0.89 303 20:54 11.12.2022
694 Clear 27 1017 56 10000 4.12 330 19:48 11.12.2022
695 Clear 27 1017 58 10000 4.12 330 19:30 11.12.2022
696 Clear 27 1018 61 10000 3.6 340 18:22 11.12.2022
697 Clear 26 1019 65 10000 3.09 300 17:32 11.12.2022
698 Clear 25 1019 71 10000 3.6 310 16:52 11.12.2022
699 Clouds 23 1020 82 10000 3.09 310 15:47 11.12.2022
700 Mist 20 1019 93 10000 2.06 340 14:50 11.12.2022
701 Mist 18 1019 94 10000 0 0 12:45 11.12.2022
702 Mist 19 1019 92 10000 0 0 12:18 11.12.2022
703 Clear 19 1018 65 10000 2.73 348 08:56 11.12.2022
704 Clouds 23 1018 75 10000 1.54 360 00:35 11.12.2022
705 Clouds 25 1018 68 10000 2.06 290 23:32 10.12.2022
706 Clouds 26 1017 63 10000 3.09 290 22:33 10.12.2022
707 Clouds 26 1017 63 10000 3.09 290 22:33 10.12.2022
708 Clouds 27 1017 60 10000 3.09 0 21:20 10.12.2022
709 Clouds 27 1018 60 10000 3.09 0 20:39 10.12.2022
710 Clear 28 1018 60 10000 1.34 345 18:58 10.12.2022
711 Clear 26 1020 65 10000 1.34 314 16:59 10.12.2022
712 Clear 25 1020 68 10000 4.12 350 16:34 10.12.2022
713 Clouds 24 1020 77 10000 3.6 340 15:39 10.12.2022
714 Clear 22 1020 87 10000 3.09 340 14:49 10.12.2022
715 Clear 20 1019 91 10000 0.45 0 12:54 10.12.2022
716 Clear 20 1018 87 10000 2.06 330 11:46 10.12.2022
717 Clear 20 1019 86 10000 2.06 330 10:43 10.12.2022
718 Clear 20 1018 83 10000 1.54 350 09:18 10.12.2022
719 Clear 21 1019 84 10000 2.57 360 07:20 10.12.2022
720 Clouds 24 1018 82 10000 4.12 60 00:52 10.12.2022
721 Clouds 25 1018 77 10000 4.63 100 23:19 09.12.2022
722 Clouds 26 1018 75 10000 5.14 60 22:38 09.12.2022
723 Clouds 26 1018 72 10000 2.57 0 21:26 09.12.2022
724 Clouds 26 1018 72 10000 3.6 300 20:42 09.12.2022
725 Clouds 26 1018 74 10000 0.89 175 18:59 09.12.2022
726 Clouds 26 1019 72 10000 3.6 350 17:55 09.12.2022
727 Clouds 26 1020 75 10000 2.57 330 16:32 09.12.2022
728 Clouds 25 1020 80 10000 3.6 340 15:45 09.12.2022
729 Clouds 24 1020 84 10000 3.6 340 15:18 09.12.2022
730 Clouds 20 1019 92 10000 2.06 340 11:34 09.12.2022
731 Clouds 21 1019 88 10000 1.54 320 10:35 09.12.2022
732 Clear 23 1019 76 10000 3.29 70 08:55 09.12.2022
733 Clouds 23 1021 69 10000 1.54 40 03:19 09.12.2022
734 Clouds 23 1021 72 10000 3.6 60 00:32 09.12.2022
735 Clouds 26 1020 65 10000 3.09 60 22:20 08.12.2022
736 Clouds 27 1020 63 10000 4.12 80 20:51 08.12.2022
737 Clouds 27 1022 64 10000 5.14 70 17:51 08.12.2022
738 Clear 25 1022 72 10000 2.06 30 15:39 08.12.2022
739 Clouds 22 1022 82 10000 2.57 360 14:25 08.12.2022
740 Clouds 22 1022 79 10000 2.06 360 11:32 08.12.2022
741 Clear 22 1022 78 10000 5.03 62 09:54 08.12.2022
742 Clouds 22 1022 79 10000 2.06 350 09:26 08.12.2022
743 Clouds 23 1024 83 10000 2.57 50 02:36 08.12.2022
744 Clouds 25 1023 76 10000 4.63 60 22:19 07.12.2022
745 Clouds 25 1023 76 10000 5.66 100 21:50 07.12.2022
746 Clouds 25 1023 77 10000 5.66 100 21:31 07.12.2022
747 Clouds 27 1023 73 10000 5.66 70 19:38 07.12.2022
748 Clouds 27 1024 67 10000 5.66 70 17:37 07.12.2022
749 Clear 24 1024 78 10000 0.45 312 14:41 07.12.2022
750 Clouds 22 1022 78 10000 2.57 360 12:37 07.12.2022
751 Clouds 22 1022 78 10000 2.06 340 10:43 07.12.2022
752 Clouds 22 1022 78 10000 2.57 360 09:51 07.12.2022
753 Clouds 23 1022 78 10000 2.06 20 08:47 07.12.2022
754 Clouds 23 1022 78 10000 1.54 0 06:48 07.12.2022
755 Clouds 23 1023 76 10000 2.06 360 05:23 07.12.2022
756 Clouds 26 1020 67 10000 6.17 70 22:41 06.12.2022
757 Smoke 27 1020 64 10000 5.66 70 20:48 06.12.2022
758 Clear 28 1021 62 10000 4.12 90 18:21 06.12.2022
759 Clouds 27 1022 65 10000 4.12 80 16:43 06.12.2022
760 Clouds 27 1022 66 10000 4.12 80 16:20 06.12.2022
761 Clouds 26 1021 70 10000 3.6 50 15:34 06.12.2022
762 Clouds 23 1021 84 10000 2.57 20 14:28 06.12.2022
763 Clear 23 1021 80 10000 3.92 52 12:59 06.12.2022
764 Clouds 21 1020 86 10000 2.06 350 12:40 06.12.2022
765 Clouds 22 1019 89 10000 2.06 340 09:43 06.12.2022
766 Clouds 23 1019 86 10000 2.06 350 06:44 06.12.2022
767 Clouds 24 1019 81 10000 4.12 70 01:26 06.12.2022
768 Clouds 26 1017 70 10000 4.12 340 22:36 05.12.2022
769 Clouds 27 1017 63 10000 3.6 350 21:19 05.12.2022
770 Clouds 27 1017 62 10000 4.12 20 20:36 05.12.2022
771 Clouds 27 1018 61 10000 4.12 20 19:46 05.12.2022
772 Clouds 27 1018 61 10000 3.6 360 18:37 05.12.2022
773 Clouds 26 1019 64 10000 3.6 350 16:48 05.12.2022
774 Clouds 24 1019 73 10000 3.09 360 15:24 05.12.2022
775 Clouds 20 1018 83 10000 2.06 350 13:27 05.12.2022
776 Clouds 20 1018 83 10000 2.57 350 12:52 05.12.2022
777 Clouds 20 1018 84 10000 2.57 350 12:34 05.12.2022
778 Clouds 20 1017 84 10000 2.54 24 10:58 05.12.2022
779 Clouds 22 1020 66 10000 1.54 340 04:52 05.12.2022
780 Clouds 25 1019 64 10000 4.12 50 23:25 04.12.2022
781 Clouds 26 1019 61 10000 6.17 70 22:37 04.12.2022
782 Clouds 26 1019 61 10000 6.17 70 22:18 04.12.2022
783 Clouds 26 1019 60 10000 5.66 70 21:29 04.12.2022
784 Clouds 27 1019 59 10000 6.17 60 19:48 04.12.2022
785 Clouds 27 1020 59 10000 6.17 60 19:22 04.12.2022
786 Clouds 27 1021 60 10000 5.14 80 17:40 04.12.2022
787 Clouds 27 1021 61 10000 5.14 80 17:21 04.12.2022
788 Clouds 26 1022 62 10000 4.12 60 16:36 04.12.2022
789 Clouds 26 1022 63 10000 4.12 60 16:18 04.12.2022
790 Clouds 24 1022 71 10000 0.45 0 14:54 04.12.2022
791 Clouds 22 1021 73 10000 2.06 350 13:45 04.12.2022
792 Clouds 22 1021 74 10000 2.57 360 12:45 04.12.2022
793 Clouds 23 1020 73 10000 4.85 64 11:59 04.12.2022
794 Clouds 22 1020 76 10000 2.57 350 10:48 04.12.2022
795 Clouds 23 1022 72 10000 2.57 360 07:34 04.12.2022
796 Clouds 24 1024 71 10000 3.09 40 02:24 04.12.2022
797 Clouds 25 1023 67 10000 5.14 50 23:43 03.12.2022
798 Clouds 26 1023 66 10000 6.69 60 22:24 03.12.2022
799 Clouds 27 1022 62 10000 6.17 60 21:41 03.12.2022
800 Clouds 27 1022 63 10000 6.69 80 20:36 03.12.2022
801 Clouds 27 1024 61 10000 6.17 70 18:40 03.12.2022
802 Clouds 27 1025 61 10000 7.2 80 17:30 03.12.2022
803 Clouds 26 1025 65 10000 6.69 70 15:49 03.12.2022
804 Clouds 24 1024 74 10000 0.45 120 12:56 03.12.2022
805 Clouds 24 1024 73 10000 4.63 80 12:28 03.12.2022
806 Clouds 24 1023 73 10000 6.17 70 10:30 03.12.2022
807 Clouds 24 1023 75 10000 2.24 75 07:58 03.12.2022
808 Clouds 24 1024 70 10000 6.17 60 01:31 03.12.2022
809 Clouds 24 1024 70 10000 6.17 60 01:31 03.12.2022
810 Clouds 24 1024 70 10000 6.17 60 01:31 03.12.2022
811 Clouds 25 1023 67 10000 6.69 60 23:26 02.12.2022
812 Clouds 26 1023 63 10000 7.2 70 21:34 02.12.2022
813 Clouds 27 1023 64 10000 8.23 80 19:37 02.12.2022
814 Clouds 26 1025 66 10000 8.75 70 16:23 02.12.2022
815 Clouds 26 1025 70 10000 1.79 46 15:53 02.12.2022
816 Clouds 24 1024 76 10000 5.14 70 14:28 02.12.2022
817 Clouds 24 1024 78 10000 4.12 60 13:42 02.12.2022
818 Clouds 23 1022 77 10000 3.6 50 11:48 02.12.2022
819 Clouds 23 1022 75 10000 2.57 30 10:26 02.12.2022
820 Clouds 24 1022 73 10000 4.63 60 07:48 02.12.2022
821 Clouds 24 1022 74 10000 4.63 60 07:18 02.12.2022
822 Clouds 26 1021 80 10000 7.72 40 22:49 01.12.2022
823 Clouds 26 1021 79 10000 9.26 30 21:41 01.12.2022
824 Clouds 26 1021 83 10000 7.72 40 20:36 01.12.2022
825 Rain 26 1022 85 10000 5.14 40 18:58 01.12.2022
826 Clouds 26 1023 80 10000 1.79 6 16:57 01.12.2022
827 Clouds 23 1022 95 10000 5.14 360 14:21 01.12.2022
828 Smoke 23 1019 96 10000 1.54 320 10:56 01.12.2022
829 Clouds 23 1019 95 10000 2.03 42 09:54 01.12.2022
830 Clouds 23 1019 95 10000 2.06 310 09:36 01.12.2022
831 Clouds 24 1019 92 10000 1.54 310 06:19 01.12.2022
832 Clouds 27 1018 82 10000 4.63 90 22:41 30.11.2022
833 Clouds 28 1018 75 10000 3.6 100 21:40 30.11.2022
834 Clouds 28 1018 75 10000 3.6 100 21:18 30.11.2022
835 Clouds 29 1018 74 10000 3.6 100 20:23 30.11.2022
836 Clouds 29 1018 74 10000 3.6 100 20:23 30.11.2022
837 Clouds 29 1019 76 10000 4.12 110 18:36 30.11.2022
838 Clouds 29 1019 76 10000 4.63 110 17:40 30.11.2022
839 Clouds 28 1019 76 10000 5.14 120 16:26 30.11.2022
840 Clouds 27 1019 81 10000 3.6 100 14:45 30.11.2022
841 Clouds 26 1019 82 10000 3.6 100 14:25 30.11.2022
842 Clouds 25 1018 86 10000 1.34 65 11:58 30.11.2022
843 Clouds 25 1018 84 10000 5.66 100 09:22 30.11.2022
844 Clouds 25 1018 83 10000 6.69 90 08:26 30.11.2022
845 Clouds 26 1019 79 10000 5.14 80 05:22 30.11.2022
846 Clouds 26 1018 76 10000 5.66 60 23:26 29.11.2022
847 Clouds 27 1017 72 10000 5.66 80 22:19 29.11.2022
848 Clouds 27 1018 69 10000 5.66 50 20:52 29.11.2022
849 Clouds 28 1018 67 10000 6.69 90 19:49 29.11.2022
850 Clear 28 1019 65 10000 1.79 65 17:55 29.11.2022
851 Clouds 28 1020 66 10000 7.2 70 16:31 29.11.2022
852 Clouds 27 1020 72 10000 3.09 60 15:28 29.11.2022
853 Clouds 25 1019 82 10000 2.57 10 14:25 29.11.2022
854 Clouds 24 1018 82 10000 2.57 360 12:37 29.11.2022
855 Clouds 24 1017 83 10000 2.57 10 11:31 29.11.2022
856 Clear 24 1017 84 10000 0 0 10:27 29.11.2022
857 Clouds 24 1017 85 10000 1.54 10 09:26 29.11.2022
858 Clouds 24 1017 85 10000 2.06 80 06:47 29.11.2022
859 Clouds 26 1017 83 10000 6.17 50 00:28 29.11.2022
860 Clouds 26 1016 80 10000 5.66 70 23:25 28.11.2022
861 Clouds 28 1016 74 10000 1.34 65 21:57 28.11.2022
862 Clouds 28 1016 73 10000 4.12 90 21:39 28.11.2022
863 Clouds 29 1015 69 10000 3.09 280 20:24 28.11.2022
864 Clouds 29 1016 67 10000 3.09 0 19:25 28.11.2022
865 Clouds 29 1017 66 10000 2.06 210 18:28 28.11.2022
866 Clouds 28 1018 70 10000 1.34 330 17:23 28.11.2022
867 Clouds 24 1018 94 10000 0.89 278 14:57 28.11.2022
868 Clouds 23 1017 96 10000 2.06 280 13:55 28.11.2022
869 Clouds 23 1017 96 10000 2.06 290 13:18 28.11.2022
870 Clouds 23 1016 96 10000 1.54 260 11:32 28.11.2022
871 Clouds 23 1016 95 10000 0 0 08:20 28.11.2022
872 Clouds 24 1017 90 10000 2.93 259 04:56 28.11.2022
873 Clouds 24 1017 88 10000 2.57 260 04:37 28.11.2022
874 Clouds 25 1016 87 10000 2.57 260 03:21 28.11.2022
875 Clouds 27 1015 79 10000 3.6 250 00:29 28.11.2022
876 Clouds 29 1014 74 10000 1.79 198 21:55 27.11.2022
877 Clouds 30 1015 70 10000 6.17 250 20:46 27.11.2022
878 Clouds 30 1016 72 10000 4.12 190 18:37 27.11.2022
879 Clouds 28 1018 81 10000 4.12 220 16:22 27.11.2022
880 Clouds 25 1017 90 10000 1.54 240 13:54 27.11.2022
881 Clouds 24 1016 92 10000 1.54 160 12:24 27.11.2022
882 Clouds 25 1016 88 10000 2.57 140 09:31 27.11.2022
883 Clouds 25 1017 87 10000 2.57 130 07:20 27.11.2022
884 Clouds 27 1016 78 10000 4.63 100 23:23 26.11.2022
885 Clouds 29 1016 74 10000 5.66 140 21:43 26.11.2022
886 Clouds 30 1016 75 10000 1.34 99 19:57 26.11.2022
887 Clouds 30 1017 76 10000 3.6 120 18:41 26.11.2022
888 Clouds 28 1018 78 10000 2.06 50 16:40 26.11.2022
889 Clouds 26 1018 82 10000 2.06 50 15:22 26.11.2022
890 Clouds 23 1017 94 10000 2.57 340 12:51 26.11.2022
891 Clouds 23 1017 94 10000 2.57 340 12:51 26.11.2022
892 Clouds 23 1017 94 10000 0.45 296 10:53 26.11.2022
893 Clouds 24 1017 93 10000 2.57 320 09:43 26.11.2022
894 Clouds 24 1017 91 10000 2.57 290 07:48 26.11.2022
895 Clouds 29 1015 77 10000 3.09 160 22:43 25.11.2022
896 Clouds 30 1015 73 10000 3.09 170 21:35 25.11.2022
897 Clouds 30 1015 73 10000 3.09 290 20:21 25.11.2022
898 Clouds 29 1018 75 10000 3.09 160 16:51 25.11.2022
899 Clouds 28 1018 79 10000 3.09 150 15:31 25.11.2022
900 Clouds 25 1016 89 10000 2.06 140 10:29 25.11.2022
901 Clouds 25 1016 88 10000 2.57 100 08:44 25.11.2022
902 Clouds 25 1017 87 10000 3.6 110 07:27 25.11.2022
903 Clouds 26 1017 86 10000 3.09 110 06:42 25.11.2022
904 Clouds 26 1017 85 10000 3.09 110 01:25 25.11.2022
905 Clouds 27 1016 81 10000 4.63 120 23:22 24.11.2022
906 Clouds 28 1016 78 10000 5.14 120 22:29 24.11.2022
907 Clouds 29 1016 75 10000 4.63 90 21:35 24.11.2022
908 Clouds 29 1016 75 10000 4.63 100 19:40 24.11.2022
909 Clouds 29 1018 76 10000 4.63 100 17:47 24.11.2022
910 Clouds 29 1018 77 10000 4.63 100 17:23 24.11.2022
911 Clouds 29 1018 78 10000 4.12 100 16:39 24.11.2022
912 Clouds 24 1018 93 10000 1.54 350 14:23 24.11.2022
913 Clouds 23 1017 91 10000 1.54 350 12:40 24.11.2022
914 Clouds 23 1016 92 10000 1.54 350 10:52 24.11.2022
915 Clouds 23 1016 93 10000 1.54 330 08:45 24.11.2022
916 Clear 24 1018 92 10000 3.09 360 04:46 24.11.2022
917 Clouds 25 1016 88 10000 3.09 30 00:40 24.11.2022
918 Clouds 27 1016 83 10000 3.09 130 23:32 23.11.2022
919 Clouds 28 1015 74 10000 2.57 120 21:47 23.11.2022
920 Clouds 29 1015 74 10000 3.09 0 20:49 23.11.2022
921 Clouds 29 1016 75 10000 3.6 130 19:34 23.11.2022
922 Clouds 29 1016 77 10000 2.06 110 18:54 23.11.2022
923 Clouds 28 1018 81 10000 0.45 106 17:29 23.11.2022
924 Fog 22 1017 98 402 2.57 360 13:42 23.11.2022
925 Fog 22 1017 97 805 2.57 360 13:23 23.11.2022
926 Fog 22 1017 97 805 3.09 310 12:23 23.11.2022
927 Fog 22 1016 98 402 1.54 320 11:45 23.11.2022
928 Fog 23 1016 97 10000 2.06 340 10:48 23.11.2022
929 Clouds 23 1017 96 10000 2.06 330 09:57 23.11.2022
930 Clouds 23 1017 97 10000 0.45 113 09:27 23.11.2022
931 Clouds 23 1017 97 10000 1.84 142 08:58 23.11.2022
932 Clouds 23 1017 97 10000 1.54 280 08:35 23.11.2022
933 Clouds 23 1018 94 10000 1.54 350 05:19 23.11.2022
934 Clouds 25 1018 89 10000 3.09 120 01:22 23.11.2022
935 Clouds 28 1017 78 10000 4.63 100 22:37 22.11.2022
936 Clouds 28 1017 77 10000 4.63 100 21:49 22.11.2022
937 Clouds 28 1017 76 10000 4.63 100 21:23 22.11.2022
938 Clouds 29 1017 75 10000 4.63 110 20:43 22.11.2022
939 Clouds 29 1018 75 10000 4.63 120 19:45 22.11.2022
940 Clouds 28 1020 77 10000 2.06 0 17:54 22.11.2022
941 Clouds 27 1020 83 10000 2.06 80 16:38 22.11.2022
942 Clouds 24 1020 96 10000 2.57 360 14:31 22.11.2022
943 Clouds 23 1019 97 10000 2.06 330 12:30 22.11.2022
944 Mist 23 1018 96 10000 1.54 10 09:28 22.11.2022
945 Mist 23 1018 96 10000 1.54 10 09:28 22.11.2022
946 Mist 23 1018 96 10000 1.54 10 09:28 22.11.2022
947 Mist 23 1019 96 3219 2.57 70 07:59 22.11.2022
948 Mist 24 1020 94 10000 2.57 40 06:43 22.11.2022
949 Clouds 25 1019 87 10000 4.12 100 00:23 22.11.2022
950 Clouds 25 1018 86 10000 4.63 70 22:52 21.11.2022
951 Clouds 25 1018 86 10000 4.63 70 22:52 21.11.2022
952 Clouds 25 1018 85 10000 4.63 70 22:23 21.11.2022
953 Clouds 25 1018 85 10000 5.14 80 21:31 21.11.2022
954 Clouds 25 1018 86 10000 4.63 70 19:54 21.11.2022
955 Clouds 25 1019 87 10000 4.63 80 19:35 21.11.2022
956 Clouds 25 1019 89 10000 3.09 40 18:51 21.11.2022
957 Mist 24 1020 94 8047 6.17 100 17:28 21.11.2022
958 Rain 24 1020 93 9656 7.72 70 16:42 21.11.2022
959 Rain 24 1020 93 8047 4.12 40 15:58 21.11.2022
960 Rain 24 1020 92 2414 6.17 60 15:23 21.11.2022
961 Rain 24 1019 90 10000 2.24 44 13:53 21.11.2022
962 Clouds 24 1019 88 10000 5.14 60 12:50 21.11.2022
963 Clouds 24 1018 86 10000 7.2 60 09:35 21.11.2022
964 Clouds 23 1018 88 10000 6.69 70 07:52 21.11.2022
965 Rain 22 1017 95 8047 6.69 350 00:36 21.11.2022
966 Rain 23 1017 95 4023 4.63 350 21:39 20.11.2022
967 Rain 23 1017 95 10000 5.14 20 20:47 20.11.2022
968 Rain 23 1018 95 2414 4.63 30 19:18 20.11.2022
969 Rain 22 1019 96 8047 6.17 20 17:24 20.11.2022
970 Mist 22 1019 96 1609 4.12 70 15:44 20.11.2022
971 Rain 23 1019 95 1609 5.14 30 15:21 20.11.2022
972 Rain 23 1018 93 4023 2.57 300 14:18 20.11.2022
973 Clouds 23 1018 94 10000 3.6 350 13:32 20.11.2022
974 Rain 23 1017 93 9656 4.12 50 11:46 20.11.2022
975 Rain 23 1017 93 10000 1.34 29 10:58 20.11.2022
976 Clouds 24 1018 88 10000 5.66 40 09:44 20.11.2022
977 Clouds 24 1018 88 10000 5.66 40 09:44 20.11.2022
978 Clouds 24 1018 85 10000 2.24 36 08:55 20.11.2022
979 Clouds 25 1018 83 10000 3.09 40 08:32 20.11.2022
980 Clouds 25 1019 78 10000 5.14 60 07:26 20.11.2022
981 Clouds 25 1019 77 10000 5.66 50 01:29 20.11.2022
982 Clouds 25 1019 78 10000 1.79 63 00:55 20.11.2022
983 Clouds 25 1019 76 10000 5.14 40 00:36 20.11.2022
984 Clouds 25 1019 76 10000 5.14 40 00:18 20.11.2022
985 Clouds 25 1018 74 10000 7.72 60 23:26 19.11.2022
986 Clouds 25 1018 73 10000 6.69 40 22:48 19.11.2022
987 Clouds 26 1018 72 10000 5.66 40 21:57 19.11.2022
988 Clouds 26 1018 71 10000 5.66 40 21:25 19.11.2022
989 Clouds 26 1019 71 10000 7.2 40 20:41 19.11.2022
990 Clouds 26 1019 70 10000 7.2 60 19:51 19.11.2022
991 Clouds 26 1020 73 10000 2.24 41 18:54 19.11.2022
992 Clouds 26 1020 73 10000 5.14 30 17:39 19.11.2022
993 Clouds 25 1021 74 10000 5.14 30 17:18 19.11.2022
994 Clouds 23 1021 80 10000 4.12 360 14:58 19.11.2022
995 Clouds 23 1021 82 10000 2.57 340 13:34 19.11.2022
996 Clouds 23 1019 80 10000 0.89 75 11:56 19.11.2022
997 Clouds 22 1019 80 10000 2.57 350 09:51 19.11.2022
998 Clouds 22 1019 79 10000 2.57 360 08:19 19.11.2022
999 Clouds 23 1021 77 10000 3.6 340 04:45 19.11.2022
1000 Clouds 24 1020 75 10000 4.12 50 00:50 19.11.2022
1001 Clouds 24 1019 74 10000 4.12 50 23:34 18.11.2022
1002 Clouds 25 1019 71 10000 5.14 50 22:24 18.11.2022
1003 Clouds 25 1019 70 10000 5.14 40 21:36 18.11.2022
1004 Clouds 25 1019 72 10000 3.13 47 20:58 18.11.2022
1005 Clouds 25 1019 71 10000 5.66 50 20:25 18.11.2022
1006 Clouds 26 1019 70 10000 6.17 40 19:37 18.11.2022
1007 Clouds 25 1020 70 10000 3.6 30 17:45 18.11.2022
1008 Clouds 23 1021 73 10000 5.14 350 16:32 18.11.2022
1009 Clouds 18 1020 77 10000 4.12 350 12:39 18.11.2022
1010 Clouds 19 1019 82 10000 5.14 350 10:45 18.11.2022
1011 Clouds 20 1019 79 10000 3.09 350 07:52 18.11.2022
1012 Clouds 20 1019 80 10000 4.12 350 05:45 18.11.2022
1013 Clouds 22 1020 79 10000 4.63 360 02:49 18.11.2022
1014 Clouds 24 1018 77 10000 1.34 25 23:48 17.11.2022
1015 Clouds 26 1018 72 10000 4.63 360 20:48 17.11.2022
1016 Clouds 26 1018 72 10000 4.63 360 20:24 17.11.2022
1017 Clouds 26 1019 73 10000 5.14 340 19:31 17.11.2022
1018 Clouds 25 1019 77 10000 3.6 330 18:34 17.11.2022
1019 Clouds 24 1020 82 10000 6.17 340 17:32 17.11.2022
1020 Clouds 23 1020 88 10000 4.63 330 16:32 17.11.2022
1021 Clouds 22 1019 93 10000 3.6 330 12:24 17.11.2022
1022 Clouds 22 1018 93 10000 4.63 340 11:19 17.11.2022
1023 Clouds 24 1018 92 10000 1.54 270 07:35 17.11.2022
1024 Clouds 26 1018 82 10000 2.06 130 01:30 17.11.2022
1025 Clouds 27 1018 81 10000 4.12 140 23:32 16.11.2022
1026 Clouds 28 1017 78 10000 3.09 130 22:25 16.11.2022
1027 Clouds 30 1017 70 10000 4.12 140 20:33 16.11.2022
1028 Clouds 30 1018 73 10000 2.24 103 18:53 16.11.2022
1029 Clouds 30 1019 71 10000 4.12 130 18:32 16.11.2022
1030 Clouds 29 1020 76 10000 2.24 110 16:30 16.11.2022
1031 Mist 21 1019 98 10000 0 0 12:20 16.11.2022
1032 Clouds 23 1019 93 10000 0 0 08:27 16.11.2022
1033 Clouds 25 1019 84 10000 2.68 120 01:49 16.11.2022
1034 Clouds 27 1018 78 10000 3.6 130 23:50 15.11.2022
1035 Clear 29 1018 73 10000 0.89 76 21:54 15.11.2022
1036 Clouds 29 1018 70 10000 5.14 120 20:25 15.11.2022
1037 Clouds 29 1018 69 10000 4.12 120 19:18 15.11.2022
1038 Clouds 29 1019 71 10000 5.81 110 17:38 15.11.2022
1039 Clouds 29 1020 71 10000 5.66 120 16:22 15.11.2022
1040 Clouds 28 1020 74 10000 5.36 90 15:40 15.11.2022
1041 Clouds 26 1019 81 10000 1.34 75 14:41 15.11.2022
1042 Clear 25 1019 82 10000 3.56 108 12:59 15.11.2022
1043 Clouds 24 1018 84 10000 0 0 11:22 15.11.2022
1044 Clear 25 1017 80 10000 3.94 106 09:53 15.11.2022
1045 Clouds 25 1018 79 10000 4.12 90 03:48 15.11.2022
1046 Clear 25 1017 76 10000 3.09 100 00:26 15.11.2022
1047 Clouds 27 1016 70 10000 5.36 90 22:52 14.11.2022
1048 Clouds 28 1016 69 10000 1.79 111 20:53 14.11.2022
1049 Clouds 28 1016 67 10000 4.63 80 20:30 14.11.2022
1050 Clouds 29 1017 67 10000 4.63 110 18:28 14.11.2022
1051 Clouds 23 1017 91 10000 2.06 360 13:21 14.11.2022
1052 Clouds 23 1016 91 10000 2.06 360 11:49 14.11.2022
1053 Clouds 23 1016 90 10000 2.06 360 11:25 14.11.2022
1054 Clouds 23 1015 86 10000 1.54 310 08:48 14.11.2022
1055 Clouds 23 1016 85 10000 1.54 360 07:52 14.11.2022
1056 Clouds 24 1016 78 10000 0 0 04:31 14.11.2022
1057 Clouds 27 1014 68 10000 3.09 110 23:23 13.11.2022
1058 Clouds 28 1014 62 10000 4.12 90 21:42 13.11.2022
1059 Clear 29 1014 64 10000 1.79 80 20:54 13.11.2022
1060 Clouds 29 1015 65 10000 1.34 0 18:59 13.11.2022
1061 Clouds 29 1016 63 10000 1.54 0 17:50 13.11.2022
1062 Clouds 27 1016 72 10000 2.57 360 16:25 13.11.2022
1063 Clouds 24 1016 90 10000 1.54 360 14:44 13.11.2022
1064 Clear 22 1016 96 10000 1.54 330 13:24 13.11.2022
1065 Clouds 22 1015 95 10000 0 0 12:34 13.11.2022
1066 Clouds 22 1015 96 10000 2.06 340 10:42 13.11.2022
1067 Clouds 22 1016 95 10000 0 0 06:31 13.11.2022
1068 Thunderstorm 26 1016 84 10000 4.63 250 00:34 13.11.2022
1069 Clouds 27 1014 80 10000 3.09 130 21:59 12.11.2022
1070 Clouds 28 1014 78 10000 3.6 160 21:23 12.11.2022
1071 Clouds 29 1014 73 10000 4.12 130 19:52 12.11.2022
1072 Clear 30 1016 74 10000 1.34 133 17:53 12.11.2022
1073 Clouds 28 1017 74 10000 2.24 0 16:21 12.11.2022
1074 Mist 25 1016 91 10000 0 0 14:50 12.11.2022
1075 Clear 22 1014 97 10000 0 0 11:23 12.11.2022
1076 Clouds 23 1014 94 10000 0 0 08:28 12.11.2022
1077 Clouds 27 1013 78 10000 4.63 220 00:41 12.11.2022
1078 Clouds 29 1012 71 10000 6.17 170 21:43 11.11.2022
1079 Clouds 30 1012 69 10000 6.17 170 20:45 11.11.2022
1080 Clouds 30 1012 68 10000 6.26 180 19:30 11.11.2022
1081 Clouds 30 1012 69 10000 4.12 200 18:42 11.11.2022
1082 Clouds 30 1013 71 10000 4.63 190 17:41 11.11.2022
1083 Clouds 27 1014 78 10000 2.68 190 15:36 11.11.2022
1084 Clouds 25 1013 89 10000 1.54 160 14:20 11.11.2022
1085 Clouds 22 1012 94 10000 0 0 12:46 11.11.2022
1086 Clouds 24 1011 90 10000 3.13 160 09:37 11.11.2022
1087 Clouds 24 1011 91 10000 3.13 180 08:27 11.11.2022
1088 Clouds 24 1010 91 10000 4.72 196 03:55 11.11.2022
1089 Clouds 27 1008 76 10000 2.68 222 22:55 10.11.2022
1090 Clouds 28 1007 73 10000 2.68 215 21:55 10.11.2022
1091 Clouds 28 1007 71 10000 8.75 220 21:32 10.11.2022
1092 Clouds 29 1007 70 10000 7.2 220 20:49 10.11.2022
1093 Clouds 29 1007 71 10000 7.2 220 20:20 10.11.2022
1094 Clouds 29 1007 71 10000 7.72 220 19:34 10.11.2022
1095 Clouds 28 1007 72 10000 7.72 230 18:19 10.11.2022
1096 Clouds 27 1007 80 10000 8.23 200 16:26 10.11.2022
1097 Clouds 23 1005 94 10000 5.66 200 13:43 10.11.2022
1098 Clouds 22 1003 92 10000 7.72 220 11:33 10.11.2022
1099 Mist 22 1001 93 10000 7.2 240 08:43 10.11.2022
1100 Clouds 23 1004 96 10000 9.77 310 01:31 10.11.2022
1101 Rain 23 1005 97 10000 8.23 310 23:34 09.11.2022
1102 Mist 23 1006 97 4828 6.69 330 22:35 09.11.2022
1103 Rain 23 1007 97 9656 8.75 320 20:48 09.11.2022
1104 Mist 23 1007 97 9656 7.2 320 20:29 09.11.2022
1105 Rain 23 1008 96 4023 7.2 320 19:42 09.11.2022
1106 Rain 23 1008 94 4828 8.75 340 18:51 09.11.2022
1107 Clouds 24 1011 89 10000 6.69 360 16:19 09.11.2022
1108 Rain 23 1011 93 10000 5.36 340 14:48 09.11.2022
1109 Clouds 23 1011 94 10000 5.36 340 14:25 09.11.2022
1110 Clouds 22 1011 95 10000 5.36 340 13:19 09.11.2022
1111 Mist 22 1010 96 8047 5.66 350 11:46 09.11.2022
1112 Clouds 23 1011 95 10000 4.63 340 08:44 09.11.2022
1113 Mist 22 1011 96 9656 6.17 310 07:46 09.11.2022
1114 Mist 22 1011 96 9656 6.17 310 07:46 09.11.2022
1115 Rain 23 1013 91 10000 5.14 30 00:56 09.11.2022
1116 Clouds 28 1013 66 10000 7.72 10 21:46 08.11.2022
1117 Clouds 28 1013 64 10000 7.72 10 21:28 08.11.2022
1118 Clouds 28 1013 62 10000 8.23 360 20:41 08.11.2022
1119 Clouds 29 1013 59 10000 8.75 20 19:40 08.11.2022
1120 Clouds 28 1014 65 10000 4.63 10 18:50 08.11.2022
1121 Clouds 27 1015 72 10000 7.2 20 17:26 08.11.2022
1122 Clouds 25 1015 78 10000 0.89 330 14:56 08.11.2022
1123 Clouds 22 1015 83 10000 3.09 330 13:42 08.11.2022
1124 Clouds 22 1015 84 10000 3.09 330 13:23 08.11.2022
1125 Clouds 23 1015 80 10000 3.09 340 09:46 08.11.2022
1126 Clouds 23 1015 79 10000 3.09 340 07:25 08.11.2022
1127 Clouds 24 1015 83 10000 6.17 20 00:34 08.11.2022
1128 Clouds 28 1015 65 10000 8.23 40 22:44 07.11.2022
1129 Clouds 28 1014 63 10000 9.77 40 21:32 07.11.2022
1130 Clouds 28 1014 64 10000 8.23 50 20:44 07.11.2022
1131 Clouds 29 1015 64 10000 8.23 60 19:30 07.11.2022
1132 Clouds 29 1016 65 10000 5.66 70 17:39 07.11.2022
1133 Clouds 28 1017 66 10000 6.69 40 15:36 07.11.2022
1134 Clear 27 1017 70 10000 1.79 73 14:54 07.11.2022
1135 Clear 25 1016 80 10000 1.34 57 12:59 07.11.2022
1136 Clouds 24 1015 82 10000 2.68 20 11:49 07.11.2022
1137 Clouds 25 1015 80 10000 5.14 50 09:49 07.11.2022
1138 Clouds 25 1015 77 10000 2.57 50 08:18 07.11.2022
1139 Clouds 26 1016 76 10000 4.63 60 06:27 07.11.2022
1140 Clouds 25 1015 87 10000 2.57 70 01:42 07.11.2022
1141 Clouds 27 1014 81 10000 4.63 60 23:19 06.11.2022
1142 Clouds 28 1013 74 10000 7.72 80 21:21 06.11.2022
1143 Clouds 28 1014 76 10000 4.12 40 20:36 06.11.2022
1144 Clouds 28 1014 78 10000 4.63 60 19:56 06.11.2022
1145 Clouds 28 1015 78 10000 6.26 70 18:48 06.11.2022
1146 Clouds 28 1015 76 10000 6.17 70 18:20 06.11.2022
1147 Clouds 28 1015 76 10000 6.71 80 17:22 06.11.2022
1148 Clouds 29 1016 74 10000 7.2 80 16:53 06.11.2022
1149 Clear 29 1015 76 10000 1.34 98 15:56 06.11.2022
1150 Clouds 27 1015 81 10000 3.13 80 14:45 06.11.2022
1151 Clouds 25 1013 85 10000 1.54 40 12:44 06.11.2022
1152 Clouds 25 1013 85 10000 2.68 90 10:52 06.11.2022
1153 Rain 25 1013 83 10000 2.24 90 09:51 06.11.2022
1154 Clouds 25 1014 85 10000 0.89 73 07:39 06.11.2022
1155 Clouds 27 1012 70 10000 4.12 100 23:23 05.11.2022
1156 Clouds 29 1013 65 10000 4.12 110 20:40 05.11.2022
1157 Clouds 29 1014 66 10000 5.81 90 18:22 05.11.2022
1158 Clouds 29 1014 66 10000 5.81 90 18:22 05.11.2022
1159 Clouds 28 1014 71 10000 5.36 90 16:26 05.11.2022
1160 Clouds 26 1014 77 10000 2.24 0 14:42 05.11.2022
1161 -273 0 0 0 0 0 13:32 05.11.2022
1162 Clear 24 1013 85 10000 5.87 79 10:54 05.11.2022
1163 Clear 24 1013 85 10000 0.89 50 08:55 05.11.2022
1164 Clouds 24 1014 80 10000 1.54 30 07:23 05.11.2022
1165 Clouds 25 1014 80 10000 0.45 128 06:54 05.11.2022
1166 Clouds 25 1015 76 10000 5.66 40 23:45 04.11.2022
1167 Clouds 26 1015 72 10000 5.66 40 23:18 04.11.2022
1168 Clouds 29 1015 60 10000 7.72 50 20:34 04.11.2022
1169 Clouds 29 1015 60 10000 7.72 50 20:33 04.11.2022
1170 Clouds 29 1015 60 10000 6.69 40 19:28 04.11.2022
1171 Clouds 29 1017 63 10000 5.66 40 17:24 04.11.2022
1172 Clear 23 1017 91 10000 0.45 347 13:53 04.11.2022
1173 Clouds 22 1017 94 10000 3.6 340 12:27 04.11.2022
1174 Clear 22 1017 91 10000 3.6 350 10:51 04.11.2022
1175 Clear 23 1016 88 10000 0.45 18 08:53 04.11.2022
1176 Clear 24 1017 86 10000 3.6 350 07:46 04.11.2022
1177 Clouds 25 1018 81 10000 3.09 10 05:24 04.11.2022
1178 Clouds 27 1018 75 10000 5.66 70 23:28 03.11.2022
1179 Clouds 30 1017 68 10000 5.81 70 20:51 03.11.2022
1180 Clouds 30 1017 68 10000 5.81 70 20:29 03.11.2022
1181 Clouds 30 1017 69 10000 5.81 60 19:40 03.11.2022
1182 Clouds 30 1019 69 10000 5.14 80 17:51 03.11.2022
1183 Clouds 29 1020 74 10000 0.45 304 16:53 03.11.2022
1184 Clouds 26 1020 86 10000 2.06 0 14:20 03.11.2022
1185 Clouds 25 1019 88 10000 1.54 30 13:19 03.11.2022
1186 Clouds 25 1018 90 10000 1.54 20 12:30 03.11.2022
1187 Clouds 25 1018 90 10000 5.36 70 09:43 03.11.2022
1188 Clouds 26 1019 87 10000 2.24 60 07:43 03.11.2022
1189 Clouds 30 1019 74 10000 6.26 90 21:30 02.11.2022
1190 Clouds 30 1019 71 10000 5.81 100 20:40 02.11.2022
1191 Clouds 30 1019 75 10000 1.79 82 19:59 02.11.2022
1192 Clouds 30 1021 74 10000 5.66 90 17:29 02.11.2022
1193 Clouds 30 1021 76 10000 5.66 90 16:19 02.11.2022
1194 Clouds 28 1021 84 10000 1.34 47 14:53 02.11.2022
1195 Clear 26 1020 91 10000 2.57 80 12:45 02.11.2022
1196 Clouds 26 1019 91 10000 3.13 90 11:50 02.11.2022
1197 Clouds 26 1019 89 10000 2.68 110 09:22 02.11.2022
1198 Clouds 27 1020 87 10000 5.36 90 05:36 02.11.2022
1199 Clear 28 1018 85 10000 4.47 100 00:28 02.11.2022
1200 Clouds 30 1017 76 10000 5.81 100 22:19 01.11.2022
1201 Clouds 30 1017 74 10000 5.14 130 21:41 01.11.2022
1202 Clouds 31 1017 72 10000 5.81 100 20:26 01.11.2022
1203 Clouds 31 1017 76 10000 1.79 97 19:54 01.11.2022
1204 Clouds 31 1017 74 10000 4.12 140 19:35 01.11.2022
1205 Clouds 30 1019 76 10000 5.36 110 17:33 01.11.2022
1206 Clouds 30 1019 79 10000 5.14 120 16:22 01.11.2022
1207 Clouds 28 1018 87 10000 3.13 120 14:29 01.11.2022
1208 Clouds 25 1017 93 10000 2.68 100 12:29 01.11.2022
1209 Clouds 25 1017 92 10000 2.24 100 11:24 01.11.2022
1210 Clear 26 1016 93 10000 2.99 122 10:57 01.11.2022
1211 Clouds 26 1016 91 10000 3.13 110 08:44 01.11.2022
1212 Clouds 26 1016 90 10000 3.13 90 07:31 01.11.2022
1213 Clouds 26 1016 89 10000 3.13 100 06:48 01.11.2022
1214 Clear 26 1017 90 10000 0.45 109 05:58 01.11.2022
1215 Clouds 27 1016 86 10000 4.12 100 03:38 01.11.2022
1216 Clear 29 1013 76 10000 1.34 90 21:59 31.10.2022
1217 Clear 30 1013 74 10000 1.34 132 20:53 31.10.2022
1218 Clouds 30 1014 73 10000 5.14 110 19:55 31.10.2022
1219 Clouds 30 1014 71 10000 5.36 120 18:28 31.10.2022
1220 Clouds 29 1016 74 10000 2.24 110 16:43 31.10.2022
1221 Clouds 25 1015 89 10000 1.54 90 13:49 31.10.2022
1222 Clear 25 1014 94 10000 4.39 105 11:54 31.10.2022
1223 Clouds 25 1013 91 10000 1.54 30 09:18 31.10.2022
1224 Clouds 25 1014 87 10000 2.24 70 05:34 31.10.2022
1225 Clouds 26 1014 84 10000 3.09 40 02:27 31.10.2022
1226 Clouds 27 1013 75 10000 5.66 70 23:19 30.10.2022
1227 Clouds 29 1013 70 10000 6.17 40 21:44 30.10.2022
1228 Clouds 29 1013 68 10000 4.12 50 20:37 30.10.2022
1229 Clouds 29 1015 67 10000 5.14 80 18:40 30.10.2022
1230 Clouds 29 1016 67 10000 5.66 70 16:18 30.10.2022
1231 Clouds 26 1016 73 10000 2.24 30 14:22 30.10.2022
1232 Clouds 24 1016 78 10000 2.24 10 13:21 30.10.2022
1233 Clouds 24 1015 77 10000 2.24 20 11:47 30.10.2022
1234 Clouds 25 1015 78 10000 3.6 70 09:38 30.10.2022
1235 Clouds 25 1015 77 10000 4.12 50 08:39 30.10.2022
1236 Clear 26 1017 77 10000 3.6 60 04:30 30.10.2022
1237 Clouds 27 1016 78 10000 7.72 60 00:28 30.10.2022
1238 Clouds 28 1016 75 10000 6.69 60 23:45 29.10.2022
1239 Clouds 29 1016 70 10000 5.81 70 21:28 29.10.2022
1240 Clouds 29 1018 70 10000 5.81 90 18:34 29.10.2022
1241 Clouds 29 1019 70 10000 5.14 60 17:21 29.10.2022
1242 Clouds 27 1019 77 10000 2.57 10 15:38 29.10.2022
1243 Clouds 25 1018 82 10000 3.09 340 14:48 29.10.2022
1244 Clouds 24 1017 80 10000 1.54 340 12:35 29.10.2022
1245 Clear 24 1017 80 10000 5.2 53 11:54 29.10.2022
1246 Clouds 25 1018 77 10000 2.24 30 07:38 29.10.2022
1247 Clouds 25 1019 78 10000 2.57 50 06:45 29.10.2022
1248 Clear 25 1019 78 10000 0.89 37 05:53 29.10.2022
1249 Clouds 28 1017 71 10000 5.66 70 23:43 28.10.2022
1250 Clear 29 1017 68 10000 1.79 76 20:56 28.10.2022
1251 Clouds 30 1018 65 10000 3.6 40 19:36 28.10.2022
1252 Clouds 29 1018 67 10000 7.2 110 18:32 28.10.2022
1253 Clouds 28 1018 69 10000 5.14 60 16:46 28.10.2022
1254 Clouds 24 1017 82 10000 0 0 14:46 28.10.2022
1255 Clouds 23 1017 79 10000 0 0 13:20 28.10.2022
1256 Clear 25 1014 78 10000 4.31 63 11:54 28.10.2022
1257 Clouds 24 1015 78 10000 0 0 11:31 28.10.2022
1258 Clouds 23 1016 79 10000 0 0 10:41 28.10.2022
1259 Clear 25 1016 71 10000 0 0 08:40 28.10.2022
1260 Clear 25 1016 77 10000 0.45 87 05:58 28.10.2022
1261 Clear 28 1014 70 10000 0.45 96 23:56 27.10.2022
1262 Clouds 28 1014 64 10000 6.17 70 23:34 27.10.2022
1263 Clouds 29 1013 60 10000 4.12 70 22:31 27.10.2022
1264 Clouds 30 1014 59 10000 3.09 50 20:47 27.10.2022
1265 Clouds 29 1015 62 10000 2.68 360 18:23 27.10.2022
1266 Clouds 28 1015 65 10000 0.45 205 16:36 27.10.2022
1267 Clear 21 1013 79 10000 0 0 11:35 27.10.2022
1268 Clear 23 1013 78 10000 0 0 07:34 27.10.2022
1269 Clouds 27 1012 62 10000 2.68 90 00:26 27.10.2022
1270 Clouds 28 1012 58 10000 3.13 260 23:52 26.10.2022
1271 Clouds 29 1012 55 10000 3.6 310 22:40 26.10.2022
1272 Clouds 29 1012 54 10000 3.13 320 21:23 26.10.2022
1273 Clouds 28 1014 55 10000 2.24 230 17:46 26.10.2022
1274 Clear 23 1014 91 10000 2.08 333 14:54 26.10.2022
1275 Clouds 21 1013 88 10000 0 0 13:33 26.10.2022
1276 Clouds 20 1013 87 10000 0 0 12:19 26.10.2022
1277 Clouds 22 1014 79 10000 2.06 310 09:19 26.10.2022
1278 Clear 20 1013 55 10000 2.05 27 08:53 26.10.2022
1279 Clear 26 1013 65 10000 0.89 25 00:54 26.10.2022
1280 Clear 26 1013 62 10000 5.36 50 00:35 26.10.2022
1281 Clouds 29 1013 59 10000 3.6 30 22:30 25.10.2022
1282 Clouds 29 1013 60 10000 5.14 10 21:45 25.10.2022
1283 Clouds 29 1014 59 10000 5.14 10 20:33 25.10.2022
1284 Clouds 29 1014 59 10000 5.14 10 20:33 25.10.2022
1285 Clear 29 1015 61 10000 1.79 43 18:56 25.10.2022
1286 Clear 27 1016 67 10000 2.24 32 16:56 25.10.2022
1287 Clouds 23 1014 79 10000 0 0 11:46 25.10.2022
1288 Clear 24 1013 77 10000 3.14 57 10:56 25.10.2022
1289 Clouds 23 1014 77 10000 1.54 350 10:34 25.10.2022
1290 Clouds 24 1015 74 10000 4.63 80 08:38 25.10.2022
1291 Clouds 24 1015 74 10000 4.63 80 08:18 25.10.2022
1292 Clear 24 1015 75 10000 0.89 52 07:53 25.10.2022
1293 Clouds 24 1016 74 10000 2.06 60 06:48 25.10.2022
1294 Clouds 25 1017 73 10000 2.68 30 03:32 25.10.2022
1295 Clouds 26 1016 72 10000 5.66 60 00:32 25.10.2022
1296 Clouds 28 1016 65 10000 4.12 60 22:28 24.10.2022
1297 Clouds 29 1016 64 10000 5.14 70 21:50 24.10.2022
1298 Clouds 29 1016 65 10000 5.14 70 21:31 24.10.2022
1299 Clouds 28 1016 69 10000 4.12 60 20:29 24.10.2022
1300 Clouds 27 1018 77 10000 6.71 90 18:45 24.10.2022
1301 Clouds 27 1019 76 10000 0.89 75 16:58 24.10.2022
1302 Clouds 25 1018 78 10000 2.06 10 15:34 24.10.2022
1303 Clouds 23 1018 84 10000 2.06 360 14:20 24.10.2022
1304 Clouds 22 1017 84 10000 2.57 350 12:37 24.10.2022
1305 Clouds 23 1017 78 10000 2.24 340 09:28 24.10.2022
1306 Clouds 24 1018 75 10000 0 0 07:51 24.10.2022
1307 Clouds 28 1016 60 10000 6.69 40 22:40 23.10.2022
1308 Clouds 29 1017 60 10000 5.66 70 20:39 23.10.2022
1309 Clouds 29 1018 61 10000 5.66 80 19:27 23.10.2022
1310 Clouds 28 1019 64 10000 4.63 340 17:30 23.10.2022
1311 Clouds 26 1019 73 10000 3.09 360 16:19 23.10.2022
1312 Clear 22 1017 89 10000 3.38 19 14:58 23.10.2022
1313 Clear 20 1016 60 10000 2.99 359 11:56 23.10.2022
1314 Clear 20 1016 88 10000 2.06 350 10:52 23.10.2022
1315 Clouds 23 1017 67 10000 3.09 350 06:27 23.10.2022
1316 Clear 28 1015 59 10000 6.17 30 23:26 22.10.2022
1317 Clouds 28 1015 60 10000 5.66 50 22:30 22.10.2022
1318 Clouds 28 1015 59 10000 5.14 50 21:40 22.10.2022
1319 Clouds 29 1015 58 10000 5.66 20 20:25 22.10.2022
1320 Clouds 28 1016 59 10000 4.63 50 19:31 22.10.2022
1321 Clouds 27 1017 66 10000 4.12 350 17:41 22.10.2022
1322 Clouds 26 1017 69 10000 4.63 350 16:50 22.10.2022
1323 Clouds 22 1016 81 10000 3.6 330 15:18 22.10.2022
1324 Clear 20 1016 86 10000 3.13 340 14:31 22.10.2022
1325 Clear 19 1014 88 10000 3.6 340 11:35 22.10.2022
1326 Clouds 20 1014 83 10000 4.12 340 09:46 22.10.2022
1327 Clouds 20 1015 80 10000 3.6 340 08:37 22.10.2022
1328 Clouds 21 1016 76 10000 5.14 340 06:19 22.10.2022
1329 Clouds 24 1014 78 10000 1.34 30 00:55 22.10.2022
1330 Clouds 26 1013 70 10000 4.63 20 22:52 21.10.2022
1331 Clouds 27 1013 69 10000 5.14 350 21:33 21.10.2022
1332 Clouds 27 1014 67 10000 6.26 310 20:27 21.10.2022
1333 Clouds 26 1015 67 10000 5.66 340 18:28 21.10.2022
1334 Clouds 20 1015 81 10000 5.14 340 14:46 21.10.2022
1335 Clouds 19 1014 81 10000 5.66 330 13:40 21.10.2022
1336 Clouds 20 1013 80 10000 6.69 330 11:47 21.10.2022
1337 Clouds 20 1013 79 10000 8.23 340 10:24 21.10.2022
1338 Clouds 20 1013 78 10000 6.17 340 08:51 21.10.2022
1339 Clouds 20 1013 77 10000 6.17 340 08:21 21.10.2022
1340 Clouds 22 1014 80 10000 6.69 330 04:50 21.10.2022
1341 Clouds 26 1012 72 10000 5.66 270 23:25 20.10.2022
1342 Clouds 27 1013 70 10000 2.24 0 21:21 20.10.2022
1343 Clouds 26 1014 70 10000 3.13 310 19:44 20.10.2022
1344 Clouds 25 1015 69 10000 2.57 310 18:49 20.10.2022
1345 Clouds 24 1015 72 10000 3.6 330 17:43 20.10.2022
1346 Clouds 19 1016 82 10000 3.6 340 15:24 20.10.2022
1347 Clouds 18 1015 85 10000 3.6 340 12:33 20.10.2022
1348 Clouds 17 1015 85 10000 3.6 310 11:34 20.10.2022
1349 Clouds 17 1014 88 10000 4.12 340 10:52 20.10.2022
1350 Clouds 17 1015 88 10000 3.6 320 09:30 20.10.2022
1351 Clouds 18 1016 82 10000 4.12 300 07:23 20.10.2022
1352 Clouds 17 1016 88 10000 4.12 350 02:23 20.10.2022
1353 Rain 17 1014 95 9656 3.6 360 23:41 19.10.2022
1354 Mist 17 1015 92 3219 4.12 310 22:25 19.10.2022
1355 Clouds 17 1014 90 10000 4.63 340 21:27 19.10.2022
1356 Clouds 19 1015 84 10000 4.12 330 20:19 19.10.2022
1357 Clouds 21 1016 70 10000 6.69 320 17:52 19.10.2022
1358 Clouds 21 1015 70 10000 5.14 340 16:28 19.10.2022
1359 Clouds 21 1013 74 10000 5.14 340 14:34 19.10.2022
1360 Clouds 22 1012 70 10000 6.17 330 12:21 19.10.2022
1361 Clouds 24 1011 89 10000 3.13 250 08:52 19.10.2022
1362 Clouds 25 1011 90 10000 2.68 250 07:24 19.10.2022
1363 Clouds 27 1009 81 10000 4.63 270 01:33 19.10.2022
1364 Clouds 28 1009 77 10000 6.17 290 23:45 18.10.2022
1365 Thunderstorm 29 1009 72 10000 5.81 260 21:49 18.10.2022
1366 Thunderstorm 29 1009 72 10000 5.81 260 21:31 18.10.2022
1367 Thunderstorm 30 1010 70 10000 5.66 270 20:27 18.10.2022
1368 Clouds 31 1011 68 10000 1.79 281 18:59 18.10.2022
1369 Clouds 29 1011 76 10000 4.12 290 16:57 18.10.2022
1370 Clouds 26 1011 89 10000 3.13 270 15:23 18.10.2022
1371 Clear 24 1010 95 10000 2.57 280 13:39 18.10.2022
1372 Clear 25 1009 93 10000 2.24 240 11:47 18.10.2022
1373 Clouds 25 1009 93 10000 4.12 250 10:29 18.10.2022
1374 Clouds 25 1009 91 10000 2.57 230 09:26 18.10.2022
1375 Clouds 25 1011 90 10000 2.06 170 06:38 18.10.2022
1376 Clouds 28 1010 77 10000 6.17 190 23:40 17.10.2022
1377 Clouds 30 1011 72 10000 5.36 140 21:31 17.10.2022
1378 Clouds 30 1012 70 10000 5.14 180 20:49 17.10.2022
1379 Clouds 30 1012 70 10000 5.14 180 20:29 17.10.2022
1380 Clouds 30 1013 68 10000 4.63 140 19:41 17.10.2022
1381 Clouds 30 1014 69 10000 5.36 120 17:49 17.10.2022
1382 Clear 29 1014 74 10000 1.79 172 15:55 17.10.2022
1383 Clouds 28 1014 76 10000 3.09 130 15:20 17.10.2022
1384 Clouds 26 1013 81 10000 2.24 100 12:52 17.10.2022
1385 Clear 26 1014 79 10000 0.89 101 08:59 17.10.2022
1386 Clear 27 1014 77 10000 4.02 60 02:37 17.10.2022
1387 Clouds 29 1014 70 10000 2.24 66 22:54 16.10.2022
1388 Clouds 29 1014 70 10000 2.24 66 22:54 16.10.2022
1389 Clouds 30 1014 68 10000 6.69 100 21:22 16.10.2022
1390 Clouds 30 1014 68 10000 6.69 100 21:22 16.10.2022
1391 Clouds 30 1015 69 10000 6.71 80 19:52 16.10.2022
1392 Clouds 30 1015 70 10000 6.71 80 19:33 16.10.2022
1393 Clouds 29 1017 75 10000 6.69 50 17:46 16.10.2022
1394 Clouds 29 1017 76 10000 7.2 70 16:32 16.10.2022
1395 Clouds 28 1017 80 10000 1.79 59 15:55 16.10.2022
1396 Clouds 26 1015 85 10000 3.6 50 12:34 16.10.2022
1397 Clouds 26 1015 84 10000 2.57 60 11:41 16.10.2022
1398 Clouds 26 1015 84 10000 3.09 40 10:26 16.10.2022
1399 Clouds 27 1016 79 10000 3.09 70 07:38 16.10.2022
1400 Clouds 28 1015 79 10000 4.63 60 23:43 15.10.2022
1401 Clouds 29 1015 77 10000 1.34 141 21:58 15.10.2022
1402 Clouds 29 1015 74 10000 5.36 80 21:20 15.10.2022
1403 Clouds 29 1016 75 10000 7.2 50 19:34 15.10.2022
1404 Clouds 28 1017 78 10000 6.26 80 17:24 15.10.2022
1405 Clouds 28 1016 85 10000 2.57 360 15:45 15.10.2022
1406 Clouds 25 1015 91 10000 1.54 350 13:37 15.10.2022
1407 Clouds 25 1014 90 10000 1.54 360 11:51 15.10.2022
1408 Clouds 25 1014 94 10000 2.78 80 09:57 15.10.2022
1409 Clouds 26 1014 91 10000 3.37 75 07:55 15.10.2022
1410 Clouds 27 1012 85 10000 2.06 110 00:41 15.10.2022
1411 Clouds 27 1012 85 10000 3.6 160 22:59 14.10.2022
1412 Clouds 28 1012 82 10000 4.63 130 22:22 14.10.2022
1413 Thunderstorm 29 1012 76 6437 7.2 40 21:24 14.10.2022
1414 Clouds 29 1013 75 10000 2.06 10 19:22 14.10.2022
1415 Clouds 27 1013 86 10000 2.68 300 16:19 14.10.2022
1416 Clear 24 1012 98 10000 2.06 280 13:21 14.10.2022
1417 Clouds 24 1011 97 10000 0.45 335 11:36 14.10.2022
1418 Clouds 24 1011 97 10000 0.19 93 08:59 14.10.2022
1419 Clouds 24 1012 97 10000 0.89 309 06:53 14.10.2022
1420 Clouds 24 1012 96 10000 3.6 320 06:18 14.10.2022
1421 Clear 24 1012 97 10000 0 0 05:42 14.10.2022
1422 Clouds 24 1012 97 10000 3.09 210 03:24 14.10.2022
1423 Rain 24 1011 95 10000 2.57 70 23:43 13.10.2022
1424 Rain 25 1011 91 10000 4.12 40 21:57 13.10.2022
1425 Thunderstorm 24 1012 91 1609 4.63 20 21:21 13.10.2022
1426 Clouds 28 1011 76 10000 6.17 80 19:43 13.10.2022
1427 Clouds 30 1011 78 1609 2.68 153 18:53 13.10.2022
1428 Clouds 30 1012 76 10000 4.12 170 18:21 13.10.2022
1429 Clouds 30 1012 76 10000 4.12 170 18:21 13.10.2022
1430 Clouds 30 1013 78 10000 4.63 170 16:28 13.10.2022
1431 Clouds 29 1012 81 10000 5.14 190 15:41 13.10.2022
1432 Clouds 27 1012 88 10000 1.54 170 14:18 13.10.2022
1433 Clouds 27 1012 88 10000 3.13 160 12:44 13.10.2022
1434 Clouds 27 1012 89 10000 2.68 170 11:28 13.10.2022
1435 Clouds 27 1013 88 10000 3.13 160 09:21 13.10.2022
1436 Clouds 27 1015 89 10000 3.6 150 07:39 13.10.2022
1437 Clouds 27 1015 88 10000 1.54 140 06:28 13.10.2022
1438 Clouds 28 1015 83 10000 4.63 90 01:46 13.10.2022
1439 Clouds 29 1015 81 10000 4.63 100 00:41 13.10.2022
1440 Clouds 30 1014 74 10000 5.36 90 22:45 12.10.2022
1441 Clouds 31 1015 73 10000 5.81 130 21:51 12.10.2022
1442 Clouds 31 1015 73 10000 5.81 130 21:51 12.10.2022
1443 Clouds 31 1015 72 10000 5.81 130 21:20 12.10.2022
1444 Clouds 32 1016 69 10000 6.26 120 20:39 12.10.2022
1445 Clouds 31 1017 70 10000 5.36 120 19:24 12.10.2022
1446 Clouds 31 1018 72 10000 5.81 110 18:19 12.10.2022
1447 Clouds 31 1019 75 10000 5.81 110 17:43 12.10.2022
1448 Clouds 28 1018 84 10000 3.13 90 14:51 12.10.2022
1449 Clouds 27 1017 89 10000 0.45 58 13:54 12.10.2022
1450 Clouds 27 1017 88 10000 3.13 90 12:31 12.10.2022
1451 Clouds 27 1017 87 10000 3.13 80 09:37 12.10.2022
1452 Clouds 27 1018 88 10000 4.63 70 07:42 12.10.2022
1453 Clouds 27 1019 87 10000 2.57 60 06:44 12.10.2022
1454 Clear 27 1019 86 10000 2.57 80 05:33 12.10.2022
1455 Clear 29 1017 79 10000 4.63 90 00:38 12.10.2022
1456 Clouds 31 1018 72 10000 5.81 80 21:26 11.10.2022
1457 Clouds 31 1018 71 10000 5.14 100 20:36 11.10.2022
1458 Clouds 31 1020 73 10000 5.36 100 18:28 11.10.2022
1459 Clouds 30 1020 78 10000 5.66 100 16:33 11.10.2022
1460 Clouds 26 1018 91 10000 0.45 70 13:59 11.10.2022
1461 Clouds 27 1017 86 10000 0.45 85 11:45 11.10.2022
1462 Clouds 27 1017 86 10000 1.54 60 10:28 11.10.2022
1463 Clouds 27 1017 86 10000 1.54 30 09:25 11.10.2022
1464 Clouds 27 1019 86 10000 3.13 70 05:26 11.10.2022
1465 Clouds 28 1017 86 10000 0.45 89 01:55 11.10.2022
1466 Clouds 29 1016 78 10000 4.63 120 00:24 11.10.2022
1467 Clouds 31 1017 71 10000 2.57 110 21:23 10.10.2022
1468 Clouds 31 1017 70 10000 3.13 100 19:45 10.10.2022
1469 Clouds 31 1018 71 10000 5.36 110 18:25 10.10.2022
1470 Clouds 30 1018 78 10000 3.13 70 16:43 10.10.2022
1471 Clouds 26 1017 94 10000 0 0 14:48 10.10.2022
1472 Mist 25 1016 95 10000 1.54 20 12:38 10.10.2022
1473 Mist 25 1016 94 10000 0 0 11:18 10.10.2022
1474 Clouds 26 1017 94 10000 2.24 50 07:47 10.10.2022
1475 Clouds 26 1017 93 10000 0 0 05:41 10.10.2022
1476 Clouds 25 1017 94 10000 0.45 43 02:53 10.10.2022
1477 Clouds 26 1016 92 10000 2.68 10 00:26 10.10.2022
1478 Clouds 26 1016 91 10000 2.06 340 22:27 09.10.2022
1479 Clouds 25 1016 94 10000 1.54 360 21:54 09.10.2022
1480 Thunderstorm 24 1017 97 8047 1.54 150 21:19 09.10.2022
1481 Thunderstorm 24 1018 100 2414 3.6 350 19:54 09.10.2022
1482 Rain 26 1017 91 1207 4.12 20 19:32 09.10.2022
1483 Rain 28 1017 85 10000 4.63 360 18:39 09.10.2022
1484 Clouds 27 1018 90 10000 3.6 50 16:56 09.10.2022
1485 Clouds 27 1017 91 10000 3.6 50 16:32 09.10.2022
1486 Clouds 27 1017 90 10000 2.06 20 15:37 09.10.2022
1487 Clouds 26 1016 92 10000 2.57 20 14:29 09.10.2022
1488 Clouds 25 1016 95 10000 4.93 69 12:59 09.10.2022
1489 Clouds 25 1015 93 10000 2.57 20 11:50 09.10.2022
1490 Clouds 25 1015 94 10000 2.24 20 10:48 09.10.2022
1491 Clouds 25 1016 91 10000 3.09 80 08:29 09.10.2022
1492 Clouds 27 1017 82 10000 5.66 50 03:37 09.10.2022
1493 Clouds 27 1016 83 10000 5.14 60 02:39 09.10.2022
1494 Clouds 27 1015 83 10000 6.69 50 00:26 09.10.2022
1495 Clouds 28 1015 81 10000 6.17 50 22:53 08.10.2022
1496 Clouds 28 1015 82 10000 6.69 70 21:48 08.10.2022
1497 Clouds 28 1016 86 10000 5.14 60 20:26 08.10.2022
1498 Clouds 27 1017 86 10000 7.72 70 18:37 08.10.2022
1499 Clouds 26 1018 86 10000 3.13 360 16:18 08.10.2022
1500 Clouds 24 1017 86 10000 0.45 342 14:54 08.10.2022
1501 Clouds 24 1017 85 10000 3.6 330 13:25 08.10.2022
1502 Clouds 23 1017 79 10000 3.09 340 10:39 08.10.2022
1503 Clouds 23 1017 77 10000 3.09 340 10:21 08.10.2022
1504 Clouds 24 1018 72 10000 3.09 350 08:48 08.10.2022
1505 Clear 25 1018 70 10000 3.13 30 03:53 08.10.2022
1506 Clouds 27 1017 66 10000 4.63 70 00:37 08.10.2022
1507 Clouds 28 1017 64 10000 4.63 60 23:21 07.10.2022
1508 Clouds 28 1017 64 10000 6.26 70 22:49 07.10.2022
1509 Clouds 29 1017 62 10000 6.26 70 21:29 07.10.2022
1510 Clouds 30 1019 60 10000 5.66 60 19:34 07.10.2022
1511 Clouds 29 1020 59 10000 3.09 50 17:48 07.10.2022
1512 Clouds 28 1020 60 10000 3.09 10 16:41 07.10.2022
1513 Clear 25 1019 75 10000 0.89 12 14:59 07.10.2022
1514 Clouds 23 1018 80 10000 2.57 360 13:23 07.10.2022
1515 Clouds 24 1018 79 10000 3.09 360 10:29 07.10.2022
1516 Clouds 24 1018 79 10000 2.06 10 09:24 07.10.2022
1517 Clouds 25 1018 78 10000 1.54 10 08:19 07.10.2022
1518 Clouds 26 1017 73 10000 3.6 60 02:26 07.10.2022
1519 Clouds 28 1016 68 10000 5.81 50 22:52 06.10.2022
1520 Clouds 29 1016 66 10000 5.66 80 21:50 06.10.2022
1521 Clouds 29 1016 67 10000 5.66 80 21:29 06.10.2022
1522 Clouds 28 1016 67 10000 6.17 90 20:36 06.10.2022
1523 Clouds 29 1018 65 10000 4.63 50 18:46 06.10.2022
1524 Clouds 29 1018 65 10000 4.63 50 18:20 06.10.2022
1525 Clouds 26 1018 76 10000 3.6 20 15:36 06.10.2022
1526 Clouds 24 1016 76 10000 2.57 360 12:49 06.10.2022
1527 Clouds 24 1016 77 10000 1.54 10 08:22 06.10.2022
1528 Clouds 26 1017 73 10000 2.24 0 04:32 06.10.2022
1529 Clouds 27 1015 69 10000 3.13 0 00:44 06.10.2022
1530 Clouds 28 1014 66 10000 5.36 70 21:52 05.10.2022
1531 Clouds 29 1015 61 10000 2.57 350 19:31 05.10.2022
1532 Clouds 29 1016 62 10000 3.6 30 17:37 05.10.2022
1533 Clouds 28 1016 70 10000 3.6 360 16:24 05.10.2022
1534 Clear 24 1015 87 10000 0.45 19 14:55 05.10.2022
1535 Clouds 23 1015 89 10000 2.68 340 14:20 05.10.2022
1536 Clouds 23 1014 89 10000 2.57 340 12:28 05.10.2022
1537 Clear 23 1014 87 10000 2.68 30 10:48 05.10.2022
1538 Clouds 23 1014 87 10000 3.09 360 08:19 05.10.2022
1539 Clear 24 1014 82 10000 3.09 10 06:24 05.10.2022
1540 Clouds 25 1014 75 10000 3.09 360 05:27 05.10.2022
1541 Clouds 26 1013 69 10000 3.6 40 02:20 05.10.2022
1542 Clouds 27 1013 68 10000 4.63 60 00:28 05.10.2022
1543 Clouds 27 1013 68 10000 4.63 60 00:28 05.10.2022
1544 Clouds 28 1012 69 10000 2.24 55 22:54 04.10.2022
1545 Clouds 29 1013 59 10000 3.6 320 20:44 04.10.2022
1546 Clouds 29 1013 60 10000 2.57 350 19:47 04.10.2022
1547 Clouds 29 1014 60 10000 3.09 10 18:40 04.10.2022
1548 Clouds 29 1015 64 10000 4.63 360 17:51 04.10.2022
1549 Clouds 27 1014 70 10000 4.63 20 16:50 04.10.2022
1550 Clouds 23 1014 87 10000 0.45 353 13:59 04.10.2022
1551 Clouds 24 1012 81 10000 3.09 340 09:52 04.10.2022
1552 Clear 25 1013 78 10000 2.57 330 07:34 04.10.2022
1553 Clouds 26 1014 77 10000 2.06 50 04:42 04.10.2022
1554 Clouds 29 1012 61 10000 3.6 130 23:48 03.10.2022
1555 Clouds 30 1012 57 10000 3.09 360 22:19 03.10.2022
1556 Clouds 31 1012 55 10000 3.6 300 21:23 03.10.2022
1557 Clouds 31 1013 52 10000 4.12 310 20:32 03.10.2022
1558 Clouds 30 1014 51 10000 4.12 310 18:47 03.10.2022
1559 Clouds 29 1014 56 10000 4.63 320 17:30 03.10.2022
1560 Clouds 26 1014 71 10000 3.09 290 15:51 03.10.2022
1561 Clouds 23 1014 83 10000 2.68 290 14:22 03.10.2022
1562 Clouds 22 1013 82 10000 2.57 300 12:34 03.10.2022
1563 Clouds 23 1012 81 10000 4.12 320 10:53 03.10.2022
1564 Clouds 23 1012 84 10000 3.09 300 09:46 03.10.2022
1565 Clouds 24 1013 81 10000 3.6 290 08:43 03.10.2022
1566 Clouds 26 1013 67 10000 1.54 30 03:52 03.10.2022
1567 Clouds 29 1011 62 10000 1.34 346 22:56 02.10.2022
1568 Clouds 29 1012 57 10000 5.66 350 21:38 02.10.2022
1569 Clouds 29 1013 61 10000 4.63 340 19:47 02.10.2022
1570 Clouds 27 1014 72 10000 1.79 36 17:55 02.10.2022
1571 Clouds 26 1013 80 10000 3.09 340 16:51 02.10.2022
1572 Clouds 25 1013 83 10000 3.09 340 16:30 02.10.2022
1573 Clouds 24 1013 94 10000 1.34 312 14:57 02.10.2022
1574 Clouds 24 1012 94 10000 3.6 310 13:46 02.10.2022
1575 Mist 24 1011 92 10000 2.24 320 12:39 02.10.2022
1576 Clouds 24 1010 91 10000 2.57 30 11:43 02.10.2022
1577 Clouds 24 1010 91 10000 2.57 30 11:23 02.10.2022
1578 Clouds 24 1010 92 10000 2.24 0 09:49 02.10.2022
1579 Clouds 24 1011 93 10000 3.09 10 08:27 02.10.2022
1580 Clouds 25 1012 89 10000 2.24 60 05:19 02.10.2022
1581 Clouds 27 1010 79 10000 0.89 5 00:57 02.10.2022
1582 Clouds 27 1010 78 10000 4.12 70 00:37 02.10.2022
1583 Clouds 27 1009 79 10000 3.6 70 23:24 01.10.2022
1584 Clouds 28 1010 75 10000 4.63 90 21:39 01.10.2022
1585 Clouds 28 1011 74 10000 1.34 55 18:54 01.10.2022
1586 Clouds 28 1011 72 10000 3.09 340 17:28 01.10.2022
1587 Clouds 24 1010 89 10000 3.6 320 14:50 01.10.2022
1588 Clouds 23 1009 90 10000 2.06 360 13:44 01.10.2022
1589 Clear 23 1009 86 10000 3.09 330 12:34 01.10.2022
1590 Clear 23 1010 85 10000 2.57 340 11:22 01.10.2022
1591 Clear 23 1008 87 10000 2.06 330 10:47 01.10.2022
1592 Clear 23 1008 88 10000 2.06 330 10:26 01.10.2022
1593 Clouds 24 1008 86 10000 2.06 350 09:21 01.10.2022
1594 Clouds 24 1009 88 10000 2.06 350 08:26 01.10.2022
1595 Clouds 24 1009 84 10000 2.57 100 03:42 01.10.2022
1596 Clouds 25 1008 83 10000 2.57 110 02:37 01.10.2022
1597 Clouds 28 1007 71 10000 4.12 130 23:21 30.09.2022
1598 Clouds 28 1007 69 10000 1.79 112 21:58 30.09.2022
1599 Clouds 29 1007 66 10000 1.34 114 20:53 30.09.2022
1600 Clouds 28 1008 64 10000 3.09 300 20:20 30.09.2022
1601 Clear 27 1009 66 10000 3.6 280 18:28 30.09.2022
1602 Clouds 24 1009 72 10000 4.12 340 16:32 30.09.2022
1603 Clouds 21 1008 85 10000 4.63 330 14:24 30.09.2022
1604 Clouds 20 1008 87 10000 4.12 320 12:50 30.09.2022
1605 Clear 20 1008 88 10000 1.79 315 11:56 30.09.2022
1606 Clear 21 1007 85 10000 5.14 310 09:24 30.09.2022
1607 Clouds 22 1007 84 10000 4.12 330 07:50 30.09.2022
1608 Clouds 26 1007 75 10000 3.13 320 03:19 30.09.2022
1609 Clouds 28 1006 74 10000 4.63 310 01:44 30.09.2022
1610 Clouds 30 1005 70 10000 7.72 270 21:40 29.09.2022
1611 Clouds 30 1005 70 10000 7.72 270 21:19 29.09.2022
1612 Clouds 29 1006 74 10000 4.02 260 19:56 29.09.2022
1613 Clouds 28 1007 75 10000 8.75 250 17:49 29.09.2022
1614 Clouds 26 1007 83 10000 9.77 260 16:29 29.09.2022
1615 Clouds 26 1006 83 10000 6.69 250 15:37 29.09.2022
1616 Clouds 26 1006 86 10000 2.68 252 14:59 29.09.2022
1617 Clouds 25 1005 87 10000 7.72 220 12:39 29.09.2022
1618 Clouds 26 1005 86 10000 7.72 220 08:45 29.09.2022
1619 Clouds 26 1005 84 10000 8.23 210 04:46 29.09.2022
1620 Clouds 27 1004 85 10000 8.75 200 02:36 29.09.2022
1621 Rain 27 1003 86 10000 10.29 200 23:21 28.09.2022
1622 Clouds 29 1004 80 10000 14.4 190 21:32 28.09.2022
1623 Clouds 28 1004 82 10000 9.77 180 20:51 28.09.2022
1624 Clouds 28 1005 87 10000 9.26 180 19:56 28.09.2022
1625 Clouds 29 1006 83 10000 12.35 180 16:35 28.09.2022
1626 Clouds 27 1005 87 10000 11.83 160 13:28 28.09.2022
1627 Clouds 27 1005 89 10000 11.32 170 11:45 28.09.2022
1628 Clouds 27 1006 90 10000 10.8 150 09:37 28.09.2022
1629 Clouds 28 1007 89 10000 11.32 110 07:43 28.09.2022
1630 Clouds 27 1008 90 10000 10.29 110 05:37 28.09.2022
1631 Thunderstorm 26 1007 92 10000 6.26 100 01:44 28.09.2022
1632 Mist 27 1007 91 1207 10.29 120 00:36 28.09.2022
1633 Clouds 27 1008 92 10000 7.72 110 22:40 27.09.2022
1634 Clouds 27 1009 91 10000 7.2 100 21:20 27.09.2022
1635 Clouds 26 1010 94 10000 6.26 110 20:34 27.09.2022
1636 Fog 25 1011 97 10000 10.8 150 19:40 27.09.2022
1637 Rain 25 1012 95 6437 4.63 80 17:47 27.09.2022
1638 Rain 24 1012 95 4828 4.63 100 16:56 27.09.2022
1639 Rain 24 1011 95 8047 4.12 90 15:18 27.09.2022
1640 Rain 24 1011 95 9656 4.63 90 14:21 27.09.2022
1641 Rain 25 1011 93 10000 2.57 60 12:39 27.09.2022
1642 Rain 25 1011 93 10000 2.57 60 12:39 27.09.2022
1643 Rain 25 1010 95 10000 3.13 70 10:45 27.09.2022
1644 Clouds 24 1011 96 10000 2.68 30 08:36 27.09.2022
1645 Rain 24 1014 97 9656 4.12 60 05:22 27.09.2022
1646 Mist 24 1011 95 6437 4.12 10 01:40 27.09.2022
1647 Thunderstorm 24 1011 91 10000 2.57 330 00:28 27.09.2022
1648 Thunderstorm 24 1012 94 6437 4.12 120 23:24 26.09.2022
1649 Clouds 29 1010 83 10000 1.54 160 21:37 26.09.2022
1650 Clouds 28 1011 85 10000 8.23 130 20:26 26.09.2022
1651 Rain 30 1012 74 10000 4.63 160 19:21 26.09.2022
1652 Clouds 31 1012 75 10000 4.63 120 17:27 26.09.2022
1653 Clouds 29 1011 84 10000 2.06 70 15:44 26.09.2022
1654 Clear 26 1010 89 10000 2.06 360 12:42 26.09.2022
1655 Clouds 27 1010 87 10000 0 0 11:28 26.09.2022
1656 Clouds 27 1010 86 10000 3.6 130 10:36 26.09.2022
1657 Clouds 27 1010 86 10000 3.6 130 10:18 26.09.2022
1658 Clouds 27 1011 86 10000 2.06 140 09:52 26.09.2022
1659 Clouds 28 1011 84 10000 2.06 140 09:22 26.09.2022
1660 Clouds 28 1012 84 10000 1.54 110 05:50 26.09.2022
1661 Clouds 28 1011 83 10000 4.12 100 02:35 26.09.2022
1662 Clouds 30 1011 76 10000 5.66 100 23:26 25.09.2022
1663 Clouds 31 1010 70 10000 4.63 90 21:48 25.09.2022
1664 Clouds 32 1011 69 10000 4.63 90 21:25 25.09.2022
1665 Clouds 32 1011 66 10000 4.12 110 20:37 25.09.2022
1666 Clouds 32 1012 64 10000 3.09 0 19:25 25.09.2022
1667 Clouds 32 1013 64 10000 3.13 120 18:29 25.09.2022
1668 Clouds 32 1013 64 10000 3.13 120 18:29 25.09.2022
1669 Clouds 31 1013 66 10000 2.24 0 17:29 25.09.2022
1670 Clouds 30 1012 74 10000 0.45 123 16:21 25.09.2022
1671 Clouds 27 1012 93 10000 0.45 303 14:55 25.09.2022
1672 Clouds 26 1012 94 10000 1.54 50 14:19 25.09.2022
1673 Clouds 26 1010 91 10000 2.06 128 11:53 25.09.2022
1674 Clouds 26 1012 93 10000 1.54 350 09:48 25.09.2022
1675 Clouds 27 1013 87 10000 1.54 340 07:45 25.09.2022
1676 Clouds 27 1014 87 10000 0 0 05:29 25.09.2022
1677 Clouds 28 1012 81 10000 2.57 110 23:37 24.09.2022
1678 Thunderstorm 29 1013 75 10000 1.54 0 22:34 24.09.2022
1679 Thunderstorm 30 1014 74 10000 3.09 170 20:36 24.09.2022
1680 Thunderstorm 31 1014 72 9656 4.63 140 19:20 24.09.2022
1681 Clear 31 1015 73 10000 2.68 65 16:58 24.09.2022
1682 Clear 30 1015 77 10000 0.45 43 15:54 24.09.2022
1683 Clouds 28 1014 80 10000 2.24 360 15:18 24.09.2022
1684 Clouds 26 1014 85 10000 1.54 360 13:23 24.09.2022
1685 Clouds 26 1014 82 10000 1.54 350 12:40 24.09.2022
1686 Clouds 26 1014 83 10000 1.54 330 10:18 24.09.2022
1687 Clouds 27 1014 80 10000 1.54 330 09:22 24.09.2022
1688 Clouds 27 1014 80 10000 1.54 310 08:42 24.09.2022
1689 Clear 28 1015 76 10000 0.89 95 04:58 24.09.2022
1690 Clouds 28 1014 73 10000 3.13 110 04:27 24.09.2022
1691 Clouds 32 1012 58 10000 5.81 70 23:25 23.09.2022
1692 Clouds 33 1012 55 10000 3.6 50 21:41 23.09.2022
1693 Clouds 33 1013 56 10000 3.6 50 21:22 23.09.2022
1694 Clear 33 1013 59 10000 1.34 87 20:54 23.09.2022
1695 Clouds 33 1013 56 10000 2.68 50 19:20 23.09.2022
1696 Clouds 32 1014 60 10000 4.63 340 17:50 23.09.2022
1697 Clear 25 1012 90 10000 0 0 13:40 23.09.2022
1698 Clear 26 1011 81 10000 2.57 340 10:24 23.09.2022
1699 Clear 26 1012 87 10000 1.54 340 07:43 23.09.2022
1700 Clouds 27 1010 86 10000 0 0 02:32 23.09.2022
1701 Clouds 29 1009 79 10000 6.17 90 23:29 22.09.2022
1702 Clouds 31 1009 69 10000 4.12 310 22:28 22.09.2022
1703 Clouds 32 1009 66 10000 3.13 0 21:35 22.09.2022
1704 Clouds 32 1010 62 10000 4.12 280 20:25 22.09.2022
1705 Clear 32 1010 64 10000 1.34 298 18:58 22.09.2022
1706 Clouds 28 1011 82 10000 3.09 330 15:39 22.09.2022
1707 Clouds 25 1009 91 10000 2.06 320 10:51 22.09.2022
1708 Clouds 26 1009 89 10000 2.06 320 10:19 22.09.2022
1709 Clouds 26 1010 88 10000 2.57 330 08:20 22.09.2022
1710 Clouds 27 1011 83 10000 1.54 320 05:22 22.09.2022
1711 Clouds 28 1009 81 10000 3.6 60 01:19 22.09.2022
1712 Rain 29 1010 77 10000 6.17 40 22:29 21.09.2022
1713 Thunderstorm 30 1010 73 10000 4.02 60 21:24 21.09.2022
1714 Clouds 32 1011 68 10000 4.12 350 19:22 21.09.2022
1715 Clouds 31 1012 73 10000 3.6 20 17:45 21.09.2022
1716 Clouds 29 1012 79 10000 2.68 340 15:47 21.09.2022
1717 Clouds 26 1011 94 10000 3.24 33 13:56 21.09.2022
1718 Clouds 26 1011 89 10000 3.09 320 11:44 21.09.2022
1719 Clouds 26 1010 92 10000 3.09 320 11:21 21.09.2022
1720 Clouds 26 1010 90 10000 2.24 350 09:40 21.09.2022
1721 Clouds 26 1011 87 10000 3.09 310 08:50 21.09.2022
1722 Clouds 27 1014 84 10000 0.45 32 04:57 21.09.2022
1723 Clouds 27 1013 79 10000 1.54 270 02:40 21.09.2022
1724 Clouds 28 1012 76 10000 5.12 64 01:58 21.09.2022
1725 Clouds 29 1013 76 10000 7.2 320 00:20 21.09.2022
1726 Clouds 32 1011 70 10000 1.79 122 21:53 20.09.2022
1727 Clouds 33 1012 66 10000 5.81 100 20:34 20.09.2022
1728 Clouds 33 1013 65 10000 4.12 110 19:18 20.09.2022
1729 Clouds 30 1014 76 10000 0.45 86 15:57 20.09.2022
1730 Clouds 27 1013 86 10000 2.06 360 14:29 20.09.2022
1731 Clouds 26 1012 88 10000 2.06 360 12:32 20.09.2022
1732 Clouds 27 1012 86 10000 0 0 08:50 20.09.2022
1733 Clouds 26 1013 86 10000 0 0 08:24 20.09.2022
1734 Clouds 27 1013 84 10000 3.13 110 04:40 20.09.2022
1735 Clouds 27 1013 83 10000 3.13 90 02:34 20.09.2022
1736 Clouds 29 1012 79 10000 2.57 130 22:46 19.09.2022
1737 Clouds 28 1012 83 10000 2.68 130 21:36 19.09.2022
1738 Thunderstorm 29 1013 81 10000 4.63 130 20:40 19.09.2022
1739 Clouds 31 1013 75 10000 4.63 120 19:20 19.09.2022
1740 Clouds 29 1014 82 10000 2.57 100 17:37 19.09.2022
1741 Clouds 25 1013 72 10000 2.27 153 13:53 19.09.2022
1742 Clear 24 1012 87 10000 1.34 350 12:33 19.09.2022
1743 Clouds 25 1012 88 10000 1.54 10 10:31 19.09.2022
1744 Clouds 25 1013 89 10000 1.54 330 08:42 19.09.2022
1745 Clouds 26 1014 89 10000 0 0 04:38 19.09.2022
1746 Clouds 27 1014 84 10000 0 0 01:18 19.09.2022
1747 Clouds 28 1013 80 10000 2.24 30 22:49 18.09.2022
1748 Thunderstorm 27 1014 84 10000 2.06 10 21:30 18.09.2022
1749 Clouds 28 1015 76 10000 2.57 70 19:56 18.09.2022
1750 Clouds 31 1015 75 10000 1.54 0 17:53 18.09.2022
1751 Clouds 31 1015 75 10000 1.54 0 17:53 18.09.2022
1752 Clouds 30 1015 81 10000 0.89 84 16:59 18.09.2022
1753 Clouds 25 1014 92 10000 2.57 360 14:52 18.09.2022
1754 Clouds 23 1013 94 10000 2.06 290 13:46 18.09.2022
1755 Clouds 23 1013 94 10000 2.06 20 12:28 18.09.2022
1756 Clouds 24 1014 91 10000 2.06 30 10:44 18.09.2022
1757 Clouds 27 1016 87 10000 2.24 280 03:37 18.09.2022
1758 Clouds 28 1015 82 10000 2.68 80 01:23 18.09.2022
1759 Clouds 28 1015 83 10000 0.45 49 23:59 17.09.2022
1760 Clouds 28 1015 83 10000 2.57 130 21:35 17.09.2022
1761 Clouds 31 1016 71 10000 5.66 110 19:40 17.09.2022
1762 Clouds 32 1017 70 10000 5.66 120 18:46 17.09.2022
1763 Clouds 29 1016 84 10000 3.13 90 15:51 17.09.2022
1764 Clouds 26 1016 86 10000 5.14 90 13:38 17.09.2022
1765 Clouds 27 1014 89 10000 4.85 90 10:56 17.09.2022
1766 Clouds 26 1015 89 10000 1.54 350 08:33 17.09.2022
1767 Clouds 26 1017 87 10000 2.57 10 06:24 17.09.2022
1768 Clouds 27 1016 86 10000 3.67 115 23:57 16.09.2022
1769 Clouds 28 1016 82 10000 5.14 120 22:51 16.09.2022
1770 Thunderstorm 29 1017 78 10000 5.66 360 20:54 16.09.2022
1771 Clouds 31 1017 71 10000 2.68 340 19:50 16.09.2022
1772 Clouds 29 1018 80 10000 2.24 0 16:26 16.09.2022
1773 Clouds 27 1017 90 10000 2.97 148 14:53 16.09.2022
1774 Clouds 25 1016 91 10000 1.54 330 13:42 16.09.2022
1775 Clouds 25 1015 89 10000 0.45 101 10:46 16.09.2022
1776 Clouds 23 1017 94 10000 1.54 100 08:19 16.09.2022
1777 Clouds 24 1019 94 10000 2.57 20 06:48 16.09.2022
1778 Clouds 24 1019 94 10000 2.57 20 06:25 16.09.2022
1779 Thunderstorm 26 1017 93 10000 1.54 220 02:37 16.09.2022
1780 Clouds 28 1015 81 10000 1.54 350 22:20 15.09.2022
1781 Clouds 28 1015 81 10000 1.54 350 22:20 15.09.2022
1782 Thunderstorm 29 1016 78 10000 0 0 20:40 15.09.2022
1783 Clouds 28 1016 78 10000 2.57 240 19:46 15.09.2022
1784 Clouds 29 1017 77 10000 7.2 160 18:29 15.09.2022
1785 Clouds 31 1017 73 10000 3.6 140 17:31 15.09.2022
1786 Clouds 29 1016 87 10000 1.54 30 15:50 15.09.2022
1787 Clouds 26 1015 87 10000 2.68 120 13:19 15.09.2022
1788 Thunderstorm 25 1015 89 10000 1.54 350 11:48 15.09.2022
1789 Clouds 25 1015 88 10000 1.54 80 09:52 15.09.2022
1790 Clouds 25 1016 86 10000 1.54 40 07:45 15.09.2022
1791 Rain 25 1015 83 10000 1.54 80 03:49 15.09.2022
1792 Clear 28 1014 83 10000 1.54 80 23:32 14.09.2022
1793 Rain 25 1014 85 10000 0 0 20:48 14.09.2022
1794 Thunderstorm 26 1015 85 9656 4.63 210 19:33 14.09.2022
1795 Mist 28 1015 79 4828 6.69 280 18:26 14.09.2022
1796 Thunderstorm 30 1014 75 10000 2.24 100 16:40 14.09.2022
1797 Clouds 29 1014 82 10000 1.54 30 15:29 14.09.2022
1798 Clouds 26 1013 89 10000 1.54 280 12:57 14.09.2022
1799 Clouds 26 1013 87 10000 1.54 140 10:40 14.09.2022
1800 Clouds 25 1013 88 10000 1.54 40 08:41 14.09.2022
1801 Clouds 24 1014 88 10000 1.54 70 06:50 14.09.2022
1802 Clouds 24 1014 88 10000 1.54 70 06:31 14.09.2022
1803 Thunderstorm 26 1014 75 10000 4.12 340 03:54 14.09.2022
1804 Clouds 30 1012 74 10000 4.63 120 01:41 14.09.2022
1805 Clouds 30 1012 73 10000 4.63 120 01:19 14.09.2022
1806 Clouds 32 1012 68 10000 1.79 91 23:55 13.09.2022
1807 Clouds 32 1012 66 10000 3.6 70 23:37 13.09.2022
1808 Clouds 32 1012 66 10000 3.6 70 23:37 13.09.2022
1809 Clouds 32 1012 65 10000 3.6 70 23:19 13.09.2022
1810 Clouds 32 1012 66 10000 3.6 160 22:43 13.09.2022
1811 Clouds 32 1012 66 10000 3.6 160 22:43 13.09.2022
1812 Thunderstorm 32 1012 66 10000 2.06 70 21:40 13.09.2022
1813 Clear 32 1014 64 10000 0.89 321 19:32 13.09.2022
1814 Clouds 32 1014 68 10000 1.34 118 16:45 13.09.2022
1815 Clear 31 1014 75 10000 0.45 88 15:53 13.09.2022
1816 Clouds 26 1013 87 10000 0 0 13:50 13.09.2022
1817 Clouds 26 1012 85 10000 0 0 11:34 13.09.2022
1818 Clouds 27 1013 84 10000 0 0 08:20 13.09.2022
1819 Clouds 28 1014 76 10000 3.09 350 04:24 13.09.2022
1820 Thunderstorm 32 1013 65 10000 2.57 240 23:23 12.09.2022
1821 Thunderstorm 32 1013 65 10000 2.57 240 23:23 12.09.2022
1822 Thunderstorm 31 1013 66 10000 1.54 340 22:45 12.09.2022
1823 Thunderstorm 32 1014 62 10000 5.36 330 21:35 12.09.2022
1824 Thunderstorm 33 1014 62 10000 5.36 100 20:24 12.09.2022
1825 Clouds 33 1016 66 10000 4.12 160 18:41 12.09.2022
1826 Clouds 32 1015 70 10000 2.24 50 16:20 12.09.2022
1827 Clouds 26 1015 83 10000 0 0 13:24 12.09.2022
1828 Clouds 26 1017 82 10000 2.02 57 10:56 12.09.2022
1829 Clear 27 1017 80 10000 1.54 350 09:33 12.09.2022
1830 Clear 28 1018 76 10000 1.54 330 04:42 12.09.2022
1831 Clouds 28 1018 77 10000 3.09 350 03:25 12.09.2022
1832 Clouds 33 1017 66 10000 4.12 160 23:18 11.09.2022
1833 Clouds 33 1017 65 10000 6.17 150 21:41 11.09.2022
1834 Clouds 34 1018 65 10000 6.71 130 20:45 11.09.2022
1835 Clouds 34 1018 66 10000 5.36 130 19:46 11.09.2022
1836 Clouds 33 1019 65 10000 5.36 130 19:22 11.09.2022
1837 Clouds 33 1019 68 10000 5.81 120 18:20 11.09.2022
1838 Clouds 32 1019 75 10000 5.66 120 16:28 11.09.2022
1839 Clouds 29 1018 88 10000 2.68 130 14:18 11.09.2022
1840 Clouds 28 1017 87 10000 3.09 50 12:32 11.09.2022
1841 Clouds 28 1019 84 10000 0.45 0 08:27 11.09.2022
1842 Clouds 28 1019 82 10000 0 0 06:33 11.09.2022
1843 Clouds 32 1016 71 10000 5.66 160 00:49 11.09.2022
1844 Clouds 33 1016 68 10000 6.69 170 22:54 10.09.2022
1845 Clouds 34 1016 67 10000 2.24 167 20:55 10.09.2022
1846 Clouds 34 1017 65 10000 5.36 140 19:46 10.09.2022
1847 Clouds 34 1017 65 10000 5.36 140 19:27 10.09.2022
1848 Clouds 33 1017 69 10000 1.34 148 17:59 10.09.2022
1849 Clear 31 1016 74 10000 2.68 120 15:49 10.09.2022
1850 Clouds 29 1015 81 10000 2.06 140 14:40 10.09.2022
1851 Clouds 28 1014 82 10000 3.6 120 12:52 10.09.2022
1852 Clouds 28 1014 83 10000 3.13 140 10:35 10.09.2022
1853 Clouds 28 1014 81 10000 3.13 140 09:28 10.09.2022
1854 Clouds 28 1014 84 10000 1.54 0 08:27 10.09.2022
1855 Clouds 28 1014 82 10000 1.54 30 06:41 10.09.2022
1856 Clouds 32 1011 68 10000 5.81 190 00:19 10.09.2022
1857 Clouds 32 1010 68 10000 6.17 220 23:31 09.09.2022
1858 Clouds 33 1010 65 10000 7.72 220 21:38 09.09.2022
1859 Clouds 33 1010 68 10000 7.72 190 20:31 09.09.2022
1860 Thunderstorm 32 1010 71 10000 6.71 160 19:24 09.09.2022
1861 Haze 32 1011 73 10000 4.12 160 18:38 09.09.2022
1862 Clouds 31 1010 78 10000 4.63 210 16:21 09.09.2022
1863 Clouds 26 1009 84 10000 2.06 210 13:48 09.09.2022
1864 Clouds 26 1008 89 10000 1.54 210 11:52 09.09.2022
1865 Clouds 26 1007 89 10000 2.68 190 09:22 09.09.2022
1866 Clouds 25 1009 91 10000 0 0 04:29 09.09.2022
1867 Thunderstorm 28 1007 80 10000 11.32 250 00:46 09.09.2022
1868 Clouds 31 1007 71 10000 5.14 180 21:52 08.09.2022
1869 Rain 31 1008 71 10000 8.75 190 20:51 08.09.2022
1870 Clear 33 1008 65 10000 4.02 160 20:29 08.09.2022
1871 Clouds 33 1008 66 10000 3.09 270 19:44 08.09.2022
1872 Clouds 32 1009 65 10000 3.13 250 17:44 08.09.2022
1873 Clouds 31 1010 74 10000 1.79 212 16:19 08.09.2022
1874 Clouds 28 1010 85 10000 0 0 14:37 08.09.2022
1875 Clouds 26 1009 89 10000 0 0 12:51 08.09.2022
1876 Clouds 26 1009 88 10000 1.54 150 11:36 08.09.2022
1877 Clouds 26 1010 88 10000 0 0 10:23 08.09.2022
1878 Clouds 27 1010 87 10000 1.54 180 07:49 08.09.2022
1879 Thunderstorm 27 1012 83 10000 3.13 320 05:51 08.09.2022
1880 Thunderstorm 28 1012 79 10000 1.54 150 02:36 08.09.2022
1881 Thunderstorm 29 1012 79 10000 1.54 150 02:18 08.09.2022
1882 Clouds 30 1011 72 10000 4.12 120 00:27 08.09.2022
1883 Clouds 31 1011 72 10000 4.63 180 22:36 07.09.2022
1884 Clouds 32 1012 69 10000 4.63 120 21:41 07.09.2022
1885 Clouds 33 1012 62 10000 2.24 144 20:38 07.09.2022
1886 Clouds 33 1013 62 10000 3.6 330 19:30 07.09.2022
1887 Clouds 32 1015 66 10000 2.68 240 17:22 07.09.2022
1888 Clear 26 1014 88 10000 0 0 12:41 07.09.2022
1889 Clouds 27 1014 85 10000 0 0 10:46 07.09.2022
1890 Clouds 27 1015 84 10000 1.54 290 08:36 07.09.2022
1891 Clouds 28 1016 81 10000 0 0 06:51 07.09.2022
1892 Clouds 30 1015 75 10000 3.13 130 01:50 07.09.2022
1893 Thunderstorm 32 1015 67 10000 3.09 260 22:35 06.09.2022
1894 Thunderstorm 33 1016 66 10000 2.68 290 21:38 06.09.2022
1895 Thunderstorm 33 1016 66 10000 4.63 130 20:21 06.09.2022
1896 Clouds 33 1017 65 10000 2.24 0 18:45 06.09.2022
1897 Clear 33 1017 68 10000 1.79 122 17:56 06.09.2022
1898 Clouds 32 1018 66 10000 3.13 110 17:20 06.09.2022
1899 Clouds 32 1017 68 10000 2.68 0 16:37 06.09.2022
1900 Clear 30 1017 78 10000 0.45 127 14:55 06.09.2022
1901 Clear 27 1016 85 10000 0 0 13:45 06.09.2022
1902 Clear 27 1016 84 10000 0 0 13:21 06.09.2022
1903 Clouds 27 1015 84 10000 0 0 11:29 06.09.2022
1904 Clouds 28 1015 82 10000 1.54 150 10:41 06.09.2022
1905 Clouds 28 1016 82 10000 1.54 120 08:41 06.09.2022
1906 Clouds 28 1016 82 10000 2.24 110 07:37 06.09.2022
1907 Clouds 29 1015 78 10000 3.13 120 02:34 06.09.2022
1908 Clouds 32 1015 65 10000 5.36 140 23:21 05.09.2022
1909 Clouds 33 1015 63 10000 4.63 120 21:52 05.09.2022
1910 Clouds 33 1015 64 10000 5.14 100 20:32 05.09.2022
1911 Clouds 33 1016 65 10000 5.14 120 19:18 05.09.2022
1912 Clouds 33 1016 67 10000 4.63 130 18:44 05.09.2022
1913 Clouds 32 1017 67 10000 4.63 130 18:21 05.09.2022
1914 Clouds 31 1016 73 10000 4.63 90 16:27 05.09.2022
1915 Clouds 30 1016 78 10000 3.09 100 15:29 05.09.2022
1916 Clouds 27 1015 87 10000 1.54 90 13:25 05.09.2022
1917 Clouds 27 1015 83 10000 1.54 40 12:26 05.09.2022
1918 Clouds 27 1014 85 10000 0 0 09:19 05.09.2022
1919 Clouds 29 1015 80 10000 4.12 80 06:40 05.09.2022
1920 Clouds 29 1013 77 10000 0.45 63 01:56 05.09.2022
1921 Clouds 32 1013 61 10000 3.6 100 22:44 04.09.2022
1922 Clouds 33 1013 61 10000 3.6 100 22:26 04.09.2022
1923 Clouds 33 1014 63 10000 5.14 80 20:43 04.09.2022
1924 Clouds 33 1016 63 10000 4.63 110 19:29 04.09.2022
1925 Clouds 32 1017 65 10000 4.12 80 17:50 04.09.2022
1926 Clouds 31 1017 68 10000 4.12 80 16:28 04.09.2022
1927 Clouds 29 1016 78 10000 2.68 90 14:29 04.09.2022
1928 Clouds 27 1016 78 10000 1.54 30 13:28 04.09.2022
1929 Clouds 27 1016 78 10000 1.54 30 13:28 04.09.2022
1930 Clouds 28 1015 79 10000 2.24 100 11:52 04.09.2022
1931 Clouds 28 1015 78 10000 2.24 70 10:28 04.09.2022
1932 Clouds 28 1016 80 10000 2.06 70 07:29 04.09.2022
1933 Clouds 28 1016 76 10000 4.63 130 04:44 04.09.2022
1934 Clouds 31 1015 72 10000 6.17 90 00:42 04.09.2022
1935 Clouds 32 1015 65 10000 6.17 120 22:21 03.09.2022
1936 Clouds 33 1016 65 10000 5.66 80 21:23 03.09.2022
1937 Clouds 33 1017 66 10000 5.36 110 19:39 03.09.2022
1938 Clouds 32 1018 67 10000 4.63 100 17:26 03.09.2022
1939 Clouds 31 1018 71 10000 3.09 70 16:27 03.09.2022
1940 Clouds 28 1017 87 10000 2.57 350 14:45 03.09.2022
1941 Clouds 26 1018 92 10000 0.45 0 13:58 03.09.2022
1942 Clouds 26 1017 91 10000 3.09 350 12:19 03.09.2022
1943 Clouds 27 1016 85 10000 2.57 350 10:27 03.09.2022
1944 Clouds 28 1016 80 10000 2.57 340 08:28 03.09.2022
1945 Clouds 28 1017 81 10000 1.34 137 06:58 03.09.2022
1946 Clouds 29 1018 77 10000 3.13 120 04:33 03.09.2022
1947 Clouds 32 1016 71 10000 5.14 110 23:55 02.09.2022
1948 Thunderstorm 32 1016 69 10000 5.36 100 22:57 02.09.2022
1949 Clouds 32 1016 68 10000 4.02 120 20:59 02.09.2022
1950 Thunderstorm 33 1017 63 10000 5.36 100 20:28 02.09.2022
1951 Clouds 33 1017 66 10000 5.14 100 19:22 02.09.2022
1952 Clouds 33 1017 66 10000 5.14 90 18:28 02.09.2022
1953 Clouds 32 1018 70 10000 1.34 5 17:53 02.09.2022
1954 Clouds 32 1017 69 10000 3.09 110 16:47 02.09.2022
1955 Clouds 28 1016 80 10000 0.89 81 14:33 02.09.2022
1956 Clouds 26 1016 84 10000 0 0 12:36 02.09.2022
1957 Clouds 26 1015 83 10000 2.06 70 10:22 02.09.2022
1958 Clear 26 1016 82 10000 0 0 09:40 02.09.2022
1959 Clouds 26 1016 79 10000 1.54 20 07:32 02.09.2022
1960 Clouds 27 1016 80 10000 0.89 300 06:38 02.09.2022
1961 Clouds 29 1015 73 10000 3.6 260 02:52 02.09.2022
1962 Clouds 32 1015 64 10000 5.36 150 22:35 01.09.2022
1963 Thunderstorm 32 1015 63 10000 5.14 140 21:44 01.09.2022
1964 Clouds 33 1015 64 10000 4.63 170 21:25 01.09.2022
1965 Clouds 33 1016 63 10000 4.63 160 20:44 01.09.2022
1966 Clouds 32 1017 66 10000 5.14 350 18:54 01.09.2022
1967 Clouds 32 1017 69 10000 5.81 130 17:22 01.09.2022
1968 Clouds 30 1017 77 10000 1.34 186 15:56 01.09.2022
1969 Clouds 27 1016 89 10000 1.54 10 14:33 01.09.2022
1970 Clouds 25 1015 94 10000 0.99 98 12:58 01.09.2022
1971 Clouds 26 1014 92 10000 1.05 116 11:53 01.09.2022
1972 Clear 26 1015 87 10000 0 0 11:31 01.09.2022
1973 Clouds 26 1014 87 10000 1.54 150 10:23 01.09.2022
1974 Clouds 26 1015 84 10000 0 0 08:30 01.09.2022
1975 Clouds 26 1015 81 10000 0 0 06:22 01.09.2022
1976 Clouds 30 1014 75 10000 4.63 120 01:32 01.09.2022
1977 Clouds 30 1014 75 10000 4.63 120 01:32 01.09.2022
1978 Clouds 30 1014 75 10000 4.63 120 01:32 01.09.2022
1979 Clouds 30 1014 75 10000 4.63 120 01:32 01.09.2022
1980 Clouds 32 1015 66 10000 2.06 170 23:29 31.08.2022
1981 Clouds 30 1015 68 10000 2.06 160 21:32 31.08.2022
1982 Thunderstorm 32 1016 66 10000 4.12 290 19:50 31.08.2022
1983 Clouds 32 1017 68 10000 4.12 110 18:18 31.08.2022
1984 Clear 31 1016 73 10000 1.34 77 15:56 31.08.2022
1985 Clouds 28 1015 83 10000 1.54 70 14:27 31.08.2022
1986 Clear 27 1015 88 10000 2.06 20 12:21 31.08.2022
1987 Clouds 27 1015 89 10000 2.06 340 11:21 31.08.2022
1988 Clouds 27 1016 86 10000 0 0 08:35 31.08.2022
1989 Clouds 29 1016 80 10000 3.6 140 04:47 31.08.2022
1990 Clouds 32 1014 67 10000 5.36 130 23:20 30.08.2022
1991 Clouds 33 1015 67 10000 5.66 130 21:38 30.08.2022
1992 Clouds 33 1015 69 10000 1.34 131 20:56 30.08.2022
1993 Clouds 33 1017 65 10000 4.63 140 18:23 30.08.2022
1994 Clouds 30 1016 77 10000 2.06 130 14:44 30.08.2022
1995 Clouds 28 1015 81 10000 3.6 150 13:24 30.08.2022
1996 Clouds 28 1014 85 10000 3.6 150 11:21 30.08.2022
1997 Clouds 28 1014 88 10000 2.57 150 10:40 30.08.2022
1998 Clouds 28 1016 81 10000 3.09 150 06:51 30.08.2022
1999 Clouds 29 1015 78 10000 2.24 114 01:53 30.08.2022
2000 Clouds 31 1014 75 10000 0.45 214 22:58 29.08.2022
2001 Clouds 31 1015 71 10000 6.17 170 22:24 29.08.2022
2002 Clouds 32 1015 68 10000 6.69 150 21:25 29.08.2022
2003 Clouds 30 1016 73 10000 6.17 170 19:52 29.08.2022
2004 Clouds 28 1016 85 10000 4.63 140 17:52 29.08.2022
2005 Clouds 28 1016 85 10000 4.63 140 17:24 29.08.2022
2006 Clouds 27 1015 84 10000 4.12 100 16:37 29.08.2022
2007 Clouds 25 1015 91 10000 3.6 250 14:45 29.08.2022
2008 Mist 26 1015 86 9656 2.68 80 12:53 29.08.2022
2009 Clouds 27 1014 84 10000 3.13 140 11:19 29.08.2022
2010 Clouds 26 1014 86 10000 2.06 340 09:45 29.08.2022
2011 Clouds 27 1014 86 10000 1.54 20 08:29 29.08.2022
2012 Clouds 28 1015 79 10000 0.45 98 04:57 29.08.2022
2013 Clouds 29 1013 78 10000 4.63 120 00:20 29.08.2022
2014 Clouds 29 1013 78 10000 6.17 130 22:37 28.08.2022
2015 Thunderstorm 31 1013 73 10000 7.72 110 21:44 28.08.2022
2016 Clouds 32 1014 71 10000 4.12 160 20:55 28.08.2022
2017 Clouds 32 1015 73 10000 3.09 0 19:23 28.08.2022
2018 Clouds 30 1015 75 10000 2.06 0 18:20 28.08.2022
2019 Clouds 29 1015 77 10000 2.57 170 16:58 28.08.2022
2020 Clouds 28 1015 81 10000 3.09 190 16:27 28.08.2022
2021 Clouds 28 1014 82 10000 2.24 100 14:41 28.08.2022
2022 Clouds 27 1014 84 10000 0 0 12:32 28.08.2022
2023 Clouds 27 1013 85 10000 2.24 90 10:43 28.08.2022
2024 Clouds 27 1013 83 10000 0 0 09:49 28.08.2022
2025 Clouds 27 1014 80 10000 0 0 08:37 28.08.2022
2026 Clouds 26 1015 81 10000 0 0 07:43 28.08.2022
2027 Clouds 29 1013 78 10000 3.13 140 02:48 28.08.2022
2028 Clouds 31 1012 72 10000 4.63 130 00:27 28.08.2022
2029 Clouds 32 1012 71 10000 3.13 0 22:36 27.08.2022
2030 Thunderstorm 32 1013 69 10000 2.57 120 21:31 27.08.2022
2031 Clouds 32 1014 70 10000 3.6 90 19:44 27.08.2022
2032 Clouds 31 1016 75 10000 0.89 60 17:43 27.08.2022
2033 Clouds 29 1016 85 10000 2.21 107 15:53 27.08.2022
2034 Clouds 28 1015 86 10000 1.54 360 15:24 27.08.2022
2035 Clouds 27 1014 84 10000 1.54 340 12:28 27.08.2022
2036 Clouds 27 1014 82 10000 1.54 340 11:31 27.08.2022
2037 Clouds 28 1014 81 10000 1.54 340 09:48 27.08.2022
2038 Clouds 28 1016 83 10000 3.32 133 07:54 27.08.2022
2039 Clouds 29 1015 75 10000 4.12 110 02:52 27.08.2022
2040 Clear 32 1014 69 10000 5.14 120 23:57 26.08.2022
2041 Clouds 33 1014 63 10000 4.12 110 22:40 26.08.2022
2042 Clouds 33 1015 66 10000 5.14 140 21:19 26.08.2022
2043 Clouds 33 1016 65 10000 5.14 140 19:23 26.08.2022
2044 Clouds 32 1017 69 10000 5.66 140 16:50 26.08.2022
2045 Clouds 31 1017 74 10000 2.24 130 15:31 26.08.2022
2046 Clouds 29 1016 82 10000 1.54 30 14:34 26.08.2022
2047 Clouds 28 1015 82 10000 0 0 12:51 26.08.2022
2048 Clouds 28 1015 83 10000 0 0 11:33 26.08.2022
2049 Clouds 28 1016 84 10000 0 0 10:46 26.08.2022
2050 Clouds 28 1017 81 10000 2.06 90 07:28 26.08.2022
2051 Clouds 28 1017 81 10000 2.06 90 07:28 26.08.2022
2052 Clouds 30 1016 75 10000 4.12 130 02:30 26.08.2022
2053 Clouds 32 1016 68 10000 6.17 150 23:41 25.08.2022
2054 Clouds 33 1016 64 10000 5.36 130 21:36 25.08.2022
2055 Clouds 34 1017 63 10000 6.26 120 20:30 25.08.2022
2056 Clouds 33 1018 67 10000 2.68 147 18:55 25.08.2022
2057 Clouds 33 1017 68 10000 6.17 120 17:50 25.08.2022
2058 Clouds 33 1017 68 10000 6.17 120 17:31 25.08.2022
2059 Clouds 31 1016 74 10000 5.36 130 15:43 25.08.2022
2060 Clouds 31 1016 76 10000 5.36 130 15:25 25.08.2022
2061 Clouds 28 1015 87 10000 0.45 89 11:55 25.08.2022
2062 Clouds 28 1015 84 10000 3.13 90 10:48 25.08.2022
2063 Clouds 28 1015 85 10000 0.45 61 08:54 25.08.2022
2064 Clouds 29 1017 79 10000 2.06 90 05:24 25.08.2022
2065 Clouds 30 1014 74 10000 4.63 110 01:42 25.08.2022
2066 Clouds 32 1014 67 10000 5.66 110 23:26 24.08.2022
2067 Clouds 33 1014 67 10000 5.36 140 22:22 24.08.2022
2068 Clouds 33 1014 67 10000 6.71 100 21:36 24.08.2022
2069 Clouds 33 1015 65 10000 6.69 120 20:52 24.08.2022
2070 Clouds 33 1015 67 10000 1.79 63 18:58 24.08.2022
2071 Clouds 32 1015 68 10000 4.12 100 16:37 24.08.2022
2072 Clouds 31 1015 71 10000 3.6 100 15:52 24.08.2022
2073 Clouds 28 1014 83 10000 3.13 110 13:40 24.08.2022
2074 Clouds 28 1013 83 10000 2.24 100 11:38 24.08.2022
2075 Clouds 28 1013 83 10000 1.54 60 09:39 24.08.2022
2076 Clear 28 1014 84 10000 3.41 94 07:59 24.08.2022
2077 Clear 29 1014 78 10000 0.45 141 02:57 24.08.2022
2078 Clouds 32 1013 69 10000 4.12 230 23:34 23.08.2022
2079 Thunderstorm 32 1013 67 10000 6.69 130 22:32 23.08.2022
2080 Clouds 33 1013 64 10000 2.24 0 21:34 23.08.2022
2081 Clouds 33 1014 63 10000 6.26 110 20:21 23.08.2022
2082 Clouds 33 1014 66 10000 3.13 110 18:49 23.08.2022
2083 Clouds 32 1015 70 10000 2.68 140 17:50 23.08.2022
2084 Clouds 32 1015 71 10000 2.68 140 17:18 23.08.2022
2085 Clouds 30 1014 79 10000 2.68 120 15:39 23.08.2022
2086 Clouds 28 1013 82 10000 1.54 110 13:36 23.08.2022
2087 Clouds 28 1013 86 10000 0.89 87 11:33 23.08.2022
2088 Clouds 28 1013 85 10000 1.54 20 10:51 23.08.2022
2089 Clouds 28 1013 84 10000 1.54 20 10:26 23.08.2022
2090 Clouds 28 1014 86 10000 3.48 105 08:53 23.08.2022
2091 Clouds 28 1014 84 10000 0 0 08:21 23.08.2022
2092 Clouds 28 1015 82 10000 3.13 90 07:38 23.08.2022
2093 Clouds 29 1016 80 10000 2.68 110 06:29 23.08.2022
2094 Clouds 29 1016 80 10000 2.68 110 06:29 23.08.2022
2095 Clouds 29 1016 80 10000 3.13 100 05:38 23.08.2022
2096 Clouds 31 1013 74 10000 5.81 90 00:28 23.08.2022
2097 Clouds 31 1013 74 10000 1.79 91 23:54 22.08.2022
2098 Clouds 32 1014 67 10000 5.66 120 22:52 22.08.2022
2099 Clouds 32 1014 68 10000 4.63 120 21:51 22.08.2022
2100 Clouds 33 1015 65 10000 4.63 130 19:49 22.08.2022
2101 Clouds 33 1015 66 10000 4.63 130 19:21 22.08.2022
2102 Clouds 32 1017 71 10000 1.79 99 17:55 22.08.2022
2103 Clouds 30 1017 76 10000 3.6 200 15:40 22.08.2022
2104 Clouds 29 1016 82 10000 3.13 110 14:32 22.08.2022
2105 Clouds 28 1015 79 10000 3.6 100 10:49 22.08.2022
2106 Clouds 28 1016 79 10000 4.63 90 08:22 22.08.2022
2107 Clouds 29 1017 78 10000 5.36 80 04:34 22.08.2022
2108 Clouds 31 1016 72 10000 6.17 90 00:49 22.08.2022
2109 Clouds 31 1016 71 10000 6.17 90 00:29 22.08.2022
2110 Clouds 32 1017 69 10000 2.24 50 22:54 21.08.2022
2111 Clouds 32 1017 66 10000 6.17 90 21:36 21.08.2022
2112 Clouds 33 1017 68 10000 2.68 118 20:57 21.08.2022
2113 Clouds 33 1019 67 10000 5.66 90 19:28 21.08.2022
2114 Clouds 33 1019 68 10000 6.69 90 18:21 21.08.2022
2115 Clouds 31 1019 73 10000 6.26 100 16:21 21.08.2022
2116 Clouds 31 1019 75 10000 3.6 110 15:43 21.08.2022
2117 Clouds 29 1018 82 10000 0.45 79 13:58 21.08.2022
2118 Clouds 28 1018 81 10000 2.06 70 13:40 21.08.2022
2119 Clouds 28 1018 81 10000 1.54 60 12:37 21.08.2022
2120 Clouds 29 1018 81 10000 1.34 109 09:56 21.08.2022
2121 Clouds 29 1018 81 10000 0.45 105 08:56 21.08.2022
2122 Clouds 29 1018 79 10000 5.36 90 08:38 21.08.2022
2123 Clouds 29 1018 79 10000 5.36 90 07:28 21.08.2022
2124 Clear 30 1019 82 10000 5.14 80 04:26 21.08.2022
2125 Clouds 31 1018 74 10000 1.34 71 00:53 21.08.2022
2126 Clouds 32 1018 71 10000 6.17 80 22:59 20.08.2022
2127 Clouds 33 1018 67 10000 5.81 90 21:45 20.08.2022
2128 Clouds 33 1018 72 10000 6.69 80 20:48 20.08.2022
2129 Clouds 33 1019 69 10000 6.26 90 19:42 20.08.2022
2130 Clouds 33 1020 69 10000 6.69 100 18:43 20.08.2022
2131 Clouds 33 1020 69 10000 6.69 100 18:25 20.08.2022
2132 Clouds 33 1020 69 10000 6.17 100 17:19 20.08.2022
2133 Clouds 31 1019 76 10000 5.66 110 15:51 20.08.2022
2134 Clouds 29 1018 82 10000 3.13 100 13:39 20.08.2022
2135 Clouds 29 1018 80 10000 1.34 105 11:53 20.08.2022
2136 Clouds 29 1018 81 10000 4.12 100 10:39 20.08.2022
2137 Clouds 29 1018 84 10000 3.09 100 09:18 20.08.2022
2138 Clouds 29 1018 80 10000 2.68 80 06:40 20.08.2022
2139 Clouds 29 1018 78 10000 3.13 100 04:40 20.08.2022
2140 Clear 31 1016 68 10000 0.89 120 00:53 20.08.2022
2141 Clouds 33 1016 68 10000 6.17 110 23:21 19.08.2022
2142 Clouds 33 1016 66 10000 6.17 140 22:35 19.08.2022
2143 Clouds 34 1017 60 10000 5.36 140 20:30 19.08.2022
2144 Clear 34 1017 61 10000 1.79 124 18:53 19.08.2022
2145 Clear 31 1018 77 10000 0.89 136 15:55 19.08.2022
2146 Clouds 27 1016 81 10000 1.54 30 13:41 19.08.2022
2147 Clouds 27 1015 80 10000 0 0 11:40 19.08.2022
2148 Clouds 27 1015 81 10000 1.54 200 10:30 19.08.2022
2149 Clouds 28 1016 80 10000 2.24 190 07:39 19.08.2022
2150 Clouds 30 1016 75 10000 3.13 200 03:19 19.08.2022
2151 Clouds 31 1014 67 10000 4.12 180 00:36 19.08.2022
2152 Clouds 32 1014 68 10000 5.14 170 23:56 18.08.2022
2153 Thunderstorm 32 1014 65 10000 6.71 170 22:54 18.08.2022
2154 Clouds 33 1014 65 10000 5.36 180 22:22 18.08.2022
2155 Clouds 33 1014 66 10000 4.12 180 21:45 18.08.2022
2156 Clouds 34 1014 63 10000 3.13 240 20:42 18.08.2022
2157 Clouds 34 1015 62 10000 4.63 280 19:32 18.08.2022
2158 Clouds 33 1015 61 10000 2.24 0 18:29 18.08.2022
2159 Clouds 32 1015 66 10000 2.68 250 17:29 18.08.2022
2160 Clouds 30 1015 74 10000 2.57 250 15:50 18.08.2022
2161 Clouds 28 1015 85 10000 2.68 220 14:21 18.08.2022
2162 Clouds 26 1014 89 10000 1.54 220 13:40 18.08.2022
2163 Clear 26 1014 90 10000 1.54 220 12:27 18.08.2022
2164 Clear 27 1014 86 10000 1.54 280 10:51 18.08.2022
2165 Clear 27 1014 84 10000 2.57 280 09:42 18.08.2022
2166 Clouds 28 1015 81 10000 3.09 260 07:26 18.08.2022
2167 Clouds 29 1015 78 10000 3.13 250 05:30 18.08.2022
2168 Clouds 32 1014 61 10000 4.63 260 00:45 18.08.2022
2169 Clouds 33 1013 63 10000 5.36 250 22:28 17.08.2022
2170 Clouds 34 1015 62 10000 4.12 260 20:21 17.08.2022
2171 Clouds 34 1015 62 10000 4.12 260 20:21 17.08.2022
2172 Clouds 34 1015 57 10000 4.12 270 19:34 17.08.2022
2173 Clouds 33 1015 60 10000 4.63 260 18:32 17.08.2022
2174 Clouds 32 1016 68 10000 3.6 230 16:50 17.08.2022
2175 Clouds 30 1016 77 10000 3.6 260 15:31 17.08.2022
2176 Clouds 27 1015 89 10000 2.24 210 14:18 17.08.2022
2177 Clear 26 1014 89 10000 1.54 230 12:21 17.08.2022
2178 Clear 26 1014 88 10000 1.54 190 10:25 17.08.2022
2179 Clear 26 1014 88 10000 1.54 190 10:25 17.08.2022
2180 Clear 26 1014 88 10000 1.54 190 10:25 17.08.2022
2181 Clouds 26 1013 86 10000 2.83 266 08:25 17.08.2022
2182 Clear 28 1015 81 10000 2.57 250 05:22 17.08.2022
2183 Clouds 29 1013 78 10000 1.54 180 00:46 17.08.2022
2184 Clouds 28 1014 78 10000 3.09 190 22:53 16.08.2022
2185 Clouds 32 1014 70 10000 4.47 169 20:59 16.08.2022
2186 Clouds 32 1014 72 10000 3.13 152 19:55 16.08.2022
2187 Clouds 32 1014 65 10000 4.12 220 19:22 16.08.2022
2188 Clouds 32 1015 70 10000 2.24 115 17:54 16.08.2022
2189 Clouds 31 1015 73 10000 2.68 220 16:46 16.08.2022
2190 Clouds 29 1014 81 10000 0.45 213 15:44 16.08.2022
2191 Clouds 29 1014 81 10000 0.45 213 15:44 16.08.2022
2192 Clear 28 1014 90 10000 2.02 275 14:54 16.08.2022
2193 Clouds 27 1014 91 10000 0 0 14:36 16.08.2022
2194 Clear 25 1014 88 10000 0 0 11:40 16.08.2022
2195 Clear 25 1014 88 10000 0 0 11:40 16.08.2022
2196 Clear 25 1014 91 10000 2.6 242 09:58 16.08.2022
2197 Clear 26 1014 89 10000 0 0 08:49 16.08.2022
2198 Clear 27 1013 87 10000 0 0 08:20 16.08.2022
2199 Clouds 27 1014 84 10000 1.54 0 05:52 16.08.2022
2200 Thunderstorm 25 1014 94 10000 2.57 340 23:27 15.08.2022
2201 Thunderstorm 30 1013 72 10000 6.17 80 22:20 15.08.2022
2202 Thunderstorm 32 1013 67 10000 6.26 140 21:43 15.08.2022
2203 Thunderstorm 32 1014 63 10000 3.13 160 20:31 15.08.2022
2204 Clouds 32 1014 62 10000 3.09 300 19:18 15.08.2022
2205 Clouds 32 1014 67 10000 1.79 60 17:59 15.08.2022
2206 Clouds 30 1014 70 10000 0.89 157 16:24 15.08.2022
2207 Clouds 29 1014 77 10000 0 0 15:26 15.08.2022
2208 Clouds 25 1015 88 10000 0 0 13:27 15.08.2022
2209 Clouds 25 1013 89 10000 0 0 10:37 15.08.2022
2210 Clouds 25 1015 87 10000 2.29 267 08:55 15.08.2022
2211 Clouds 26 1015 87 10000 0 0 06:51 15.08.2022
2212 Clouds 26 1015 89 10000 1.54 90 04:32 15.08.2022
2213 Clouds 26 1015 85 10000 3.6 260 23:49 14.08.2022
2214 Rain 29 1015 78 10000 2.24 150 22:28 14.08.2022
2215 Clouds 29 1015 75 10000 2.68 130 21:25 14.08.2022
2216 Clouds 31 1015 71 10000 6.17 160 19:46 14.08.2022
2217 Clouds 32 1016 64 10000 2.57 340 18:41 14.08.2022
2218 Clouds 32 1016 66 10000 2.24 132 17:44 14.08.2022
2219 Clouds 31 1016 66 10000 2.68 240 16:31 14.08.2022
2220 Clouds 30 1016 72 10000 1.54 230 15:48 14.08.2022
2221 Clouds 27 1015 81 10000 0 0 14:19 14.08.2022
2222 Clouds 25 1015 85 10000 0 0 13:49 14.08.2022
2223 Clouds 25 1015 85 10000 0.76 197 12:55 14.08.2022
2224 Clouds 26 1015 82 10000 0 0 11:31 14.08.2022
2225 Clouds 26 1015 79 10000 0 0 10:26 14.08.2022
2226 Clear 25 1015 86 10000 0 0 08:45 14.08.2022
2227 Clouds 26 1017 81 10000 0 0 06:20 14.08.2022
2228 Clouds 28 1016 75 10000 3.09 290 02:35 14.08.2022
2229 Clouds 30 1016 69 10000 4.12 130 23:36 13.08.2022
2230 Clouds 29 1016 75 10000 4.12 120 22:28 13.08.2022
2231 Clouds 29 1016 77 10000 0.89 107 20:58 13.08.2022
2232 Thunderstorm 30 1017 70 10000 6.26 110 20:19 13.08.2022
2233 Thunderstorm 32 1017 66 10000 4.12 150 19:20 13.08.2022
2234 Clouds 32 1017 65 10000 3.13 220 17:36 13.08.2022
2235 Clouds 30 1017 75 10000 1.54 360 15:18 13.08.2022
2236 Clouds 28 1016 84 10000 3.6 350 14:24 13.08.2022
2237 Clouds 27 1016 85 10000 2.57 340 13:38 13.08.2022
2238 Clouds 27 1016 84 10000 0.45 80 11:51 13.08.2022
2239 Clouds 27 1016 81 10000 2.24 110 09:50 13.08.2022
2240 Clouds 27 1017 82 10000 1.54 150 07:51 13.08.2022
2241 Clouds 29 1016 78 10000 4.41 108 02:56 13.08.2022
2242 Clouds 31 1015 70 10000 5.66 120 23:46 12.08.2022
2243 Clouds 32 1017 65 10000 5.14 110 21:40 12.08.2022
2244 Clouds 32 1017 65 10000 5.66 110 19:51 12.08.2022
2245 Clouds 32 1018 65 10000 5.66 110 19:26 12.08.2022
2246 Clouds 32 1018 66 10000 5.66 90 18:34 12.08.2022
2247 Clouds 31 1018 71 10000 5.66 100 16:28 12.08.2022
2248 Clouds 30 1018 72 10000 4.63 110 15:31 12.08.2022
2249 Clouds 29 1018 76 10000 3.09 100 14:27 12.08.2022
2250 Clouds 27 1017 75 10000 3.09 90 12:51 12.08.2022
2251 Clouds 28 1017 79 10000 3.09 100 09:51 12.08.2022
2252 Clouds 28 1018 78 10000 3.6 90 07:47 12.08.2022
2253 Clouds 28 1019 79 10000 3.6 80 06:31 12.08.2022
2254 Clouds 29 1018 76 10000 5.14 90 02:22 12.08.2022
2255 Clouds 30 1017 70 10000 5.66 110 00:23 12.08.2022
2256 Clouds 31 1017 67 10000 5.14 110 23:34 11.08.2022
2257 Clouds 32 1017 66 10000 1.34 37 21:58 11.08.2022
2258 Clouds 32 1018 63 10000 5.66 80 21:39 11.08.2022
2259 Clouds 32 1019 64 10000 6.17 110 20:32 11.08.2022
2260 Clouds 32 1019 68 10000 1.79 75 19:57 11.08.2022
2261 Clouds 32 1019 66 10000 6.69 100 19:32 11.08.2022
2262 Clouds 32 1020 67 10000 6.69 130 17:48 11.08.2022
2263 Clouds 31 1020 69 10000 5.14 110 16:34 11.08.2022
2264 Clouds 30 1019 73 10000 4.12 110 15:21 11.08.2022
2265 Clouds 28 1019 81 10000 3.09 90 12:44 11.08.2022
2266 Clouds 28 1019 81 10000 3.6 80 10:18 11.08.2022
2267 Clouds 28 1020 80 10000 4.63 100 07:19 11.08.2022
2268 Clouds 29 1019 77 10000 5.14 100 03:46 11.08.2022
2269 Clouds 31 1019 74 10000 7.2 100 00:37 11.08.2022
2270 Clouds 32 1020 69 10000 7.72 90 22:32 10.08.2022
2271 Clouds 32 1021 69 10000 7.2 90 21:25 10.08.2022
2272 Clear 32 1021 72 10000 1.34 88 20:55 10.08.2022
2273 Clouds 33 1022 67 10000 5.66 110 19:27 10.08.2022
2274 Clouds 32 1022 66 10000 7.2 120 18:22 10.08.2022
2275 Clouds 31 1022 69 10000 6.17 100 16:36 10.08.2022
2276 Clouds 28 1021 81 10000 3.09 110 13:36 10.08.2022
2277 Clouds 28 1020 81 10000 3.6 110 12:41 10.08.2022
2278 Clouds 28 1019 78 10000 4.12 120 09:25 10.08.2022
2279 Clouds 29 1020 78 10000 5.14 110 08:33 10.08.2022
2280 Clouds 29 1020 79 10000 4.12 100 07:19 10.08.2022
2281 Clouds 29 1019 78 10000 7.2 110 03:28 10.08.2022
2282 Clouds 31 1018 76 10000 8.23 100 23:34 09.08.2022
2283 Clouds 31 1018 75 10000 7.2 90 22:56 09.08.2022
2284 Clouds 31 1018 75 10000 1.79 93 21:36 09.08.2022
2285 Clouds 32 1019 70 10000 6.69 120 20:30 09.08.2022
2286 Clouds 32 1020 70 10000 8.75 120 18:44 09.08.2022
2287 Clouds 31 1020 73 10000 7.72 100 17:28 09.08.2022
2288 Clouds 31 1020 73 10000 7.72 100 17:28 09.08.2022
2289 Clouds 31 1020 75 10000 6.17 100 16:41 09.08.2022
2290 Clouds 30 1020 78 10000 5.66 120 15:58 09.08.2022
2291 Clouds 28 1018 83 10000 4.63 70 13:51 09.08.2022
2292 Clouds 28 1018 83 10000 1.34 97 09:56 09.08.2022
2293 Clouds 28 1018 86 10000 4.12 90 08:50 09.08.2022
2294 Clouds 28 1019 85 10000 1.34 84 07:53 09.08.2022
2295 Clouds 29 1019 79 10000 3.6 90 04:28 09.08.2022
2296 Clouds 31 1017 70 10000 6.17 120 23:35 08.08.2022
2297 Clouds 32 1017 69 10000 5.66 110 22:56 08.08.2022
2298 Clouds 32 1018 68 10000 5.66 110 22:22 08.08.2022
2299 Clouds 32 1019 66 10000 6.69 110 21:22 08.08.2022
2300 Clouds 32 1019 66 10000 6.69 100 19:51 08.08.2022
2301 Clouds 32 1019 69 10000 2.24 88 18:58 08.08.2022
2302 Clouds 30 1019 73 10000 6.71 90 16:47 08.08.2022
2303 Clouds 29 1019 78 10000 4.63 80 15:40 08.08.2022
2304 Clouds 27 1018 87 10000 2.24 30 14:29 08.08.2022
2305 Clouds 26 1018 89 10000 3.6 120 12:27 08.08.2022
2306 Clouds 27 1018 86 10000 0.45 67 10:19 08.08.2022
2307 Clouds 28 1019 82 10000 3.6 90 06:54 08.08.2022
2308 Clouds 28 1019 78 10000 5.81 90 03:31 08.08.2022
2309 Clouds 31 1018 69 10000 6.71 110 22:44 07.08.2022
2310 Clouds 31 1018 72 10000 6.26 110 21:40 07.08.2022
2311 Clear 30 1019 75 10000 5.14 110 20:42 07.08.2022
2312 Clear 30 1019 76 10000 5.14 110 20:18 07.08.2022
2313 Clouds 29 1020 78 10000 6.17 110 19:41 07.08.2022
2314 Clouds 30 1020 70 10000 5.81 100 18:36 07.08.2022
2315 Clouds 31 1021 74 10000 2.24 85 16:55 07.08.2022
2316 Clouds 30 1020 74 10000 6.17 90 16:35 07.08.2022
2317 Clouds 29 1020 76 10000 5.66 90 15:24 07.08.2022
2318 Clouds 27 1019 84 10000 3.6 80 13:37 07.08.2022
2319 Clouds 27 1019 86 10000 3.6 110 12:18 07.08.2022
2320 Clouds 27 1019 86 10000 7.2 160 10:35 07.08.2022
2321 Clear 28 1019 78 10000 1.34 64 07:59 07.08.2022
2322 Clouds 29 1019 75 10000 6.71 100 03:32 07.08.2022
2323 Clouds 30 1018 71 10000 8.94 90 01:50 07.08.2022
2324 Rain 32 1019 67 10000 7.72 80 22:28 06.08.2022
2325 Clouds 32 1020 67 10000 8.75 90 21:28 06.08.2022
2326 Clouds 31 1021 69 10000 7.2 90 19:42 06.08.2022
2327 Clouds 32 1021 68 10000 9.77 110 18:33 06.08.2022
2328 Clouds 31 1021 70 10000 8.75 90 17:37 06.08.2022
2329 Clouds 29 1020 75 10000 6.17 80 15:21 06.08.2022
2330 Clouds 27 1019 77 10000 5.14 80 13:50 06.08.2022
2331 Clouds 28 1019 79 10000 5.14 100 12:19 06.08.2022
2332 Clouds 28 1018 80 10000 4.12 100 10:37 06.08.2022
2333 Clouds 28 1019 80 10000 5.14 80 09:21 06.08.2022
2334 Clouds 28 1019 79 10000 1.34 92 03:55 06.08.2022
2335 Clouds 31 1018 74 10000 1.79 95 23:56 05.08.2022
2336 Clouds 31 1018 68 10000 7.2 90 22:34 05.08.2022
2337 Clouds 32 1019 67 10000 8.23 100 20:30 05.08.2022
2338 Clouds 32 1019 71 10000 3.13 90 18:53 05.08.2022
2339 Clouds 32 1019 70 10000 5.66 110 18:35 05.08.2022
2340 Clouds 30 1019 78 10000 4.12 80 16:51 05.08.2022
2341 Clouds 27 1018 87 10000 3.6 100 15:24 05.08.2022
2342 Clouds 27 1018 85 10000 3.6 40 14:34 05.08.2022
2343 Clouds 27 1018 84 10000 1.54 80 13:26 05.08.2022
2344 Clouds 27 1018 84 10000 0.45 79 12:59 05.08.2022
2345 Clouds 28 1017 81 10000 4.12 120 11:20 05.08.2022
2346 Clouds 28 1018 80 10000 2.57 80 08:46 05.08.2022
2347 Clouds 28 1018 77 10000 5.14 90 07:33 05.08.2022
2348 Clouds 29 1017 74 10000 4.12 120 02:33 05.08.2022
2349 Clouds 32 1017 67 10000 7.72 120 22:43 04.08.2022
2350 Clouds 32 1017 66 10000 6.17 110 21:28 04.08.2022
2351 Clouds 33 1017 66 10000 2.24 87 20:53 04.08.2022
2352 Clouds 33 1018 65 10000 6.17 100 20:33 04.08.2022
2353 Clear 32 1018 68 10000 1.34 0 18:58 04.08.2022
2354 Clouds 32 1018 68 10000 6.69 130 18:33 04.08.2022
2355 Clouds 29 1018 77 10000 4.12 110 15:51 04.08.2022
2356 Clouds 27 1018 84 10000 4.12 100 13:26 04.08.2022
2357 Clouds 28 1017 81 10000 3.6 90 11:39 04.08.2022
2358 Clouds 28 1017 82 10000 2.06 0 10:21 04.08.2022
2359 Clouds 28 1018 82 10000 3.09 80 07:45 04.08.2022
2360 Clouds 29 1017 74 10000 4.63 110 02:48 04.08.2022
2361 Clouds 31 1016 68 10000 5.66 130 00:43 04.08.2022
2362 Clouds 32 1016 62 10000 5.66 130 23:40 03.08.2022
2363 Clouds 32 1017 61 10000 4.63 110 21:31 03.08.2022
2364 Clouds 33 1017 62 10000 5.66 120 20:21 03.08.2022
2365 Clouds 32 1018 63 10000 4.63 130 19:24 03.08.2022
2366 Clouds 31 1018 70 10000 3.09 110 16:50 03.08.2022
2367 Clouds 31 1018 72 10000 3.09 110 16:22 03.08.2022
2368 Clouds 27 1017 80 10000 2.06 50 13:52 03.08.2022
2369 Clouds 26 1017 79 10000 4.21 99 10:57 03.08.2022
2370 Clouds 26 1018 79 10000 1.54 20 07:32 03.08.2022
2371 Clouds 28 1019 78 10000 1.54 40 04:22 03.08.2022
2372 Clouds 28 1018 78 10000 2.06 60 03:23 03.08.2022
2373 Clouds 30 1017 73 10000 1.79 93 00:53 03.08.2022
2374 Clouds 32 1018 66 10000 4.63 110 22:43 02.08.2022
2375 Thunderstorm 32 1018 66 10000 5.14 110 21:52 02.08.2022
2376 Thunderstorm 32 1019 66 10000 4.12 130 20:32 02.08.2022
2377 Clouds 33 1020 66 10000 3.09 120 18:39 02.08.2022
2378 Clouds 30 1019 75 10000 4.63 110 15:27 02.08.2022
2379 Clouds 27 1019 86 10000 4.12 110 11:30 02.08.2022
2380 Clouds 28 1020 85 10000 0.45 87 08:59 02.08.2022
2381 Clouds 28 1020 84 10000 4.63 110 07:52 02.08.2022
2382 Clouds 29 1020 83 10000 4.12 100 06:42 02.08.2022
2383 Clouds 29 1020 84 10000 1.34 73 04:54 02.08.2022
2384 Clouds 32 1020 70 10000 6.69 130 23:35 01.08.2022
2385 Clouds 32 1020 68 10000 6.69 120 22:23 01.08.2022
2386 Clouds 32 1021 66 10000 6.69 110 20:51 01.08.2022
2387 Clouds 33 1022 67 10000 8.23 130 19:23 01.08.2022
2388 Clouds 32 1022 68 10000 6.17 130 18:30 01.08.2022
2389 Clouds 31 1022 72 10000 5.66 110 16:53 01.08.2022
2390 Clouds 30 1021 75 10000 5.14 100 15:52 01.08.2022
2391 Clouds 30 1021 75 10000 5.14 100 15:52 01.08.2022
2392 Clouds 30 1022 75 10000 5.14 100 15:30 01.08.2022
2393 Clouds 28 1021 85 10000 4.12 130 13:48 01.08.2022
2394 Clouds 27 1020 89 10000 3.09 80 11:50 01.08.2022
2395 Clouds 27 1021 85 10000 4.63 70 09:39 01.08.2022
2396 Clouds 29 1022 84 10000 3.6 110 08:22 01.08.2022
2397 Clouds 29 1021 82 10000 5.14 100 04:48 01.08.2022
2398 Clouds 29 1021 79 10000 6.17 100 02:32 01.08.2022
2399 Clouds 31 1021 73 10000 1.79 80 23:54 31.07.2022
2400 Clouds 32 1021 68 10000 6.69 100 22:38 31.07.2022
2401 Clouds 32 1022 68 10000 6.69 90 21:24 31.07.2022
2402 Clouds 32 1022 67 10000 6.69 120 19:41 31.07.2022
2403 Clouds 32 1022 69 10000 6.69 90 17:48 31.07.2022
2404 Clouds 30 1022 75 10000 6.17 80 15:37 31.07.2022
2405 Clouds 28 1021 82 10000 3.09 80 13:42 31.07.2022
2406 Clouds 28 1021 81 10000 1.34 84 11:55 31.07.2022
2407 Clouds 28 1021 79 10000 5.66 100 09:36 31.07.2022
2408 Clouds 28 1022 78 10000 5.66 90 07:38 31.07.2022
2409 Clouds 29 1020 77 10000 1.79 80 02:58 31.07.2022
2410 Clouds 31 1020 69 10000 6.69 90 23:36 30.07.2022
2411 Clouds 31 1021 69 10000 6.69 90 22:19 30.07.2022
2412 Clouds 32 1021 70 10000 6.17 110 21:48 30.07.2022
2413 Clear 32 1021 68 10000 2.68 0 20:56 30.07.2022
2414 Clear 32 1021 67 10000 2.68 85 19:58 30.07.2022
2415 Clear 31 1022 70 10000 2.24 91 18:53 30.07.2022
2416 Clouds 32 1022 67 10000 6.17 120 17:44 30.07.2022
2417 Clouds 30 1021 72 10000 6.17 100 15:50 30.07.2022
2418 Clouds 30 1021 72 10000 6.17 100 15:22 30.07.2022
2419 Clouds 28 1020 81 10000 0.89 114 12:59 30.07.2022
2420 Clouds 28 1019 80 10000 0.89 103 11:55 30.07.2022
2421 Clouds 28 1019 81 10000 5.14 110 10:31 30.07.2022
2422 Clouds 28 1019 83 10000 1.34 94 09:54 30.07.2022
2423 Clear 28 1020 80 10000 2.24 93 07:55 30.07.2022
2424 Clouds 29 1019 77 10000 6.17 100 02:37 30.07.2022
2425 Clouds 29 1018 74 10000 5.66 80 01:49 30.07.2022
2426 Clouds 32 1019 66 10000 6.17 120 22:41 29.07.2022
2427 Clouds 32 1019 64 10000 6.69 110 21:24 29.07.2022
2428 Clouds 32 1019 65 10000 7.2 120 20:35 29.07.2022
2429 Clouds 32 1020 71 10000 2.24 89 17:59 29.07.2022
2430 Clouds 30 1019 78 10000 7.2 130 15:35 29.07.2022
2431 Clouds 28 1018 82 10000 3.09 70 13:19 29.07.2022
2432 Clouds 28 1018 82 10000 3.6 90 11:22 29.07.2022
2433 Clouds 28 1019 80 10000 3.6 100 08:50 29.07.2022
2434 Clear 28 1019 81 10000 1.79 94 07:54 29.07.2022
2435 Clouds 29 1019 77 10000 5.14 50 01:52 29.07.2022
2436 Clouds 32 1019 67 10000 6.17 90 22:49 28.07.2022
2437 Clouds 32 1019 66 10000 4.63 90 21:20 28.07.2022
2438 Clouds 32 1020 67 10000 5.14 90 20:32 28.07.2022
2439 Clouds 32 1020 68 10000 5.66 90 19:43 28.07.2022
2440 Clouds 32 1020 68 10000 5.66 90 19:23 28.07.2022
2441 Clouds 32 1020 68 10000 5.66 100 17:44 28.07.2022
2442 Clouds 31 1020 72 10000 1.79 92 16:55 28.07.2022
2443 Clouds 30 1019 75 10000 5.66 100 15:32 28.07.2022
2444 Clouds 27 1019 83 10000 1.54 100 13:30 28.07.2022
2445 Clouds 27 1018 83 10000 1.54 100 11:27 28.07.2022
2446 Clouds 28 1021 81 10000 4.12 90 06:45 28.07.2022
2447 Clouds 28 1021 81 10000 3.6 90 05:31 28.07.2022
2448 Clouds 30 1019 74 10000 4.12 120 01:23 28.07.2022
2449 Clouds 32 1019 69 10000 6.69 130 22:41 27.07.2022
2450 Clouds 32 1020 70 10000 5.66 130 21:29 27.07.2022
2451 Clouds 32 1020 70 10000 5.66 150 19:43 27.07.2022
2452 Clouds 31 1020 73 10000 6.17 130 17:50 27.07.2022
2453 Clouds 29 1020 83 10000 3.09 130 15:52 27.07.2022
2454 Clouds 28 1019 87 10000 3.09 130 15:20 27.07.2022
2455 Clouds 27 1019 91 10000 4.12 120 14:40 27.07.2022
2456 Clouds 26 1018 94 10000 1.54 80 12:50 27.07.2022
2457 Rain 23 1020 91 10000 3.09 30 08:44 27.07.2022
2458 Mist 25 1021 87 6437 8.23 190 07:24 27.07.2022
2459 Clouds 27 1019 86 10000 4.63 90 02:42 27.07.2022
2460 Clouds 28 1019 85 10000 1.54 190 22:39 26.07.2022
2461 Clouds 25 1020 88 10000 1.54 140 21:23 26.07.2022
2462 Thunderstorm 24 1020 97 4828 2.57 300 20:43 26.07.2022
2463 Thunderstorm 29 1020 82 10000 5.14 90 18:44 26.07.2022
2464 Clouds 30 1020 79 10000 6.17 130 18:19 26.07.2022
2465 Clouds 29 1020 82 10000 3.09 70 16:46 26.07.2022
2466 Mist 27 1019 90 10000 1.54 30 15:42 26.07.2022
2467 Thunderstorm 24 1019 91 4023 3.6 100 13:47 26.07.2022
2468 Thunderstorm 27 1017 86 10000 6.17 100 11:39 26.07.2022
2469 Thunderstorm 27 1018 87 10000 1.54 140 09:32 26.07.2022
2470 Rain 27 1019 85 10000 4.63 120 07:31 26.07.2022
2471 Clouds 30 1017 75 10000 2.24 81 00:57 26.07.2022
2472 Clouds 31 1018 72 10000 7.2 100 23:33 25.07.2022
2473 Clouds 31 1018 73 10000 6.17 90 22:27 25.07.2022
2474 Clouds 31 1018 69 10000 6.17 110 21:43 25.07.2022
2475 Clouds 32 1019 68 10000 6.17 80 20:42 25.07.2022
2476 Clouds 31 1019 69 10000 6.69 90 19:51 25.07.2022
2477 Clouds 31 1019 69 10000 6.69 100 18:23 25.07.2022
2478 Clouds 31 1019 71 10000 7.2 110 17:33 25.07.2022
2479 Clouds 30 1019 76 10000 6.17 110 15:37 25.07.2022
2480 Clouds 27 1018 83 10000 6.17 90 12:33 25.07.2022
2481 Clouds 28 1018 82 10000 4.63 90 10:38 25.07.2022
2482 Clouds 28 1019 79 10000 5.66 70 06:51 25.07.2022
2483 Clouds 31 1018 71 10000 1.34 73 23:56 24.07.2022
2484 Clouds 32 1018 67 10000 6.17 100 23:19 24.07.2022
2485 Clouds 32 1018 68 10000 6.69 120 22:35 24.07.2022
2486 Clouds 32 1019 66 10000 6.17 90 21:28 24.07.2022
2487 Clouds 32 1020 68 10000 2.24 91 20:53 24.07.2022
2488 Clouds 32 1020 66 10000 6.69 90 20:29 24.07.2022
2489 Clouds 32 1020 67 10000 4.63 160 18:57 24.07.2022
2490 Clouds 31 1020 66 10000 7.2 100 16:51 24.07.2022
2491 Clouds 31 1019 73 10000 2.24 166 15:53 24.07.2022
2492 Clouds 29 1019 78 10000 5.14 90 14:40 24.07.2022
2493 Clouds 28 1018 80 10000 4.63 100 13:25 24.07.2022
2494 Clouds 28 1018 79 10000 5.14 90 12:19 24.07.2022
2495 Clouds 28 1018 79 10000 5.14 90 11:26 24.07.2022
2496 Clouds 28 1019 80 10000 3.6 60 09:33 24.07.2022
2497 Clear 28 1019 81 10000 0.89 75 07:53 24.07.2022
2498 Clouds 28 1020 78 10000 4.12 90 06:38 24.07.2022
2499 Clouds 29 1019 76 10000 4.63 110 02:33 24.07.2022
2500 Clouds 32 1019 65 10000 7.2 100 22:31 23.07.2022
2501 Clouds 32 1020 69 10000 7.72 110 20:41 23.07.2022
2502 Clouds 32 1020 67 10000 1.79 104 18:55 23.07.2022
2503 Clouds 32 1020 69 10000 7.2 130 17:48 23.07.2022
2504 Clouds 32 1020 69 10000 7.2 130 17:24 23.07.2022
2505 Clouds 31 1020 75 10000 6.17 130 15:55 23.07.2022
2506 Clouds 30 1020 77 10000 6.17 100 15:21 23.07.2022
2507 Clouds 29 1019 80 10000 4.12 90 14:47 23.07.2022
2508 Clouds 28 1019 85 10000 0.89 95 13:54 23.07.2022
2509 Clouds 27 1019 83 10000 1.54 260 11:47 23.07.2022
2510 Clouds 27 1019 86 10000 1.54 340 10:28 23.07.2022
2511 Clouds 27 1019 84 10000 0.45 66 09:28 23.07.2022
2512 Clouds 27 1019 80 10000 0 0 06:40 23.07.2022
2513 Clouds 29 1019 77 10000 4.12 130 03:37 23.07.2022
2514 Clouds 31 1018 72 10000 1.79 101 23:59 22.07.2022
2515 Clouds 33 1019 67 10000 7.2 130 21:28 22.07.2022
2516 Clouds 33 1019 67 10000 6.17 130 20:29 22.07.2022
2517 Clouds 32 1019 73 10000 2.24 0 18:41 22.07.2022
2518 Clouds 31 1019 71 10000 5.66 120 17:38 22.07.2022
2519 Clouds 29 1018 79 10000 2.57 20 15:35 22.07.2022
2520 Clouds 27 1017 84 10000 3.09 120 12:47 22.07.2022
2521 Clouds 28 1016 82 10000 1.34 118 09:56 22.07.2022
2522 Clouds 28 1017 80 10000 4.63 110 09:21 22.07.2022
2523 Clouds 29 1017 79 10000 5.66 130 07:51 22.07.2022
2524 Clouds 29 1018 76 10000 4.12 110 04:22 22.07.2022
2525 Clouds 32 1017 65 10000 5.14 110 23:36 21.07.2022
2526 Clouds 33 1017 63 10000 5.66 140 21:41 21.07.2022
2527 Clouds 33 1018 64 10000 6.17 130 19:42 21.07.2022
2528 Clouds 33 1019 62 10000 4.12 130 18:30 21.07.2022
2529 Clouds 32 1018 64 10000 4.12 100 17:21 21.07.2022
2530 Clouds 31 1018 67 10000 3.6 150 16:23 21.07.2022
2531 Clouds 29 1017 76 10000 3.09 170 14:46 21.07.2022
2532 Clouds 28 1017 79 10000 1.34 124 13:58 21.07.2022
2533 Clear 28 1016 79 10000 1.79 136 11:58 21.07.2022
2534 Clouds 28 1015 76 10000 5.14 130 10:20 21.07.2022
2535 Clear 29 1016 78 10000 2.68 103 08:53 21.07.2022
2536 Clouds 29 1017 78 10000 5.66 100 07:50 21.07.2022
2537 Clouds 29 1017 78 10000 4.12 110 06:45 21.07.2022
2538 Clear 29 1017 77 10000 0.89 112 02:59 21.07.2022
2539 Clouds 32 1017 64 10000 5.66 130 22:49 20.07.2022
2540 Clouds 32 1017 64 10000 5.66 130 22:19 20.07.2022
2541 Clouds 33 1018 65 10000 5.66 120 20:46 20.07.2022
2542 Clouds 33 1018 64 10000 6.17 120 19:47 20.07.2022
2543 Clouds 33 1018 67 10000 2.24 102 18:56 20.07.2022
2544 Clouds 32 1019 66 10000 5.66 120 18:31 20.07.2022
2545 Clouds 32 1019 67 10000 6.17 120 17:33 20.07.2022
2546 Clouds 30 1019 73 10000 4.12 110 15:38 20.07.2022
2547 Clouds 29 1019 77 10000 4.63 120 14:49 20.07.2022
2548 Clouds 28 1018 82 10000 2.06 90 13:44 20.07.2022
2549 Clouds 28 1017 82 10000 3.09 90 11:29 20.07.2022
2550 Clear 28 1019 82 10000 2.57 100 06:49 20.07.2022
2551 Clear 30 1018 74 10000 0.89 86 01:58 20.07.2022
2552 Clouds 31 1018 65 10000 4.12 130 00:43 20.07.2022
2553 Clouds 32 1019 62 10000 5.66 110 22:39 19.07.2022
2554 Clouds 32 1019 62 10000 5.66 110 22:21 19.07.2022
2555 Clouds 33 1020 64 10000 4.12 150 20:50 19.07.2022
2556 Clouds 33 1020 64 10000 5.66 120 19:38 19.07.2022
2557 Clouds 32 1021 65 10000 5.66 130 18:43 19.07.2022
2558 Clear 32 1021 66 10000 2.24 150 17:56 19.07.2022
2559 Clouds 31 1020 72 10000 5.66 120 16:25 19.07.2022
2560 Clear 28 1020 86 10000 1.34 83 14:20 19.07.2022
2561 Clear 27 1019 86 10000 0 0 11:35 19.07.2022
2562 Clear 27 1018 86 10000 0.45 114 09:58 19.07.2022
2563 Clear 27 1019 84 10000 2.57 110 08:48 19.07.2022
2564 Clear 27 1020 84 10000 2.57 110 08:22 19.07.2022
2565 Clear 28 1020 83 10000 1.54 130 07:18 19.07.2022
2566 Clear 28 1020 80 10000 3.09 140 05:26 19.07.2022
2567 Clear 29 1020 77 10000 2.57 140 04:41 19.07.2022
2568 Clouds 31 1019 73 10000 6.17 130 00:31 19.07.2022
2569 Clouds 32 1019 71 10000 8.23 160 23:21 18.07.2022
2570 Clouds 32 1019 72 10000 4.02 141 22:56 18.07.2022
2571 Clouds 33 1019 72 10000 3.13 133 21:53 18.07.2022
2572 Clouds 33 1020 71 10000 6.69 140 20:50 18.07.2022
2573 Clouds 33 1020 70 10000 6.17 140 19:24 18.07.2022
2574 Clouds 32 1020 73 10000 6.69 160 17:22 18.07.2022
2575 Clouds 31 1019 76 10000 5.66 140 15:46 18.07.2022
2576 Clouds 29 1019 81 10000 2.57 140 14:24 18.07.2022
2577 Clouds 28 1018 86 10000 2.57 140 12:38 18.07.2022
2578 Clouds 28 1018 84 10000 2.57 140 10:37 18.07.2022
2579 Clouds 28 1018 85 10000 2.06 130 08:51 18.07.2022
2580 Clouds 29 1018 83 10000 4.12 140 06:58 18.07.2022
2581 Thunderstorm 30 1017 77 10000 4.63 140 00:36 18.07.2022
2582 Thunderstorm 31 1017 73 10000 5.66 140 22:34 17.07.2022
2583 Clouds 32 1017 70 10000 7.2 120 21:49 17.07.2022
2584 Clouds 33 1017 69 10000 6.69 140 21:18 17.07.2022
2585 Clouds 33 1018 66 10000 7.2 160 20:37 17.07.2022
2586 Clouds 32 1018 66 10000 6.69 160 19:29 17.07.2022
2587 Clouds 32 1017 71 10000 6.17 190 18:30 17.07.2022
2588 Clouds 30 1017 78 10000 6.17 150 17:38 17.07.2022
2589 Clear 29 1017 81 10000 5.66 160 16:51 17.07.2022
2590 Clear 29 1017 81 10000 5.66 160 16:51 17.07.2022
2591 Clear 29 1017 83 10000 5.66 160 16:26 17.07.2022
2592 Clouds 27 1016 87 10000 4.63 150 14:44 17.07.2022
2593 Clouds 26 1016 90 10000 4.63 140 13:31 17.07.2022
2594 Clouds 27 1015 89 10000 1.54 130 11:35 17.07.2022
2595 Clouds 27 1015 88 10000 1.54 130 09:24 17.07.2022
2596 Thunderstorm 26 1017 87 10000 1.54 360 03:44 17.07.2022
2597 Thunderstorm 26 1016 85 10000 2.06 330 02:32 17.07.2022
2598 Clouds 30 1015 73 10000 6.69 120 23:20 16.07.2022
2599 Clouds 31 1016 73 10000 5.66 140 21:30 16.07.2022
2600 Clouds 32 1016 69 10000 5.14 120 19:40 16.07.2022
2601 Clouds 31 1017 72 10000 5.14 120 18:32 16.07.2022
2602 Clouds 31 1017 72 10000 5.14 120 18:32 16.07.2022
2603 Clouds 30 1017 73 10000 4.63 130 16:34 16.07.2022
2604 Clouds 28 1016 80 10000 0.89 120 13:56 16.07.2022
2605 Clouds 27 1016 80 10000 1.34 100 10:55 16.07.2022
2606 Clouds 27 1017 80 10000 3.09 80 09:33 16.07.2022
2607 Clouds 27 1017 80 10000 3.6 110 08:44 16.07.2022
2608 Clouds 27 1017 79 10000 3.6 110 08:23 16.07.2022
2609 Clouds 28 1018 77 10000 5.66 100 04:21 16.07.2022
2610 Clouds 28 1017 75 10000 5.14 90 03:22 16.07.2022
2611 Clouds 30 1017 71 10000 7.2 100 23:34 15.07.2022
2612 Clouds 30 1018 70 10000 8.23 90 22:41 15.07.2022
2613 Clouds 31 1018 68 10000 7.72 110 21:29 15.07.2022
2614 Clouds 30 1019 70 10000 6.17 70 20:30 15.07.2022
2615 Clouds 30 1019 72 10000 4.63 40 18:42 15.07.2022
2616 Clouds 30 1020 69 10000 6.69 90 17:44 15.07.2022
2617 Clouds 29 1019 77 10000 1.34 81 14:54 15.07.2022
2618 Clouds 27 1019 79 10000 2.06 360 13:18 15.07.2022
2619 Clouds 26 1018 78 10000 0 0 11:44 15.07.2022
2620 Clouds 26 1019 78 10000 2.06 210 10:27 15.07.2022
2621 Clouds 28 1019 72 10000 1.54 80 06:30 15.07.2022
2622 Clouds 31 1019 68 10000 5.66 120 01:32 15.07.2022
2623 Clear 32 1018 66 10000 6.17 140 00:37 15.07.2022
2624 Clear 33 1018 66 10000 1.79 145 22:53 14.07.2022
2625 Clear 33 1019 68 10000 2.68 135 21:54 14.07.2022
2626 Clear 33 1020 64 10000 6.69 120 21:30 14.07.2022
2627 Clouds 33 1019 63 10000 6.69 130 20:45 14.07.2022
2628 Clouds 33 1020 63 10000 6.69 130 20:26 14.07.2022
2629 Clouds 33 1020 65 10000 5.66 140 19:45 14.07.2022
2630 Clouds 31 1020 67 10000 2.06 160 16:23 14.07.2022
2631 Clouds 30 1019 72 10000 1.79 153 15:50 14.07.2022
2632 Clouds 29 1019 82 10000 3.6 110 14:43 14.07.2022
2633 Clear 27 1019 85 10000 3.09 110 13:32 14.07.2022
2634 Clouds 26 1018 87 10000 0 0 12:18 14.07.2022
2635 Clouds 25 1019 89 10000 0 0 11:25 14.07.2022
2636 Clouds 26 1018 88 10000 2.06 120 10:39 14.07.2022
2637 Clouds 27 1019 86 10000 1.34 165 08:21 14.07.2022
2638 Clouds 28 1019 77 10000 2.06 360 03:29 14.07.2022
2639 Clouds 30 1018 70 10000 0.45 299 00:54 14.07.2022
2640 Clouds 30 1019 67 10000 5.14 300 23:38 13.07.2022
2641 Clouds 32 1018 66 10000 6.17 150 22:26 13.07.2022
2642 Clouds 33 1018 66 10000 7.2 140 21:30 13.07.2022
2643 Clouds 34 1019 65 10000 6.17 120 20:26 13.07.2022
2644 Clouds 33 1019 69 10000 2.68 126 17:56 13.07.2022
2645 Clouds 33 1019 72 10000 2.24 128 16:59 13.07.2022
2646 Clouds 32 1019 73 10000 4.12 130 15:59 13.07.2022
2647 Clouds 29 1018 82 10000 1.54 150 13:45 13.07.2022
2648 Clouds 28 1018 85 10000 2.06 90 11:24 13.07.2022
2649 Clouds 28 1017 84 10000 2.06 100 10:40 13.07.2022
2650 Clouds 28 1018 85 10000 3.09 110 09:28 13.07.2022
2651 Clouds 28 1018 84 10000 2.06 110 08:21 13.07.2022
2652 Clouds 29 1018 79 10000 4.12 130 04:36 13.07.2022
2653 Clouds 32 1016 69 10000 4.63 130 00:47 13.07.2022
2654 Clouds 33 1016 64 10000 5.81 120 22:46 12.07.2022
2655 Clouds 33 1016 64 10000 5.36 150 21:46 12.07.2022
2656 Clear 34 1016 65 10000 3.13 129 20:53 12.07.2022
2657 Clouds 33 1017 64 10000 5.36 130 19:48 12.07.2022
2658 Clouds 33 1017 64 10000 3.6 150 18:43 12.07.2022
2659 Clouds 31 1017 73 10000 4.63 160 16:36 12.07.2022
2660 Clouds 29 1016 81 10000 4.12 180 14:32 12.07.2022
2661 Clouds 29 1016 81 10000 4.12 180 14:32 12.07.2022
2662 Clouds 28 1016 85 10000 1.54 120 13:43 12.07.2022
2663 Clouds 27 1015 89 10000 0.45 3 11:54 12.07.2022
2664 Clouds 27 1015 83 10000 0 0 10:27 12.07.2022
2665 Clouds 27 1015 86 10000 1.66 207 08:58 12.07.2022
2666 Clouds 27 1016 82 10000 0 0 07:48 12.07.2022
2667 Clouds 27 1016 80 10000 0 0 05:47 12.07.2022
2668 Clouds 28 1016 79 10000 0 0 05:29 12.07.2022
2669 Clouds 31 1014 70 10000 5.36 160 01:31 12.07.2022
2670 Clouds 33 1014 62 10000 7.2 140 22:48 11.07.2022
2671 Clouds 34 1014 60 10000 6.26 160 21:34 11.07.2022
2672 Clouds 33 1015 62 10000 6.26 120 20:33 11.07.2022
2673 Clouds 33 1015 60 10000 5.36 110 19:27 11.07.2022
2674 Clouds 33 1015 63 10000 3.6 210 18:30 11.07.2022
2675 Clouds 31 1016 69 10000 4.12 180 16:34 11.07.2022
2676 Clouds 30 1015 72 10000 4.12 190 15:33 11.07.2022
2677 Clouds 27 1015 83 10000 0.45 204 13:27 11.07.2022
2678 Clouds 27 1015 84 10000 2.24 180 11:24 11.07.2022
2679 Clouds 27 1015 84 10000 2.57 160 10:18 11.07.2022
2680 Clear 27 1015 84 10000 2.24 200 09:40 11.07.2022
2681 Clouds 27 1015 83 10000 2.24 190 08:33 11.07.2022
2682 Clouds 30 1015 72 10000 1.34 221 02:59 11.07.2022
2683 Clouds 31 1015 64 10000 3.13 245 00:18 11.07.2022
2684 Clouds 32 1015 67 10000 3.58 163 22:52 10.07.2022
2685 Clouds 33 1016 67 10000 3.13 159 21:39 10.07.2022
2686 Clouds 33 1016 65 10000 3.13 0 20:41 10.07.2022
2687 Thunderstorm 33 1017 65 10000 7.2 210 19:48 10.07.2022
2688 Clouds 32 1017 67 10000 4.12 170 18:43 10.07.2022
2689 Clouds 32 1018 69 10000 4.12 160 17:36 10.07.2022
2690 Clouds 31 1018 73 10000 4.63 190 16:45 10.07.2022
2691 Clouds 29 1018 79 10000 3.6 180 15:25 10.07.2022
2692 Clouds 28 1017 82 10000 2.24 200 14:21 10.07.2022
2693 Clouds 27 1017 86 10000 1.54 160 12:27 10.07.2022
2694 Clear 28 1017 84 10000 1.79 166 09:58 10.07.2022
2695 Clouds 28 1017 82 10000 2.57 190 08:44 10.07.2022
2696 Clouds 28 1018 81 10000 3.13 190 07:30 10.07.2022
2697 Clouds 30 1017 73 10000 6.17 150 01:33 10.07.2022
2698 Clouds 33 1018 67 10000 7.2 150 22:43 09.07.2022
2699 Clouds 33 1018 66 10000 7.2 150 22:24 09.07.2022
2700 Clouds 33 1019 64 10000 6.71 140 20:46 09.07.2022
2701 Clouds 32 1020 68 10000 4.63 150 18:38 09.07.2022
2702 Clouds 32 1020 68 10000 4.63 170 17:45 09.07.2022
2703 Clouds 31 1020 71 10000 6.69 150 16:44 09.07.2022
2704 Clouds 30 1019 75 10000 5.36 150 15:41 09.07.2022
2705 Clouds 29 1019 81 10000 3.13 134 14:36 09.07.2022
2706 Clouds 28 1019 84 10000 3.13 130 13:50 09.07.2022
2707 Clouds 27 1018 85 10000 2.06 130 12:47 09.07.2022
2708 Clouds 27 1018 86 10000 2.06 180 11:31 09.07.2022
2709 Clouds 27 1018 86 10000 1.54 130 10:22 09.07.2022
2710 Clouds 27 1019 85 10000 3.13 139 07:53 09.07.2022
2711 Clouds 28 1020 83 10000 3.13 90 05:24 09.07.2022
2712 Clouds 29 1018 77 10000 5.36 110 02:34 09.07.2022
2713 Clouds 32 1018 70 10000 2.68 136 22:59 08.07.2022
2714 Clouds 32 1018 69 10000 1.79 119 21:59 08.07.2022
2715 Clouds 32 1018 67 10000 6.69 130 20:42 08.07.2022
2716 Clouds 33 1018 66 10000 6.69 130 20:23 08.07.2022
2717 Clouds 32 1019 69 10000 6.26 140 18:29 08.07.2022
2718 Clouds 31 1019 74 10000 5.81 130 17:21 08.07.2022
2719 Clouds 31 1019 74 10000 5.81 130 17:21 08.07.2022
2720 Clouds 29 1018 80 10000 0.89 105 14:54 08.07.2022
2721 Clouds 28 1017 83 10000 4.63 150 13:45 08.07.2022
2722 Clouds 27 1017 86 10000 1.34 100 11:59 08.07.2022
2723 Clouds 28 1017 78 10000 3.6 100 10:37 08.07.2022
2724 Clouds 27 1017 78 10000 3.13 110 08:44 08.07.2022
2725 Clouds 28 1018 77 10000 4.12 120 06:50 08.07.2022
2726 Clouds 29 1016 72 10000 6.71 110 01:49 08.07.2022
2727 Clouds 32 1016 65 10000 6.26 110 23:30 07.07.2022
2728 Clouds 32 1017 63 10000 5.66 100 22:38 07.07.2022
2729 Clouds 32 1017 64 10000 5.66 110 20:40 07.07.2022
2730 Clouds 32 1018 65 10000 5.81 130 18:23 07.07.2022
2731 Clouds 31 1017 67 10000 4.12 140 17:19 07.07.2022
2732 Clouds 29 1018 78 10000 3.09 140 15:18 07.07.2022
2733 Clouds 26 1017 90 10000 0.45 108 13:25 07.07.2022
2734 Clouds 26 1017 86 10000 3.6 120 12:39 07.07.2022
2735 Clouds 26 1016 86 10000 3.6 120 12:19 07.07.2022
2736 Clouds 27 1017 87 10000 1.54 30 11:29 07.07.2022
2737 Clouds 26 1016 87 10000 1.54 350 10:43 07.07.2022
2738 Clouds 27 1016 86 10000 1.54 350 10:25 07.07.2022
2739 Clouds 27 1017 84 10000 0.89 142 07:40 07.07.2022
2740 Clouds 28 1017 81 10000 1.34 144 04:18 07.07.2022
2741 Clouds 31 1016 74 10000 2.24 133 23:37 06.07.2022
2742 Clouds 32 1016 72 10000 1.79 123 23:19 06.07.2022
2743 Clouds 32 1017 69 10000 5.81 120 22:56 06.07.2022
2744 Clouds 32 1017 68 10000 5.81 120 22:38 06.07.2022
2745 Clouds 33 1017 68 10000 6.17 140 21:27 06.07.2022
2746 Clouds 32 1018 70 10000 6.26 140 19:38 06.07.2022
2747 Clouds 31 1018 76 10000 5.66 130 18:21 06.07.2022
2748 Clouds 31 1017 74 10000 6.17 140 16:19 06.07.2022
2749 Clouds 29 1017 83 10000 1.34 0 14:55 06.07.2022
2750 Clouds 27 1016 86 10000 1.79 131 12:40 06.07.2022
2751 Clouds 27 1016 85 10000 1.54 140 11:49 06.07.2022
2752 Clouds 27 1016 85 10000 2.24 130 10:18 06.07.2022
2753 Clouds 27 1017 86 10000 2.24 140 07:47 06.07.2022
2754 Clouds 27 1017 87 10000 2.24 140 07:23 06.07.2022
2755 Clouds 28 1017 86 10000 3.13 170 05:28 06.07.2022
2756 Clouds 31 1016 73 10000 5.81 90 22:48 05.07.2022
2757 Clouds 31 1016 74 10000 2.24 86 21:53 05.07.2022
2758 Clouds 32 1018 68 10000 5.36 100 20:39 05.07.2022
2759 Clouds 32 1018 72 10000 4.63 110 19:43 05.07.2022
2760 Clouds 32 1017 73 10000 4.63 60 19:22 05.07.2022
2761 Clouds 31 1018 73 10000 5.36 60 17:48 05.07.2022
2762 Clouds 31 1018 73 10000 1.79 83 16:55 05.07.2022
2763 Clouds 30 1018 77 10000 5.36 90 15:31 05.07.2022
2764 Clouds 29 1018 82 10000 3.13 70 14:28 05.07.2022
2765 Clouds 27 1017 85 10000 4.12 90 12:47 05.07.2022
2766 Clouds 27 1017 84 10000 3.13 90 11:49 05.07.2022
2767 Clouds 28 1017 83 10000 3.13 90 10:40 05.07.2022
2768 Clouds 28 1017 83 10000 3.6 100 09:23 05.07.2022
2769 Clouds 28 1018 82 10000 4.12 90 07:47 05.07.2022
2770 Clouds 28 1019 81 10000 4.12 90 04:51 05.07.2022
2771 Clouds 29 1019 80 10000 4.12 90 04:23 05.07.2022
2772 Clouds 31 1017 69 10000 6.71 90 00:26 05.07.2022
2773 Clouds 32 1017 67 10000 6.71 100 23:31 04.07.2022
2774 Clouds 32 1018 68 10000 7.72 80 22:27 04.07.2022
2775 Clouds 32 1018 69 10000 7.2 110 21:41 04.07.2022
2776 Clear 32 1019 70 10000 2.68 74 20:53 04.07.2022
2777 Clouds 32 1019 67 10000 5.81 80 20:33 04.07.2022
2778 Clouds 33 1019 68 10000 2.68 87 19:54 04.07.2022
2779 Clouds 32 1019 65 10000 4.63 90 19:35 04.07.2022
2780 Clouds 32 1020 69 10000 2.68 95 17:58 04.07.2022
2781 Clouds 30 1019 75 10000 3.6 110 15:50 04.07.2022
2782 Clouds 29 1019 75 10000 3.6 110 15:31 04.07.2022
2783 Clouds 27 1018 84 10000 3.13 90 13:29 04.07.2022
2784 Clouds 27 1018 83 10000 2.24 100 12:21 04.07.2022
2785 Clouds 27 1018 80 10000 4.12 90 10:34 04.07.2022
2786 Clouds 28 1018 80 10000 2.68 100 09:41 04.07.2022
2787 Clouds 28 1019 78 10000 5.81 110 07:33 04.07.2022
2788 Clouds 29 1019 75 10000 5.14 100 03:36 04.07.2022
2789 Clouds 31 1018 69 10000 6.26 100 00:36 04.07.2022
2790 Clouds 32 1019 66 10000 1.79 92 22:59 03.07.2022
2791 Clouds 32 1018 65 10000 2.24 90 20:58 03.07.2022
2792 Clouds 32 1019 63 10000 5.36 90 20:26 03.07.2022
2793 Clouds 32 1019 64 10000 4.63 140 19:27 03.07.2022
2794 Clouds 32 1020 65 10000 5.36 110 18:43 03.07.2022
2795 Clouds 31 1019 66 10000 6.26 100 17:43 03.07.2022
2796 Clear 30 1019 73 10000 3.6 170 15:51 03.07.2022
2797 Clouds 29 1019 78 10000 0.45 161 14:59 03.07.2022
2798 Clouds 28 1019 78 10000 8.23 130 14:18 03.07.2022
2799 Clouds 28 1018 79 10000 2.57 130 13:48 03.07.2022
2800 Clouds 28 1018 78 10000 4.12 120 12:33 03.07.2022
2801 Clouds 28 1018 78 10000 3.6 120 11:28 03.07.2022
2802 Clouds 28 1017 79 10000 3.6 130 10:38 03.07.2022
2803 Clouds 28 1017 78 10000 5.81 110 09:31 03.07.2022
2804 Clouds 28 1018 78 10000 4.63 100 07:35 03.07.2022
2805 Clouds 29 1017 76 10000 5.81 110 02:49 03.07.2022
2806 Clouds 31 1017 66 10000 4.63 130 00:21 03.07.2022
2807 Clouds 32 1017 66 10000 5.81 150 22:33 02.07.2022
2808 Clouds 32 1017 67 10000 2.68 153 20:58 02.07.2022
2809 Clouds 32 1018 64 10000 6.17 130 19:52 02.07.2022
2810 Clouds 32 1018 65 10000 6.17 130 19:20 02.07.2022
2811 Clouds 32 1018 68 10000 6.17 140 17:41 02.07.2022
2812 Clouds 31 1018 71 10000 2.68 146 16:53 02.07.2022
2813 Clouds 29 1017 75 10000 5.36 130 14:31 02.07.2022
2814 Clouds 27 1017 81 10000 4.12 180 12:21 02.07.2022
2815 Clouds 28 1016 80 10000 4.12 110 11:26 02.07.2022
2816 Clouds 28 1016 79 10000 4.12 110 10:39 02.07.2022
2817 Clouds 28 1016 81 10000 4.63 110 09:18 02.07.2022
2818 Clouds 28 1017 82 10000 5.14 140 08:20 02.07.2022
2819 Clouds 28 1017 81 10000 5.14 130 07:27 02.07.2022
2820 Clouds 29 1017 77 10000 1.34 88 01:53 02.07.2022
2821 Clouds 31 1017 71 10000 2.24 99 23:56 01.07.2022
2822 Clouds 32 1018 64 10000 5.81 110 22:41 01.07.2022
2823 Clouds 32 1018 65 10000 5.36 120 21:48 01.07.2022
2824 Clouds 32 1018 66 10000 5.36 120 21:28 01.07.2022
2825 Clouds 32 1018 68 10000 6.69 130 20:40 01.07.2022
2826 Clouds 31 1018 73 10000 5.66 100 19:46 01.07.2022
2827 Clouds 31 1019 69 10000 2.68 86 17:53 01.07.2022
2828 Clouds 31 1019 71 10000 7.2 120 16:22 01.07.2022
2829 Clouds 29 1018 79 10000 1.34 0 13:55 01.07.2022
2830 Clouds 28 1018 81 10000 4.63 100 12:41 01.07.2022
2831 Clouds 27 1018 84 10000 4.12 140 10:20 01.07.2022
2832 Clouds 28 1018 83 10000 4.12 120 09:47 01.07.2022
2833 Clouds 28 1019 81 10000 4.63 120 05:25 01.07.2022
2834 Clouds 30 1019 71 10000 4.63 130 00:42 01.07.2022
2835 Clouds 31 1019 69 10000 7.72 110 23:22 30.06.2022
2836 Clouds 31 1019 68 10000 7.72 110 22:44 30.06.2022
2837 Clouds 32 1018 68 10000 7.72 110 22:25 30.06.2022
2838 Clouds 32 1019 68 10000 7.72 100 21:45 30.06.2022
2839 Clouds 32 1019 69 10000 7.72 110 20:30 30.06.2022
2840 Clouds 32 1019 69 10000 6.17 120 19:55 30.06.2022
2841 Clouds 32 1020 68 10000 5.66 110 19:26 30.06.2022
2842 Clouds 32 1020 66 10000 5.66 140 18:42 30.06.2022
2843 Clouds 32 1020 69 10000 5.81 130 17:49 30.06.2022
2844 Clear 31 1020 72 10000 1.79 138 16:55 30.06.2022
2845 Clouds 30 1020 73 10000 5.36 120 15:44 30.06.2022
2846 Clouds 27 1020 86 10000 1.54 120 13:49 30.06.2022
2847 Clouds 26 1020 87 10000 1.54 70 12:36 30.06.2022
2848 Clouds 27 1019 88 10000 0.45 107 11:59 30.06.2022
2849 Clouds 27 1019 87 10000 0.89 126 09:55 30.06.2022
2850 Clouds 27 1019 86 10000 1.54 130 09:37 30.06.2022
2851 Clouds 27 1021 85 10000 2.57 120 08:19 30.06.2022
2852 Clouds 27 1021 85 10000 2.57 120 08:19 30.06.2022
2853 Clouds 27 1021 83 10000 3.6 130 07:40 30.06.2022
2854 Thunderstorm 28 1020 78 10000 0.45 158 02:49 30.06.2022
2855 Clouds 31 1020 69 10000 3.09 140 23:38 29.06.2022
2856 Thunderstorm 31 1019 66 10000 3.6 110 22:41 29.06.2022
2857 Thunderstorm 32 1020 67 10000 3.13 150 21:59 29.06.2022
2858 Thunderstorm 31 1020 67 10000 6.17 250 20:35 29.06.2022
2859 Thunderstorm 32 1020 64 10000 5.14 120 19:56 29.06.2022
2860 Clouds 32 1020 69 10000 1.79 134 17:55 29.06.2022
2861 Clouds 31 1020 69 10000 2.24 135 16:55 29.06.2022
2862 Clouds 29 1020 75 10000 2.24 90 15:44 29.06.2022
2863 Clouds 26 1019 85 10000 0 0 13:43 29.06.2022
2864 Clouds 26 1019 84 10000 0 0 12:36 29.06.2022
2865 Clouds 26 1019 84 10000 0 0 09:50 29.06.2022
2866 Clouds 26 1019 83 10000 0.45 126 09:26 29.06.2022
2867 Clouds 27 1019 80 10000 2.68 120 06:29 29.06.2022
2868 Clouds 28 1019 74 10000 3.13 130 04:42 29.06.2022
2869 Clear 30 1018 70 10000 2.24 89 00:53 29.06.2022
2870 Clouds 30 1018 68 10000 4.12 100 00:33 29.06.2022
2871 Clouds 31 1018 65 10000 6.71 100 22:50 28.06.2022
2872 Clear 32 1018 66 10000 2.24 96 21:59 28.06.2022
2873 Clouds 32 1018 63 10000 6.26 100 21:40 28.06.2022
2874 Clouds 32 1018 63 10000 6.26 100 21:22 28.06.2022
2875 Clouds 32 1020 64 10000 2.24 103 19:54 28.06.2022
2876 Clouds 32 1019 62 10000 5.81 110 19:30 28.06.2022
2877 Clouds 31 1019 64 10000 4.63 120 18:40 28.06.2022
2878 Clouds 31 1019 67 10000 4.63 120 17:25 28.06.2022
2879 Clouds 30 1018 73 10000 0.89 89 15:55 28.06.2022
2880 Clouds 28 1018 78 10000 3.13 130 14:52 28.06.2022
2881 Clouds 28 1017 80 10000 3.13 130 14:19 28.06.2022
2882 Clouds 27 1017 82 10000 3.6 110 13:45 28.06.2022
2883 Clouds 26 1016 83 10000 1.54 80 12:30 28.06.2022
2884 Clouds 27 1016 82 10000 0.89 122 10:40 28.06.2022
2885 Clouds 27 1016 82 10000 1.34 132 08:56 28.06.2022
2886 Clouds 27 1016 81 10000 3.09 130 08:37 28.06.2022
2887 Clouds 27 1017 81 10000 2.24 130 07:20 28.06.2022
2888 Clear 28 1017 78 10000 1.34 130 03:55 28.06.2022
2889 Clouds 31 1015 65 10000 7.2 130 23:51 27.06.2022
2890 Clouds 31 1015 66 10000 7.2 130 23:27 27.06.2022
2891 Thunderstorm 32 1015 66 10000 7.72 130 22:25 27.06.2022
2892 Clouds 32 1016 64 10000 4.63 130 21:29 27.06.2022
2893 Clouds 32 1016 64 10000 4.12 90 20:33 27.06.2022
2894 Clouds 32 1016 66 10000 2.68 152 18:51 27.06.2022
2895 Clouds 32 1017 65 10000 3.13 0 17:44 27.06.2022
2896 Clouds 30 1017 71 10000 1.54 120 15:50 27.06.2022
2897 Clouds 28 1016 78 10000 2.24 120 14:25 27.06.2022
2898 Clouds 27 1016 83 10000 0.45 96 12:58 27.06.2022
2899 Clouds 26 1016 83 10000 0.45 104 11:40 27.06.2022
2900 Clear 26 1015 87 10000 2.08 126 09:53 27.06.2022
2901 Clouds 26 1016 82 10000 0 0 08:43 27.06.2022
2902 Clouds 26 1017 81 10000 1.54 340 07:52 27.06.2022
2903 Clouds 27 1017 79 10000 1.54 270 06:28 27.06.2022
2904 Clouds 29 1015 73 10000 2.06 300 01:25 27.06.2022
2905 Clouds 29 1015 73 10000 4.12 270 23:27 26.06.2022
2906 Clouds 30 1016 71 10000 5.36 140 21:40 26.06.2022
2907 Clouds 32 1016 66 10000 6.26 130 20:33 26.06.2022
2908 Clouds 32 1016 62 10000 4.63 110 18:38 26.06.2022
2909 Clouds 32 1017 63 10000 4.63 110 18:20 26.06.2022
2910 Clouds 29 1016 76 10000 2.24 0 15:37 26.06.2022
2911 Clouds 27 1016 87 10000 0.45 177 14:23 26.06.2022
2912 Clouds 25 1016 94 10000 0 0 13:26 26.06.2022
2913 Clouds 25 1015 93 10000 0 0 12:37 26.06.2022
2914 Clouds 25 1015 92 10000 1.43 141 10:53 26.06.2022
2915 Clouds 25 1015 92 10000 0 0 10:22 26.06.2022
2916 Clouds 25 1016 92 10000 0 0 08:36 26.06.2022
2917 Clouds 26 1017 90 10000 0 0 06:50 26.06.2022
2918 Clouds 26 1015 86 10000 2.06 220 00:38 26.06.2022
2919 Clouds 27 1015 85 10000 2.06 220 00:19 26.06.2022
2920 Clouds 27 1016 84 10000 3.09 240 23:31 25.06.2022
2921 Mist 26 1016 81 1207 5.66 280 22:48 25.06.2022
2922 Clouds 27 1016 80 8047 5.66 290 22:25 25.06.2022
2923 Thunderstorm 31 1015 73 10000 6.17 160 21:21 25.06.2022
2924 Clouds 31 1015 70 10000 6.69 150 20:48 25.06.2022
2925 Thunderstorm 32 1016 65 10000 5.66 150 20:25 25.06.2022
2926 Clouds 32 1016 67 10000 3.6 290 18:24 25.06.2022
2927 Clouds 32 1016 69 10000 3.13 0 17:27 25.06.2022
2928 Clouds 30 1016 71 10000 2.68 300 16:28 25.06.2022
2929 Clouds 28 1016 82 10000 0.89 308 14:41 25.06.2022
2930 Clouds 26 1015 88 10000 0 0 12:51 25.06.2022
2931 Clouds 26 1015 88 10000 0 0 12:31 25.06.2022
2932 Clouds 27 1014 81 10000 1.54 230 09:35 25.06.2022
2933 Clouds 26 1014 83 10000 0.43 267 08:54 25.06.2022
2934 Clouds 27 1014 80 10000 1.54 220 08:20 25.06.2022
2935 Clouds 27 1015 78 10000 2.06 290 06:36 25.06.2022
2936 Clear 31 1013 68 10000 5.36 150 00:50 25.06.2022
2937 Clouds 32 1013 67 8979 1.79 141 23:58 24.06.2022
2938 Thunderstorm 32 1013 67 10000 7.2 130 22:29 24.06.2022
2939 Clouds 33 1014 65 10000 5.36 140 21:28 24.06.2022
2940 Clouds 33 1015 64 10000 5.36 130 20:24 24.06.2022
2941 Clouds 33 1015 61 10000 2.24 147 19:37 24.06.2022
2942 Clouds 33 1015 61 10000 1.79 143 19:18 24.06.2022
2943 Clouds 32 1015 61 10000 2.68 167 18:44 24.06.2022
2944 Clouds 32 1015 61 10000 3.13 0 18:24 24.06.2022
2945 Clouds 31 1015 65 10000 3.13 300 16:47 24.06.2022
2946 Clouds 28 1014 72 10000 2.68 220 14:50 24.06.2022
2947 Clouds 28 1014 76 10000 2.68 220 14:23 24.06.2022
2948 Clouds 26 1014 82 10000 0 0 13:41 24.06.2022
2949 Clouds 25 1013 82 10000 1.54 230 11:41 24.06.2022
2950 Clouds 26 1013 80 10000 3.13 200 10:39 24.06.2022
2951 Clouds 26 1013 82 10000 3.09 210 09:42 24.06.2022
2952 Clouds 26 1013 82 10000 0.89 223 08:54 24.06.2022
2953 Clouds 26 1013 80 10000 4.12 200 08:19 24.06.2022
2954 Clear 27 1014 77 10000 4.63 200 06:44 24.06.2022
2955 Clear 27 1014 76 10000 4.63 200 06:25 24.06.2022
2956 Clouds 27 1013 73 10000 4.63 170 04:46 24.06.2022
2957 Clouds 31 1011 61 10000 3.6 120 23:32 23.06.2022
2958 Clouds 31 1012 59 10000 5.14 140 22:43 23.06.2022
2959 Clouds 31 1012 58 10000 5.14 120 21:22 23.06.2022
2960 Clouds 31 1013 58 10000 5.14 110 20:37 23.06.2022
2961 Clouds 32 1013 61 10000 2.24 142 19:54 23.06.2022
2962 Clouds 31 1014 61 10000 3.13 150 18:27 23.06.2022
2963 Clouds 30 1014 60 10000 2.68 150 17:34 23.06.2022
2964 Clouds 29 1014 63 10000 1.54 240 16:29 23.06.2022
2965 Clouds 28 1014 67 10000 1.54 0 15:26 23.06.2022
2966 Clouds 27 1014 73 10000 2.57 360 14:34 23.06.2022
2967 Clouds 24 1013 78 10000 2.06 360 11:41 23.06.2022
2968 Clear 25 1014 76 10000 2.57 360 10:41 23.06.2022
2969 Clouds 25 1013 72 10000 1.54 20 09:19 23.06.2022
2970 Clouds 26 1015 70 10000 4.63 80 04:48 23.06.2022
2971 Clouds 29 1015 63 10000 5.81 80 00:27 23.06.2022
2972 Clouds 29 1015 62 10000 6.71 80 23:52 22.06.2022
2973 Clouds 29 1014 61 10000 6.71 80 23:18 22.06.2022
2974 Clouds 30 1015 55 10000 5.66 60 21:36 22.06.2022
2975 Clouds 30 1016 53 10000 9.39 80 20:51 22.06.2022
2976 Clouds 30 1016 53 10000 9.39 80 20:18 22.06.2022
2977 Clouds 30 1017 56 10000 6.69 60 19:27 22.06.2022
2978 Clouds 29 1017 59 10000 5.81 50 17:33 22.06.2022
2979 Clouds 29 1017 62 10000 6.69 60 16:41 22.06.2022
2980 Clouds 29 1017 62 10000 6.69 60 16:41 22.06.2022
2981 Clouds 28 1017 66 10000 5.81 50 15:28 22.06.2022
2982 Clouds 27 1017 69 10000 3.09 50 14:47 22.06.2022
2983 Clouds 26 1016 75 10000 1.54 10 13:47 22.06.2022
2984 Clouds 26 1016 77 10000 1.54 10 13:24 22.06.2022
2985 Clouds 25 1016 77 10000 1.34 54 11:54 22.06.2022
2986 Clouds 26 1015 76 10000 1.34 80 10:58 22.06.2022
2987 Clouds 25 1016 77 10000 3.09 360 10:36 22.06.2022
2988 Clouds 25 1017 79 10000 1.79 59 08:57 22.06.2022
2989 Clouds 26 1018 78 10000 1.34 72 06:55 22.06.2022
2990 Clouds 28 1018 74 10000 2.24 17 01:59 22.06.2022
2991 Clouds 29 1018 67 10000 2.24 42 00:56 22.06.2022
2992 Clouds 30 1019 58 10000 7.72 40 22:49 21.06.2022
2993 Clouds 30 1020 67 10000 7.72 50 20:47 21.06.2022
2994 Clouds 29 1020 74 10000 7.72 60 19:20 21.06.2022
2995 Clouds 31 1020 67 10000 5.66 70 17:47 21.06.2022
2996 Clouds 30 1020 72 10000 4.63 80 16:38 21.06.2022
2997 Clouds 26 1020 90 10000 4.26 60 11:57 21.06.2022
2998 Clouds 25 1018 87 10000 2.24 360 10:38 21.06.2022
2999 Clouds 26 1018 85 10000 0.45 360 09:20 21.06.2022
3000 Clouds 26 1019 83 10000 2.68 350 07:44 21.06.2022
3001 Clouds 27 1020 83 10000 2.06 310 04:43 21.06.2022
3002 Thunderstorm 29 1019 74 10000 4.63 90 00:21 21.06.2022
3003 Clouds 31 1019 68 10000 5.14 110 22:21 20.06.2022
3004 Thunderstorm 31 1019 70 10000 3.6 130 21:36 20.06.2022
3005 Thunderstorm 31 1020 74 10000 2.57 140 20:28 20.06.2022
3006 Thunderstorm 29 1020 76 10000 3.09 130 19:35 20.06.2022
3007 Thunderstorm 31 1021 71 10000 5.14 150 18:25 20.06.2022
3008 Clouds 31 1020 70 10000 2.06 290 17:45 20.06.2022
3009 Clouds 31 1020 72 10000 2.24 70 16:26 20.06.2022
3010 Clouds 29 1019 78 10000 1.54 350 15:20 20.06.2022
3011 Clouds 25 1018 93 10000 0 0 12:18 20.06.2022
3012 Clouds 26 1019 92 10000 1.98 223 09:57 20.06.2022
3013 Clouds 26 1017 92 10000 2.91 207 08:54 20.06.2022
3014 Clouds 26 1018 87 10000 1.54 170 07:51 20.06.2022
3015 Clouds 27 1017 84 10000 0 0 05:18 20.06.2022
3016 Thunderstorm 28 1016 80 10000 1.34 210 01:33 20.06.2022
3017 Clouds 29 1016 76 10000 1.54 330 23:57 19.06.2022
3018 Clouds 30 1015 73 6437 2.06 0 22:40 19.06.2022
3019 Thunderstorm 32 1015 69 10000 7.2 170 21:45 19.06.2022
3020 Thunderstorm 32 1015 66 10000 5.14 110 21:26 19.06.2022
3021 Clouds 32 1015 64 10000 3.6 250 20:25 19.06.2022
3022 Clouds 33 1016 63 10000 4.63 310 19:46 19.06.2022
3023 Clear 32 1016 64 10000 3.6 300 18:41 19.06.2022
3024 Clouds 32 1016 65 10000 3.13 230 17:48 19.06.2022
3025 Clouds 31 1016 65 10000 3.13 230 17:21 19.06.2022
3026 Clouds 31 1016 66 10000 1.79 149 16:34 19.06.2022
3027 Clouds 30 1016 68 10000 0.45 304 15:38 19.06.2022
3028 Clouds 29 1015 73 10000 0.45 25 14:55 19.06.2022
3029 Clouds 26 1015 86 10000 0.45 12 13:58 19.06.2022
3030 Clouds 26 1014 88 10000 2.52 235 12:56 19.06.2022
3031 Clouds 26 1015 85 10000 3.39 211 10:54 19.06.2022
3032 Clouds 26 1014 83 10000 2.06 280 09:40 19.06.2022
3033 Clear 26 1014 83 10000 0.45 252 08:47 19.06.2022
3034 Clouds 27 1013 81 10000 1.54 180 07:51 19.06.2022
3035 Clouds 27 1016 78 10000 3.6 270 04:45 19.06.2022
3036 Clouds 30 1013 74 10000 4.12 130 01:29 19.06.2022
3037 Clouds 31 1013 71 10000 4.63 120 00:24 19.06.2022
3038 Clouds 31 1012 69 10000 5.14 120 23:35 18.06.2022
3039 Clouds 32 1013 67 10000 4.12 110 22:36 18.06.2022
3040 Clouds 32 1013 67 10000 4.12 110 22:36 18.06.2022
3041 Clouds 33 1013 67 10000 0.89 83 20:56 18.06.2022
3042 Clouds 32 1014 66 10000 4.63 160 20:28 18.06.2022
3043 Clouds 32 1014 66 10000 3.09 350 19:38 18.06.2022
3044 Clouds 31 1015 67 10000 2.24 0 18:45 18.06.2022
3045 Clouds 31 1014 67 10000 1.54 0 17:34 18.06.2022
3046 Clouds 30 1014 70 10000 1.34 108 16:47 18.06.2022
3047 Clouds 29 1014 74 10000 2.24 0 15:31 18.06.2022
3048 Clouds 28 1014 78 10000 2.57 10 14:44 18.06.2022
3049 Clouds 26 1013 85 10000 1.54 350 13:22 18.06.2022
3050 Clear 26 1014 83 10000 1.54 330 11:39 18.06.2022
3051 Clear 26 1013 83 10000 1.54 30 10:46 18.06.2022
3052 Clouds 26 1014 81 10000 1.54 360 09:22 18.06.2022
3053 Clouds 26 1014 80 10000 0 0 08:24 18.06.2022
3054 Clouds 27 1014 78 10000 2.68 70 06:46 18.06.2022
3055 Clouds 28 1014 76 10000 5.14 60 03:30 18.06.2022
3056 Clouds 29 1014 72 10000 5.66 80 01:25 18.06.2022
3057 Clouds 30 1014 70 10000 6.17 90 00:48 18.06.2022
3058 Clouds 31 1014 69 10000 4.12 70 23:52 17.06.2022
3059 Clouds 31 1014 69 10000 4.12 70 23:24 17.06.2022
3060 Clouds 32 1015 67 10000 6.69 70 21:18 17.06.2022
3061 Clear 32 1016 69 10000 3.13 96 19:59 17.06.2022
3062 Clouds 31 1015 67 10000 5.14 60 18:49 17.06.2022
3063 Clouds 31 1016 70 10000 4.63 70 17:44 17.06.2022
3064 Clouds 29 1016 78 10000 3.6 40 16:43 17.06.2022
3065 Clouds 29 1016 78 10000 3.6 40 16:43 17.06.2022
3066 Clouds 28 1016 84 10000 2.06 230 15:49 17.06.2022
3067 Clouds 26 1016 86 10000 2.06 230 15:22 17.06.2022
3068 Rain 26 1016 70 10000 4.14 21 14:20 17.06.2022
3069 Thunderstorm 26 1017 88 10000 2.57 270 13:46 17.06.2022
3070 Thunderstorm 27 1017 88 10000 1.54 350 13:24 17.06.2022
3071 Clouds 26 1016 91 10000 0.45 333 11:58 17.06.2022
3072 Clouds 26 1016 89 10000 2.06 360 11:36 17.06.2022
3073 Clouds 26 1016 89 10000 0 0 10:52 17.06.2022
3074 Clouds 27 1017 85 10000 1.54 40 08:30 17.06.2022
3075 Clouds 27 1017 84 10000 2.24 40 07:48 17.06.2022
3076 Clouds 28 1018 82 10000 2.24 50 06:22 17.06.2022
3077 Clouds 28 1016 78 10000 4.63 90 03:19 17.06.2022
3078 Clear 30 1016 68 10000 4.12 100 00:42 17.06.2022
3079 Clouds 31 1018 68 10000 5.81 110 22:45 16.06.2022
3080 Clouds 31 1018 68 10000 5.81 110 22:26 16.06.2022
3081 Clouds 32 1018 67 10000 7.2 80 21:19 16.06.2022
3082 Clouds 32 1018 67 10000 7.2 110 20:50 16.06.2022
3083 Clouds 32 1018 68 10000 2.24 88 19:58 16.06.2022
3084 Clouds 32 1019 66 10000 4.12 150 18:44 16.06.2022
3085 Clouds 32 1019 67 10000 2.68 120 17:44 16.06.2022
3086 Clouds 31 1019 68 10000 2.68 120 17:20 16.06.2022
3087 Clouds 30 1018 73 10000 3.13 110 15:44 16.06.2022
3088 Clouds 30 1018 74 10000 3.13 110 15:20 16.06.2022
3089 Clouds 28 1018 84 10000 1.54 90 13:49 16.06.2022
3090 Clouds 27 1017 84 10000 2.24 40 12:47 16.06.2022
3091 Clouds 27 1017 84 10000 2.24 40 12:20 16.06.2022
3092 Clouds 27 1017 84 10000 2.24 40 11:21 16.06.2022
3093 Clouds 27 1016 85 10000 2.24 100 10:35 16.06.2022
3094 Clouds 27 1017 85 10000 2.68 90 09:37 16.06.2022
3095 Clouds 27 1017 82 10000 3.13 120 08:50 16.06.2022
3096 Clouds 27 1017 82 10000 3.13 120 08:50 16.06.2022
3097 Clouds 27 1017 81 10000 3.13 100 07:38 16.06.2022
3098 Clouds 28 1017 80 10000 3.13 120 05:48 16.06.2022
3099 Clouds 28 1017 80 10000 4.12 100 03:44 16.06.2022
3100 Clouds 29 1017 75 10000 6.26 110 01:52 16.06.2022
3101 Clouds 29 1017 75 10000 6.26 110 01:52 16.06.2022
3102 Clouds 30 1017 74 10000 6.26 110 01:22 16.06.2022
3103 Clouds 31 1016 69 10000 1.79 73 23:58 15.06.2022
3104 Clouds 31 1017 68 10000 1.79 80 22:53 15.06.2022
3105 Clouds 32 1017 66 10000 5.81 90 21:34 15.06.2022
3106 Clouds 32 1017 69 10000 2.24 89 20:58 15.06.2022
3107 Clouds 32 1017 67 10000 5.14 90 20:36 15.06.2022
3108 Clouds 32 1017 67 10000 6.17 70 19:52 15.06.2022
3109 Clouds 32 1018 67 10000 5.81 80 18:30 15.06.2022
3110 Clouds 31 1018 68 10000 3.13 10 17:43 15.06.2022
3111 Clouds 31 1017 70 10000 2.06 360 16:23 15.06.2022
3112 Clouds 29 1017 77 10000 2.06 10 14:57 15.06.2022
3113 Clouds 27 1015 84 10000 2.06 350 13:22 15.06.2022
3114 Clouds 27 1016 83 10000 2.68 130 12:40 15.06.2022
3115 Clouds 27 1016 84 10000 2.24 140 11:25 15.06.2022
3116 Clouds 27 1016 83 10000 0.45 108 10:22 15.06.2022
3117 Clouds 27 1016 85 10000 0.45 126 08:59 15.06.2022
3118 Clouds 27 1017 81 10000 2.24 130 07:36 15.06.2022
3119 Clouds 28 1018 79 10000 3.13 90 05:36 15.06.2022
3120 Clear 29 1018 79 10000 0.45 0 02:54 15.06.2022
3121 Clouds 30 1017 73 10000 4.63 120 01:36 15.06.2022
3122 Clouds 31 1016 71 10000 6.26 120 00:36 15.06.2022
3123 Clouds 31 1016 69 10000 4.63 130 23:38 14.06.2022
3124 Clouds 32 1017 69 10000 5.36 120 22:47 14.06.2022
3125 Clouds 32 1017 68 10000 6.71 130 21:43 14.06.2022
3126 Clouds 32 1018 67 10000 6.71 130 21:20 14.06.2022
3127 Clouds 32 1018 67 10000 6.26 110 20:40 14.06.2022
3128 Clouds 32 1018 69 10000 1.79 90 19:58 14.06.2022
3129 Clouds 32 1018 70 10000 5.36 120 18:40 14.06.2022
3130 Clouds 31 1019 75 10000 2.68 100 17:20 14.06.2022
3131 Clouds 30 1019 77 10000 1.34 111 16:42 14.06.2022
3132 Clouds 30 1019 77 10000 1.34 111 16:42 14.06.2022
3133 Clouds 29 1019 82 10000 2.24 40 15:43 14.06.2022
3134 Clouds 29 1019 82 10000 0.89 87 14:56 14.06.2022
3135 Clouds 28 1018 86 10000 0.45 94 14:18 14.06.2022
3136 Clouds 27 1018 90 10000 1.54 30 13:24 14.06.2022
3137 Clouds 27 1017 89 10000 1.54 30 12:19 14.06.2022
3138 Clouds 26 1016 91 10000 1.55 101 10:55 14.06.2022
3139 Clouds 27 1017 90 10000 2.06 30 10:29 14.06.2022
3140 Clouds 27 1017 89 10000 1.54 40 09:26 14.06.2022
3141 Clouds 27 1018 86 10000 1.54 120 08:40 14.06.2022
3142 Clouds 28 1019 86 10000 0.89 155 06:53 14.06.2022
3143 Clouds 28 1019 84 10000 3.09 130 04:23 14.06.2022
3144 Clouds 30 1018 76 10000 5.66 130 01:38 14.06.2022
3145 Clouds 31 1018 73 10000 5.14 120 00:24 14.06.2022
3146 Clouds 32 1018 70 10000 1.79 103 22:58 13.06.2022
3147 Thunderstorm 32 1018 66 10000 4.63 110 22:23 13.06.2022
3148 Thunderstorm 32 1019 66 10000 3.13 350 21:41 13.06.2022
3149 Clouds 32 1019 70 10000 5.66 100 19:59 13.06.2022
3150 Thunderstorm 32 1019 70 10000 4.63 130 19:18 13.06.2022
3151 Clouds 31 1019 73 10000 1.54 0 17:56 13.06.2022
3152 Clouds 31 1019 72 10000 1.54 0 17:25 13.06.2022
3153 Clouds 31 1019 74 10000 2.06 140 16:31 13.06.2022
3154 Clouds 29 1019 82 10000 0.89 120 14:52 13.06.2022
3155 Clouds 29 1019 83 10000 0 0 14:32 13.06.2022
3156 Clouds 26 1019 91 10000 0 0 13:36 13.06.2022
3157 Clouds 26 1018 91 10000 0 0 12:23 13.06.2022
3158 Clouds 26 1019 89 10000 2.2 161 10:58 13.06.2022
3159 Clouds 26 1018 87 10000 1.54 220 10:26 13.06.2022
3160 Clouds 27 1018 88 10000 2.57 169 08:59 13.06.2022
3161 Clouds 27 1019 86 10000 0.45 179 06:53 13.06.2022
3162 Clouds 27 1018 81 10000 2.57 190 05:36 13.06.2022
3163 Clouds 29 1017 77 10000 3.13 150 02:47 13.06.2022
3164 Clouds 30 1017 74 10000 5.36 130 01:36 13.06.2022
3165 Clouds 31 1016 70 10000 4.63 140 23:50 12.06.2022
3166 Clouds 31 1016 72 10000 2.24 0 22:44 12.06.2022
3167 Clouds 31 1017 73 10000 1.34 149 22:22 12.06.2022
3168 Thunderstorm 32 1018 70 10000 4.63 80 20:58 12.06.2022
3169 Clouds 32 1017 66 10000 3.13 0 20:19 12.06.2022
3170 Clouds 32 1017 64 10000 4.63 190 19:30 12.06.2022
3171 Clouds 32 1018 68 10000 4.12 200 17:47 12.06.2022
3172 Clouds 30 1018 75 10000 0.89 96 15:58 12.06.2022
3173 Clouds 29 1018 80 10000 1.34 124 14:57 12.06.2022
3174 Clouds 27 1017 86 10000 1.54 0 14:21 12.06.2022
3175 Clouds 26 1017 92 10000 0.89 127 13:51 12.06.2022
3176 Clouds 25 1016 88 10000 1.54 130 12:37 12.06.2022
3177 Clouds 25 1016 87 10000 1.54 190 11:37 12.06.2022
3178 Clouds 25 1016 87 10000 2.06 180 10:22 12.06.2022
3179 Clouds 25 1016 90 10000 2.32 187 08:55 12.06.2022
3180 Clouds 25 1016 92 10000 0 0 08:36 12.06.2022
3181 Clouds 26 1017 87 10000 0 0 07:32 12.06.2022
3182 Clouds 26 1017 84 10000 0 0 04:45 12.06.2022
3183 Clouds 27 1016 81 10000 4.95 198 02:53 12.06.2022
3184 Clouds 28 1014 78 10000 1.54 280 01:39 12.06.2022
3185 Clouds 28 1014 79 10000 5.81 181 00:58 12.06.2022
3186 Clouds 28 1014 76 10000 1.54 0 00:20 12.06.2022
3187 Clouds 28 1014 76 10000 1.54 0 00:20 12.06.2022
3188 Clouds 29 1013 72 10000 0.45 279 23:40 11.06.2022
3189 Clouds 28 1015 73 10000 3.6 270 22:38 11.06.2022
3190 Thunderstorm 28 1015 74 10000 5.14 190 21:52 11.06.2022
3191 Thunderstorm 29 1015 72 10000 4.12 170 20:36 11.06.2022
3192 Clouds 31 1015 67 10000 5.66 190 19:46 11.06.2022
3193 Clouds 30 1015 72 10000 6.17 130 19:25 11.06.2022
3194 Clouds 30 1016 71 10000 2.57 220 18:33 11.06.2022
3195 Clouds 30 1016 71 10000 3.6 220 17:51 11.06.2022
3196 Clouds 30 1016 72 10000 3.6 220 17:26 11.06.2022
3197 Clouds 30 1016 74 10000 2.24 165 16:55 11.06.2022
3198 Clouds 29 1016 75 10000 3.13 170 16:27 11.06.2022
3199 Clouds 28 1016 78 10000 2.24 160 15:31 11.06.2022
3200 Clouds 24 1016 90 10000 2.41 216 13:53 11.06.2022
3201 Clouds 23 1015 91 10000 1.54 110 12:51 11.06.2022
3202 Clouds 23 1014 91 10000 2.06 230 10:48 11.06.2022
3203 Clouds 24 1014 88 10000 1.54 180 09:51 11.06.2022
3204 Clouds 24 1014 88 10000 1.54 180 09:18 11.06.2022
3205 Clouds 23 1016 89 10000 2.68 220 07:41 11.06.2022
3206 Clouds 24 1016 88 10000 3.09 250 06:30 11.06.2022
3207 Clouds 24 1017 84 10000 4.12 310 04:30 11.06.2022
3208 Clouds 25 1015 89 5584 6.75 20 01:53 11.06.2022
3209 Clouds 25 1015 83 10000 4.12 240 01:32 11.06.2022
3210 Clouds 27 1014 78 10000 5.14 190 23:49 10.06.2022
3211 Rain 27 1015 77 10000 6.17 190 22:32 10.06.2022
3212 Rain 27 1015 81 10000 5.14 200 21:52 10.06.2022
3213 Thunderstorm 26 1015 78 10000 2.57 160 20:41 10.06.2022
3214 Thunderstorm 26 1015 78 10000 2.57 160 20:22 10.06.2022
3215 Thunderstorm 30 1015 61 10000 4.63 150 19:20 10.06.2022
3216 Thunderstorm 30 1015 70 10000 3.13 210 18:56 10.06.2022
3217 Clouds 31 1015 74 10000 2.24 128 17:59 10.06.2022
3218 Clouds 30 1016 74 10000 3.6 250 17:35 10.06.2022
3219 Clouds 29 1016 75 10000 3.09 270 16:50 10.06.2022
3220 Clouds 28 1016 83 10000 4.12 260 15:44 10.06.2022
3221 Clouds 26 1016 91 10000 0.89 260 14:57 10.06.2022
3222 Clouds 24 1016 96 10000 0 0 13:36 10.06.2022
3223 Clouds 24 1015 94 10000 0 0 12:21 10.06.2022
3224 Clouds 23 1014 95 10000 2.06 200 11:30 10.06.2022
3225 Clouds 23 1014 94 10000 2.24 230 10:36 10.06.2022
3226 Clouds 24 1015 94 10000 2.24 200 09:26 10.06.2022
3227 Clouds 23 1014 99 10000 2.75 237 07:57 10.06.2022
3228 Clouds 24 1016 92 10000 0 0 06:49 10.06.2022
3229 Clouds 24 1016 92 10000 0 0 06:30 10.06.2022
3230 Clouds 24 1017 92 10000 0 0 05:34 10.06.2022
3231 Clouds 24 1015 91 10000 2.24 180 02:50 10.06.2022
3232 Clouds 23 1015 94 10000 2.68 220 01:37 10.06.2022
3233 Rain 23 1016 96 5107 0.89 309 23:58 09.06.2022
3234 Rain 23 1017 95 10000 3.6 280 22:43 09.06.2022
3235 Thunderstorm 24 1018 91 10000 2.57 330 21:44 09.06.2022
3236 Thunderstorm 24 1018 88 10000 2.57 330 21:25 09.06.2022
3237 Thunderstorm 24 1017 88 10000 3.6 130 20:40 09.06.2022
3238 Thunderstorm 30 1016 72 10000 8.75 120 19:51 09.06.2022
3239 Clouds 32 1017 66 10000 2.68 0 18:41 09.06.2022
3240 Clouds 32 1017 70 10000 0.45 134 17:55 09.06.2022
3241 Clouds 30 1017 77 10000 2.24 0 16:28 09.06.2022
3242 Clouds 29 1017 82 10000 2.24 230 15:40 09.06.2022
3243 Clouds 27 1017 92 10000 1.54 210 14:33 09.06.2022
3244 Clouds 25 1016 96 10000 1.54 220 13:44 09.06.2022
3245 Rain 24 1017 95 10000 1.54 220 13:20 09.06.2022
3246 Clouds 24 1016 90 10000 1.54 170 11:43 09.06.2022
3247 Clouds 24 1016 89 10000 1.54 250 10:34 09.06.2022
3248 Clouds 24 1016 90 10000 0 0 09:38 09.06.2022
3249 Clouds 24 1016 90 10000 0 0 09:20 09.06.2022
3250 Clouds 24 1017 87 10000 0 0 07:29 09.06.2022
3251 Thunderstorm 25 1017 83 10000 2.06 140 04:47 09.06.2022
3252 Thunderstorm 29 1015 75 10000 4.63 280 00:36 09.06.2022
3253 Thunderstorm 30 1015 74 10000 4.63 190 23:23 08.06.2022
3254 Clouds 31 1015 71 10000 5.14 180 22:44 08.06.2022
3255 Clouds 31 1015 68 10000 5.14 180 22:24 08.06.2022
3256 Clear 31 1015 69 10000 4.63 160 21:45 08.06.2022
3257 Clouds 30 1017 75 10000 5.81 140 20:33 08.06.2022
3258 Clouds 31 1017 73 10000 5.81 180 19:46 08.06.2022
3259 Clouds 31 1017 71 10000 4.63 140 18:49 08.06.2022
3260 Clouds 30 1017 71 10000 4.63 200 17:48 08.06.2022
3261 Clouds 29 1017 73 10000 4.12 180 16:18 08.06.2022
3262 Clouds 27 1016 83 10000 2.06 180 14:46 08.06.2022
3263 Clouds 22 1015 76 10000 2.13 237 12:55 08.06.2022
3264 Clouds 22 1015 76 10000 2.13 237 12:55 08.06.2022
3265 Clouds 23 1015 92 10000 0 0 11:44 08.06.2022
3266 Clouds 23 1015 92 10000 0 0 11:19 08.06.2022
3267 Clouds 23 1015 91 10000 1.54 320 09:45 08.06.2022
3268 Clouds 23 1015 92 10000 1.54 320 09:18 08.06.2022
3269 Clouds 24 1016 85 10000 2.06 210 07:30 08.06.2022
3270 Clouds 24 1017 88 10000 2.06 250 04:51 08.06.2022
3271 Clouds 25 1015 85 10000 3.6 240 02:19 08.06.2022
3272 Rain 26 1015 90 10000 4.12 250 23:41 07.06.2022
3273 Clouds 26 1015 90 10000 4.12 250 23:22 07.06.2022
3274 Rain 25 1014 91 10000 3.6 220 22:38 07.06.2022
3275 Rain 26 1016 86 10000 3.6 240 21:45 07.06.2022
3276 Rain 26 1016 86 10000 5.14 220 21:24 07.06.2022
3277 Thunderstorm 28 1015 81 10000 7.72 190 20:43 07.06.2022
3278 Thunderstorm 28 1015 81 10000 6.71 160 19:59 07.06.2022
3279 Clouds 30 1015 75 10000 4.63 180 18:42 07.06.2022
3280 Clouds 30 1015 77 10000 2.24 148 17:54 07.06.2022
3281 Clouds 29 1016 82 10000 5.14 150 16:54 07.06.2022
3282 Clouds 29 1016 79 10000 3.6 190 16:32 07.06.2022
3283 Clouds 28 1016 83 10000 3.13 170 15:40 07.06.2022
3284 Clouds 27 1015 84 10000 3.13 170 15:21 07.06.2022
3285 Clouds 26 1015 89 10000 4.12 190 14:45 07.06.2022
3286 Clouds 25 1014 91 10000 4.12 190 13:46 07.06.2022
3287 Clouds 24 1015 93 10000 4.12 190 13:26 07.06.2022
3288 Clouds 24 1014 95 10000 3.6 160 12:22 07.06.2022
3289 Clouds 24 1013 94 10000 2.68 170 10:57 07.06.2022
3290 Rain 24 1013 94 10000 4.63 170 09:46 07.06.2022
3291 Clouds 24 1013 94 10000 3.6 140 08:31 07.06.2022
3292 Clouds 24 1014 93 10000 2.57 170 07:19 07.06.2022
3293 Clouds 25 1014 86 10000 4.12 350 05:47 07.06.2022
3294 Clouds 28 1012 78 10000 5.66 210 01:44 07.06.2022
3295 Clouds 29 1012 77 10000 4.63 200 00:20 07.06.2022
3296 Clouds 30 1011 75 10000 5.81 160 23:25 06.06.2022
3297 Clouds 30 1012 73 10000 4.63 160 22:37 06.06.2022
3298 Thunderstorm 30 1012 76 10000 6.69 190 21:36 06.06.2022
3299 Clouds 30 1012 78 10000 5.66 130 19:53 06.06.2022
3300 Thunderstorm 29 1013 79 10000 5.66 160 19:19 06.06.2022
3301 Thunderstorm 30 1013 75 10000 2.68 160 18:34 06.06.2022
3302 Clouds 31 1013 73 10000 3.09 260 17:36 06.06.2022
3303 Clouds 30 1013 74 10000 3.09 200 16:33 06.06.2022
3304 Clouds 29 1013 78 10000 2.06 0 15:39 06.06.2022
3305 Clouds 27 1012 86 10000 1.54 170 14:39 06.06.2022
3306 Clouds 25 1011 94 10000 1.54 190 13:27 06.06.2022
3307 Clouds 25 1011 91 10000 1.54 220 12:37 06.06.2022
3308 Clear 24 1012 93 10000 1.16 210 11:58 06.06.2022
3309 Clouds 25 1011 92 10000 2.57 240 11:28 06.06.2022
3310 Clouds 25 1011 89 10000 2.06 250 09:41 06.06.2022
3311 Clouds 26 1011 87 10000 3.09 240 08:35 06.06.2022
3312 Clouds 26 1011 85 10000 3.6 190 07:37 06.06.2022
3313 Clouds 27 1011 84 10000 3.09 190 05:29 06.06.2022
3314 Clouds 27 1010 83 10000 4.63 130 03:47 06.06.2022
3315 Clouds 29 1009 79 10000 5.36 150 01:29 06.06.2022
3316 Clouds 29 1008 78 10000 5.36 120 00:43 06.06.2022
3317 Clouds 30 1008 76 10000 5.14 100 23:50 05.06.2022
3318 Clouds 30 1009 76 10000 2.68 122 22:53 05.06.2022
3319 Clouds 30 1009 72 10000 4.63 140 21:33 05.06.2022
3320 Clouds 31 1009 68 10000 3.6 300 20:23 05.06.2022
3321 Clear 31 1009 66 10000 2.57 330 18:42 05.06.2022
3322 Clear 31 1009 68 10000 1.34 0 17:57 05.06.2022
3323 Clouds 30 1009 69 10000 2.57 330 17:36 05.06.2022
3324 Clouds 29 1009 69 10000 2.57 330 17:18 05.06.2022
3325 Clouds 28 1009 73 10000 1.54 330 16:45 05.06.2022
3326 Clouds 25 1009 91 10000 2.24 270 14:46 05.06.2022
3327 Clouds 23 1008 96 10000 1.54 280 13:55 05.06.2022
3328 Clouds 23 1007 89 10000 2.57 300 11:56 05.06.2022
3329 Clouds 23 1006 90 10000 3.6 310 10:44 05.06.2022
3330 Clouds 23 1005 90 10000 3.6 310 10:23 05.06.2022
3331 Clouds 23 1005 88 10000 4.12 310 08:45 05.06.2022
3332 Clouds 23 1005 93 10000 4.12 310 08:21 05.06.2022
3333 Clouds 25 1005 92 10000 5.66 320 05:23 05.06.2022
3334 Clouds 25 1004 93 10000 4.12 300 04:33 05.06.2022
3335 Clouds 28 1003 80 10000 7.72 240 02:19 05.06.2022
3336 Clouds 29 1002 78 10000 7.72 220 01:23 05.06.2022
3337 Clouds 29 1002 79 10000 7.72 220 01:23 05.06.2022
3338 Rain 29 1002 79 10000 7.72 230 22:45 04.06.2022
3339 Clouds 29 1003 86 10000 7.2 220 21:24 04.06.2022
3340 Rain 25 1004 96 8047 6.69 200 18:58 04.06.2022
3341 Clouds 25 1004 96 10000 6.17 220 16:48 04.06.2022
3342 Clouds 25 1004 96 10000 6.17 220 16:48 04.06.2022
3343 Rain 25 1004 96 10000 6.17 220 16:20 04.06.2022
3344 Rain 25 1004 97 8047 6.17 200 15:35 04.06.2022
3345 Mist 24 1005 92 6437 9.26 160 13:57 04.06.2022
3346 Rain 23 1006 93 10000 6.17 160 11:28 04.06.2022
3347 Rain 23 1006 92 4828 4.47 153 10:52 04.06.2022
3348 Rain 23 1007 93 402 5.66 240 09:46 04.06.2022
3349 Mist 23 1007 92 4828 1.54 210 08:50 04.06.2022
3350 Rain 23 1007 92 3219 3.09 140 08:31 04.06.2022
3351 Rain 23 1010 97 8047 5.81 100 06:20 04.06.2022
3352 Rain 23 1010 90 10000 2.06 90 03:37 04.06.2022
3353 Rain 24 1010 95 10000 3.6 130 00:21 04.06.2022
3354 Mist 24 1010 95 8047 3.6 130 22:54 03.06.2022
3355 Rain 24 1011 95 9656 4.12 140 21:52 03.06.2022
3356 Rain 24 1011 96 4023 3.6 120 20:40 03.06.2022
3357 Rain 24 1011 95 10000 5.14 120 19:33 03.06.2022
3358 Rain 24 1012 94 10000 5.14 120 16:56 03.06.2022
3359 Rain 24 1012 94 10000 5.81 120 15:52 03.06.2022
3360 Clouds 23 1011 88 10000 3.09 120 13:58 03.06.2022
3361 Rain 23 1012 80 10000 3.09 80 11:54 03.06.2022
3362 Clouds 23 1011 59 10000 5.78 167 09:57 03.06.2022
3363 Mist 22 1012 95 8047 5.14 180 09:29 03.06.2022
3364 Clouds 24 1012 86 10000 5.14 160 07:45 03.06.2022
3365 Clouds 24 1013 91 10000 1.93 171 06:59 03.06.2022
3366 Clouds 24 1013 85 10000 3.6 120 06:28 03.06.2022
3367 Clouds 26 1012 76 10000 2.68 110 03:39 03.06.2022
3368 Clouds 23 1013 89 10000 6.17 200 23:52 02.06.2022
3369 Clouds 28 1013 72 4023 8.23 220 22:23 02.06.2022
3370 Clouds 30 1012 69 10000 2.24 140 20:56 02.06.2022
3371 Clouds 30 1012 69 10000 1.79 0 19:56 02.06.2022
3372 Clouds 30 1013 68 10000 5.81 120 19:38 02.06.2022
3373 Clouds 30 1013 69 10000 5.14 140 18:41 02.06.2022
3374 Clouds 29 1013 74 10000 1.79 0 16:30 02.06.2022
3375 Clouds 29 1013 76 10000 2.24 50 15:47 02.06.2022
3376 Clouds 24 1012 94 10000 1.54 20 13:31 02.06.2022
3377 Clouds 24 1011 94 10000 1.54 10 12:49 02.06.2022
3378 Clouds 24 1011 93 10000 2.06 30 10:45 02.06.2022
3379 Clouds 24 1011 93 10000 0 0 09:30 02.06.2022
3380 Clouds 24 1012 93 10000 0 0 08:45 02.06.2022
3381 Clouds 24 1012 92 10000 0 0 08:23 02.06.2022
3382 Clouds 24 1013 87 10000 1.54 350 06:21 02.06.2022
3383 Clouds 24 1013 87 10000 0 0 03:50 02.06.2022
3384 Rain 26 1012 84 10000 0.45 200 00:55 02.06.2022
3385 Clouds 30 1012 68 10000 6.17 110 22:58 01.06.2022
3386 Clouds 30 1012 67 10000 5.14 80 22:18 01.06.2022
3387 Clouds 31 1012 65 10000 3.6 70 21:24 01.06.2022
3388 Clouds 32 1012 61 10000 2.24 124 20:38 01.06.2022
3389 Clouds 31 1013 64 10000 4.12 360 19:52 01.06.2022
3390 Clouds 31 1013 64 10000 2.57 310 18:37 01.06.2022
3391 Clear 30 1014 68 10000 0.89 246 16:58 01.06.2022
3392 Clouds 28 1014 78 10000 2.68 0 15:43 01.06.2022
3393 Clouds 26 1014 88 10000 2.57 330 14:49 01.06.2022
3394 Clouds 23 1013 90 10000 2.57 290 13:23 01.06.2022
3395 Clouds 23 1013 86 10000 2.06 290 10:48 01.06.2022
3396 Clouds 24 1013 90 10000 2.24 270 09:29 01.06.2022
3397 Clouds 24 1014 89 10000 0 0 08:18 01.06.2022
3398 Clouds 24 1015 88 10000 1.54 290 07:20 01.06.2022
3399 Clouds 25 1015 83 10000 2.24 30 04:41 01.06.2022
3400 Clouds 27 1015 77 10000 3.6 130 23:50 31.05.2022
3401 Clouds 28 1015 75 10000 3.6 120 22:43 31.05.2022
3402 Clouds 28 1015 75 10000 3.6 120 22:24 31.05.2022
3403 Clouds 28 1015 75 10000 3.09 90 21:44 31.05.2022
3404 Clear 28 1016 77 10000 3.09 100 20:44 31.05.2022
3405 Clear 29 1016 76 10000 4.12 90 19:46 31.05.2022
3406 Clouds 29 1016 73 10000 2.68 60 18:32 31.05.2022
3407 Clouds 28 1016 77 10000 4.12 110 17:38 31.05.2022
3408 Clouds 28 1017 79 10000 0.89 68 15:55 31.05.2022
3409 Clouds 27 1017 80 10000 0.89 107 15:34 31.05.2022
3410 Clouds 25 1015 90 10000 2.24 20 13:22 31.05.2022
3411 Clouds 24 1015 90 10000 1.54 360 12:19 31.05.2022
3412 Clouds 24 1015 90 10000 1.54 360 10:34 31.05.2022
3413 Clouds 25 1016 88 10000 1.54 30 08:26 31.05.2022
3414 Clouds 25 1017 85 10000 2.06 90 06:21 31.05.2022
3415 Clouds 25 1017 84 10000 2.24 120 04:34 31.05.2022
3416 Rain 25 1016 83 10000 2.57 150 23:46 30.05.2022
3417 Rain 25 1017 83 10000 2.57 150 23:24 30.05.2022
3418 Rain 26 1016 77 10000 7.72 100 22:42 30.05.2022
3419 Rain 27 1016 78 10000 6.26 90 21:40 30.05.2022
3420 Clouds 29 1016 69 10000 6.26 110 20:52 30.05.2022
3421 Clouds 30 1017 68 10000 4.12 110 19:44 30.05.2022
3422 Clouds 29 1017 70 10000 3.6 110 18:21 30.05.2022
3423 Clouds 28 1017 78 10000 2.68 120 17:23 30.05.2022
3424 Clouds 26 1017 89 10000 2.68 120 16:30 30.05.2022
3425 Thunderstorm 24 1017 88 10000 5.14 170 13:38 30.05.2022
3426 Clouds 25 1015 88 10000 2.68 120 11:40 30.05.2022
3427 Clouds 25 1015 84 10000 1.34 102 09:58 30.05.2022
3428 Clouds 24 1016 88 10000 2.24 60 08:52 30.05.2022
3429 Clouds 23 1015 90 10000 3.6 180 06:26 30.05.2022
3430 Clouds 23 1015 82 10000 3.6 110 04:52 30.05.2022
3431 Rain 22 1018 92 9656 7.2 70 01:23 30.05.2022
3432 Thunderstorm 26 1015 82 10000 7.6 140 22:49 29.05.2022
3433 Thunderstorm 27 1014 80 10000 7.72 140 22:28 29.05.2022
3434 Clouds 30 1015 69 10000 5.36 140 20:29 29.05.2022
3435 Clouds 31 1015 66 10000 2.68 180 19:29 29.05.2022
3436 Clouds 31 1016 69 10000 3.6 170 18:34 29.05.2022
3437 Clouds 29 1016 74 10000 1.54 210 16:25 29.05.2022
3438 Clouds 28 1016 76 10000 2.24 40 15:46 29.05.2022
3439 Clear 27 1015 85 10000 0.45 359 14:55 29.05.2022
3440 Clouds 24 1014 94 10000 0 0 13:18 29.05.2022
3441 Clouds 23 1014 91 10000 0 0 11:20 29.05.2022
3442 Clouds 23 1014 92 10000 0 0 10:34 29.05.2022
3443 Clouds 24 1014 87 10000 0 0 08:31 29.05.2022
3444 Clouds 26 1014 78 10000 3.76 209 04:58 29.05.2022
3445 Clouds 24 1014 82 10000 2.06 170 04:39 29.05.2022
3446 Thunderstorm 28 1013 74 10000 5.81 140 01:52 29.05.2022
3447 Clouds 30 1012 69 10000 7.2 150 23:48 28.05.2022
3448 Clouds 31 1012 65 10000 6.26 140 23:20 28.05.2022
3449 Clouds 31 1013 63 10000 7.2 150 22:19 28.05.2022
3450 Clouds 32 1013 64 10000 6.71 110 21:19 28.05.2022
3451 Clouds 31 1014 65 10000 5.81 120 19:21 28.05.2022
3452 Clouds 32 1014 63 10000 2.68 144 18:40 28.05.2022
3453 Clouds 31 1015 62 10000 2.68 190 17:33 28.05.2022
3454 Clear 30 1015 70 10000 0.89 0 15:56 28.05.2022
3455 Clouds 29 1015 71 10000 2.57 230 15:38 28.05.2022
3456 Clouds 25 1014 87 10000 1.54 0 13:38 28.05.2022
3457 Clouds 24 1014 88 10000 1.54 230 12:43 28.05.2022
3458 Clouds 24 1013 89 10000 0.45 242 11:50 28.05.2022
3459 Clouds 25 1014 85 10000 1.54 190 10:41 28.05.2022
3460 Clear 25 1014 86 10000 0.45 230 09:55 28.05.2022
3461 Clouds 26 1014 82 9656 3.13 150 08:33 28.05.2022
3462 Clouds 26 1015 79 10000 3.6 170 06:50 28.05.2022
3463 Clouds 27 1016 79 10000 4.12 170 05:24 28.05.2022
3464 Clouds 28 1015 76 10000 4.63 170 02:27 28.05.2022
3465 Clear 30 1014 71 10000 2.24 153 23:59 27.05.2022
3466 Clouds 31 1015 68 10000 7.72 130 22:48 27.05.2022
3467 Clouds 32 1016 63 10000 5.66 130 21:29 27.05.2022
3468 Clouds 31 1016 63 10000 7.2 150 20:45 27.05.2022
3469 Clouds 31 1016 62 10000 7.2 150 20:21 27.05.2022
3470 Clouds 31 1017 66 10000 6.26 140 19:38 27.05.2022
3471 Clouds 31 1017 66 10000 6.26 140 19:20 27.05.2022
3472 Clouds 30 1017 69 10000 7.2 140 17:24 27.05.2022
3473 Clouds 29 1017 72 10000 2.68 148 15:57 27.05.2022
3474 Clouds 28 1017 75 10000 2.68 137 14:58 27.05.2022
3475 Clouds 27 1017 77 10000 4.12 130 13:41 27.05.2022
3476 Clouds 26 1017 80 10000 4.12 150 12:28 27.05.2022
3477 Clouds 26 1016 80 10000 6.17 150 11:31 27.05.2022
3478 Clouds 26 1016 80 10000 3.13 130 10:47 27.05.2022
3479 Clouds 26 1016 81 10000 1.79 108 09:59 27.05.2022
3480 Clouds 26 1016 80 10000 4.12 120 09:31 27.05.2022
3481 Clouds 26 1017 84 10000 4.47 100 07:40 27.05.2022
3482 Clouds 26 1018 80 10000 3.13 110 05:25 27.05.2022
3483 Clouds 28 1017 70 10000 6.26 120 01:44 27.05.2022
3484 Clouds 30 1017 65 10000 5.66 150 23:31 26.05.2022
3485 Clouds 30 1018 63 10000 5.81 110 22:28 26.05.2022
3486 Clouds 30 1018 64 10000 4.12 130 21:32 26.05.2022
3487 Clouds 30 1019 65 10000 7.2 140 19:49 26.05.2022
3488 Clouds 30 1019 66 10000 7.2 140 19:18 26.05.2022
3489 Clouds 30 1019 68 10000 7.2 110 17:36 26.05.2022
3490 Clouds 29 1020 69 10000 7.2 110 16:35 26.05.2022
3491 Clouds 28 1020 70 10000 5.81 110 15:34 26.05.2022
3492 Clouds 27 1020 74 10000 5.36 100 14:21 26.05.2022
3493 Clouds 26 1019 79 10000 4.12 110 12:20 26.05.2022
3494 Clouds 26 1018 78 10000 3.6 120 11:21 26.05.2022
3495 Clear 26 1018 78 10000 4.12 120 09:39 26.05.2022
3496 Clouds 27 1018 78 10000 6.26 100 08:51 26.05.2022
3497 Clouds 27 1019 77 10000 6.71 100 07:38 26.05.2022
3498 Clouds 27 1018 79 10000 1.79 87 02:59 26.05.2022
3499 Clouds 29 1016 71 10000 7.2 100 00:20 26.05.2022
3500 Clouds 30 1017 67 10000 8.23 130 23:19 25.05.2022
3501 Clouds 30 1018 64 10000 8.23 120 21:47 25.05.2022
3502 Clouds 30 1018 63 10000 8.23 120 21:28 25.05.2022
3503 Clouds 31 1019 64 10000 2.24 90 19:59 25.05.2022
3504 Clouds 31 1019 62 10000 8.23 120 19:19 25.05.2022
3505 Clouds 30 1019 66 10000 9.83 100 17:30 25.05.2022
3506 Clouds 29 1019 68 10000 6.71 120 16:36 25.05.2022
3507 Clouds 29 1019 70 10000 2.68 115 15:53 25.05.2022
3508 Clear 28 1018 73 10000 5.36 110 14:51 25.05.2022
3509 Clear 28 1018 74 10000 5.36 110 14:32 25.05.2022
3510 Clouds 27 1017 76 10000 5.14 120 13:28 25.05.2022
3511 Clouds 26 1017 77 10000 2.68 118 12:24 25.05.2022
3512 Clouds 26 1017 74 10000 5.81 110 10:42 25.05.2022
3513 Clouds 26 1017 76 10000 1.79 140 09:53 25.05.2022
3514 Clouds 27 1017 75 10000 1.79 141 08:22 25.05.2022
3515 Clouds 27 1018 76 10000 2.24 91 06:53 25.05.2022
3516 Clouds 27 1017 73 10000 5.66 120 03:20 25.05.2022
3517 Clouds 29 1016 69 10000 2.24 93 23:55 24.05.2022
3518 Clouds 30 1016 64 10000 5.36 130 23:23 24.05.2022
3519 Clouds 30 1016 63 10000 7.72 100 22:19 24.05.2022
3520 Clouds 31 1016 61 10000 7.72 110 21:39 24.05.2022
3521 Clouds 30 1017 62 10000 7.72 110 21:20 24.05.2022
3522 Clouds 30 1018 63 10000 7.72 150 19:45 24.05.2022
3523 Clouds 30 1018 66 10000 7.2 110 18:50 24.05.2022
3524 Clouds 29 1018 68 10000 7.72 120 16:41 24.05.2022
3525 Clouds 29 1018 69 10000 7.72 120 16:19 24.05.2022
3526 Clouds 28 1017 75 10000 7.2 100 14:50 24.05.2022
3527 Clouds 27 1017 78 10000 6.17 120 13:52 24.05.2022
3528 Clouds 26 1016 80 10000 5.66 110 12:49 24.05.2022
3529 Clouds 26 1016 81 10000 4.12 100 10:46 24.05.2022
3530 Clouds 26 1017 83 10000 4.63 100 09:43 24.05.2022
3531 Clouds 26 1017 84 10000 3.09 90 08:49 24.05.2022
3532 Clouds 26 1019 82 10000 0.45 103 06:56 24.05.2022
3533 Clouds 27 1018 79 10000 7.2 90 03:48 24.05.2022
3534 Clouds 28 1017 77 10000 6.17 90 01:53 24.05.2022
3535 Clouds 28 1017 75 10000 6.69 90 01:32 24.05.2022
3536 Clear 30 1017 69 10000 2.24 88 22:55 23.05.2022
3537 Clear 30 1018 68 10000 2.24 99 21:55 23.05.2022
3538 Clouds 31 1018 66 10000 8.23 110 21:29 23.05.2022
3539 Clouds 31 1019 68 10000 7.2 120 20:29 23.05.2022
3540 Clouds 31 1019 68 10000 7.72 110 19:32 23.05.2022
3541 Clouds 31 1019 69 10000 2.24 104 18:58 23.05.2022
3542 Clouds 31 1019 67 10000 8.23 130 18:30 23.05.2022
3543 Clouds 30 1020 69 10000 6.71 120 17:20 23.05.2022
3544 Clouds 29 1020 73 10000 7.72 110 15:23 23.05.2022
3545 Clouds 27 1019 81 10000 5.66 100 13:21 23.05.2022
3546 Clouds 26 1019 82 10000 6.26 100 11:31 23.05.2022
3547 Clouds 27 1019 81 10000 5.36 110 09:51 23.05.2022
3548 Clouds 27 1019 81 10000 5.36 110 09:30 23.05.2022
3549 Clouds 27 1020 81 10000 6.71 100 08:31 23.05.2022
3550 Clear 27 1021 81 10000 6.26 90 06:46 23.05.2022
3551 Clear 27 1021 81 10000 5.81 100 05:31 23.05.2022
3552 Clouds 28 1021 79 10000 7.2 110 02:34 23.05.2022
3553 Clouds 28 1020 77 10000 7.2 110 01:39 23.05.2022
3554 Clouds 29 1020 74 10000 7.72 120 00:23 23.05.2022
3555 Clouds 30 1021 70 10000 6.71 120 22:40 22.05.2022
3556 Clouds 31 1021 72 10000 2.24 91 21:55 22.05.2022
3557 Clouds 31 1022 69 10000 7.2 120 21:32 22.05.2022
3558 Clouds 31 1022 71 10000 6.71 110 20:32 22.05.2022
3559 Clouds 31 1023 74 10000 2.68 90 19:57 22.05.2022
3560 Clouds 31 1023 74 10000 2.68 94 18:56 22.05.2022
3561 Clouds 30 1023 73 10000 6.71 100 18:25 22.05.2022
3562 Clouds 30 1023 74 10000 7.2 120 17:37 22.05.2022
3563 Clouds 30 1023 76 10000 7.2 110 16:39 22.05.2022
3564 Clouds 28 1023 82 10000 1.79 98 14:53 22.05.2022
3565 Clouds 27 1022 83 10000 1.79 115 13:56 22.05.2022
3566 Clouds 27 1021 83 10000 4.63 110 12:52 22.05.2022
3567 Clouds 27 1020 83 10000 5.66 120 11:52 22.05.2022
3568 Clouds 27 1020 85 10000 5.81 120 10:24 22.05.2022
3569 Clouds 27 1021 84 10000 6.71 120 09:19 22.05.2022
3570 Clouds 28 1021 84 10000 7.2 110 07:22 22.05.2022
3571 Clouds 28 1022 84 10000 6.71 110 06:27 22.05.2022
3572 Clouds 28 1021 86 10000 6.69 120 02:50 22.05.2022
3573 Clouds 29 1020 80 10000 7.2 110 00:44 22.05.2022
3574 Clouds 30 1020 80 10000 1.79 87 23:56 21.05.2022
3575 Clouds 30 1020 77 10000 6.69 120 23:21 21.05.2022
3576 Clouds 31 1020 76 10000 1.79 96 21:55 21.05.2022
3577 Clouds 31 1021 74 10000 7.2 130 21:26 21.05.2022
3578 Clouds 31 1021 74 10000 7.2 120 20:27 21.05.2022
3579 Clouds 31 1022 74 10000 7.2 120 19:43 21.05.2022
3580 Clouds 30 1022 77 10000 6.26 130 18:21 21.05.2022
3581 Clouds 30 1021 80 10000 1.79 126 16:57 21.05.2022
3582 Clouds 28 1020 84 10000 7.2 130 14:38 21.05.2022
3583 Clouds 27 1020 87 10000 5.66 140 13:54 21.05.2022
3584 Clouds 27 1020 88 10000 5.81 130 13:18 21.05.2022
3585 Clouds 27 1020 88 10000 5.36 110 12:38 21.05.2022
3586 Clouds 27 1019 90 10000 2.24 103 10:53 21.05.2022
3587 Clouds 27 1019 89 10000 5.14 120 09:53 21.05.2022
3588 Clouds 27 1019 90 10000 7.2 130 08:58 21.05.2022
3589 Clouds 27 1019 89 10000 7.72 110 08:36 21.05.2022
3590 Clouds 27 1020 90 10000 2.24 60 05:52 21.05.2022
3591 Clouds 25 1018 88 10000 6.26 60 01:33 21.05.2022
3592 Thunderstorm 25 1017 86 10000 8.75 60 23:30 20.05.2022
3593 Thunderstorm 28 1017 79 10000 5.66 170 22:29 20.05.2022
3594 Thunderstorm 28 1017 82 10000 6.17 120 21:55 20.05.2022
3595 Thunderstorm 28 1017 82 10000 6.17 120 21:55 20.05.2022
3596 Clouds 31 1017 73 10000 8.75 150 21:18 20.05.2022
3597 Clouds 31 1017 71 10000 5.66 160 20:44 20.05.2022
3598 Thunderstorm 30 1017 79 10000 6.17 170 19:45 20.05.2022
3599 Clouds 30 1018 79 10000 5.14 200 18:48 20.05.2022
3600 Clouds 29 1018 83 10000 5.14 170 17:48 20.05.2022
3601 Clouds 29 1017 81 10000 3.6 190 16:22 20.05.2022
3602 Clouds 29 1017 81 10000 2.24 166 15:53 20.05.2022
3603 Clouds 27 1016 87 10000 4.12 220 14:32 20.05.2022
3604 Clouds 27 1016 89 10000 1.34 236 13:56 20.05.2022
3605 Clouds 25 1015 89 10000 5.14 210 11:51 20.05.2022
3606 Clouds 24 1015 88 10000 7.72 130 10:34 20.05.2022
3607 Thunderstorm 25 1015 92 3219 8.75 160 08:59 20.05.2022
3608 Clouds 27 1015 85 10000 2.68 150 07:42 20.05.2022
3609 Clouds 28 1015 84 10000 3.6 170 06:39 20.05.2022
3610 Clouds 28 1016 82 10000 3.09 160 05:39 20.05.2022
3611 Clouds 29 1014 78 10000 6.71 130 01:29 20.05.2022
3612 Clouds 29 1014 77 10000 5.14 150 23:31 19.05.2022
3613 Clouds 30 1014 74 10000 6.69 150 22:35 19.05.2022
3614 Clouds 30 1015 73 10000 6.71 140 21:49 19.05.2022
3615 Clouds 31 1015 72 10000 6.71 140 21:23 19.05.2022
3616 Clouds 31 1015 68 10000 5.36 140 20:43 19.05.2022
3617 Clouds 32 1015 67 10000 3.13 0 19:54 19.05.2022
3618 Clouds 32 1016 68 10000 2.24 145 18:59 19.05.2022
3619 Clouds 31 1017 68 10000 2.68 131 17:36 19.05.2022
3620 Clouds 29 1017 72 10000 1.54 0 15:43 19.05.2022
3621 Clouds 28 1016 81 10000 0.45 223 14:39 19.05.2022
3622 Clouds 27 1016 84 10000 0.45 296 14:19 19.05.2022
3623 Clouds 24 1015 91 10000 2.14 181 11:53 19.05.2022
3624 Clouds 25 1015 88 10000 0 0 10:30 19.05.2022
3625 Clouds 26 1016 84 10000 0 0 08:33 19.05.2022
3626 Clouds 26 1017 84 10000 1.34 141 06:57 19.05.2022
3627 Clouds 27 1016 80 10000 4.63 140 03:26 19.05.2022
3628 Clear 29 1015 75 10000 1.34 111 00:56 19.05.2022
3629 Clouds 31 1015 66 10000 5.66 120 23:21 18.05.2022
3630 Clouds 31 1015 65 10000 5.36 110 22:41 18.05.2022
3631 Clouds 31 1016 61 10000 5.81 120 21:33 18.05.2022
3632 Clear 32 1016 65 10000 2.24 89 20:55 18.05.2022
3633 Clouds 32 1017 62 10000 6.17 100 20:19 18.05.2022
3634 Clouds 32 1018 59 10000 3.6 110 18:47 18.05.2022
3635 Clouds 31 1018 60 10000 1.79 154 17:42 18.05.2022
3636 Clouds 31 1018 62 10000 1.79 0 17:23 18.05.2022
3637 Clouds 30 1018 64 10000 2.24 110 16:52 18.05.2022
3638 Clouds 29 1017 69 10000 2.24 120 15:43 18.05.2022
3639 Clouds 28 1017 71 10000 2.24 120 15:19 18.05.2022
3640 Clear 25 1017 84 10000 0.45 342 13:59 18.05.2022
3641 Clear 23 1017 89 10000 1.79 297 12:53 18.05.2022
3642 Clear 24 1016 86 10000 2.06 310 11:47 18.05.2022
3643 Clear 24 1016 86 10000 2.06 310 11:29 18.05.2022
3644 Clouds 24 1015 85 10000 2.06 290 10:36 18.05.2022
3645 Clouds 25 1016 88 10000 2.06 260 07:56 18.05.2022
3646 Clouds 25 1017 88 10000 0.89 148 06:54 18.05.2022
3647 Clouds 26 1016 81 10000 3.6 140 03:34 18.05.2022
3648 Clouds 29 1015 75 10000 5.36 130 00:42 18.05.2022
3649 Clouds 29 1015 72 10000 5.36 150 23:21 17.05.2022
3650 Clouds 30 1015 67 10000 5.36 120 21:21 17.05.2022
3651 Clouds 30 1015 65 10000 2.68 95 20:38 17.05.2022
3652 Clouds 30 1016 65 10000 2.24 131 19:30 17.05.2022
3653 Clouds 30 1016 64 10000 3.09 270 18:43 17.05.2022
3654 Clouds 30 1016 66 10000 1.54 0 17:34 17.05.2022
3655 Clear 29 1016 67 10000 0.89 235 16:55 17.05.2022
3656 Clear 27 1016 73 10000 2.68 10 15:49 17.05.2022
3657 Clear 25 1016 82 10000 1.54 0 14:52 17.05.2022
3658 Clear 24 1016 86 10000 1.79 310 14:28 17.05.2022
3659 Clouds 22 1015 89 10000 2.06 330 12:37 17.05.2022
3660 Clouds 23 1014 85 10000 1.54 290 10:23 17.05.2022
3661 Clear 23 1015 84 10000 2.06 220 08:51 17.05.2022
3662 Clouds 24 1015 84 10000 2.06 230 07:46 17.05.2022
3663 Clear 24 1015 83 10000 2.57 220 06:21 17.05.2022
3664 Clouds 25 1013 85 10000 3.6 170 00:47 17.05.2022
3665 Clouds 25 1013 90 10000 5.14 100 23:35 16.05.2022
3666 Clouds 24 1014 89 10000 1.54 70 22:33 16.05.2022
3667 Clouds 30 1013 68 10000 3.13 134 20:56 16.05.2022
3668 Clouds 30 1014 64 10000 5.14 180 20:33 16.05.2022
3669 Clouds 30 1015 62 10000 2.24 143 18:41 16.05.2022
3670 Clouds 27 1015 73 10000 2.06 290 16:42 16.05.2022
3671 Clear 24 1014 87 10000 0.45 307 14:58 16.05.2022
3672 Clouds 23 1014 89 10000 3.6 320 13:34 16.05.2022
3673 Clouds 22 1013 90 10000 2.57 300 12:34 16.05.2022
3674 Clouds 23 1013 91 10000 2.57 280 10:36 16.05.2022
3675 Clouds 25 1014 88 10000 2.57 250 07:48 16.05.2022
3676 Clouds 26 1014 83 10000 2.57 160 05:44 16.05.2022
3677 Clouds 27 1012 81 10000 6.17 140 00:44 16.05.2022
3678 Clouds 29 1012 73 10000 6.69 110 22:42 15.05.2022
3679 Clouds 30 1012 69 10000 2.68 0 21:57 15.05.2022
3680 Clouds 30 1012 66 10000 5.14 100 21:36 15.05.2022
3681 Clouds 31 1013 65 10000 5.14 80 20:38 15.05.2022
3682 Clouds 30 1014 66 10000 1.34 93 18:37 15.05.2022
3683 Clouds 29 1015 71 10000 1.79 118 16:52 15.05.2022
3684 Clouds 24 1015 88 10000 0 0 14:26 15.05.2022
3685 Clouds 24 1014 90 10000 1.54 80 13:45 15.05.2022
3686 Clear 24 1013 90 10000 2.49 231 11:55 15.05.2022
3687 Clouds 24 1013 88 10000 0 0 10:47 15.05.2022
3688 Clouds 25 1013 87 10000 0 0 09:46 15.05.2022
3689 Clouds 25 1014 86 10000 2.24 250 07:22 15.05.2022
3690 Clouds 25 1014 85 10000 1.34 0 06:42 15.05.2022
3691 Clouds 27 1014 76 10000 4.63 120 02:43 15.05.2022
3692 Clouds 29 1012 70 10000 5.66 140 00:24 15.05.2022
3693 Clouds 28 1012 71 10000 5.66 160 23:36 14.05.2022
3694 Clouds 30 1013 66 10000 5.81 130 21:50 14.05.2022
3695 Clouds 30 1013 65 10000 5.81 130 21:25 14.05.2022
3696 Clouds 31 1014 65 10000 4.63 140 20:26 14.05.2022
3697 Clear 30 1015 65 10000 4.63 110 19:20 14.05.2022
3698 Clear 31 1014 65 10000 2.24 130 18:57 14.05.2022
3699 Clouds 30 1015 67 10000 2.24 90 17:44 14.05.2022
3700 Clouds 30 1015 67 10000 2.24 90 17:44 14.05.2022
3701 Clear 28 1015 76 10000 1.34 100 15:58 14.05.2022
3702 Clouds 25 1014 86 10000 2.06 30 14:38 14.05.2022
3703 Clouds 25 1014 86 10000 2.06 30 14:38 14.05.2022
3704 Clouds 23 1014 93 10000 0 0 13:27 14.05.2022
3705 Clouds 22 1013 92 10000 3.13 110 11:45 14.05.2022
3706 Rain 23 1013 90 10000 0.89 168 10:43 14.05.2022
3707 Clouds 23 1014 90 10000 0.45 237 10:18 14.05.2022
3708 Clouds 24 1013 86 10000 0.45 84 09:23 14.05.2022
3709 Clouds 24 1015 87 10000 0 0 07:32 14.05.2022
3710 Clouds 25 1015 82 10000 2.06 150 04:35 14.05.2022
3711 Clouds 28 1013 71 10000 6.17 120 00:27 14.05.2022
3712 Clouds 27 1013 72 10000 6.17 130 23:25 13.05.2022
3713 Clouds 28 1013 69 10000 5.66 120 22:55 13.05.2022
3714 Clouds 28 1013 67 10000 5.66 120 22:21 13.05.2022
3715 Clouds 29 1014 63 10000 3.6 160 20:59 13.05.2022
3716 Clouds 29 1014 63 10000 5.66 130 20:37 13.05.2022
3717 Clouds 29 1014 63 10000 5.66 130 20:19 13.05.2022
3718 Clouds 29 1014 65 10000 2.24 114 18:56 13.05.2022
3719 Clouds 28 1015 63 10000 3.09 150 17:42 13.05.2022
3720 Clouds 28 1015 64 10000 3.09 150 17:22 13.05.2022
3721 Clouds 25 1015 78 10000 1.54 270 15:46 13.05.2022
3722 Clouds 23 1015 86 10000 0 0 14:38 13.05.2022
3723 Clouds 21 1013 92 10000 0 0 12:53 13.05.2022
3724 Clear 21 1013 92 10000 0.64 184 11:54 13.05.2022
3725 Clear 21 1013 92 10000 1.15 170 09:55 13.05.2022
3726 Clouds 21 1013 91 10000 0 0 09:29 13.05.2022
3727 Clouds 22 1013 92 10000 2.06 350 07:52 13.05.2022
3728 Clouds 22 1013 92 10000 2.06 350 07:18 13.05.2022
3729 Clouds 22 1014 91 10000 2.06 220 05:23 13.05.2022
3730 Thunderstorm 25 1012 71 10000 6.71 80 00:59 13.05.2022
3731 Clouds 25 1012 73 10000 5.66 100 22:59 12.05.2022
3732 Thunderstorm 26 1012 71 10000 5.14 100 22:34 12.05.2022
3733 Clouds 27 1013 64 10000 4.63 70 21:24 12.05.2022
3734 Clouds 27 1013 64 10000 4.63 80 19:49 12.05.2022
3735 Clouds 27 1014 63 10000 1.79 108 18:25 12.05.2022
3736 Clouds 26 1014 69 10000 3.6 340 16:44 12.05.2022
3737 Clear 23 1014 81 10000 0.89 316 14:57 12.05.2022
3738 Clouds 20 1013 88 10000 2.57 320 13:50 12.05.2022
3739 Clear 19 1012 89 10000 0.89 337 11:55 12.05.2022
3740 Clouds 20 1012 86 10000 2.57 340 10:32 12.05.2022
3741 Clear 21 1013 83 10000 0.45 0 08:53 12.05.2022
3742 Clouds 21 1013 81 10000 2.06 360 08:35 12.05.2022
3743 Clouds 21 1014 80 10000 3.6 360 07:25 12.05.2022
3744 Clear 23 1015 75 10000 3.6 20 04:32 12.05.2022
3745 Clouds 25 1013 62 10000 6.17 40 01:29 12.05.2022
3746 Clouds 26 1013 68 10000 7.2 50 23:18 11.05.2022
3747 Clouds 27 1013 64 10000 7.72 60 22:18 11.05.2022
3748 Clouds 28 1014 64 10000 6.69 50 21:25 11.05.2022
3749 Clouds 28 1014 61 10000 4.12 350 20:20 11.05.2022
3750 Clouds 28 1016 61 10000 6.17 350 17:37 11.05.2022
3751 Clouds 26 1016 69 10000 5.14 340 16:27 11.05.2022
3752 Clouds 22 1016 81 10000 4.12 350 14:48 11.05.2022
3753 Clouds 21 1016 83 10000 4.12 350 14:25 11.05.2022
3754 Clear 19 1016 86 10000 5.14 340 13:25 11.05.2022
3755 Clouds 19 1015 82 10000 5.14 340 11:48 11.05.2022
3756 Clear 19 1015 80 10000 4.63 330 09:30 11.05.2022
3757 Clear 21 1017 66 10000 3.09 350 06:36 11.05.2022
3758 Clear 24 1016 68 10000 5.66 40 02:27 11.05.2022
3759 Clear 28 1015 60 10000 2.68 53 22:58 10.05.2022
3760 Clear 28 1015 59 10000 3.58 38 22:58 10.05.2022
3761 Clouds 28 1015 55 10000 6.71 40 22:30 10.05.2022
3762 Clouds 28 1016 52 10000 4.63 20 21:40 10.05.2022
3763 Clouds 28 1017 51 10000 6.17 40 20:47 10.05.2022
3764 Clear 28 1018 56 10000 3.13 45 18:57 10.05.2022
3765 Clouds 28 1018 56 10000 4.63 60 17:38 10.05.2022
3766 Clouds 27 1018 59 10000 4.63 50 16:35 10.05.2022
3767 Clouds 23 1016 74 10000 2.57 350 13:31 10.05.2022
3768 Clouds 23 1015 75 10000 1.34 53 11:54 10.05.2022
3769 Clouds 23 1015 74 10000 3.6 40 11:32 10.05.2022
3770 Clear 23 1015 75 10000 1.34 35 10:56 10.05.2022
3771 Clouds 24 1015 73 10000 3.13 40 09:47 10.05.2022
3772 Clouds 24 1016 73 10000 3.09 40 08:18 10.05.2022
3773 Clouds 24 1016 73 10000 5.66 70 06:20 10.05.2022
3774 Clear 25 1015 75 10000 6.17 70 02:23 10.05.2022
3775 Clouds 27 1014 73 10000 3.13 39 23:53 09.05.2022
3776 Clouds 29 1014 68 10000 6.69 80 22:36 09.05.2022
3777 Clouds 29 1014 66 10000 8.23 70 21:39 09.05.2022
3778 Clouds 29 1015 65 10000 5.66 80 20:21 09.05.2022
3779 Clouds 29 1015 66 10000 6.17 90 18:26 09.05.2022
3780 Clouds 29 1015 67 10000 5.14 80 17:26 09.05.2022
3781 Clouds 28 1014 71 10000 6.17 60 16:19 09.05.2022
3782 Clouds 28 1014 75 10000 3.6 40 15:47 09.05.2022
3783 Clouds 25 1013 84 10000 1.54 330 14:37 09.05.2022
3784 Clear 24 1014 85 10000 0.45 336 13:59 09.05.2022
3785 Clouds 22 1012 86 10000 1.54 340 13:23 09.05.2022
3786 Clear 23 1011 82 10000 3.32 47 11:53 09.05.2022
3787 Clear 23 1012 84 10000 2.57 310 10:48 09.05.2022
3788 Clear 23 1012 84 10000 2.57 310 10:26 09.05.2022
3789 Clear 24 1012 86 10000 0.45 0 07:57 09.05.2022
3790 Clear 26 1012 87 10000 0.45 0 05:59 09.05.2022
3791 Clouds 29 1009 75 10000 0.45 28 01:59 09.05.2022
3792 Clouds 31 1009 64 10000 3.6 120 23:29 08.05.2022
3793 Clouds 33 1010 56 10000 5.66 260 22:32 08.05.2022
3794 Clouds 33 1010 57 10000 4.63 260 21:24 08.05.2022
3795 Clouds 33 1010 54 10000 6.17 300 20:25 08.05.2022
3796 Clouds 32 1011 56 10000 5.14 270 19:33 08.05.2022
3797 Clouds 32 1011 59 10000 6.69 260 18:40 08.05.2022
3798 Clouds 30 1012 65 10000 6.17 300 17:40 08.05.2022
3799 Clouds 29 1012 74 10000 5.66 290 16:22 08.05.2022
3800 Clear 27 1011 83 10000 5.14 260 15:22 08.05.2022
3801 Clouds 24 1011 89 10000 2.06 220 13:44 08.05.2022
3802 Clouds 23 1010 87 10000 2.57 250 11:50 08.05.2022
3803 Clouds 24 1010 84 10000 3.6 260 10:26 08.05.2022
3804 Clear 24 1010 82 10000 1.34 261 09:53 08.05.2022
3805 Clear 25 1010 77 10000 0.45 228 07:57 08.05.2022
3806 Clouds 24 1012 77 10000 3.09 270 06:18 08.05.2022
3807 Clouds 26 1011 72 10000 4.63 310 03:22 08.05.2022
3808 Clouds 30 1009 64 10000 6.69 280 01:19 08.05.2022
3809 Clouds 32 1009 57 10000 3.58 264 23:57 07.05.2022
3810 Clouds 32 1009 54 10000 8.75 260 23:32 07.05.2022
3811 Clouds 33 1009 53 10000 8.75 250 22:42 07.05.2022
3812 Clouds 33 1009 52 10000 3.58 261 21:56 07.05.2022
3813 Clouds 33 1010 52 10000 8.75 240 21:21 07.05.2022
3814 Clouds 33 1011 53 10000 8.23 270 20:25 07.05.2022
3815 Clouds 33 1012 54 10000 7.2 230 18:49 07.05.2022
3816 Clouds 30 1012 66 10000 4.63 250 16:34 07.05.2022
3817 Clouds 28 1013 79 10000 2.24 241 14:53 07.05.2022
3818 Clouds 25 1012 87 10000 4.12 200 11:23 07.05.2022
3819 Clouds 25 1012 88 10000 4.12 220 09:44 07.05.2022
3820 Clouds 25 1013 87 10000 3.09 220 08:30 07.05.2022
3821 Clear 26 1014 85 10000 3.09 230 07:20 07.05.2022
3822 Clear 26 1014 83 10000 3.6 210 06:42 07.05.2022
3823 Clear 27 1013 77 10000 1.34 206 03:57 07.05.2022
3824 Clouds 32 1012 61 10000 6.17 230 23:44 06.05.2022
3825 Clouds 32 1013 65 10000 5.66 240 22:40 06.05.2022
3826 Clouds 32 1013 64 10000 4.63 240 21:53 06.05.2022
3827 Clouds 33 1013 62 10000 4.63 240 21:29 06.05.2022
3828 Clouds 32 1015 60 10000 4.12 250 19:47 06.05.2022
3829 Clouds 32 1015 58 10000 4.12 250 19:24 06.05.2022
3830 Clouds 32 1016 61 10000 4.63 240 18:30 06.05.2022
3831 Clouds 31 1017 63 10000 2.06 230 17:34 06.05.2022
3832 Clouds 29 1016 72 10000 3.6 210 15:51 06.05.2022
3833 Clouds 28 1016 75 10000 3.6 210 15:18 06.05.2022
3834 Clouds 24 1016 91 10000 1.54 180 13:49 06.05.2022
3835 Clouds 24 1016 91 10000 1.54 230 12:50 06.05.2022
3836 Clear 24 1015 93 10000 1.29 240 11:58 06.05.2022
3837 Clouds 24 1015 89 10000 2.57 220 10:41 06.05.2022
3838 Clear 24 1015 88 10000 1.54 220 09:47 06.05.2022
3839 Clouds 25 1015 87 10000 2.06 230 09:18 06.05.2022
3840 Clouds 25 1016 84 10000 3.09 0 07:40 06.05.2022
3841 Clouds 26 1017 82 10000 2.06 140 06:26 06.05.2022
3842 Clouds 26 1015 81 10000 1.34 0 02:58 06.05.2022
3843 Clouds 27 1016 80 10000 0.89 125 01:58 06.05.2022
3844 Clouds 30 1015 69 10000 4.63 140 22:50 05.05.2022
3845 Clouds 30 1015 68 10000 5.14 120 21:49 05.05.2022
3846 Clouds 31 1016 65 10000 2.68 146 20:36 05.05.2022
3847 Clear 31 1017 64 10000 1.79 0 18:54 05.05.2022
3848 Clouds 29 1018 68 10000 3.6 240 16:40 05.05.2022
3849 Clear 26 1018 83 10000 0.89 298 14:59 05.05.2022
3850 Clear 22 1016 88 10000 0 0 13:29 05.05.2022
3851 Clear 22 1016 67 10000 1.34 283 12:56 05.05.2022
3852 Clear 22 1016 85 10000 0 0 11:22 05.05.2022
3853 Clouds 23 1017 85 10000 1.54 270 09:40 05.05.2022
3854 Clear 22 1017 85 10000 0 0 08:34 05.05.2022
3855 Clouds 23 1018 83 10000 2.06 180 06:24 05.05.2022
3856 Rain 26 1016 83 10000 3.09 160 02:23 05.05.2022
3857 Thunderstorm 26 1016 83 10000 2.57 340 01:37 05.05.2022
3858 Thunderstorm 27 1016 82 10000 3.6 130 00:43 05.05.2022
3859 Clouds 29 1015 74 10000 2.24 132 22:57 04.05.2022
3860 Clouds 30 1015 70 10000 2.68 140 21:59 04.05.2022
3861 Clouds 30 1016 67 10000 4.12 130 21:34 04.05.2022
3862 Clouds 30 1017 69 10000 5.14 120 20:52 04.05.2022
3863 Clouds 30 1017 69 10000 5.14 120 20:18 04.05.2022
3864 Clouds 30 1018 70 10000 5.14 130 19:35 04.05.2022
3865 Clouds 29 1018 70 10000 4.63 80 18:42 04.05.2022
3866 Clouds 29 1018 71 10000 5.66 120 18:18 04.05.2022
3867 Clouds 29 1018 71 10000 1.79 107 16:36 04.05.2022
3868 Clouds 28 1018 78 10000 2.06 40 15:32 04.05.2022
3869 Clouds 25 1017 87 10000 2.06 360 14:38 04.05.2022
3870 Clouds 25 1017 90 10000 2.06 360 14:19 04.05.2022
3871 Clear 23 1016 93 10000 0 0 12:39 04.05.2022
3872 Clouds 23 1016 91 10000 1.54 290 11:40 04.05.2022
3873 Clear 23 1015 90 10000 1.43 90 09:57 04.05.2022
3874 Clouds 23 1017 90 10000 0 0 09:21 04.05.2022
3875 Clouds 24 1017 88 10000 1.54 150 07:51 04.05.2022
3876 Clouds 25 1017 85 10000 3.09 110 04:45 04.05.2022
3877 Clouds 26 1017 81 10000 2.57 120 02:37 04.05.2022
3878 Clouds 27 1016 76 10000 4.63 110 23:20 03.05.2022
3879 Clouds 28 1016 74 10000 1.79 70 21:53 03.05.2022
3880 Clouds 28 1017 71 10000 5.14 80 21:31 03.05.2022
3881 Clouds 29 1018 70 10000 4.12 80 20:46 03.05.2022
3882 Clouds 29 1018 70 10000 5.14 100 19:33 03.05.2022
3883 Clouds 29 1018 73 10000 5.66 100 18:47 03.05.2022
3884 Clouds 28 1018 77 10000 6.17 120 17:22 03.05.2022
3885 Clouds 27 1018 82 10000 5.14 120 15:57 03.05.2022
3886 Clouds 25 1018 84 10000 6.17 100 14:24 03.05.2022
3887 Mist 24 1017 88 10000 4.63 90 12:42 03.05.2022
3888 Clouds 24 1017 86 10000 4.63 100 11:39 03.05.2022
3889 Clouds 25 1016 84 10000 3.09 110 10:44 03.05.2022
3890 Clouds 25 1018 81 10000 5.14 90 08:29 03.05.2022
3891 Clouds 25 1019 79 10000 6.69 100 06:45 03.05.2022
3892 Clear 25 1018 76 10000 5.14 90 02:48 03.05.2022
3893 Clouds 27 1017 69 10000 7.2 110 23:32 02.05.2022
3894 Clouds 28 1018 67 10000 8.23 120 22:29 02.05.2022
3895 Clouds 28 1018 68 10000 9.26 100 21:47 02.05.2022
3896 Clouds 28 1019 70 10000 6.69 130 19:30 02.05.2022
3897 Clouds 28 1020 72 10000 7.72 100 18:26 02.05.2022
3898 Clouds 28 1020 69 10000 5.66 110 17:41 02.05.2022
3899 Clouds 28 1020 69 10000 5.66 110 17:41 02.05.2022
3900 Clouds 28 1020 70 10000 5.66 90 16:43 02.05.2022
3901 Clouds 27 1019 72 10000 5.66 110 15:44 02.05.2022
3902 Clouds 26 1018 75 10000 3.6 100 14:51 02.05.2022
3903 Clouds 24 1018 82 10000 2.06 90 13:42 02.05.2022
3904 Clouds 23 1017 83 10000 1.54 110 11:41 02.05.2022
3905 Clear 24 1017 82 10000 1.34 112 09:59 02.05.2022
3906 Clouds 24 1018 81 10000 2.57 100 08:31 02.05.2022
3907 Clouds 25 1018 78 10000 0.89 95 06:56 02.05.2022
3908 Clear 26 1017 64 10000 6.17 100 00:48 02.05.2022
3909 Clear 27 1017 63 10000 6.17 100 00:22 02.05.2022
3910 Clouds 28 1017 60 10000 6.17 80 23:40 01.05.2022
3911 Clouds 28 1017 61 10000 6.17 100 21:45 01.05.2022
3912 Clouds 28 1018 62 10000 6.17 100 20:50 01.05.2022
3913 Clouds 28 1018 63 10000 5.14 100 19:27 01.05.2022
3914 Clouds 28 1018 66 10000 2.24 89 18:53 01.05.2022
3915 Clouds 27 1019 73 10000 6.17 90 17:51 01.05.2022
3916 Clouds 27 1019 73 10000 6.17 90 17:51 01.05.2022
3917 Thunderstorm 26 1019 74 10000 4.63 60 16:42 01.05.2022
3918 Thunderstorm 26 1018 73 10000 4.63 60 16:18 01.05.2022
3919 Clouds 25 1017 80 10000 0.89 98 14:54 01.05.2022
3920 Clouds 23 1016 84 10000 1.54 30 12:52 01.05.2022
3921 Clouds 22 1016 89 10000 2.06 10 10:36 01.05.2022
3922 Clouds 23 1016 88 10000 1.54 110 08:50 01.05.2022
3923 Clouds 23 1017 84 10000 3.6 120 06:51 01.05.2022
3924 Clouds 25 1016 77 10000 4.63 90 02:46 01.05.2022
3925 Clouds 28 1015 63 10000 4.63 100 22:51 30.04.2022
3926 Clouds 28 1015 63 10000 4.63 100 22:51 30.04.2022
3927 Clouds 28 1016 64 10000 5.14 130 21:33 30.04.2022
3928 Clouds 28 1016 64 10000 4.12 110 20:22 30.04.2022
3929 Clouds 27 1016 72 10000 3.09 110 19:31 30.04.2022
3930 Clouds 24 1017 88 10000 4.12 140 17:37 30.04.2022
3931 Clouds 23 1018 90 10000 4.12 100 16:28 30.04.2022
3932 Rain 23 1017 89 10000 2.06 20 15:19 30.04.2022
3933 Clouds 22 1017 94 10000 1.54 40 14:30 30.04.2022
3934 Thunderstorm 23 1015 86 10000 4.63 90 12:28 30.04.2022
3935 Clouds 23 1015 86 10000 1.54 140 11:32 30.04.2022
3936 Clouds 23 1015 86 10000 3.6 150 10:30 30.04.2022
3937 Clouds 24 1016 85 10000 4.63 80 08:26 30.04.2022
3938 Clouds 24 1017 84 10000 0.45 40 04:58 30.04.2022
3939 Clouds 26 1015 73 10000 4.63 120 00:35 30.04.2022
3940 Clouds 26 1015 72 10000 5.14 120 23:29 29.04.2022
3941 Thunderstorm 27 1015 69 10000 3.09 360 22:29 29.04.2022
3942 Clouds 28 1016 67 10000 2.68 0 21:26 29.04.2022
3943 Clouds 28 1016 66 10000 5.66 110 20:36 29.04.2022
3944 Clouds 29 1016 63 10000 5.66 130 19:36 29.04.2022
3945 Clouds 28 1017 67 10000 4.63 100 17:48 29.04.2022
3946 Clouds 27 1018 70 10000 4.63 110 16:43 29.04.2022
3947 Clouds 24 1017 85 10000 2.57 30 14:38 29.04.2022
3948 Clouds 23 1017 88 10000 2.57 30 14:19 29.04.2022
3949 Clouds 22 1016 87 10000 2.06 0 12:41 29.04.2022
3950 Clouds 22 1015 85 10000 0.45 38 10:57 29.04.2022
3951 Clouds 22 1016 83 10000 2.57 90 08:18 29.04.2022
3952 Clouds 22 1017 89 10000 1.54 130 07:27 29.04.2022
3953 Clouds 22 1017 87 10000 3.09 180 06:35 29.04.2022
3954 Rain 23 1016 87 10000 3.09 140 03:28 29.04.2022
3955 Clouds 25 1014 74 10000 3.6 140 00:18 29.04.2022
3956 Thunderstorm 26 1014 71 10000 6.69 140 23:26 28.04.2022
3957 Thunderstorm 27 1014 65 10000 7.2 120 22:40 28.04.2022
3958 Clouds 29 1015 58 10000 12.86 30 21:46 28.04.2022
3959 Clouds 30 1015 56 10000 4.12 100 20:51 28.04.2022
3960 Clear 30 1016 60 10000 2.24 128 19:59 28.04.2022
3961 Clear 30 1016 57 10000 2.68 137 19:40 28.04.2022
3962 Clear 30 1017 57 10000 2.24 0 19:20 28.04.2022
3963 Clear 30 1017 55 10000 2.57 320 18:23 28.04.2022
3964 Clear 29 1017 60 10000 1.79 107 16:59 28.04.2022
3965 Clouds 28 1017 63 10000 3.09 200 16:21 28.04.2022
3966 Clear 27 1018 67 10000 0.89 209 15:57 28.04.2022
3967 Clouds 26 1017 71 10000 3.6 180 15:27 28.04.2022
3968 Clouds 23 1016 84 10000 3.13 220 13:44 28.04.2022
3969 Clouds 22 1016 84 10000 1.54 210 12:38 28.04.2022
3970 Clouds 23 1016 84 10000 2.68 200 11:51 28.04.2022
3971 Clouds 23 1016 85 10000 1.54 220 10:37 28.04.2022
3972 Clouds 23 1016 83 10000 1.54 200 09:52 28.04.2022
3973 Clouds 23 1017 81 10000 1.54 240 08:20 28.04.2022
3974 Clouds 23 1018 85 10000 2.99 174 06:56 28.04.2022
3975 Clouds 23 1017 83 10000 3.52 173 05:54 28.04.2022
3976 Clouds 24 1017 77 10000 2.57 120 04:44 28.04.2022
3977 Clouds 25 1017 74 10000 2.57 170 03:40 28.04.2022
3978 Clouds 27 1016 66 10000 1.79 139 23:59 27.04.2022
3979 Clouds 28 1016 62 10000 6.26 120 22:34 27.04.2022
3980 Clouds 29 1016 60 10000 5.81 130 21:51 27.04.2022
3981 Clouds 29 1017 61 10000 2.68 133 20:56 27.04.2022
3982 Clouds 29 1017 59 10000 5.36 170 20:34 27.04.2022
3983 Clouds 29 1017 59 10000 5.36 170 20:34 27.04.2022
3984 Clouds 29 1018 60 10000 4.12 170 19:37 27.04.2022
3985 Clouds 29 1019 60 10000 4.12 130 18:52 27.04.2022
3986 Clouds 29 1019 60 10000 4.12 130 18:22 27.04.2022
3987 Clouds 27 1018 64 10000 3.6 130 16:27 27.04.2022
3988 Clouds 25 1018 76 10000 2.24 120 14:26 27.04.2022
3989 Clouds 23 1017 79 10000 0.45 143 11:45 27.04.2022
3990 Clouds 23 1018 81 10000 0.45 131 11:20 27.04.2022
3991 Clouds 23 1018 81 10000 0.45 139 08:58 27.04.2022
3992 Clouds 23 1019 79 10000 3.09 100 07:18 27.04.2022
3993 Clouds 24 1020 73 10000 4.63 100 04:21 27.04.2022
3994 Clear 25 1018 68 10000 5.81 90 01:31 27.04.2022
3995 Clouds 27 1018 64 10000 5.81 100 00:36 27.04.2022
3996 Clouds 28 1018 60 10000 4.63 60 23:25 26.04.2022
3997 Clear 28 1018 63 10000 2.24 108 22:57 26.04.2022
3998 Clouds 28 1018 60 10000 5.66 100 22:38 26.04.2022
3999 Clouds 29 1019 58 10000 4.63 110 21:26 26.04.2022
4000 Clouds 29 1019 58 10000 4.63 110 21:26 26.04.2022
4001 Clouds 28 1020 58 10000 4.12 110 20:41 26.04.2022
4002 Clouds 28 1020 59 10000 5.14 90 19:49 26.04.2022
4003 Clouds 28 1020 60 10000 5.14 90 19:30 26.04.2022
4004 Clouds 28 1020 61 10000 5.14 100 18:44 26.04.2022
4005 Clear 28 1020 63 10000 2.24 93 17:54 26.04.2022
4006 Clouds 27 1021 66 10000 4.63 90 16:28 26.04.2022
4007 Clouds 24 1020 77 10000 0.89 78 13:59 26.04.2022
4008 Clouds 23 1020 80 10000 3.13 90 13:32 26.04.2022
4009 Clouds 23 1019 78 10000 4.12 100 11:49 26.04.2022
4010 Clouds 24 1018 78 10000 6.26 100 10:34 26.04.2022
4011 Clouds 24 1018 82 10000 1.34 85 08:54 26.04.2022
4012 Clouds 24 1019 80 10000 5.81 100 07:22 26.04.2022
4013 Clouds 24 1020 78 10000 4.12 80 04:23 26.04.2022
4014 Clouds 26 1018 73 10000 7.15 100 01:25 26.04.2022
4015 Clouds 27 1018 69 10000 7.2 90 00:26 26.04.2022
4016 Clouds 28 1018 63 10000 6.69 100 22:33 25.04.2022
4017 Clouds 28 1019 62 10000 5.81 110 21:40 25.04.2022
4018 Clouds 28 1020 61 10000 5.81 100 20:39 25.04.2022
4019 Clear 28 1020 63 10000 2.24 0 18:55 25.04.2022
4020 Clouds 28 1020 63 10000 6.71 90 17:52 25.04.2022
4021 Clear 27 1020 67 10000 2.24 87 16:55 25.04.2022
4022 Clouds 26 1019 68 10000 6.71 110 15:29 25.04.2022
4023 Clouds 25 1019 73 10000 4.63 90 14:42 25.04.2022
4024 Clouds 24 1019 77 10000 4.12 100 13:33 25.04.2022
4025 Clouds 24 1017 78 10000 5.36 90 11:38 25.04.2022
4026 Clouds 24 1018 78 10000 6.26 100 10:26 25.04.2022
4027 Clouds 24 1018 77 10000 4.63 100 08:39 25.04.2022
4028 Clouds 24 1019 76 10000 6.26 100 06:39 25.04.2022
4029 Clear 25 1019 74 10000 6.26 70 03:47 25.04.2022
4030 Clouds 26 1018 74 10000 1.79 70 00:57 25.04.2022
4031 Clouds 27 1018 71 10000 8.94 80 23:51 24.04.2022
4032 Clouds 27 1018 71 10000 7.72 80 22:43 24.04.2022
4033 Clouds 27 1018 70 10000 7.72 80 22:20 24.04.2022
4034 Clouds 28 1019 67 10000 6.71 70 21:26 24.04.2022
4035 Clouds 28 1019 67 10000 2.68 93 20:54 24.04.2022
4036 Clouds 28 1019 63 10000 6.69 100 20:35 24.04.2022
4037 Clouds 28 1019 61 10000 5.81 70 19:46 24.04.2022
4038 Clouds 28 1020 62 10000 7.2 90 18:20 24.04.2022
4039 Clouds 28 1020 62 10000 8.23 80 17:28 24.04.2022
4040 Clouds 27 1020 64 10000 2.24 85 16:58 24.04.2022
4041 Clouds 27 1020 63 10000 8.94 100 16:32 24.04.2022
4042 Clouds 26 1020 66 10000 1.79 76 15:54 24.04.2022
4043 Clouds 26 1020 65 10000 7.72 110 15:29 24.04.2022
4044 Clear 24 1019 74 10000 2.24 0 13:56 24.04.2022
4045 Clouds 23 1019 75 10000 5.14 90 13:25 24.04.2022
4046 Clear 23 1018 73 10000 1.34 0 11:56 24.04.2022
4047 Clouds 23 1018 70 10000 3.6 80 11:27 24.04.2022
4048 Clouds 24 1018 70 10000 6.26 100 10:24 24.04.2022
4049 Clouds 24 1018 71 10000 6.71 90 09:19 24.04.2022
4050 Clouds 24 1020 73 10000 6.71 70 06:18 24.04.2022
4051 Clouds 24 1020 74 10000 7.2 80 03:37 24.04.2022
4052 Clear 25 1019 73 10000 1.79 66 01:37 24.04.2022
4053 Clouds 26 1019 67 10000 8.94 80 00:22 24.04.2022
4054 Clouds 26 1019 66 10000 8.23 90 23:26 23.04.2022
4055 Clouds 27 1019 64 10000 7.72 90 22:55 23.04.2022
4056 Clouds 27 1020 64 10000 8.23 90 21:51 23.04.2022
4057 Clouds 27 1020 64 10000 8.23 90 21:32 23.04.2022
4058 Clouds 28 1020 64 10000 8.23 100 20:33 23.04.2022
4059 Clouds 28 1021 64 10000 7.72 80 19:46 23.04.2022
4060 Clouds 27 1021 64 10000 7.72 80 19:19 23.04.2022
4061 Clouds 27 1021 64 10000 8.75 70 18:46 23.04.2022
4062 Clouds 27 1021 65 10000 7.72 70 17:48 23.04.2022
4063 Clouds 27 1021 64 10000 8.23 100 16:50 23.04.2022
4064 Clouds 26 1021 66 10000 8.23 100 16:21 23.04.2022
4065 Clouds 25 1020 73 10000 5.14 80 14:47 23.04.2022
4066 Clouds 23 1020 75 10000 5.81 50 12:22 23.04.2022
4067 Clouds 23 1020 73 10000 6.26 60 10:40 23.04.2022
4068 Clouds 23 1020 73 10000 6.26 60 10:40 23.04.2022
4069 Clouds 24 1021 77 10000 6.17 70 08:42 23.04.2022
4070 Clouds 23 1022 73 10000 5.66 50 05:47 23.04.2022
4071 Clouds 24 1022 75 10000 3.13 50 03:54 23.04.2022
4072 Clouds 25 1020 72 10000 9.26 70 00:46 23.04.2022
4073 Clouds 26 1021 70 10000 9.26 70 23:27 22.04.2022
4074 Clouds 27 1021 72 10000 3.58 47 21:59 22.04.2022
4075 Clouds 27 1021 67 10000 8.23 70 21:40 22.04.2022
4076 Clouds 27 1022 68 10000 9.26 80 20:44 22.04.2022
4077 Clouds 27 1022 68 10000 9.26 80 20:25 22.04.2022
4078 Clouds 27 1022 69 10000 9.26 60 19:18 22.04.2022
4079 Clouds 27 1023 69 10000 10.8 70 18:34 22.04.2022
4080 Clouds 27 1023 69 10000 11.32 70 17:37 22.04.2022
4081 Clouds 26 1023 72 10000 10.8 70 16:30 22.04.2022
4082 Clouds 25 1022 75 10000 9.77 70 15:32 22.04.2022
4083 Clouds 24 1022 79 10000 8.75 60 14:41 22.04.2022
4084 Clouds 24 1021 81 10000 7.72 60 13:42 22.04.2022
4085 Clouds 23 1021 84 10000 2.68 44 12:55 22.04.2022
4086 Clouds 23 1020 85 10000 8.23 60 11:41 22.04.2022
4087 Clouds 23 1020 85 10000 8.23 60 11:18 22.04.2022
4088 Rain 23 1021 85 10000 8.23 80 10:47 22.04.2022
4089 Rain 23 1021 84 10000 8.23 80 10:25 22.04.2022
4090 Clouds 23 1021 82 4828 8.75 80 09:42 22.04.2022
4091 Clouds 24 1022 76 10000 7.72 70 08:49 22.04.2022
4092 Clouds 24 1022 74 10000 2.24 52 06:56 22.04.2022
4093 Clouds 24 1022 73 10000 7.6 70 01:49 22.04.2022
4094 Clouds 25 1022 67 10000 8.23 60 23:49 21.04.2022
4095 Clouds 26 1022 64 10000 7.72 60 22:52 21.04.2022
4096 Clouds 27 1022 63 10000 2.68 41 21:56 21.04.2022
4097 Clouds 27 1023 58 10000 8.94 80 20:34 21.04.2022
4098 Clouds 27 1023 58 10000 9.26 90 19:51 21.04.2022
4099 Clouds 26 1023 60 10000 9.39 70 18:34 21.04.2022
4100 Clouds 26 1023 62 10000 8.75 70 17:47 21.04.2022
4101 Clouds 26 1024 66 10000 8.23 60 16:24 21.04.2022
4102 Clouds 25 1023 70 10000 9.26 60 15:19 21.04.2022
4103 Clouds 24 1022 73 10000 7.2 60 14:31 21.04.2022
4104 Clouds 23 1022 75 10000 6.69 70 13:23 21.04.2022
4105 Clouds 23 1021 74 10000 4.63 60 12:29 21.04.2022
4106 Clouds 23 1021 73 10000 7.2 70 10:20 21.04.2022
4107 Clouds 23 1022 75 10000 2.24 59 08:53 21.04.2022
4108 Clouds 23 1023 79 10000 2.68 61 06:55 21.04.2022
4109 Clouds 24 1022 75 10000 6.69 60 04:36 21.04.2022
4110 Clouds 24 1021 73 10000 7.2 70 03:24 21.04.2022
4111 Clouds 24 1021 73 10000 6.69 70 02:46 21.04.2022
4112 Clouds 25 1021 66 10000 6.71 90 00:43 21.04.2022
4113 Clouds 26 1021 62 10000 6.26 40 23:49 20.04.2022
4114 Clouds 26 1021 60 10000 6.26 40 23:21 20.04.2022
4115 Clouds 26 1020 61 10000 6.71 50 22:45 20.04.2022
4116 Clouds 26 1021 62 10000 6.71 50 22:26 20.04.2022
4117 Clouds 27 1021 61 10000 9.77 60 21:24 20.04.2022
4118 Clouds 27 1022 60 10000 11.32 70 20:23 20.04.2022
4119 Clouds 27 1022 60 10000 11.32 70 20:23 20.04.2022
4120 Clouds 27 1021 60 10000 8.23 80 19:51 20.04.2022
4121 Clouds 27 1021 61 10000 3.58 64 18:55 20.04.2022
4122 Clouds 27 1022 62 10000 3.13 63 17:53 20.04.2022
4123 Clouds 27 1021 60 10000 7.72 70 16:40 20.04.2022
4124 Clouds 26 1021 64 10000 6.69 70 15:50 20.04.2022
4125 Clouds 24 1020 73 10000 5.66 60 13:41 20.04.2022
4126 Clouds 24 1019 73 10000 4.63 50 11:44 20.04.2022
4127 Clouds 24 1019 75 10000 2.24 49 10:56 20.04.2022
4128 Clouds 24 1018 76 10000 5.14 60 09:46 20.04.2022
4129 Clouds 24 1018 77 10000 1.79 46 08:59 20.04.2022
4130 Clouds 24 1018 75 10000 5.14 60 08:20 20.04.2022
4131 Clouds 25 1019 76 10000 1.79 48 06:56 20.04.2022
4132 Clouds 24 1018 83 10000 6.69 30 03:34 20.04.2022
4133 Clouds 27 1016 74 10000 7.2 40 00:22 20.04.2022
4134 Clouds 28 1016 69 10000 7.72 70 23:37 19.04.2022
4135 Clouds 29 1016 64 10000 7.2 50 22:25 19.04.2022
4136 Clear 29 1016 66 10000 3.58 36 21:55 19.04.2022
4137 Clouds 30 1016 63 10000 7.2 70 21:22 19.04.2022
4138 Clouds 30 1016 61 10000 6.26 40 20:41 19.04.2022
4139 Clouds 30 1016 57 10000 4.63 70 19:52 19.04.2022
4140 Clouds 30 1017 57 10000 3.6 30 18:47 19.04.2022
4141 Clear 29 1017 61 10000 4.63 350 17:32 19.04.2022
4142 Clear 28 1017 66 10000 5.14 10 16:43 19.04.2022
4143 Clear 27 1017 67 10000 5.14 10 16:22 19.04.2022
4144 Clouds 24 1016 82 10000 5.14 340 14:48 19.04.2022
4145 Clouds 22 1015 86 10000 4.12 340 13:49 19.04.2022
4146 Clear 22 1014 87 10000 5.14 340 12:50 19.04.2022
4147 Clear 22 1014 89 10000 0.89 327 11:55 19.04.2022
4148 Clouds 22 1014 89 10000 3.09 340 10:25 19.04.2022
4149 Clear 23 1014 91 10000 3.09 300 09:19 19.04.2022
4150 Clouds 25 1014 83 10000 0 0 04:56 19.04.2022
4151 Clouds 25 1013 81 10000 3.6 120 03:26 19.04.2022
4152 Clouds 26 1012 77 10000 4.63 120 00:55 19.04.2022
4153 Clouds 28 1011 71 10000 5.81 100 23:30 18.04.2022
4154 Clouds 30 1012 62 10000 4.12 120 21:30 18.04.2022
4155 Clear 30 1013 63 10000 2.57 100 20:55 18.04.2022
4156 Clouds 30 1013 62 10000 3.13 110 20:32 18.04.2022
4157 Clouds 30 1013 62 10000 3.13 100 19:49 18.04.2022
4158 Clouds 30 1014 65 10000 2.24 134 18:57 18.04.2022
4159 Clouds 29 1014 65 10000 1.79 131 17:57 18.04.2022
4160 Clouds 29 1015 65 10000 2.24 120 17:34 18.04.2022
4161 Clouds 29 1015 67 10000 1.34 157 16:55 18.04.2022
4162 Clouds 28 1015 67 10000 3.6 110 16:31 18.04.2022
4163 Clouds 26 1014 77 10000 2.57 120 14:51 18.04.2022
4164 Clouds 24 1013 83 10000 3.09 130 13:36 18.04.2022
4165 Clouds 24 1013 85 10000 2.57 90 12:30 18.04.2022
4166 Clouds 24 1013 86 10000 4.12 90 11:35 18.04.2022
4167 Clouds 24 1013 85 10000 4.12 90 10:32 18.04.2022
4168 Clouds 25 1013 84 10000 3.09 100 09:31 18.04.2022
4169 Clouds 25 1014 83 10000 0.89 96 07:54 18.04.2022
4170 Clouds 25 1015 82 10000 6.17 80 05:41 18.04.2022
4171 Clouds 27 1013 73 10000 4.12 100 00:47 18.04.2022
4172 Clouds 29 1013 67 10000 5.66 120 22:41 17.04.2022
4173 Clouds 29 1014 67 10000 6.69 100 21:49 17.04.2022
4174 Clouds 29 1014 67 10000 6.69 100 21:26 17.04.2022
4175 Clouds 29 1014 67 10000 6.71 120 20:41 17.04.2022
4176 Clouds 29 1015 67 10000 7.2 110 19:38 17.04.2022
4177 Clouds 29 1015 70 10000 7.72 110 18:21 17.04.2022
4178 Clouds 27 1016 72 10000 6.69 100 16:27 17.04.2022
4179 Clouds 27 1016 74 10000 6.17 120 15:26 17.04.2022
4180 Clouds 25 1015 80 10000 2.24 100 14:25 17.04.2022
4181 Clouds 23 1015 84 10000 1.54 90 13:18 17.04.2022
4182 Clouds 23 1014 83 10000 3.6 100 12:27 17.04.2022
4183 Clouds 24 1014 80 10000 4.63 100 10:46 17.04.2022
4184 Clouds 24 1014 81 10000 4.63 100 10:28 17.04.2022
4185 Clouds 24 1015 82 10000 4.12 100 09:37 17.04.2022
4186 Clear 24 1015 84 10000 4.02 100 08:53 17.04.2022
4187 Clouds 25 1016 83 10000 6.71 100 07:37 17.04.2022
4188 Clear 24 1016 86 10000 3.13 110 04:51 17.04.2022
4189 Clouds 26 1015 77 10000 5.81 100 01:38 17.04.2022
4190 Clouds 28 1015 73 10000 1.79 0 23:54 16.04.2022
4191 Clouds 28 1015 69 10000 6.69 100 22:41 16.04.2022
4192 Clouds 28 1015 69 10000 4.63 140 21:41 16.04.2022
4193 Clouds 28 1016 68 10000 4.63 130 20:35 16.04.2022
4194 Clouds 29 1016 67 10000 7.2 150 19:18 16.04.2022
4195 Clouds 28 1017 67 10000 6.17 120 18:28 16.04.2022
4196 Clouds 27 1017 74 10000 6.17 120 16:41 16.04.2022
4197 Clouds 27 1017 76 10000 5.36 90 15:46 16.04.2022
4198 Clouds 26 1016 81 10000 2.24 82 14:57 16.04.2022
4199 Clear 24 1016 85 10000 1.34 79 13:58 16.04.2022
4200 Clouds 24 1016 85 10000 3.6 100 13:37 16.04.2022
4201 Clouds 24 1016 85 10000 3.6 100 13:37 16.04.2022
4202 Clouds 23 1016 85 10000 2.68 90 12:27 16.04.2022
4203 Clouds 24 1015 84 10000 3.6 90 11:19 16.04.2022
4204 Clear 24 1016 84 10000 1.34 99 09:57 16.04.2022
4205 Clear 23 1017 84 10000 1.34 90 08:59 16.04.2022
4206 Clouds 23 1016 84 10000 4.12 100 08:18 16.04.2022
4207 Clouds 24 1017 83 10000 1.34 86 06:59 16.04.2022
4208 Clouds 24 1017 85 10000 6.71 100 03:48 16.04.2022
4209 Mist 24 1016 88 4828 7.72 60 00:35 16.04.2022
4210 Clouds 26 1015 78 10000 6.17 60 23:27 15.04.2022
4211 Clouds 26 1015 79 10000 3.09 30 22:37 15.04.2022
4212 Clouds 26 1015 83 10000 1.34 0 21:58 15.04.2022
4213 Clouds 26 1015 82 10000 5.36 80 21:18 15.04.2022
4214 Clouds 26 1015 82 10000 5.36 80 21:18 15.04.2022
4215 Clouds 26 1015 82 10000 5.36 80 21:18 15.04.2022
4216 Clouds 26 1016 84 10000 5.66 70 20:27 15.04.2022
4217 Rain 27 1017 80 10000 3.6 120 19:40 15.04.2022
4218 Mist 27 1017 84 4828 4.63 110 18:54 15.04.2022
4219 Thunderstorm 28 1017 80 10000 3.13 152 18:25 15.04.2022
4220 Clouds 27 1017 80 10000 5.81 150 17:48 15.04.2022
4221 Rain 27 1017 79 9656 5.81 150 17:21 15.04.2022
4222 Clouds 27 1018 81 10000 3.6 160 16:23 15.04.2022
4223 Clouds 26 1017 84 10000 3.6 140 15:24 15.04.2022
4224 Clouds 24 1016 92 10000 1.69 106 13:55 15.04.2022
4225 Clouds 24 1016 91 10000 0.89 101 12:46 15.04.2022
4226 Clouds 24 1016 92 10000 0.45 135 11:59 15.04.2022
4227 Clouds 24 1015 91 10000 2.24 140 11:40 15.04.2022
4228 Clouds 24 1016 90 10000 0.45 72 10:45 15.04.2022
4229 Clouds 24 1016 89 10000 2.06 160 09:50 15.04.2022
4230 Clouds 24 1016 89 10000 2.06 160 09:21 15.04.2022
4231 Clouds 24 1017 89 10000 1.54 130 07:53 15.04.2022
4232 Clouds 25 1017 88 10000 3.6 140 06:46 15.04.2022
4233 Clouds 26 1016 85 10000 5.14 110 03:47 15.04.2022
4234 Clouds 28 1015 74 10000 5.66 160 23:42 14.04.2022
4235 Clouds 28 1015 72 10000 5.66 160 23:19 14.04.2022
4236 Clouds 28 1015 73 10000 8.23 150 22:42 14.04.2022
4237 Clouds 28 1015 73 10000 8.23 150 22:24 14.04.2022
4238 Clouds 29 1016 71 10000 7.72 130 21:32 14.04.2022
4239 Clouds 29 1017 71 10000 7.2 100 19:24 14.04.2022
4240 Clouds 29 1018 71 10000 6.26 150 18:31 14.04.2022
4241 Clouds 28 1018 72 10000 6.71 120 17:44 14.04.2022
4242 Clouds 28 1018 73 10000 6.69 120 16:49 14.04.2022
4243 Clouds 27 1018 76 10000 7.2 120 15:48 14.04.2022
4244 Clouds 24 1017 85 10000 3.13 120 13:49 14.04.2022
4245 Clouds 24 1017 86 10000 3.09 120 13:18 14.04.2022
4246 Clouds 24 1016 85 10000 3.6 130 12:32 14.04.2022
4247 Clouds 24 1016 84 10000 3.6 130 11:36 14.04.2022
4248 Clear 24 1016 85 10000 0.89 130 10:57 14.04.2022
4249 Clouds 24 1016 83 10000 5.36 130 10:29 14.04.2022
4250 Clouds 24 1016 83 10000 4.12 140 09:26 14.04.2022
4251 Clouds 24 1016 82 10000 5.81 100 07:52 14.04.2022
4252 Clear 25 1017 79 10000 6.71 100 05:23 14.04.2022
4253 Clouds 27 1017 69 10000 6.71 130 23:50 13.04.2022
4254 Clouds 27 1017 66 10000 7.2 130 22:37 13.04.2022
4255 Clouds 28 1018 66 10000 6.26 110 21:42 13.04.2022
4256 Clouds 27 1019 65 10000 6.17 120 20:35 13.04.2022
4257 Clouds 27 1019 65 10000 6.71 110 19:46 13.04.2022
4258 Clouds 27 1020 63 10000 7.72 120 18:36 13.04.2022
4259 Clouds 27 1020 65 10000 7.2 120 17:25 13.04.2022
4260 Clouds 27 1019 67 10000 8.23 100 16:49 13.04.2022
4261 Clouds 26 1019 68 10000 6.69 120 15:44 13.04.2022
4262 Clouds 26 1019 69 10000 6.69 120 15:23 13.04.2022
4263 Clouds 25 1019 71 10000 5.36 100 14:34 13.04.2022
4264 Clouds 23 1018 74 10000 4.63 100 13:37 13.04.2022
4265 Clouds 23 1018 74 10000 4.63 110 12:45 13.04.2022
4266 Clouds 23 1018 74 10000 5.81 110 11:32 13.04.2022
4267 Clouds 23 1018 74 10000 5.81 100 10:27 13.04.2022
4268 Clouds 23 1019 72 10000 6.26 100 08:45 13.04.2022
4269 Clouds 24 1020 71 10000 5.66 110 07:44 13.04.2022
4270 Clouds 24 1020 69 10000 7.2 100 06:47 13.04.2022
4271 Clouds 24 1020 68 10000 7.2 100 06:23 13.04.2022
4272 Clouds 25 1020 61 10000 7.2 80 00:52 13.04.2022
4273 Clouds 26 1020 59 10000 7.2 80 00:19 13.04.2022
4274 Clouds 27 1020 58 10000 7.72 110 22:33 12.04.2022
4275 Clouds 27 1020 57 10000 6.71 130 21:51 12.04.2022
4276 Clouds 27 1021 56 10000 8.23 100 20:48 12.04.2022
4277 Clouds 27 1021 55 10000 8.23 100 20:19 12.04.2022
4278 Clouds 27 1022 57 10000 7.2 100 19:40 12.04.2022
4279 Clear 27 1022 60 10000 2.24 81 18:56 12.04.2022
4280 Clouds 26 1022 57 10000 6.71 80 17:38 12.04.2022
4281 Clouds 26 1022 59 10000 8.23 80 16:38 12.04.2022
4282 Clouds 24 1021 63 10000 7.72 120 15:34 12.04.2022
4283 Clouds 24 1021 62 10000 6.71 100 14:48 12.04.2022
4284 Clouds 23 1021 64 10000 4.63 100 13:45 12.04.2022
4285 Clouds 22 1020 66 10000 4.63 100 13:24 12.04.2022
4286 Clear 22 1020 68 10000 1.79 79 11:57 12.04.2022
4287 Clouds 22 1019 66 10000 5.81 80 11:32 12.04.2022
4288 Clouds 23 1020 66 10000 5.81 100 09:47 12.04.2022
4289 Clouds 23 1020 66 10000 6.26 90 08:38 12.04.2022
4290 Clouds 23 1022 65 10000 5.81 100 06:46 12.04.2022
4291 Clouds 23 1022 65 10000 5.81 100 05:38 12.04.2022
4292 Clear 23 1020 65 10000 1.79 47 01:48 12.04.2022
4293 Clouds 25 1021 58 10000 7.2 110 23:20 11.04.2022
4294 Clear 26 1021 58 10000 2.68 87 21:59 11.04.2022
4295 Clouds 26 1021 54 10000 7.2 130 21:18 11.04.2022
4296 Clouds 26 1022 54 10000 8.23 100 20:34 11.04.2022
4297 Clear 26 1022 58 10000 2.68 94 19:58 11.04.2022
4298 Clouds 26 1022 55 10000 7.72 80 19:26 11.04.2022
4299 Clear 25 1023 57 10000 2.24 92 18:53 11.04.2022
4300 Clear 25 1023 60 10000 1.79 83 17:58 11.04.2022
4301 Clouds 25 1023 58 10000 8.75 100 17:33 11.04.2022
4302 Clouds 24 1022 60 10000 6.71 70 16:26 11.04.2022
4303 Clouds 22 1021 67 10000 3.6 80 14:42 11.04.2022
4304 Clouds 20 1020 70 10000 4.12 100 13:34 11.04.2022
4305 Clouds 20 1019 70 10000 3.13 90 12:38 11.04.2022
4306 Clear 20 1019 72 10000 1.34 0 11:54 11.04.2022
4307 Clouds 20 1019 70 10000 2.68 90 10:35 11.04.2022
4308 Clouds 20 1019 68 10000 3.13 110 09:34 11.04.2022
4309 Clear 21 1020 68 10000 1.79 92 07:53 11.04.2022
4310 Clouds 21 1021 62 10000 3.6 60 03:19 11.04.2022
4311 Clouds 24 1019 53 10000 6.17 50 23:22 10.04.2022
4312 Clouds 25 1019 51 10000 7.2 60 22:26 10.04.2022
4313 Clouds 25 1020 50 10000 5.14 80 21:35 10.04.2022
4314 Clouds 25 1020 50 10000 5.14 70 20:50 10.04.2022
4315 Clear 25 1020 51 10000 2.68 9 19:53 10.04.2022
4316 Clouds 24 1021 50 10000 4.63 60 19:30 10.04.2022
4317 Clouds 24 1022 51 10000 6.17 70 18:46 10.04.2022
4318 Clear 23 1022 55 10000 2.24 34 17:58 10.04.2022
4319 Clear 23 1022 55 10000 2.24 34 17:58 10.04.2022
4320 Clouds 23 1021 54 10000 4.12 10 17:39 10.04.2022
4321 Clouds 21 1021 54 10000 4.12 350 16:44 10.04.2022
4322 Clouds 18 1021 55 10000 4.12 360 15:37 10.04.2022
4323 Clouds 15 1021 56 10000 3.6 350 14:34 10.04.2022
4324 Clear 13 1020 55 10000 3.6 350 12:40 10.04.2022
4325 Clear 13 1020 58 10000 3.6 350 12:21 10.04.2022
4326 Clear 13 1020 61 10000 3.6 360 11:29 10.04.2022
4327 Clear 14 1020 62 10000 0.89 350 10:56 10.04.2022
4328 Clear 14 1020 65 10000 1.34 338 10:00 10.04.2022
4329 Clear 15 1020 64 10000 5.14 350 09:38 10.04.2022
4330 Clear 15 1020 60 10000 5.36 330 08:23 10.04.2022
4331 Clear 16 1020 59 10000 5.36 330 07:42 10.04.2022
4332 Clouds 18 1019 59 10000 1.34 296 05:57 10.04.2022
4333 Clouds 22 1017 43 10000 7.2 310 02:34 10.04.2022
4334 Clouds 26 1016 36 10000 7.72 290 00:29 10.04.2022
4335 Clouds 26 1016 35 10000 10.8 280 23:49 09.04.2022
4336 Clouds 27 1016 37 10000 9.26 280 22:48 09.04.2022
4337 Clouds 27 1017 38 10000 9.26 280 21:46 09.04.2022
4338 Clouds 27 1017 40 10000 8.75 290 20:50 09.04.2022
4339 Clouds 26 1017 41 10000 8.75 290 20:26 09.04.2022
4340 Clouds 26 1018 43 10000 8.23 300 19:42 09.04.2022
4341 Clouds 26 1018 45 10000 8.23 300 19:18 09.04.2022
4342 Clouds 25 1019 46 10000 7.2 310 18:21 09.04.2022
4343 Clouds 24 1020 50 10000 6.17 310 17:39 09.04.2022
4344 Clouds 23 1019 53 10000 4.12 300 16:52 09.04.2022
4345 Clear 22 1019 57 10000 1.79 212 15:57 09.04.2022
4346 Clouds 21 1019 59 10000 2.57 260 15:39 09.04.2022
4347 Clouds 19 1018 69 10000 1.54 250 14:44 09.04.2022
4348 Clouds 18 1019 73 10000 1.54 250 14:23 09.04.2022
4349 Clouds 17 1018 68 10000 2.57 300 13:18 09.04.2022
4350 Clouds 17 1018 69 10000 3.09 330 12:41 09.04.2022
4351 Clouds 18 1017 71 10000 4.12 320 11:38 09.04.2022
4352 Clouds 18 1017 65 10000 3.6 300 10:21 09.04.2022
4353 Clouds 18 1017 66 10000 2.57 280 09:42 09.04.2022
4354 Clouds 18 1017 67 10000 0.89 0 08:54 09.04.2022
4355 Clouds 19 1018 62 10000 3.6 290 07:22 09.04.2022
4356 Clouds 24 1015 53 10000 5.66 290 02:20 09.04.2022
4357 Clouds 27 1014 51 10000 1.34 0 23:53 08.04.2022
4358 Clouds 27 1014 50 10000 1.34 327 22:55 08.04.2022
4359 Clouds 27 1014 46 10000 3.13 290 21:29 08.04.2022
4360 Clouds 27 1015 44 10000 6.17 300 20:39 08.04.2022
4361 Clouds 27 1015 47 10000 6.17 310 19:20 08.04.2022
4362 Clouds 26 1016 50 10000 8.23 310 18:31 08.04.2022
4363 Clouds 25 1016 53 10000 8.23 320 17:52 08.04.2022
4364 Clouds 25 1016 55 10000 8.23 320 17:26 08.04.2022
4365 Clouds 24 1016 58 10000 7.72 320 16:49 08.04.2022
4366 Clouds 23 1016 62 10000 3.13 0 15:57 08.04.2022
4367 Clouds 22 1015 65 10000 7.72 330 15:26 08.04.2022
4368 Clouds 22 1015 66 10000 7.2 320 14:39 08.04.2022
4369 Clouds 22 1014 64 10000 7.72 330 13:48 08.04.2022
4370 Clouds 22 1014 62 10000 7.72 330 13:29 08.04.2022
4371 Clouds 23 1014 78 10000 6.17 320 12:18 08.04.2022
4372 Clouds 24 1013 85 10000 4.12 290 10:38 08.04.2022
4373 Clouds 24 1012 88 10000 4.12 280 09:39 08.04.2022
4374 Clouds 24 1012 90 10000 0.45 309 08:58 08.04.2022
4375 Clouds 25 1012 87 10000 4.12 250 07:31 08.04.2022
4376 Clouds 25 1012 86 10000 2.68 210 06:38 08.04.2022
4377 Clouds 28 1012 72 10000 7.72 270 01:45 08.04.2022
4378 Clouds 30 1011 69 10000 5.36 250 00:26 08.04.2022
4379 Clouds 31 1010 67 10000 2.68 224 23:00 07.04.2022
4380 Clouds 32 1011 62 10000 6.26 240 22:40 07.04.2022
4381 Clouds 32 1011 59 10000 6.26 240 22:22 07.04.2022
4382 Clouds 32 1011 62 10000 2.68 209 21:56 07.04.2022
4383 Clouds 32 1011 64 10000 7.2 240 21:19 07.04.2022
4384 Clouds 32 1011 66 10000 8.23 210 20:41 07.04.2022
4385 Clouds 31 1012 76 10000 5.14 160 18:54 07.04.2022
4386 Clouds 30 1013 76 10000 7.72 170 17:27 07.04.2022
4387 Clouds 29 1013 77 10000 8.23 170 16:45 07.04.2022
4388 Clouds 29 1013 77 10000 8.23 170 16:23 07.04.2022
4389 Clouds 28 1013 80 10000 6.69 180 15:19 07.04.2022
4390 Clouds 26 1012 86 10000 6.17 180 13:45 07.04.2022
4391 Clouds 26 1012 86 10000 6.17 180 13:22 07.04.2022
4392 Clouds 26 1012 87 10000 5.14 170 11:40 07.04.2022
4393 Clouds 26 1012 89 10000 4.12 170 10:27 07.04.2022
4394 Clouds 26 1013 90 10000 3.13 150 08:39 07.04.2022
4395 Clear 26 1014 90 10000 1.34 0 06:58 07.04.2022
4396 Clear 27 1013 88 10000 1.79 142 03:59 07.04.2022
4397 Clear 27 1013 84 10000 5.14 160 02:28 07.04.2022
4398 Clouds 30 1012 77 10000 6.69 170 00:42 07.04.2022
4399 Clouds 31 1012 74 10000 2.68 148 22:58 06.04.2022
4400 Clouds 31 1012 72 10000 6.69 170 22:39 06.04.2022
4401 Clouds 31 1013 71 10000 5.66 170 21:47 06.04.2022
4402 Clouds 32 1013 70 10000 7.72 180 20:41 06.04.2022
4403 Clouds 31 1013 73 10000 3.58 161 19:59 06.04.2022
4404 Clouds 31 1014 74 10000 4.92 201 18:53 06.04.2022
4405 Clouds 31 1013 72 10000 5.81 170 18:34 06.04.2022
4406 Clouds 30 1014 74 10000 7.72 180 17:35 06.04.2022
4407 Clouds 29 1014 78 10000 7.2 170 16:39 06.04.2022
4408 Clouds 28 1014 82 10000 6.69 170 15:49 06.04.2022
4409 Clouds 28 1014 82 10000 6.69 170 15:30 06.04.2022
4410 Clouds 26 1013 87 10000 5.14 160 13:30 06.04.2022
4411 Clouds 26 1012 87 10000 4.12 160 12:28 06.04.2022
4412 Clouds 26 1012 87 10000 2.24 142 10:57 06.04.2022
4413 Clouds 26 1012 86 10000 5.14 170 10:32 06.04.2022
4414 Clouds 26 1012 86 10000 4.63 150 09:43 06.04.2022
4415 Clear 26 1013 86 10000 4.12 160 08:39 06.04.2022
4416 Clouds 26 1013 87 10000 2.24 136 07:56 06.04.2022
4417 Clear 26 1014 86 10000 3.6 130 05:23 06.04.2022
4418 Clouds 29 1012 76 10000 2.24 139 23:58 05.04.2022
4419 Clouds 29 1012 74 10000 8.23 160 23:33 05.04.2022
4420 Clouds 30 1013 73 10000 6.69 160 21:48 05.04.2022
4421 Clouds 30 1013 73 10000 6.69 160 21:48 05.04.2022
4422 Clouds 30 1013 73 10000 1.79 184 20:54 05.04.2022
4423 Clouds 29 1013 73 10000 7.2 140 20:23 05.04.2022
4424 Clouds 29 1015 72 10000 7.72 180 18:28 05.04.2022
4425 Clouds 29 1016 74 10000 7.72 130 17:20 05.04.2022
4426 Clouds 28 1015 78 10000 7.2 160 16:42 05.04.2022
4427 Clouds 28 1015 80 10000 6.69 140 15:50 05.04.2022
4428 Clouds 27 1015 81 10000 6.69 140 15:30 05.04.2022
4429 Clouds 25 1014 88 10000 4.12 110 13:45 05.04.2022
4430 Clouds 25 1014 90 10000 2.57 160 11:55 05.04.2022
4431 Clouds 25 1013 90 10000 2.68 110 11:33 05.04.2022
4432 Clear 25 1014 90 10000 1.79 129 10:58 05.04.2022
4433 Clouds 25 1014 89 10000 3.6 150 09:31 05.04.2022
4434 Clouds 25 1014 88 10000 4.12 130 08:27 05.04.2022
4435 Clouds 25 1014 88 10000 3.09 130 03:38 05.04.2022
4436 Rain 26 1013 83 10000 5.81 90 23:38 04.04.2022
4437 Clouds 27 1014 78 10000 5.81 130 22:37 04.04.2022
4438 Clouds 27 1014 74 10000 6.69 110 21:48 04.04.2022
4439 Clouds 27 1014 73 10000 6.69 110 21:19 04.04.2022
4440 Clouds 27 1015 78 10000 5.14 110 20:47 04.04.2022
4441 Thunderstorm 26 1015 83 10000 4.63 110 19:28 04.04.2022
4442 Thunderstorm 26 1015 84 10000 4.63 100 18:43 04.04.2022
4443 Rain 27 1015 79 10000 6.17 100 17:20 04.04.2022
4444 Clouds 27 1015 79 10000 5.36 80 16:31 04.04.2022
4445 Clouds 26 1015 79 10000 5.81 90 15:33 04.04.2022
4446 Clouds 26 1014 84 10000 3.13 100 14:46 04.04.2022
4447 Clouds 25 1014 86 10000 3.13 100 14:27 04.04.2022
4448 Clouds 24 1013 90 10000 0.89 72 12:58 04.04.2022
4449 Clouds 24 1012 88 10000 2.68 100 11:29 04.04.2022
4450 Clouds 24 1012 89 10000 2.57 80 10:29 04.04.2022
4451 Clouds 24 1013 89 10000 0.45 58 06:58 04.04.2022
4452 Clouds 24 1013 87 10000 3.6 110 03:18 04.04.2022
4453 Clouds 27 1012 73 10000 2.57 10 23:42 03.04.2022
4454 Clouds 28 1012 67 10000 5.14 280 22:18 03.04.2022
4455 Clouds 29 1012 66 10000 4.12 330 21:32 03.04.2022
4456 Clouds 29 1013 68 10000 3.6 320 20:35 03.04.2022
4457 Clouds 29 1014 67 10000 2.68 330 18:51 03.04.2022
4458 Clouds 27 1014 74 8932 0.45 13 17:57 03.04.2022
4459 Clouds 26 1014 75 10000 4.12 330 17:37 03.04.2022
4460 Clouds 25 1014 80 10000 4.12 340 16:50 03.04.2022
4461 Clouds 24 1014 85 10000 3.6 340 15:57 03.04.2022
4462 Clouds 22 1014 91 10000 2.24 320 14:27 03.04.2022
4463 Clouds 22 1013 91 10000 2.06 340 13:34 03.04.2022
4464 Clouds 22 1012 91 10000 4.12 180 11:51 03.04.2022
4465 Clouds 22 1012 92 10000 6.17 160 10:22 03.04.2022
4466 Rain 21 1014 91 10000 2.57 140 09:19 03.04.2022
4467 Clouds 23 1017 86 10000 5.66 360 06:41 03.04.2022
4468 Clouds 27 1015 75 10000 1.34 227 02:56 03.04.2022
4469 Clouds 29 1013 69 10000 7.2 170 23:50 02.04.2022
4470 Clouds 30 1013 69 10000 6.69 160 22:52 02.04.2022
4471 Clouds 30 1014 69 10000 3.58 154 21:56 02.04.2022
4472 Clouds 30 1014 67 10000 6.69 160 21:26 02.04.2022
4473 Clouds 31 1015 66 10000 6.26 160 20:39 02.04.2022
4474 Clouds 30 1016 69 10000 6.17 160 18:51 02.04.2022
4475 Clouds 30 1017 70 10000 6.17 160 18:20 02.04.2022
4476 Clouds 29 1017 71 10000 5.36 150 17:43 02.04.2022
4477 Clear 28 1017 78 10000 1.79 169 15:59 02.04.2022
4478 Smoke 27 1017 84 10000 2.68 170 15:20 02.04.2022
4479 Smoke 25 1017 91 10000 1.54 180 14:32 02.04.2022
4480 Smoke 25 1017 93 10000 1.54 230 13:34 02.04.2022
4481 Clouds 25 1016 93 10000 1.54 200 12:32 02.04.2022
4482 Clouds 25 1016 94 10000 2.57 200 10:50 02.04.2022
4483 Clouds 25 1017 92 10000 2.24 160 08:44 02.04.2022
4484 Clouds 25 1017 90 10000 2.24 180 06:43 02.04.2022
4485 Clouds 26 1017 85 10000 2.68 200 03:31 02.04.2022
4486 Clouds 29 1015 77 10000 3.58 0 23:55 01.04.2022
4487 Clouds 30 1014 75 10000 3.13 168 22:55 01.04.2022
4488 Clouds 30 1015 70 10000 6.26 160 21:31 01.04.2022
4489 Clouds 30 1016 71 10000 7.2 170 20:50 01.04.2022
4490 Clouds 30 1016 71 10000 5.81 160 19:51 01.04.2022
4491 Clouds 30 1017 70 10000 5.81 160 19:30 01.04.2022
4492 Clouds 30 1017 73 10000 3.6 170 18:44 01.04.2022
4493 Clouds 30 1017 73 10000 6.69 190 17:46 01.04.2022
4494 Clouds 28 1017 77 10000 5.14 180 16:42 01.04.2022
4495 Clouds 27 1016 84 10000 5.66 190 15:23 01.04.2022
4496 Clear 25 1016 91 10000 4.12 190 14:19 01.04.2022
4497 Clouds 25 1016 91 10000 4.63 180 13:33 01.04.2022
4498 Clouds 25 1015 91 10000 4.12 180 12:32 01.04.2022
4499 Clouds 25 1015 89 10000 4.12 180 11:33 01.04.2022
4500 Clear 25 1014 89 10000 3.13 160 10:18 01.04.2022
4501 Clouds 25 1015 88 10000 2.24 149 07:59 01.04.2022
4502 Clouds 25 1015 86 10000 7.2 160 06:31 01.04.2022
4503 Clouds 25 1015 85 10000 5.66 140 04:47 01.04.2022
4504 Clouds 25 1015 84 10000 5.66 140 04:28 01.04.2022
4505 Clouds 26 1014 80 10000 6.71 140 01:54 01.04.2022
4506 Clouds 28 1013 73 10000 3.13 149 22:58 31.03.2022
4507 Clouds 28 1014 69 10000 8.75 160 21:50 31.03.2022
4508 Clouds 28 1014 68 10000 8.75 160 21:31 31.03.2022
4509 Clouds 29 1015 66 10000 8.23 170 20:29 31.03.2022
4510 Clouds 28 1016 66 10000 9.26 160 19:48 31.03.2022
4511 Clouds 28 1017 68 10000 10.29 160 18:43 31.03.2022
4512 Clouds 28 1016 69 10000 9.83 150 17:41 31.03.2022
4513 Clouds 28 1016 72 10000 9.77 170 16:34 31.03.2022
4514 Clouds 26 1015 75 10000 8.75 160 15:37 31.03.2022
4515 Clouds 26 1015 76 10000 8.75 160 15:19 31.03.2022
4516 Clouds 25 1015 79 10000 7.2 150 14:34 31.03.2022
4517 Clouds 25 1013 76 10000 8.23 150 11:43 31.03.2022
4518 Clouds 25 1014 77 10000 4.47 140 10:55 31.03.2022
4519 Clouds 25 1014 75 10000 8.23 130 09:44 31.03.2022
4520 Clouds 24 1015 74 10000 9.26 140 07:55 31.03.2022
4521 Clouds 25 1016 75 10000 7.2 130 04:46 31.03.2022
4522 Smoke 27 1017 64 10000 8.75 120 23:37 30.03.2022
4523 Clouds 27 1018 65 10000 9.83 110 22:27 30.03.2022
4524 Clouds 27 1018 65 10000 10.29 130 21:38 30.03.2022
4525 Clouds 27 1019 63 10000 9.39 110 20:44 30.03.2022
4526 Clear 28 1019 64 10000 2.24 100 19:59 30.03.2022
4527 Clear 28 1020 63 10000 2.24 103 18:59 30.03.2022
4528 Clear 27 1020 66 10000 3.13 120 17:53 30.03.2022
4529 Clouds 27 1020 64 10000 9.39 110 17:34 30.03.2022
4530 Clouds 26 1020 64 10000 9.39 110 16:54 30.03.2022
4531 Clouds 26 1020 64 10000 9.39 110 16:31 30.03.2022
4532 Clear 25 1019 69 10000 2.24 134 14:56 30.03.2022
4533 Clear 23 1019 72 10000 4.63 120 13:34 30.03.2022
4534 Clear 23 1018 72 10000 4.63 130 12:41 30.03.2022
4535 Clear 23 1018 71 10000 1.34 118 10:55 30.03.2022
4536 Clouds 23 1018 68 10000 4.12 110 09:58 30.03.2022
4537 Clear 23 1019 71 10000 1.79 113 08:57 30.03.2022
4538 Clear 23 1020 70 10000 3.13 110 07:31 30.03.2022
4539 Clear 23 1021 70 10000 4.12 100 05:40 30.03.2022
4540 Clear 24 1020 71 10000 4.63 110 03:31 30.03.2022
4541 Clear 27 1020 58 10000 4.63 80 23:42 29.03.2022
4542 Clear 28 1020 54 10000 5.14 70 22:19 29.03.2022
4543 Clear 28 1020 53 10000 6.26 110 21:41 29.03.2022
4544 Clear 28 1021 51 10000 4.63 100 20:49 29.03.2022
4545 Clear 28 1022 48 10000 4.12 80 19:47 29.03.2022
4546 Clear 28 1022 49 10000 2.24 95 18:54 29.03.2022
4547 Clear 28 1023 44 10000 3.13 0 18:18 29.03.2022
4548 Clear 27 1023 45 10000 4.12 40 17:21 29.03.2022
4549 Clear 26 1023 49 10000 0.89 98 16:56 29.03.2022
4550 Clear 23 1023 64 10000 2.57 360 15:57 29.03.2022
4551 Clear 20 1022 83 10000 3.09 350 14:48 29.03.2022
4552 Clear 18 1021 80 10000 2.06 350 13:52 29.03.2022
4553 Clear 18 1021 80 10000 1.54 290 12:47 29.03.2022
4554 Clear 19 1020 79 10000 1.54 280 11:31 29.03.2022
4555 Clear 19 1020 79 10000 1.54 300 10:27 29.03.2022
4556 Clear 20 1021 77 10000 2.24 280 09:23 29.03.2022
4557 Clouds 20 1020 74 10000 3.57 230 06:55 29.03.2022
4558 Clear 22 1021 66 10000 2.57 160 03:47 29.03.2022
4559 Clouds 26 1020 50 10000 2.68 148 23:54 28.03.2022
4560 Clouds 27 1020 48 10000 2.24 144 22:59 28.03.2022
4561 Clouds 27 1020 44 10000 4.12 140 22:39 28.03.2022
4562 Clouds 27 1020 43 10000 4.12 140 22:19 28.03.2022
4563 Clouds 27 1021 42 10000 2.24 82 20:53 28.03.2022
4564 Clouds 27 1021 40 10000 1.79 97 19:59 28.03.2022
4565 Clouds 27 1022 39 10000 1.79 102 19:40 28.03.2022
4566 Clouds 27 1022 40 10000 2.06 330 18:52 28.03.2022
4567 Clouds 26 1022 40 10000 2.06 330 18:19 28.03.2022
4568 Clouds 25 1022 42 10000 3.13 340 17:30 28.03.2022
4569 Clouds 22 1022 55 10000 3.09 350 15:48 28.03.2022
4570 Clouds 18 1021 70 10000 2.06 340 14:24 28.03.2022
4571 Clouds 16 1020 73 10000 2.06 330 13:33 28.03.2022
4572 Clouds 18 1019 73 10000 1.83 282 11:57 28.03.2022
4573 Clear 18 1019 74 10000 2.06 290 10:49 28.03.2022
4574 Clear 18 1020 72 10000 2.57 260 09:38 28.03.2022
4575 Clear 19 1020 69 10000 2.57 260 08:46 28.03.2022
4576 Clear 19 1020 68 10000 2.57 260 08:21 28.03.2022
4577 Clear 20 1020 65 10000 2.06 240 07:26 28.03.2022
4578 Clear 22 1019 55 10000 3.13 150 02:48 28.03.2022
4579 Clear 27 1017 36 10000 0.89 90 22:59 27.03.2022
4580 Clear 27 1018 31 10000 6.69 350 22:22 27.03.2022
4581 Clear 27 1018 28 10000 5.36 320 21:40 27.03.2022
4582 Clear 27 1018 29 10000 6.17 350 20:42 27.03.2022
4583 Clear 26 1019 30 10000 6.26 350 19:44 27.03.2022
4584 Clear 25 1019 34 10000 7.2 10 18:47 27.03.2022
4585 Clear 25 1019 34 10000 7.2 10 18:47 27.03.2022
4586 Clear 25 1019 35 10000 7.2 10 18:25 27.03.2022
4587 Clear 23 1020 39 10000 6.17 340 17:37 27.03.2022
4588 Clear 21 1020 61 10000 2.68 3 15:57 27.03.2022
4589 Clear 17 1019 77 10000 4.12 330 14:22 27.03.2022
4590 Clear 16 1018 76 10000 4.63 330 13:33 27.03.2022
4591 Clear 16 1017 73 10000 4.63 320 11:46 27.03.2022
4592 Clear 16 1017 69 10000 4.63 310 10:23 27.03.2022
4593 Clear 17 1017 71 10000 6.56 329 07:55 27.03.2022
4594 Clear 20 1018 66 10000 5.14 300 05:18 27.03.2022
4595 Clouds 24 1015 51 10000 2.57 300 00:30 27.03.2022
4596 Clear 26 1014 42 10000 1.34 324 22:58 26.03.2022
4597 Clear 26 1014 36 10000 4.12 290 22:27 26.03.2022
4598 Clear 26 1014 38 10000 3.6 310 21:31 26.03.2022
4599 Clear 25 1015 42 10000 5.36 320 19:45 26.03.2022
4600 Clear 25 1016 42 10000 5.14 310 18:44 26.03.2022
4601 Clear 24 1017 42 10000 5.66 330 17:44 26.03.2022
4602 Clear 24 1017 42 10000 5.66 330 17:44 26.03.2022
4603 Clear 23 1017 54 10000 5.66 320 16:47 26.03.2022
4604 Clear 21 1017 64 10000 6.17 340 15:43 26.03.2022
4605 Clear 19 1017 75 10000 5.66 330 14:18 26.03.2022
4606 Clear 18 1017 77 10000 4.63 330 13:47 26.03.2022
4607 Clear 17 1016 73 10000 1.54 330 12:36 26.03.2022
4608 Clear 17 1016 73 10000 0.45 316 10:56 26.03.2022
4609 Clear 17 1015 70 10000 2.24 0 09:21 26.03.2022
4610 Clear 18 1016 70 10000 4.63 330 07:36 26.03.2022
4611 Clear 19 1016 68 10000 5.14 320 05:52 26.03.2022
4612 Clouds 21 1016 55 10000 0 0 03:22 26.03.2022
4613 Clouds 25 1014 37 10000 5.14 310 22:50 25.03.2022
4614 Clouds 25 1015 46 10000 1.34 352 20:58 25.03.2022
4615 Clouds 25 1015 45 10000 4.63 350 20:37 25.03.2022
4616 Clouds 24 1015 48 10000 6.17 330 19:21 25.03.2022
4617 Clouds 24 1016 57 10000 5.14 350 18:37 25.03.2022
4618 Clouds 22 1017 60 10000 4.12 360 17:34 25.03.2022
4619 Clouds 22 1017 62 10000 3.13 350 16:38 25.03.2022
4620 Clouds 21 1017 70 10000 5.14 340 15:46 25.03.2022
4621 Clouds 19 1016 87 10000 6.69 340 13:32 25.03.2022
4622 Clouds 20 1014 93 10000 6.17 330 11:38 25.03.2022
4623 Thunderstorm 22 1013 92 8047 5.14 320 09:46 25.03.2022
4624 Clouds 25 1012 88 10000 5.66 320 08:59 25.03.2022
4625 Clouds 25 1013 85 10000 3.6 190 07:47 25.03.2022
4626 Clouds 26 1014 85 10000 3.6 190 07:20 25.03.2022
4627 Clouds 26 1015 84 10000 0.89 196 03:58 25.03.2022
4628 Clouds 28 1013 74 10000 3.13 166 23:54 24.03.2022
4629 Clouds 30 1013 68 10000 5.81 190 22:24 24.03.2022
4630 Clouds 30 1013 69 10000 6.69 180 21:24 24.03.2022
4631 Clouds 30 1014 69 10000 8.23 170 19:50 24.03.2022
4632 Clouds 30 1015 70 10000 7.72 170 18:45 24.03.2022
4633 Clouds 29 1016 72 10000 8.23 180 17:38 24.03.2022
4634 Clouds 29 1016 74 10000 10.29 160 16:39 24.03.2022
4635 Clouds 27 1016 80 10000 7.2 150 14:53 24.03.2022
4636 Clouds 27 1016 80 10000 6.17 160 14:32 24.03.2022
4637 Clouds 26 1016 85 10000 5.14 170 13:36 24.03.2022
4638 Clouds 25 1015 86 10000 5.36 150 12:29 24.03.2022
4639 Clouds 25 1015 87 10000 5.14 160 11:27 24.03.2022
4640 Clouds 25 1015 86 10000 7.2 160 09:34 24.03.2022
4641 Clouds 25 1015 86 10000 6.17 160 08:38 24.03.2022
4642 Clouds 25 1016 86 10000 5.14 160 05:36 24.03.2022
4643 Clouds 26 1015 80 10000 6.69 170 00:47 24.03.2022
4644 Clouds 29 1015 72 10000 7.72 160 22:23 23.03.2022
4645 Clouds 29 1015 70 10000 7.72 160 21:24 23.03.2022
4646 Clouds 29 1015 69 10000 6.69 160 20:45 23.03.2022
4647 Clouds 29 1015 70 10000 7.2 150 19:33 23.03.2022
4648 Clouds 29 1017 71 10000 7.72 140 18:18 23.03.2022
4649 Clouds 28 1017 72 10000 8.23 140 17:26 23.03.2022
4650 Clouds 27 1018 77 10000 1.79 112 15:56 23.03.2022
4651 Clouds 26 1017 80 10000 8.75 140 14:48 23.03.2022
4652 Clouds 25 1016 82 10000 5.36 120 13:34 23.03.2022
4653 Clouds 24 1015 83 10000 5.14 150 11:38 23.03.2022
4654 Clouds 25 1015 82 10000 5.81 120 08:49 23.03.2022
4655 Clouds 25 1017 83 10000 7.72 110 06:25 23.03.2022
4656 Clouds 24 1017 82 10000 6.71 100 03:44 23.03.2022
4657 Clouds 25 1017 75 10000 6.17 110 00:28 23.03.2022
4658 Clouds 26 1017 70 10000 1.79 92 21:53 22.03.2022
4659 Clouds 26 1017 68 10000 6.69 100 21:23 22.03.2022
4660 Clouds 27 1018 66 10000 6.71 110 20:29 22.03.2022
4661 Clouds 27 1019 65 10000 8.23 110 19:27 22.03.2022
4662 Clouds 27 1019 64 10000 7.72 140 18:50 22.03.2022
4663 Clouds 27 1020 64 10000 8.75 100 17:44 22.03.2022
4664 Clouds 27 1020 66 10000 2.24 95 16:58 22.03.2022
4665 Clouds 26 1019 66 10000 8.75 130 15:48 22.03.2022
4666 Clouds 25 1020 67 10000 8.75 130 15:21 22.03.2022
4667 Clouds 25 1019 69 10000 5.66 110 14:45 22.03.2022
4668 Clouds 24 1019 71 10000 6.71 90 13:52 22.03.2022
4669 Clouds 22 1019 73 10000 4.12 90 12:40 22.03.2022
4670 Clouds 22 1018 72 10000 5.36 100 11:26 22.03.2022
4671 Clouds 23 1018 71 10000 6.26 90 09:52 22.03.2022
4672 Clouds 23 1019 70 10000 6.71 110 07:44 22.03.2022
4673 Clouds 23 1021 68 10000 5.81 80 04:29 22.03.2022
4674 Clouds 23 1020 68 10000 7.2 80 02:52 22.03.2022
4675 Clouds 24 1020 66 10000 6.26 70 23:19 21.03.2022
4676 Clouds 26 1020 62 10000 6.26 70 21:39 21.03.2022
4677 Clouds 26 1020 63 10000 6.26 70 20:45 21.03.2022
4678 Clouds 26 1021 63 10000 6.26 70 20:24 21.03.2022
4679 Clouds 26 1021 62 10000 6.26 70 19:48 21.03.2022
4680 Clouds 26 1021 63 10000 6.26 70 19:22 21.03.2022
4681 Clouds 26 1022 63 10000 6.71 60 17:36 21.03.2022
4682 Clouds 26 1022 65 10000 2.24 61 16:59 21.03.2022
4683 Clouds 25 1022 64 10000 8.23 70 16:35 21.03.2022
4684 Clouds 25 1022 65 10000 5.36 50 15:44 21.03.2022
4685 Clouds 24 1022 67 10000 6.71 60 14:47 21.03.2022
4686 Clouds 23 1021 71 10000 5.14 60 13:27 21.03.2022
4687 Clouds 22 1020 73 10000 3.09 50 12:22 21.03.2022
4688 Clouds 22 1020 76 10000 4.12 50 11:34 21.03.2022
4689 Clouds 23 1019 80 10000 1.79 31 09:53 21.03.2022
4690 Clouds 24 1020 84 10000 3.6 30 07:54 21.03.2022
4691 Clouds 24 1020 83 10000 3.09 50 06:31 21.03.2022
4692 Clouds 25 1020 81 10000 6.17 40 02:24 21.03.2022
4693 Clouds 27 1019 77 10000 6.17 80 23:26 20.03.2022
4694 Clouds 27 1019 76 10000 6.71 80 22:36 20.03.2022
4695 Clouds 27 1018 77 10000 4.12 50 21:44 20.03.2022
4696 Clouds 28 1019 75 10000 3.09 80 20:58 20.03.2022
4697 Clouds 28 1019 74 10000 6.26 100 20:36 20.03.2022
4698 Clouds 28 1019 74 10000 3.6 70 19:55 20.03.2022
4699 Clouds 28 1019 73 10000 3.09 100 19:25 20.03.2022
4700 Clouds 29 1020 70 10000 2.68 350 17:50 20.03.2022
4701 Clouds 29 1020 70 10000 2.68 350 17:28 20.03.2022
4702 Clouds 28 1020 72 10000 3.09 270 16:40 20.03.2022
4703 Clear 26 1021 85 10000 0.89 0 14:53 20.03.2022
4704 Clouds 23 1019 96 10000 0.45 328 13:39 20.03.2022
4705 Clouds 22 1019 96 10000 2.06 120 12:21 20.03.2022
4706 Clouds 23 1019 94 10000 2.24 320 10:38 20.03.2022
4707 Clouds 23 1018 92 10000 2.57 300 08:35 20.03.2022
4708 Clouds 24 1019 89 10000 0.45 138 06:40 20.03.2022
4709 Clear 25 1019 87 10000 4.12 140 03:27 20.03.2022
4710 Clouds 26 1018 84 10000 0.89 0 00:54 20.03.2022
4711 Clouds 26 1018 81 10000 4.63 130 00:35 20.03.2022
4712 Clouds 28 1017 74 10000 4.63 140 22:42 19.03.2022
4713 Clouds 29 1018 72 10000 6.17 120 21:27 19.03.2022
4714 Clouds 29 1019 71 10000 5.66 150 19:42 19.03.2022
4715 Clouds 29 1020 72 10000 6.26 120 18:44 19.03.2022
4716 Clouds 29 1020 73 10000 2.68 0 17:57 19.03.2022
4717 Clouds 29 1020 72 10000 6.26 120 17:33 19.03.2022
4718 Clouds 28 1020 76 10000 5.36 140 15:41 19.03.2022
4719 Clouds 26 1020 81 10000 4.12 130 14:21 19.03.2022
4720 Clouds 24 1019 90 10000 2.68 130 12:56 19.03.2022
4721 Clouds 24 1019 91 10000 2.68 130 12:37 19.03.2022
4722 Clouds 24 1018 91 10000 2.68 140 11:47 19.03.2022
4723 Clouds 23 1018 92 10000 2.24 130 10:41 19.03.2022
4724 Clear 25 1019 90 10000 1.34 96 05:59 19.03.2022
4725 Clouds 25 1019 85 10000 4.12 110 02:48 19.03.2022
4726 Clouds 25 1018 83 10000 3.6 110 01:32 19.03.2022
4727 Clouds 27 1017 75 10000 6.26 120 23:22 18.03.2022
4728 Clouds 28 1017 71 10000 5.81 120 22:25 18.03.2022
4729 Clear 29 1017 72 10000 2.68 142 20:56 18.03.2022
4730 Clouds 29 1018 68 10000 5.81 120 19:49 18.03.2022
4731 Clouds 29 1018 67 10000 5.81 120 19:19 18.03.2022
4732 Clouds 29 1019 71 10000 5.81 120 17:39 18.03.2022
4733 Clouds 28 1019 75 10000 6.26 130 16:46 18.03.2022
4734 Clouds 26 1018 88 10000 3.13 110 14:45 18.03.2022
4735 Clouds 25 1018 90 10000 3.13 110 14:20 18.03.2022
4736 Clouds 22 1017 95 10000 2.06 90 12:23 18.03.2022
4737 Mist 21 1017 96 9656 0 0 10:39 18.03.2022
4738 Clouds 22 1017 96 10000 0 0 09:23 18.03.2022
4739 Clear 22 1018 95 10000 3.43 140 07:59 18.03.2022
4740 Clear 23 1018 93 10000 0 0 06:34 18.03.2022
4741 Clouds 24 1017 88 10000 2.68 150 02:51 18.03.2022
4742 Clouds 26 1016 80 10000 4.63 170 00:22 18.03.2022
4743 Clouds 26 1016 80 10000 5.14 160 23:20 17.03.2022
4744 Thunderstorm 27 1016 78 10000 4.63 170 22:23 17.03.2022
4745 Clouds 27 1016 76 10000 4.63 180 21:48 17.03.2022
4746 Clouds 28 1016 74 10000 4.63 180 21:20 17.03.2022
4747 Clouds 27 1016 77 10000 6.17 150 20:41 17.03.2022
4748 Clouds 27 1016 77 10000 5.14 160 19:45 17.03.2022
4749 Clouds 27 1017 76 10000 5.36 140 18:57 17.03.2022
4750 Clouds 28 1017 75 10000 5.36 140 18:37 17.03.2022
4751 Clouds 28 1018 76 10000 3.6 140 16:48 17.03.2022
4752 Clouds 27 1018 81 10000 3.6 230 15:44 17.03.2022
4753 Clouds 27 1018 82 10000 3.6 230 15:23 17.03.2022
4754 Clouds 25 1017 92 10000 2.06 210 14:28 17.03.2022
4755 Clouds 22 1016 96 10000 1.54 200 12:51 17.03.2022
4756 Clouds 22 1016 96 10000 1.54 200 12:22 17.03.2022
4757 Mist 22 1016 96 9656 2.06 190 11:27 17.03.2022
4758 Clouds 22 1015 96 10000 2.66 213 09:57 17.03.2022
4759 Clouds 22 1015 95 10000 2.06 210 08:34 17.03.2022
4760 Clouds 23 1016 94 10000 2.57 190 07:33 17.03.2022
4761 Clear 23 1017 92 10000 2.06 190 05:47 17.03.2022
4762 Clouds 25 1015 81 10000 6.17 170 01:23 17.03.2022
4763 Clouds 27 1015 76 10000 5.36 160 23:50 16.03.2022
4764 Clouds 28 1015 74 10000 6.71 160 22:48 16.03.2022
4765 Clouds 28 1015 73 10000 6.71 160 22:30 16.03.2022
4766 Clouds 28 1015 71 10000 8.23 170 21:39 16.03.2022
4767 Clouds 29 1017 71 10000 8.75 160 19:41 16.03.2022
4768 Clouds 29 1017 70 10000 8.75 160 19:20 16.03.2022
4769 Clouds 29 1017 70 10000 7.2 160 18:37 16.03.2022
4770 Clouds 29 1018 72 10000 8.23 160 17:43 16.03.2022
4771 Clouds 28 1018 74 10000 8.23 160 17:19 16.03.2022
4772 Clouds 27 1018 79 10000 7.2 170 15:55 16.03.2022
4773 Clouds 25 1018 91 10000 2.68 130 14:25 16.03.2022
4774 Clouds 23 1017 94 10000 3.13 130 13:27 16.03.2022
4775 Clouds 22 1016 95 10000 1.34 147 11:56 16.03.2022
4776 Clouds 22 1016 95 10000 2.57 150 11:21 16.03.2022
4777 Clouds 22 1016 96 10000 2.57 120 10:23 16.03.2022
4778 Clouds 22 1017 96 10000 0 0 08:52 16.03.2022
4779 Mist 22 1019 94 10000 0 0 05:58 16.03.2022
4780 Clouds 24 1019 91 10000 3.6 130 01:45 16.03.2022
4781 Clouds 25 1017 92 10000 3.6 90 22:38 15.03.2022
4782 Clouds 24 1018 92 10000 1.79 90 21:55 15.03.2022
4783 Clouds 26 1018 84 10000 6.71 100 20:28 15.03.2022
4784 Clouds 25 1020 87 10000 1.79 72 18:57 15.03.2022
4785 Clouds 24 1021 92 10000 5.66 90 16:59 15.03.2022
4786 Mist 24 1022 93 6437 4.63 50 16:32 15.03.2022
4787 Rain 23 1022 92 10000 5.81 70 15:21 15.03.2022
4788 Rain 23 1021 92 10000 6.69 70 14:40 15.03.2022
4789 Clouds 22 1021 94 10000 4.63 60 13:38 15.03.2022
4790 Clouds 22 1021 93 10000 4.63 70 12:24 15.03.2022
4791 Clouds 22 1021 91 10000 5.14 70 11:31 15.03.2022
4792 Rain 22 1021 92 10000 5.14 60 09:45 15.03.2022
4793 Rain 22 1021 92 10000 7.2 70 08:42 15.03.2022
4794 Mist 22 1022 93 8047 6.17 70 07:51 15.03.2022
4795 Clouds 22 1022 93 10000 6.17 70 07:28 15.03.2022
4796 Clouds 21 1024 88 10000 5.66 70 03:41 15.03.2022
4797 Mist 22 1023 85 8047 6.69 50 23:44 14.03.2022
4798 Mist 22 1023 85 8047 6.17 80 23:23 14.03.2022
4799 Mist 22 1023 84 8047 6.17 80 22:26 14.03.2022
4800 Mist 22 1023 80 6437 6.17 60 21:30 14.03.2022
4801 Clouds 23 1023 76 10000 7.72 80 20:48 14.03.2022
4802 Clouds 23 1023 74 10000 8.23 70 20:20 14.03.2022
4803 Clouds 24 1024 70 10000 2.24 76 18:55 14.03.2022
4804 Clouds 24 1025 67 10000 2.68 54 17:54 14.03.2022
4805 Clouds 23 1026 69 10000 2.24 45 16:58 14.03.2022
4806 Clouds 22 1025 68 10000 7.2 70 15:43 14.03.2022
4807 Clouds 22 1025 69 10000 7.2 70 14:40 14.03.2022
4808 Clouds 20 1024 70 10000 4.63 50 12:29 14.03.2022
4809 Clouds 20 1023 71 10000 2.24 53 10:54 14.03.2022
4810 Clouds 20 1023 70 10000 2.24 40 09:44 14.03.2022
4811 Clouds 20 1023 69 10000 2.24 40 09:22 14.03.2022
4812 Clouds 20 1023 69 10000 1.79 0 08:55 14.03.2022
4813 Clouds 20 1024 66 10000 2.68 50 07:32 14.03.2022
4814 Clouds 20 1025 63 10000 5.66 80 05:45 14.03.2022
4815 Clouds 21 1024 65 10000 1.79 57 01:55 14.03.2022
4816 Clouds 21 1024 64 10000 6.26 50 01:28 14.03.2022
4817 Clouds 22 1023 59 10000 7.2 60 22:44 13.03.2022
4818 Clouds 23 1023 55 10000 9.26 60 21:31 13.03.2022
4819 Clear 23 1023 56 10000 3.13 25 20:56 13.03.2022
4820 Clouds 23 1023 53 10000 8.23 80 20:31 13.03.2022
4821 Clouds 23 1024 55 10000 7.72 60 19:49 13.03.2022
4822 Clouds 23 1024 55 10000 7.72 60 19:28 13.03.2022
4823 Clear 23 1024 57 10000 2.68 48 18:59 13.03.2022
4824 Clouds 23 1024 56 10000 8.23 60 18:35 13.03.2022
4825 Clear 22 1025 60 10000 5.66 20 17:41 13.03.2022
4826 Clouds 21 1025 62 10000 5.66 20 17:19 13.03.2022
4827 Clouds 19 1025 62 10000 6.17 340 16:30 13.03.2022
4828 Clouds 16 1025 62 10000 4.63 350 15:47 13.03.2022
4829 Clouds 13 1025 54 10000 9.06 43 14:56 13.03.2022
4830 Clouds 10 1024 66 10000 4.63 350 13:43 13.03.2022
4831 Clouds 10 1023 69 10000 5.66 350 12:38 13.03.2022
4832 Clouds 12 1022 66 10000 5.14 340 11:52 13.03.2022
4833 Clouds 12 1022 66 10000 5.14 340 11:31 13.03.2022
4834 Clouds 13 1021 62 10000 5.14 340 10:47 13.03.2022
4835 Clouds 14 1021 62 10000 9.23 14 09:59 13.03.2022
4836 Clear 14 1020 56 10000 6.69 350 09:40 13.03.2022
4837 Clear 14 1020 57 10000 6.17 350 08:45 13.03.2022
4838 Clear 15 1020 62 10000 5.14 350 07:41 13.03.2022
4839 Clouds 16 1020 59 10000 7.2 340 05:40 13.03.2022
4840 Clouds 19 1018 66 10000 6.17 310 02:39 13.03.2022
4841 Clouds 21 1015 68 10000 8.75 320 23:33 12.03.2022
4842 Clouds 22 1015 78 10000 11.83 320 22:27 12.03.2022
4843 Clouds 31 1012 58 10000 11.83 230 20:34 12.03.2022
4844 Clouds 31 1013 57 10000 10.29 220 19:47 12.03.2022
4845 Clouds 31 1013 60 10000 4.02 236 18:58 12.03.2022
4846 Clouds 31 1013 61 10000 11.32 240 18:22 12.03.2022
4847 Clouds 31 1014 61 10000 7.72 190 17:31 12.03.2022
4848 Clouds 29 1015 69 10000 8.75 210 16:23 12.03.2022
4849 Clouds 28 1015 77 10000 6.17 220 15:22 12.03.2022
4850 Clouds 26 1014 85 10000 5.66 210 14:28 12.03.2022
4851 Clear 25 1013 89 10000 2.68 176 12:56 12.03.2022
4852 Clear 25 1012 88 10000 2.24 182 11:56 12.03.2022
4853 Clouds 25 1012 87 10000 5.14 190 11:35 12.03.2022
4854 Clouds 25 1012 87 10000 5.14 190 10:52 12.03.2022
4855 Clouds 25 1013 86 10000 5.14 180 09:45 12.03.2022
4856 Clear 25 1012 85 10000 3.13 172 08:55 12.03.2022
4857 Clouds 25 1013 86 10000 6.17 170 07:20 12.03.2022
4858 Rain 25 1014 83 10000 5.14 170 02:36 12.03.2022
4859 Clear 27 1014 78 10000 2.68 161 23:56 11.03.2022
4860 Clear 27 1014 78 10000 2.68 161 23:56 11.03.2022
4861 Clear 29 1014 73 10000 3.58 168 22:56 11.03.2022
4862 Clouds 29 1015 67 10000 7.2 160 21:35 11.03.2022
4863 Clear 29 1015 69 10000 4.02 171 20:55 11.03.2022
4864 Clouds 29 1015 68 10000 8.23 170 20:29 11.03.2022
4865 Clouds 29 1016 69 10000 7.2 170 19:49 11.03.2022
4866 Clouds 30 1016 69 10000 7.2 170 19:22 11.03.2022
4867 Clouds 29 1018 71 10000 6.71 160 17:30 11.03.2022
4868 Clouds 28 1017 74 10000 6.17 170 16:27 11.03.2022
4869 Clouds 28 1017 77 10000 5.14 180 15:53 11.03.2022
4870 Clouds 26 1017 87 10000 3.6 150 14:19 11.03.2022
4871 Mist 23 1016 94 10000 1.34 140 12:44 11.03.2022
4872 Mist 23 1016 94 10000 1.54 140 12:21 11.03.2022
4873 Clouds 23 1016 95 10000 2.06 120 11:51 11.03.2022
4874 Clouds 23 1016 96 10000 3.6 200 09:50 11.03.2022
4875 Clear 23 1016 96 10000 2.36 171 08:56 11.03.2022
4876 Clouds 23 1017 94 10000 3.09 180 08:21 11.03.2022
4877 Clouds 23 1017 94 10000 0.45 265 07:40 11.03.2022
4878 Clouds 24 1018 91 10000 0 0 05:44 11.03.2022
4879 Rain 24 1017 91 10000 2.24 170 03:41 11.03.2022
4880 Clouds 27 1015 81 10000 6.17 120 23:31 10.03.2022
4881 Clouds 28 1015 80 10000 6.26 120 22:29 10.03.2022
4882 Clouds 29 1015 78 10000 4.63 160 21:27 10.03.2022
4883 Clouds 28 1015 83 10000 6.26 140 20:49 10.03.2022
4884 Clouds 28 1016 79 10000 4.63 170 19:23 10.03.2022
4885 Clouds 28 1017 84 10000 5.36 150 18:40 10.03.2022
4886 Clouds 27 1018 83 10000 6.17 150 16:54 10.03.2022
4887 Clouds 27 1017 84 10000 6.26 150 15:49 10.03.2022
4888 Clouds 26 1017 84 10000 5.66 160 14:24 10.03.2022
4889 Clouds 24 1016 88 10000 4.12 160 12:53 10.03.2022
4890 Clouds 24 1015 88 10000 3.13 140 11:42 10.03.2022
4891 Clouds 24 1015 88 10000 2.57 170 10:24 10.03.2022
4892 Clouds 24 1015 88 10000 3.13 140 08:49 10.03.2022
4893 Clear 24 1016 87 10000 1.79 145 06:58 10.03.2022
4894 Clouds 25 1016 85 10000 3.6 170 03:52 10.03.2022
4895 Clouds 26 1015 80 10000 6.17 170 00:51 10.03.2022
4896 Clouds 28 1014 73 10000 7.2 160 22:46 09.03.2022
4897 Clouds 29 1015 70 10000 8.75 160 21:49 09.03.2022
4898 Clouds 29 1015 71 10000 8.75 160 21:24 09.03.2022
4899 Clouds 29 1016 69 10000 6.69 150 19:42 09.03.2022
4900 Clouds 29 1017 68 10000 7.2 180 18:25 09.03.2022
4901 Clouds 29 1018 68 10000 7.2 170 17:26 09.03.2022
4902 Clouds 28 1018 71 10000 7.2 170 16:24 09.03.2022
4903 Clear 27 1018 78 10000 2.68 154 14:56 09.03.2022
4904 Clouds 25 1017 84 10000 4.12 140 13:52 09.03.2022
4905 Clouds 24 1016 87 10000 4.12 150 12:39 09.03.2022
4906 Clouds 24 1016 86 10000 3.6 160 11:52 09.03.2022
4907 Clouds 24 1016 86 10000 3.6 160 11:32 09.03.2022
4908 Clouds 24 1016 86 10000 4.12 150 09:50 09.03.2022
4909 Clouds 24 1016 86 10000 3.09 140 08:49 09.03.2022
4910 Clouds 24 1016 85 10000 3.6 160 07:27 09.03.2022
4911 Clear 25 1016 84 10000 2.68 134 01:54 09.03.2022
4912 Clouds 26 1016 79 10000 6.26 140 00:27 09.03.2022
4913 Clouds 27 1016 72 10000 7.2 160 22:47 08.03.2022
4914 Clear 28 1016 73 10000 2.68 125 21:55 08.03.2022
4915 Clouds 28 1016 71 10000 7.72 140 21:22 08.03.2022
4916 Clouds 28 1017 71 10000 7.72 150 20:24 08.03.2022
4917 Clouds 29 1017 70 10000 6.26 150 19:30 08.03.2022
4918 Clouds 28 1018 70 10000 7.2 140 18:41 08.03.2022
4919 Clouds 28 1019 74 10000 5.36 130 16:59 08.03.2022
4920 Clouds 26 1019 80 10000 2.68 131 14:58 08.03.2022
4921 Clouds 25 1019 84 10000 2.24 129 13:54 08.03.2022
4922 Clouds 24 1018 86 10000 3.6 130 12:41 08.03.2022
4923 Clouds 24 1017 87 10000 3.13 130 11:44 08.03.2022
4924 Clouds 24 1017 87 10000 3.6 120 10:37 08.03.2022
4925 Clouds 24 1018 88 10000 3.6 140 08:58 08.03.2022
4926 Clouds 24 1018 90 10000 5.36 110 06:34 08.03.2022
4927 Clouds 24 1019 92 10000 4.12 110 04:25 08.03.2022
4928 Clouds 26 1018 79 10000 1.34 93 22:57 07.03.2022
4929 Clouds 27 1019 74 10000 7.72 150 21:46 07.03.2022
4930 Clouds 27 1019 75 10000 7.72 150 21:27 07.03.2022
4931 Clouds 27 1019 74 10000 7.2 140 20:39 07.03.2022
4932 Clouds 28 1020 71 10000 9.83 120 19:55 07.03.2022
4933 Clouds 28 1020 73 10000 9.77 120 19:29 07.03.2022
4934 Clouds 27 1021 74 10000 8.05 110 18:38 07.03.2022
4935 Clouds 27 1021 74 10000 10.29 120 17:33 07.03.2022
4936 Clouds 27 1021 75 10000 9.39 110 16:55 07.03.2022
4937 Clouds 26 1021 79 10000 7.72 110 14:57 07.03.2022
4938 Clouds 24 1020 83 10000 7.72 110 12:48 07.03.2022
4939 Clouds 24 1020 83 10000 7.72 110 12:20 07.03.2022
4940 Clouds 24 1020 82 10000 6.69 110 10:35 07.03.2022
4941 Clouds 24 1020 81 10000 8.94 100 08:35 07.03.2022
4942 Clear 24 1023 80 10000 2.24 81 02:56 07.03.2022
4943 Clouds 25 1022 77 10000 7.72 100 00:21 07.03.2022
4944 Clouds 26 1022 73 10000 8.23 100 23:28 06.03.2022
4945 Clouds 26 1022 72 10000 7.72 90 22:30 06.03.2022
4946 Clouds 26 1022 73 10000 7.72 90 21:45 06.03.2022
4947 Clouds 26 1023 70 10000 9.39 80 20:29 06.03.2022
4948 Clouds 26 1024 69 10000 9.26 80 19:48 06.03.2022
4949 Clouds 27 1025 69 10000 7.72 90 18:51 06.03.2022
4950 Clouds 27 1025 64 10000 8.23 120 17:49 06.03.2022
4951 Clouds 27 1025 63 10000 8.23 120 17:20 06.03.2022
4952 Clouds 27 1026 62 10000 8.94 100 16:40 06.03.2022
4953 Clouds 26 1025 63 10000 7.72 90 15:37 06.03.2022
4954 Clouds 25 1025 68 10000 5.81 90 14:48 06.03.2022
4955 Clouds 25 1025 69 10000 5.81 90 14:26 06.03.2022
4956 Clouds 23 1023 70 10000 6.71 110 12:43 06.03.2022
4957 Clear 24 1023 71 10000 2.24 103 11:56 06.03.2022
4958 Clouds 24 1023 70 10000 6.69 110 10:43 06.03.2022
4959 Clouds 24 1023 71 10000 7.72 90 09:34 06.03.2022
4960 Clouds 24 1023 70 10000 7.2 100 08:28 06.03.2022
4961 Clouds 24 1024 70 10000 8.94 100 07:33 06.03.2022
4962 Clear 24 1025 73 10000 2.24 76 03:58 06.03.2022
4963 Clouds 25 1023 73 10000 9.83 90 00:42 06.03.2022
4964 Clouds 25 1023 73 10000 9.83 90 00:23 06.03.2022
4965 Clouds 26 1023 70 10000 10.29 80 23:19 05.03.2022
4966 Clouds 26 1023 67 10000 9.77 80 22:42 05.03.2022
4967 Clouds 27 1023 67 10000 8.75 90 21:36 05.03.2022
4968 Clear 27 1023 68 10000 3.13 69 20:57 05.03.2022
4969 Clouds 27 1024 64 10000 10.73 90 19:23 05.03.2022
4970 Clouds 27 1024 65 10000 9.77 100 18:50 05.03.2022
4971 Clouds 27 1025 66 10000 9.39 90 17:41 05.03.2022
4972 Clouds 26 1024 67 10000 12.52 80 16:20 05.03.2022
4973 Clouds 26 1024 70 10000 8.94 80 15:30 05.03.2022
4974 Rain 24 1024 76 10000 9.26 100 14:42 05.03.2022
4975 Clouds 24 1023 78 10000 9.26 100 14:24 05.03.2022
4976 Clear 23 1023 80 10000 1.79 69 12:55 05.03.2022
4977 Clouds 23 1022 78 10000 5.81 80 11:39 05.03.2022
4978 Clouds 23 1022 77 10000 5.81 80 11:18 05.03.2022
4979 Clear 23 1022 79 10000 2.24 61 09:58 05.03.2022
4980 Clouds 23 1022 75 10000 4.63 80 08:49 05.03.2022
4981 Clouds 23 1023 72 10000 5.36 80 07:23 05.03.2022
4982 Clouds 23 1023 71 10000 5.66 90 05:41 05.03.2022
4983 Clouds 24 1022 69 10000 5.81 50 01:25 05.03.2022
4984 Clouds 25 1022 65 10000 7.2 70 23:35 04.03.2022
4985 Clouds 26 1022 63 10000 8.75 60 22:41 04.03.2022
4986 Clouds 26 1021 59 10000 8.75 60 21:47 04.03.2022
4987 Clouds 27 1022 53 10000 8.75 70 20:49 04.03.2022
4988 Clouds 27 1022 55 10000 8.75 70 20:18 04.03.2022
4989 Clouds 27 1023 56 10000 7.72 70 19:35 04.03.2022
4990 Clouds 27 1024 57 10000 7.72 50 18:36 04.03.2022
4991 Clouds 26 1024 58 10000 7.2 70 17:30 04.03.2022
4992 Clouds 26 1024 58 10000 5.66 60 16:43 04.03.2022
4993 Clouds 25 1024 59 10000 5.14 60 15:28 04.03.2022
4994 Clouds 22 1023 69 10000 0.45 26 13:53 04.03.2022
4995 Clear 21 1022 72 10000 4.78 60 12:54 04.03.2022
4996 Clouds 21 1021 75 10000 0.45 30 11:38 04.03.2022
4997 Clouds 22 1020 75 10000 1.54 30 10:42 04.03.2022
4998 Clouds 22 1020 73 10000 2.06 70 09:28 04.03.2022
4999 Clouds 22 1021 72 10000 2.68 90 08:31 04.03.2022
5000 Clear 22 1021 72 10000 0.89 54 06:59 04.03.2022
5001 Clouds 23 1021 69 10000 3.6 50 03:43 04.03.2022
5002 Clear 24 1020 66 10000 5.81 80 00:22 04.03.2022
5003 Clouds 26 1019 62 10000 5.81 80 22:21 03.03.2022
5004 Clouds 26 1019 63 10000 6.17 100 21:39 03.03.2022
5005 Clouds 26 1019 64 10000 2.24 99 20:59 03.03.2022
5006 Clouds 27 1020 62 10000 7.2 80 19:48 03.03.2022
5007 Clouds 27 1021 63 10000 5.36 100 18:51 03.03.2022
5008 Clouds 26 1021 63 10000 6.17 80 18:22 03.03.2022
5009 Clouds 26 1022 61 10000 5.81 100 17:27 03.03.2022
5010 Clouds 25 1022 65 10000 2.57 20 15:48 03.03.2022
5011 Clear 24 1022 70 10000 0.45 19 14:59 03.03.2022
5012 Clouds 23 1021 77 10000 2.57 360 14:33 03.03.2022
5013 Clouds 20 1020 84 10000 0 0 13:18 03.03.2022
5014 Clouds 20 1020 84 10000 0 0 13:18 03.03.2022
5015 Clouds 20 1019 86 10000 1.54 350 11:45 03.03.2022
5016 Clouds 21 1019 86 10000 2.24 350 10:40 03.03.2022
5017 Clouds 21 1019 88 6437 2.24 0 08:45 03.03.2022
5018 Clouds 21 1019 89 10000 2.57 40 07:25 03.03.2022
5019 Clouds 21 1020 86 10000 2.06 60 06:34 03.03.2022
5020 Clouds 23 1019 75 10000 3.09 50 01:45 03.03.2022
5021 Clouds 24 1018 72 10000 2.68 70 23:29 02.03.2022
5022 Clouds 24 1018 70 10000 2.24 0 22:50 02.03.2022
5023 Clouds 24 1018 69 10000 2.24 0 22:50 02.03.2022
5024 Clouds 25 1018 69 10000 2.68 40 21:30 02.03.2022
5025 Clouds 25 1018 70 10000 2.57 30 20:45 02.03.2022
5026 Clouds 25 1019 70 10000 2.57 30 20:22 02.03.2022
5027 Clouds 24 1019 71 10000 2.57 340 19:35 02.03.2022
5028 Clouds 25 1019 72 10000 2.68 310 18:44 02.03.2022
5029 Clouds 24 1020 79 10000 1.34 3 17:59 02.03.2022
5030 Clouds 22 1020 83 10000 2.57 10 17:28 02.03.2022
5031 Clouds 22 1020 79 10000 2.57 30 16:45 02.03.2022
5032 Clouds 20 1019 84 10000 2.24 340 14:45 02.03.2022
5033 Clouds 19 1018 86 10000 3.6 360 13:24 02.03.2022
5034 Clouds 20 1018 79 10000 3.13 360 12:43 02.03.2022
5035 Clouds 20 1017 81 10000 3.58 340 11:51 02.03.2022
5036 Clouds 20 1017 81 10000 3.6 340 11:24 02.03.2022
5037 Clear 20 1016 86 10000 3.09 360 09:46 02.03.2022
5038 Clouds 20 1016 87 10000 0.89 2 08:59 02.03.2022
5039 Clouds 20 1017 86 10000 4.12 10 07:51 02.03.2022
5040 Clouds 20 1017 87 10000 0.89 4 06:54 02.03.2022
5041 Clouds 22 1017 82 10000 0.45 31 02:54 02.03.2022
5042 Clouds 23 1016 77 10000 5.14 60 00:29 02.03.2022
5043 Clouds 25 1015 66 10000 3.13 330 22:50 01.03.2022
5044 Clouds 26 1015 65 10000 3.13 330 22:31 01.03.2022
5045 Clouds 27 1015 59 10000 3.6 320 21:25 01.03.2022
5046 Clouds 26 1015 59 10000 3.6 280 20:32 01.03.2022
5047 Clouds 26 1016 62 10000 3.09 330 19:45 01.03.2022
5048 Clouds 25 1016 67 10000 2.68 0 18:51 01.03.2022
5049 Clouds 24 1017 69 10000 4.12 330 18:21 01.03.2022
5050 Clouds 24 1017 72 10000 4.12 300 17:37 01.03.2022
5051 Clouds 22 1018 78 10000 3.6 300 16:35 01.03.2022
5052 Mist 21 1017 84 9656 3.6 270 15:45 01.03.2022
5053 Mist 20 1017 88 8047 4.12 280 14:41 01.03.2022
5054 Mist 19 1017 89 8047 4.12 280 14:23 01.03.2022
5055 Mist 19 1017 90 8047 3.13 280 13:26 01.03.2022
5056 Mist 19 1017 90 8047 4.12 290 12:35 01.03.2022
5057 Mist 19 1017 90 8047 4.12 290 12:35 01.03.2022
5058 Mist 19 1016 88 9656 6.17 300 10:38 01.03.2022
5059 Clouds 19 1015 88 10000 5.66 310 09:25 01.03.2022
5060 Clear 20 1015 87 10000 1.34 294 07:55 01.03.2022
5061 Clouds 21 1015 84 10000 4.63 300 06:28 01.03.2022
5062 Clouds 23 1015 73 10000 5.14 260 02:48 01.03.2022
5063 Clouds 26 1014 67 10000 4.12 250 00:40 01.03.2022
5064 Clouds 27 1014 69 10000 3.6 250 23:35 28.02.2022
5065 Clouds 28 1014 65 10000 3.13 230 22:28 28.02.2022
5066 Clouds 28 1014 62 10000 3.6 220 21:43 28.02.2022
5067 Clouds 28 1015 63 10000 4.12 260 20:33 28.02.2022
5068 Clouds 28 1016 62 10000 3.6 320 19:42 28.02.2022
5069 Clouds 28 1017 60 10000 2.68 127 18:49 28.02.2022
5070 Clouds 26 1018 64 10000 2.24 230 17:33 28.02.2022
5071 Clouds 26 1018 69 10000 1.34 292 16:54 28.02.2022
5072 Clouds 24 1018 78 10000 2.68 315 15:58 28.02.2022
5073 Clouds 22 1018 84 10000 4.63 290 14:32 28.02.2022
5074 Clouds 21 1018 87 10000 2.06 260 13:52 28.02.2022
5075 Clouds 21 1018 87 10000 2.06 260 13:52 28.02.2022
5076 Clouds 21 1017 87 10000 2.06 260 13:18 28.02.2022
5077 Clouds 21 1017 91 10000 2.57 310 11:59 28.02.2022
5078 Clouds 22 1016 94 10000 4.63 310 11:19 28.02.2022
5079 Clouds 22 1016 94 10000 2.06 290 10:22 28.02.2022
5080 Clouds 22 1016 94 10000 2.06 250 09:44 28.02.2022
5081 Clouds 22 1016 94 10000 0 0 08:52 28.02.2022
5082 Clouds 21 1017 94 10000 2.68 275 07:58 28.02.2022
5083 Mist 22 1018 89 10000 3.09 360 05:54 28.02.2022
5084 Mist 23 1019 89 10000 3.09 280 04:30 28.02.2022
5085 Clouds 25 1017 80 10000 5.14 170 00:52 28.02.2022
5086 Clouds 27 1017 71 10000 4.12 130 22:45 27.02.2022
5087 Clouds 27 1017 71 10000 4.12 130 22:26 27.02.2022
5088 Clouds 28 1018 70 10000 5.66 140 21:37 27.02.2022
5089 Clouds 28 1018 69 10000 5.36 130 20:44 27.02.2022
5090 Clouds 28 1018 70 10000 5.36 130 20:18 27.02.2022
5091 Clouds 28 1019 69 10000 5.36 140 19:48 27.02.2022
5092 Clouds 28 1019 68 10000 5.36 140 19:21 27.02.2022
5093 Clouds 28 1020 69 10000 5.81 100 18:33 27.02.2022
5094 Clouds 27 1021 71 10000 5.14 120 17:49 27.02.2022
5095 Clouds 27 1021 73 10000 5.81 120 16:25 27.02.2022
5096 Clouds 26 1021 76 10000 5.36 100 15:21 27.02.2022
5097 Clouds 22 1021 90 10000 1.54 30 12:37 27.02.2022
5098 Clouds 22 1020 91 10000 2.68 90 11:51 27.02.2022
5099 Clouds 22 1020 89 10000 2.68 80 10:37 27.02.2022
5100 Clouds 22 1020 89 10000 0.45 78 09:58 27.02.2022
5101 Clouds 23 1020 88 10000 3.13 120 09:24 27.02.2022
5102 Clouds 23 1020 88 10000 1.54 330 08:48 27.02.2022
5103 Clouds 23 1022 83 10000 1.54 90 06:30 27.02.2022
5104 Clouds 23 1023 79 10000 3.13 100 04:19 27.02.2022
5105 Clouds 24 1022 72 10000 5.14 50 00:31 27.02.2022
5106 Clouds 26 1022 64 10000 4.12 100 22:48 26.02.2022
5107 Clouds 27 1022 60 10000 4.63 90 21:34 26.02.2022
5108 Clouds 27 1022 60 10000 4.63 90 20:43 26.02.2022
5109 Clear 27 1023 61 10000 2.24 85 19:58 26.02.2022
5110 Clouds 27 1023 60 10000 6.26 100 19:34 26.02.2022
5111 Clouds 27 1024 61 10000 5.66 120 18:40 26.02.2022
5112 Clouds 27 1024 61 10000 6.17 110 17:38 26.02.2022
5113 Clouds 26 1025 63 10000 5.36 100 16:48 26.02.2022
5114 Clouds 26 1024 67 10000 6.17 90 15:45 26.02.2022
5115 Clouds 25 1024 68 10000 6.17 90 15:20 26.02.2022
5116 Clouds 24 1024 71 10000 4.12 80 14:51 26.02.2022
5117 Clouds 24 1024 73 10000 4.12 80 14:25 26.02.2022
5118 Clouds 22 1023 78 10000 3.6 80 13:18 26.02.2022
5119 Clouds 23 1022 79 10000 1.79 67 11:54 26.02.2022
5120 Clouds 23 1022 78 10000 6.71 100 11:28 26.02.2022
5121 Clouds 23 1022 81 10000 4.12 70 10:31 26.02.2022
5122 Clouds 23 1022 79 10000 5.14 70 08:48 26.02.2022
5123 Clouds 23 1023 78 10000 2.68 60 06:46 26.02.2022
5124 Clear 24 1023 74 10000 0.89 37 00:50 26.02.2022
5125 Clouds 26 1022 64 10000 6.69 90 22:47 25.02.2022
5126 Clouds 26 1022 68 10000 5.36 70 21:40 25.02.2022
5127 Clouds 26 1022 69 10000 5.36 70 21:21 25.02.2022
5128 Clouds 27 1023 68 10000 4.63 90 20:32 25.02.2022
5129 Clouds 27 1024 59 10000 5.36 100 18:41 25.02.2022
5130 Clouds 27 1025 63 10000 6.69 120 17:27 25.02.2022
5131 Clouds 26 1025 64 10000 6.26 100 16:24 25.02.2022
5132 Clouds 26 1025 66 10000 6.26 100 15:43 25.02.2022
5133 Clouds 25 1025 67 10000 6.26 100 15:20 25.02.2022
5134 Clouds 24 1024 71 10000 3.13 90 14:42 25.02.2022
5135 Clouds 22 1023 78 10000 4.12 80 13:36 25.02.2022
5136 Clouds 22 1023 78 10000 3.13 90 12:56 25.02.2022
5137 Clouds 22 1022 77 10000 2.68 100 11:28 25.02.2022
5138 Clouds 22 1022 78 10000 3.6 80 10:40 25.02.2022
5139 Clouds 22 1022 77 10000 3.6 80 10:22 25.02.2022
5140 Clouds 23 1022 76 10000 3.6 90 09:18 25.02.2022
5141 Clouds 23 1023 78 10000 3.6 90 07:41 25.02.2022
5142 Clouds 23 1023 79 10000 4.63 90 05:49 25.02.2022
5143 Clouds 23 1023 80 10000 4.63 90 04:32 25.02.2022
5144 Clouds 24 1022 77 10000 6.26 110 00:21 25.02.2022
5145 Clouds 27 1021 73 10000 2.24 99 21:58 24.02.2022
5146 Clouds 27 1021 73 10000 2.24 99 21:58 24.02.2022
5147 Clouds 27 1021 71 10000 5.81 100 21:39 24.02.2022
5148 Clouds 27 1021 71 10000 5.81 100 21:19 24.02.2022
5149 Clouds 27 1022 70 10000 6.26 100 19:42 24.02.2022
5150 Clouds 27 1023 68 10000 6.71 110 18:44 24.02.2022
5151 Clouds 27 1023 68 10000 6.71 110 18:19 24.02.2022
5152 Clouds 27 1023 68 10000 6.71 120 17:40 24.02.2022
5153 Clouds 27 1023 70 10000 6.26 110 16:50 24.02.2022
5154 Clouds 26 1024 71 10000 6.17 110 16:24 24.02.2022
5155 Clear 25 1023 78 10000 2.24 85 14:56 24.02.2022
5156 Clouds 24 1023 79 10000 3.6 100 14:36 24.02.2022
5157 Clear 23 1022 85 10000 3.13 90 13:41 24.02.2022
5158 Clear 22 1022 84 10000 3.13 90 13:21 24.02.2022
5159 Clouds 22 1021 86 10000 0.45 94 10:41 24.02.2022
5160 Clouds 22 1021 84 10000 1.54 360 09:40 24.02.2022
5161 Clouds 22 1021 83 10000 0.45 70 08:42 24.02.2022
5162 Clear 22 1022 82 10000 0.89 74 05:59 24.02.2022
5163 Clear 23 1023 82 10000 0.89 65 02:59 24.02.2022
5164 Clouds 25 1022 71 10000 5.66 80 23:45 23.02.2022
5165 Clear 26 1022 69 10000 1.79 79 21:53 23.02.2022
5166 Clouds 27 1022 65 10000 6.26 80 20:32 23.02.2022
5167 Clouds 27 1023 65 10000 6.71 80 19:49 23.02.2022
5168 Clouds 27 1023 67 10000 2.24 67 18:57 23.02.2022
5169 Clouds 27 1025 67 10000 6.17 90 17:46 23.02.2022
5170 Clouds 25 1024 74 10000 6.71 120 15:28 23.02.2022
5171 Clouds 23 1023 83 10000 3.6 100 13:34 23.02.2022
5172 Clouds 22 1023 83 10000 3.6 100 12:26 23.02.2022
5173 Clouds 23 1022 83 10000 4.63 100 10:45 23.02.2022
5174 Clouds 23 1022 83 10000 5.36 100 09:24 23.02.2022
5175 Clouds 23 1023 83 10000 6.26 100 08:27 23.02.2022
5176 Clouds 23 1023 83 10000 6.26 100 07:19 23.02.2022
5177 Clouds 24 1023 83 10000 4.63 90 01:22 23.02.2022
5178 Clouds 25 1022 77 10000 5.81 100 23:40 22.02.2022
5179 Clouds 26 1022 77 10000 5.66 100 22:59 22.02.2022
5180 Clear 26 1022 74 10000 1.79 82 21:58 22.02.2022
5181 Clouds 26 1022 71 10000 6.71 110 21:40 22.02.2022
5182 Clouds 27 1022 70 10000 6.71 110 21:19 22.02.2022
5183 Clouds 27 1022 68 10000 6.26 100 20:31 22.02.2022
5184 Clouds 27 1022 70 10000 6.26 100 19:53 22.02.2022
5185 Clouds 27 1022 70 10000 7.2 120 19:33 22.02.2022
5186 Clouds 26 1023 73 10000 7.72 80 18:27 22.02.2022
5187 Rain 26 1024 74 10000 7.2 80 17:26 22.02.2022
5188 Clouds 26 1024 74 10000 9.39 80 16:55 22.02.2022
5189 Clouds 26 1024 74 10000 8.23 90 16:19 22.02.2022
5190 Clouds 25 1024 76 10000 7.2 110 15:18 22.02.2022
5191 Clouds 23 1023 83 10000 5.14 90 13:37 22.02.2022
5192 Clouds 22 1022 83 10000 4.63 90 11:18 22.02.2022
5193 Clouds 23 1022 82 10000 6.26 90 09:22 22.02.2022
5194 Clouds 22 1023 84 10000 4.63 80 07:29 22.02.2022
5195 Clouds 22 1023 84 10000 1.34 82 06:54 22.02.2022
5196 Clouds 22 1023 76 10000 2.24 40 02:49 22.02.2022
5197 Clouds 24 1022 67 10000 6.26 80 23:18 21.02.2022
5198 Clouds 25 1022 68 10000 1.79 0 21:56 21.02.2022
5199 Clouds 25 1023 65 10000 5.14 90 20:38 21.02.2022
5200 Clouds 26 1024 66 10000 5.66 90 18:47 21.02.2022
5201 Clouds 26 1024 66 10000 5.66 90 18:19 21.02.2022
5202 Rain 24 1025 73 10000 5.36 70 15:49 21.02.2022
5203 Clouds 23 1024 82 10000 4.12 80 14:23 21.02.2022
5204 Clouds 21 1023 83 10000 2.24 30 13:31 21.02.2022
5205 Clouds 21 1023 84 10000 1.54 0 12:46 21.02.2022
5206 Clouds 21 1022 85 10000 1.54 0 12:21 21.02.2022
5207 Clouds 21 1022 85 10000 2.68 40 10:27 21.02.2022
5208 Clouds 22 1023 84 10000 3.13 80 06:25 21.02.2022
5209 Clouds 23 1023 77 10000 6.17 50 00:35 21.02.2022
5210 Clouds 24 1023 76 10000 5.66 70 22:32 20.02.2022
5211 Clouds 24 1023 75 10000 7.2 70 21:43 20.02.2022
5212 Clouds 24 1023 75 10000 7.2 70 21:24 20.02.2022
5213 Clouds 24 1023 73 10000 6.17 80 20:43 20.02.2022
5214 Clouds 25 1023 72 10000 7.2 70 19:49 20.02.2022
5215 Clouds 25 1024 68 10000 7.72 70 18:55 20.02.2022
5216 Clouds 25 1024 68 10000 7.72 70 18:34 20.02.2022
5217 Clouds 25 1024 70 10000 2.68 58 17:55 20.02.2022
5218 Clouds 24 1024 70 10000 3.13 48 16:59 20.02.2022
5219 Clouds 22 1023 74 10000 3.13 43 14:55 20.02.2022
5220 Clouds 22 1023 76 10000 2.24 43 13:58 20.02.2022
5221 Clouds 22 1022 76 10000 4.63 30 12:45 20.02.2022
5222 Clouds 21 1022 78 10000 3.6 30 11:30 20.02.2022
5223 Clouds 21 1021 80 10000 3.09 20 10:21 20.02.2022
5224 Clouds 21 1021 81 10000 3.13 0 09:24 20.02.2022
5225 Clouds 21 1022 91 10000 3.09 350 06:28 20.02.2022
5226 Clouds 23 1020 93 10000 3.6 80 00:32 20.02.2022
5227 Clouds 25 1019 85 10000 5.81 130 23:32 19.02.2022
5228 Clouds 27 1019 73 10000 3.6 310 22:24 19.02.2022
5229 Clouds 28 1019 73 10000 1.79 135 21:45 19.02.2022
5230 Clouds 29 1020 66 10000 4.12 320 20:26 19.02.2022
5231 Clouds 29 1020 66 10000 4.12 320 20:25 19.02.2022
5232 Clouds 28 1020 68 10000 3.6 320 19:34 19.02.2022
5233 Clouds 27 1021 73 10000 2.57 300 18:39 19.02.2022
5234 Clouds 26 1022 76 10000 3.6 290 17:54 19.02.2022
5235 Clouds 25 1022 81 10000 2.68 310 16:47 19.02.2022
5236 Clouds 23 1021 86 10000 4.12 280 15:20 19.02.2022
5237 Clouds 23 1021 90 10000 2.57 310 14:53 19.02.2022
5238 Clouds 22 1021 94 10000 2.06 300 13:50 19.02.2022
5239 Clouds 22 1019 94 10000 3.09 300 11:42 19.02.2022
5240 Clouds 22 1019 95 10000 4.12 280 10:45 19.02.2022
5241 Clouds 23 1019 95 10000 2.24 290 08:54 19.02.2022
5242 Clouds 23 1020 92 10000 2.24 260 06:45 19.02.2022
5243 Clouds 25 1018 85 10000 5.36 160 00:23 19.02.2022
5244 Clouds 28 1017 77 10000 5.36 150 22:24 18.02.2022
5245 Clouds 28 1018 76 10000 6.26 130 21:18 18.02.2022
5246 Clouds 28 1019 78 10000 2.24 137 19:56 18.02.2022
5247 Clouds 28 1020 74 10000 4.02 150 18:51 18.02.2022
5248 Clouds 28 1021 74 10000 5.14 200 18:25 18.02.2022
5249 Clouds 28 1021 75 10000 4.12 130 17:56 18.02.2022
5250 Clouds 27 1021 78 10000 4.12 150 15:57 18.02.2022
5251 Clear 22 1020 95 10000 1.62 191 13:56 18.02.2022
5252 Clouds 21 1020 94 10000 0 0 13:28 18.02.2022
5253 Clouds 21 1019 93 10000 0.45 112 12:42 18.02.2022
5254 Clear 22 1019 92 10000 0.45 179 11:56 18.02.2022
5255 Clouds 23 1018 91 10000 3.09 160 10:42 18.02.2022
5256 Clear 24 1019 91 10000 1.34 127 06:58 18.02.2022
5257 Clouds 24 1020 90 10000 4.63 130 05:42 18.02.2022
5258 Clouds 24 1020 91 10000 5.81 110 03:47 18.02.2022
5259 Clouds 26 1020 80 10000 7.2 120 21:56 17.02.2022
5260 Clouds 26 1021 78 10000 8.23 110 21:27 17.02.2022
5261 Clouds 27 1021 77 10000 8.94 100 20:40 17.02.2022
5262 Clouds 27 1022 77 10000 7.72 110 19:54 17.02.2022
5263 Clouds 27 1023 77 10000 9.26 130 18:57 17.02.2022
5264 Clouds 27 1024 77 10000 9.26 130 18:18 17.02.2022
5265 Clouds 26 1024 79 10000 7.2 100 16:43 17.02.2022
5266 Clouds 25 1024 81 10000 7.72 120 15:44 17.02.2022
5267 Clouds 24 1024 85 10000 5.81 100 14:29 17.02.2022
5268 Clouds 23 1023 87 10000 5.36 110 12:51 17.02.2022
5269 Clouds 23 1022 87 10000 5.81 100 11:36 17.02.2022
5270 Clouds 23 1022 88 10000 6.26 100 09:38 17.02.2022
5271 Clouds 22 1024 89 10000 5.81 100 06:37 17.02.2022
5272 Clouds 23 1024 84 10000 7.72 110 23:21 16.02.2022
5273 Haze 23 1024 83 10000 7.2 70 22:20 16.02.2022
5274 Clouds 24 1025 76 10000 8.75 80 20:21 16.02.2022
5275 Clouds 25 1026 73 10000 10.73 80 18:50 16.02.2022
5276 Clouds 25 1027 73 10000 2.68 67 17:54 16.02.2022
5277 Clouds 24 1027 72 10000 2.68 67 15:58 16.02.2022
5278 Clouds 23 1027 73 10000 8.23 80 15:20 16.02.2022
5279 Clouds 22 1026 74 10000 7.72 90 13:31 16.02.2022
5280 Clouds 22 1025 74 10000 6.26 80 12:21 16.02.2022
5281 Clouds 22 1026 74 10000 5.14 90 11:35 16.02.2022
5282 Clouds 22 1025 73 10000 5.66 80 10:34 16.02.2022
5283 Clouds 21 1025 74 10000 2.24 69 08:58 16.02.2022
5284 Clouds 21 1027 63 10000 6.69 100 06:43 16.02.2022
5285 Clouds 22 1026 65 10000 8.23 70 00:37 16.02.2022
5286 Clouds 22 1025 61 10000 9.26 80 22:34 15.02.2022
5287 Clouds 23 1025 61 10000 7.2 80 21:50 15.02.2022
5288 Clouds 23 1025 62 10000 7.2 80 21:29 15.02.2022
5289 Clouds 23 1026 63 10000 3.13 65 20:57 15.02.2022
5290 Clouds 23 1026 59 10000 9.77 70 20:19 15.02.2022
5291 Clouds 23 1026 60 10000 10.8 70 19:33 15.02.2022
5292 Clouds 22 1027 65 10000 7.72 70 18:24 15.02.2022
5293 Rain 22 1028 66 10000 8.23 70 17:52 15.02.2022
5294 Clouds 22 1028 66 10000 8.23 70 17:28 15.02.2022
5295 Clear 22 1027 61 10000 8.23 80 15:36 15.02.2022
5296 Clouds 20 1026 68 10000 2.06 340 13:49 15.02.2022
5297 Clouds 20 1026 68 10000 2.24 49 13:25 15.02.2022
5298 Clouds 18 1025 72 10000 3.6 340 11:41 15.02.2022
5299 Clouds 17 1025 74 10000 3.09 350 10:19 15.02.2022
5300 Clear 15 1026 76 10000 3.09 340 07:41 15.02.2022
5301 Clouds 14 1026 77 10000 3.6 350 06:36 15.02.2022
5302 Clouds 20 1023 65 10000 6.69 10 23:35 14.02.2022
5303 Clear 21 1023 63 10000 2.68 31 21:56 14.02.2022
5304 Clouds 21 1023 58 10000 7.2 360 20:52 14.02.2022
5305 Clear 21 1024 56 10000 7.2 360 19:46 14.02.2022
5306 Clear 20 1024 56 10000 7.2 360 19:28 14.02.2022
5307 Clear 19 1024 56 10000 6.17 20 18:23 14.02.2022
5308 Clear 18 1025 57 10000 7.2 340 17:28 14.02.2022
5309 Clear 16 1025 59 10000 4.63 350 16:33 14.02.2022
5310 Clear 13 1024 69 10000 7.2 340 14:43 14.02.2022
5311 Clear 12 1023 80 10000 5.14 350 13:34 14.02.2022
5312 Clear 12 1022 84 10000 1.79 37 12:58 14.02.2022
5313 Clear 13 1021 84 10000 1.79 328 11:57 14.02.2022
5314 Clear 13 1021 83 10000 4.63 320 11:38 14.02.2022
5315 Clear 14 1020 80 10000 6.17 320 09:37 14.02.2022
5316 Clear 16 1020 77 10000 6.69 330 07:37 14.02.2022
5317 Clear 16 1021 77 10000 6.69 330 07:19 14.02.2022
5318 Clouds 23 1016 78 10000 4.12 290 22:48 13.02.2022
5319 Clouds 23 1016 79 10000 4.12 290 22:29 13.02.2022
5320 Clouds 23 1015 81 10000 2.57 280 21:57 13.02.2022
5321 Clouds 23 1016 82 10000 4.12 320 21:20 13.02.2022
5322 Clouds 22 1015 86 10000 2.24 0 20:27 13.02.2022
5323 Clouds 20 1017 93 10000 1.34 303 18:58 13.02.2022
5324 Clouds 19 1018 88 10000 2.57 360 18:40 13.02.2022
5325 Rain 17 1019 94 3219 4.12 350 16:53 13.02.2022
5326 Rain 17 1019 97 4828 6.69 320 15:51 13.02.2022
5327 Thunderstorm 19 1017 93 2414 8.23 320 14:50 13.02.2022
5328 Clouds 22 1016 96 10000 0.89 201 13:27 13.02.2022
5329 Clouds 22 1015 94 10000 0 0 12:42 13.02.2022
5330 Clouds 22 1015 94 10000 1.34 350 10:43 13.02.2022
5331 Clouds 22 1015 93 10000 1.54 350 10:23 13.02.2022
5332 Clouds 22 1015 93 10000 2.24 280 08:55 13.02.2022
5333 Clouds 23 1017 86 10000 3.6 90 02:49 13.02.2022
5334 Clouds 25 1017 81 10000 4.63 90 00:32 13.02.2022
5335 Clouds 26 1017 77 10000 1.79 98 22:55 12.02.2022
5336 Clouds 27 1016 74 10000 4.63 90 22:30 12.02.2022
5337 Clear 27 1017 72 10000 1.34 81 20:55 12.02.2022
5338 Clouds 27 1017 72 10000 4.12 70 20:23 12.02.2022
5339 Clear 28 1018 73 10000 0.89 133 18:54 12.02.2022
5340 Clouds 27 1018 70 10000 2.68 100 18:36 12.02.2022
5341 Clouds 27 1019 74 10000 3.6 110 17:40 12.02.2022
5342 Clouds 26 1019 78 10000 2.06 20 16:46 12.02.2022
5343 Clear 25 1019 84 10000 0.89 39 15:59 12.02.2022
5344 Clouds 23 1019 87 10000 0.45 287 15:21 12.02.2022
5345 Clouds 20 1019 94 10000 1.54 350 14:29 12.02.2022
5346 Clouds 20 1018 94 10000 2.24 340 11:34 12.02.2022
5347 Clouds 20 1017 96 10000 2.57 320 10:33 12.02.2022
5348 Clouds 20 1017 93 10000 2.06 100 09:38 12.02.2022
5349 Clouds 20 1017 95 10000 2.24 300 08:47 12.02.2022
5350 Clouds 21 1018 92 10000 2.68 290 07:47 12.02.2022
5351 Clouds 21 1018 90 10000 2.24 120 05:31 12.02.2022
5352 Clouds 22 1017 91 10000 2.57 90 02:19 12.02.2022
5353 Rain 24 1017 80 10000 0.89 78 23:56 11.02.2022
5354 Clouds 25 1016 74 10000 4.63 70 22:24 11.02.2022
5355 Clouds 25 1016 72 10000 4.63 70 21:43 11.02.2022
5356 Clouds 26 1016 68 10000 4.63 60 20:37 11.02.2022
5357 Clouds 26 1017 67 10000 6.17 90 19:31 11.02.2022
5358 Clouds 26 1017 67 10000 4.12 90 18:47 11.02.2022
5359 Clouds 26 1018 69 10000 4.12 90 17:27 11.02.2022
5360 Clouds 26 1018 71 10000 1.34 99 16:56 11.02.2022
5361 Clouds 24 1018 77 10000 1.79 93 15:33 11.02.2022
5362 Clouds 21 1018 87 10000 0.45 342 14:38 11.02.2022
5363 Clouds 20 1017 87 10000 0 0 14:20 11.02.2022
5364 Clouds 20 1017 84 10000 0 0 13:47 11.02.2022
5365 Clouds 19 1017 84 10000 0 0 13:28 11.02.2022
5366 Clouds 19 1016 85 10000 0 0 11:26 11.02.2022
5367 Clouds 19 1017 84 10000 0 0 09:39 11.02.2022
5368 Clouds 19 1017 82 10000 1.54 340 08:39 11.02.2022
5369 Clouds 19 1017 82 10000 1.54 340 08:21 11.02.2022
5370 Clouds 20 1017 79 10000 0 0 06:31 11.02.2022
5371 Clouds 21 1017 71 10000 2.06 40 02:25 11.02.2022
5372 Clouds 22 1016 72 10000 4.63 60 00:46 11.02.2022
5373 Clouds 24 1016 63 10000 4.12 60 22:45 10.02.2022
5374 Clouds 25 1016 60 10000 5.14 80 21:44 10.02.2022
5375 Clouds 25 1016 59 10000 4.12 30 20:52 10.02.2022
5376 Clouds 25 1016 59 10000 4.12 30 20:24 10.02.2022
5377 Clouds 25 1017 60 10000 3.58 50 19:24 10.02.2022
5378 Clouds 24 1018 63 10000 3.13 30 18:43 10.02.2022
5379 Clouds 23 1018 66 10000 4.12 350 17:26 10.02.2022
5380 Clouds 21 1018 69 10000 4.63 360 16:47 10.02.2022
5381 Clouds 19 1019 74 10000 5.66 360 15:45 10.02.2022
5382 Clouds 18 1018 75 10000 5.66 360 15:25 10.02.2022
5383 Clear 16 1018 77 10000 4.63 360 14:46 10.02.2022
5384 Clear 15 1018 79 10000 4.63 360 14:23 10.02.2022
5385 Clear 14 1018 82 10000 4.12 340 13:21 10.02.2022
5386 Clear 14 1017 81 10000 4.12 340 12:23 10.02.2022
5387 Clear 14 1017 82 10000 4.12 350 11:33 10.02.2022
5388 Clear 14 1017 80 10000 4.12 350 10:35 10.02.2022
5389 Rain 15 1017 82 10000 3.6 340 09:49 10.02.2022
5390 Rain 15 1016 90 10000 0.89 0 08:53 10.02.2022
5391 Rain 16 1017 88 10000 4.12 340 06:42 10.02.2022
5392 Rain 17 1017 89 10000 1.54 340 03:39 10.02.2022
5393 Rain 17 1016 90 10000 2.57 10 01:43 10.02.2022
5394 Rain 18 1016 89 10000 2.57 360 00:42 10.02.2022
5395 Clouds 18 1016 90 10000 2.57 360 00:24 10.02.2022
5396 Clouds 18 1015 92 10000 4.12 340 22:58 09.02.2022
5397 Clouds 18 1015 91 10000 4.12 340 22:33 09.02.2022
5398 Mist 17 1015 92 10000 6.17 350 21:49 09.02.2022
5399 Mist 17 1015 91 10000 6.17 350 21:28 09.02.2022
5400 Mist 17 1016 96 10000 5.66 340 20:45 09.02.2022
5401 Mist 17 1016 97 10000 5.66 340 20:23 09.02.2022
5402 Clouds 17 1016 91 10000 5.14 340 19:43 09.02.2022
5403 Clouds 17 1017 92 10000 4.12 350 18:58 09.02.2022
5404 Clouds 17 1017 93 10000 5.66 340 17:32 09.02.2022
5405 Clouds 17 1018 95 10000 6.69 320 16:26 09.02.2022
5406 Rain 17 1017 92 3219 4.63 330 15:32 09.02.2022
5407 Clouds 18 1016 91 10000 3.6 340 13:57 09.02.2022
5408 Clouds 18 1015 92 10000 4.63 340 12:25 09.02.2022
5409 Clouds 18 1015 88 10000 3.09 330 10:37 09.02.2022
5410 Clouds 18 1014 88 10000 2.99 24 09:57 09.02.2022
5411 Clouds 18 1015 85 10000 2.06 330 09:23 09.02.2022
5412 Clouds 18 1015 88 10000 3.6 350 08:51 09.02.2022
5413 Clouds 19 1015 89 10000 4.02 360 07:28 09.02.2022
5414 Clouds 19 1016 89 10000 3.6 350 05:30 09.02.2022
5415 Clouds 19 1017 87 10000 3.13 340 03:50 09.02.2022
5416 Clouds 22 1016 84 10000 6.17 350 00:21 09.02.2022
5417 Clouds 24 1015 74 10000 5.66 340 23:29 08.02.2022
5418 Clouds 25 1015 69 10000 3.6 120 22:43 08.02.2022
5419 Clouds 25 1015 68 10000 3.6 120 22:20 08.02.2022
5420 Clouds 26 1015 67 10000 4.63 130 21:38 08.02.2022
5421 Rain 26 1015 66 10000 4.63 130 21:19 08.02.2022
5422 Clouds 26 1015 66 10000 4.63 110 20:41 08.02.2022
5423 Clouds 27 1015 66 10000 5.36 120 19:41 08.02.2022
5424 Clouds 26 1017 68 10000 2.24 0 18:25 08.02.2022
5425 Clouds 26 1017 70 10000 2.68 0 17:36 08.02.2022
5426 Clouds 23 1018 86 10000 0.89 30 15:55 08.02.2022
5427 Clouds 21 1018 88 10000 3.13 330 15:28 08.02.2022
5428 Mist 20 1017 97 8047 2.57 330 13:59 08.02.2022
5429 Mist 19 1017 95 1609 3.09 320 12:40 08.02.2022
5430 Mist 20 1016 95 3219 2.24 340 11:20 08.02.2022
5431 Clouds 19 1017 90 10000 0 0 09:51 08.02.2022
5432 Clear 20 1018 91 10000 1.02 187 08:54 08.02.2022
5433 Clouds 21 1018 86 10000 0 0 07:27 08.02.2022
5434 Clouds 22 1019 83 10000 2.68 140 04:40 08.02.2022
5435 Clouds 22 1018 84 10000 2.68 140 04:22 08.02.2022
5436 Clouds 22 1018 85 10000 2.24 150 03:36 08.02.2022
5437 Clouds 22 1018 83 10000 2.24 150 03:18 08.02.2022
5438 Clear 22 1020 84 10000 0.45 134 02:59 08.02.2022
5439 Clouds 22 1018 81 10000 3.13 150 02:37 08.02.2022
5440 Clouds 23 1018 81 10000 3.13 150 02:18 08.02.2022
5441 Clear 22 1018 83 10000 3.56 165 01:55 08.02.2022
5442 Clouds 23 1017 81 10000 2.68 140 01:37 08.02.2022
5443 Clouds 23 1017 80 10000 2.68 140 01:19 08.02.2022
5444 Clouds 24 1017 78 10000 3.6 120 00:44 08.02.2022
5445 Clouds 25 1016 74 10000 4.63 120 23:45 07.02.2022
5446 Clouds 25 1017 71 10000 4.63 120 23:18 07.02.2022
5447 Clouds 26 1016 72 10000 1.79 134 22:59 07.02.2022
5448 Clouds 26 1017 68 10000 5.14 170 22:19 07.02.2022
5449 Clouds 27 1017 68 10000 6.17 170 21:51 07.02.2022
5450 Clouds 27 1017 68 10000 6.17 170 21:28 07.02.2022
5451 Clouds 27 1018 67 10000 5.66 210 20:52 07.02.2022
5452 Clouds 27 1018 66 10000 5.66 210 20:34 07.02.2022
5453 Clouds 27 1018 67 10000 4.63 140 19:47 07.02.2022
5454 Clouds 27 1018 67 10000 4.63 140 19:47 07.02.2022
5455 Clouds 27 1019 67 10000 4.47 140 19:20 07.02.2022
5456 Clouds 26 1020 72 10000 2.68 0 17:39 07.02.2022
5457 Clouds 25 1020 78 10000 2.06 300 16:52 07.02.2022
5458 Mist 22 1021 90 8047 2.06 290 15:49 07.02.2022
5459 Mist 19 1021 98 2414 2.06 340 14:41 07.02.2022
5460 Fog 18 1020 97 805 2.57 340 13:27 07.02.2022
5461 Fog 19 1019 96 402 0 0 12:37 07.02.2022
5462 Fog 18 1019 96 10000 1.54 290 11:55 07.02.2022
5463 Clear 19 1018 93 10000 0 0 11:26 07.02.2022
5464 Clear 19 1018 92 10000 0 0 10:45 07.02.2022
5465 Clear 19 1018 92 10000 0 0 10:26 07.02.2022
5466 Clear 19 1019 92 10000 0 0 09:52 07.02.2022
5467 Clear 19 1019 92 10000 0 0 09:18 07.02.2022
5468 Clear 19 1019 93 10000 1.78 219 07:59 07.02.2022
5469 Clouds 20 1019 88 10000 1.34 270 06:35 07.02.2022
5470 Clouds 21 1020 88 10000 1.34 280 05:26 07.02.2022
5471 Clouds 22 1019 88 10000 2.97 208 02:56 07.02.2022
5472 Clouds 24 1018 77 10000 4.02 150 00:33 07.02.2022
5473 Clouds 25 1018 71 10000 4.47 130 23:40 06.02.2022
5474 Clouds 26 1018 65 10000 2.24 0 22:46 06.02.2022
5475 Clouds 26 1018 62 10000 3.58 130 21:51 06.02.2022
5476 Clouds 26 1018 61 10000 3.58 130 21:21 06.02.2022
5477 Clouds 27 1019 61 10000 3.58 130 20:52 06.02.2022
5478 Clouds 27 1019 61 10000 3.58 130 20:24 06.02.2022
5479 Clouds 27 1019 63 10000 3.58 170 19:30 06.02.2022
5480 Clouds 26 1019 64 10000 4.02 120 18:35 06.02.2022
5481 Clouds 27 1020 65 10000 1.34 147 17:54 06.02.2022
5482 Clouds 25 1020 73 10000 1.34 138 16:52 06.02.2022
5483 Clouds 25 1021 75 10000 0.89 129 16:30 06.02.2022
5484 Haze 22 1021 85 10000 1.34 340 15:47 06.02.2022
5485 Haze 21 1021 90 10000 1.34 340 15:25 06.02.2022
5486 Clouds 20 1020 94 10000 0.89 311 14:25 06.02.2022
5487 Clouds 19 1020 96 10000 0 0 13:24 06.02.2022
5488 Clouds 19 1019 96 10000 0 0 12:34 06.02.2022
5489 Clouds 20 1019 93 10000 2.24 310 10:43 06.02.2022
5490 Clouds 20 1019 93 10000 1.34 0 09:48 06.02.2022
5491 Clouds 20 1019 92 10000 2.68 280 08:46 06.02.2022
5492 Rain 21 1019 91 10000 2.24 300 07:36 06.02.2022
5493 Clouds 21 1020 88 10000 2.24 20 05:29 06.02.2022
5494 Clouds 22 1020 86 10000 0.45 360 02:26 06.02.2022
5495 Clouds 23 1019 80 10000 3.6 120 00:51 06.02.2022
5496 Clouds 24 1019 78 10000 3.58 120 00:24 06.02.2022
5497 Clouds 26 1019 70 10000 4.02 140 22:18 05.02.2022
5498 Clouds 26 1019 67 10000 3.13 110 20:48 05.02.2022
5499 Clouds 27 1019 68 10000 3.13 110 20:23 05.02.2022
5500 Clouds 27 1020 68 10000 3.13 140 19:44 05.02.2022
5501 Clouds 27 1020 68 10000 2.68 140 18:48 05.02.2022
5502 Clouds 27 1021 69 10000 2.24 130 17:37 05.02.2022
5503 Clouds 26 1022 74 10000 2.24 120 16:36 05.02.2022
5504 Clouds 23 1022 85 10000 0.45 141 15:33 05.02.2022
5505 Clouds 21 1021 95 10000 0 0 14:40 05.02.2022
5506 Clouds 19 1020 94 10000 0 0 12:46 05.02.2022
5507 Clear 19 1020 93 10000 0 0 11:47 05.02.2022
5508 Clear 19 1020 91 10000 0 0 10:46 05.02.2022
5509 Clear 20 1020 88 10000 0 0 09:51 05.02.2022
5510 Clear 20 1020 87 10000 0 0 09:23 05.02.2022
5511 Clear 21 1021 88 10000 2.68 120 07:36 05.02.2022
5512 Clear 21 1021 88 10000 0.45 110 06:56 05.02.2022
5513 Clear 22 1021 85 10000 2.24 140 03:22 05.02.2022
5514 Clouds 23 1021 82 10000 3.58 140 01:19 05.02.2022
5515 Clouds 23 1021 82 10000 3.58 140 01:18 05.02.2022
5516 Clouds 23 1020 79 10000 4.47 150 00:39 05.02.2022
5517 Clouds 25 1020 74 10000 4.02 160 23:33 04.02.2022
5518 Clouds 25 1020 74 10000 1.34 137 22:55 04.02.2022
5519 Clouds 26 1021 70 10000 4.02 140 21:36 04.02.2022
5520 Clouds 26 1020 69 10000 4.02 140 21:18 04.02.2022
5521 Clouds 27 1020 69 10000 5.36 140 20:40 04.02.2022
5522 Clouds 27 1021 69 10000 6.26 130 19:30 04.02.2022
5523 Clouds 26 1023 72 10000 1.34 139 16:56 04.02.2022
5524 Clear 25 1023 75 10000 6.26 120 15:34 04.02.2022
5525 Clouds 24 1022 80 10000 3.58 110 14:51 04.02.2022
5526 Clouds 22 1021 86 10000 3.58 110 12:43 04.02.2022
5527 Clouds 22 1021 85 10000 4.47 120 11:46 04.02.2022
5528 Clouds 22 1021 84 10000 4.47 120 11:18 04.02.2022
5529 Clouds 22 1020 84 10000 4.02 120 10:22 04.02.2022
5530 Clouds 23 1021 84 10000 4.47 120 08:31 04.02.2022
5531 Clouds 23 1021 83 10000 5.36 110 04:52 04.02.2022
5532 Clouds 23 1021 84 10000 1.34 107 02:38 04.02.2022
5533 Clouds 23 1020 80 10000 7.15 110 00:18 04.02.2022
5534 Clouds 25 1020 74 10000 7.15 110 22:52 03.02.2022
5535 Clear 25 1020 75 10000 1.79 104 21:59 03.02.2022
5536 Clouds 26 1020 72 10000 5.81 140 21:37 03.02.2022
5537 Clouds 26 1020 70 10000 7.15 100 20:22 03.02.2022
5538 Clouds 26 1020 69 10000 7.15 110 19:49 03.02.2022
5539 Clouds 26 1021 70 10000 7.15 110 19:20 03.02.2022
5540 Clouds 26 1022 69 10000 2.24 105 17:59 03.02.2022
5541 Clouds 26 1022 67 10000 6.71 130 17:26 03.02.2022
5542 Clouds 24 1022 68 10000 5.81 110 15:38 03.02.2022
5543 Clouds 22 1021 73 10000 5.36 110 14:18 03.02.2022
5544 Clear 21 1020 76 10000 5.36 110 12:32 03.02.2022
5545 Clouds 22 1019 78 10000 1.79 0 08:56 03.02.2022
5546 Clouds 22 1019 77 10000 5.81 110 08:18 03.02.2022
5547 Clouds 22 1019 74 10000 1.79 84 00:59 03.02.2022
5548 Clouds 23 1019 70 10000 6.71 100 00:22 03.02.2022
5549 Clouds 24 1019 64 10000 7.6 120 22:39 02.02.2022
5550 Clouds 25 1019 63 10000 6.71 120 21:51 02.02.2022
5551 Clouds 25 1019 62 10000 6.71 120 21:29 02.02.2022
5552 Clouds 25 1020 61 10000 7.6 90 20:27 02.02.2022
5553 Clouds 25 1020 61 10000 8.94 120 19:46 02.02.2022
5554 Clouds 25 1020 63 10000 2.24 87 18:56 02.02.2022
5555 Clouds 25 1021 63 10000 9.39 100 18:25 02.02.2022
5556 Clouds 25 1021 63 10000 8.94 100 17:21 02.02.2022
5557 Clouds 24 1021 65 10000 2.68 85 16:58 02.02.2022
5558 Clouds 23 1021 65 10000 6.71 100 15:29 02.02.2022
5559 Clouds 20 1019 71 10000 5.81 100 12:31 02.02.2022
5560 Clouds 20 1019 72 10000 7.15 100 11:49 02.02.2022
5561 Clouds 20 1019 72 10000 7.15 100 11:30 02.02.2022
5562 Clouds 20 1019 68 10000 5.81 90 08:48 02.02.2022
5563 Clear 20 1021 62 10000 5.81 90 02:44 02.02.2022
5564 Clouds 22 1020 56 10000 6.26 80 22:33 01.02.2022
5565 Clouds 23 1020 54 10000 7.6 70 20:51 01.02.2022
5566 Clouds 23 1021 53 10000 5.81 70 19:29 01.02.2022
5567 Clouds 22 1022 53 10000 8.94 100 17:34 01.02.2022
5568 Clouds 21 1022 54 10000 6.26 100 16:21 01.02.2022
5569 Clouds 18 1021 63 10000 1.34 77 12:57 01.02.2022
5570 Clouds 17 1021 64 10000 3.58 100 12:21 01.02.2022
5571 Clouds 18 1020 63 10000 1.34 68 08:52 01.02.2022
5572 Clouds 17 1022 58 10000 2.24 30 02:20 01.02.2022
5573 Clouds 19 1021 55 10000 4.47 90 23:37 31.01.2022
5574 Clouds 20 1021 53 10000 4.47 60 22:42 31.01.2022
5575 Clouds 21 1020 53 10000 6.26 70 21:35 31.01.2022
5576 Clouds 21 1021 54 10000 4.47 50 20:35 31.01.2022
5577 Clear 20 1021 57 10000 2.24 43 19:58 31.01.2022
5578 Clouds 20 1023 49 10000 2.68 40 18:32 31.01.2022
5579 Clouds 20 1023 49 10000 2.68 40 18:32 31.01.2022
5580 Clear 20 1023 49 10000 1.79 22 17:57 31.01.2022
5581 Clear 19 1023 44 10000 3.13 0 17:24 31.01.2022
5582 Clear 16 1024 45 10000 3.13 330 16:23 31.01.2022
5583 Clear 13 1023 51 10000 1.34 332 14:53 31.01.2022
5584 Clear 9 1024 54 10000 1.34 340 13:31 31.01.2022
5585 Clear 9 1023 55 10000 1.34 340 12:37 31.01.2022
5586 Clear 9 1023 55 10000 2.24 0 11:26 31.01.2022
5587 Clear 9 1023 55 10000 1.34 350 10:48 31.01.2022
5588 Clear 9 1023 53 10000 0 0 09:37 31.01.2022
5589 Clear 8 1023 56 10000 4.39 350 08:56 31.01.2022
5590 Clear 9 1023 50 10000 1.34 360 08:20 31.01.2022
5591 Clear 9 1024 48 10000 2.24 350 07:40 31.01.2022
5592 Clear 9 1024 43 10000 2.24 0 05:25 31.01.2022
5593 Clouds 14 1023 35 10000 2.68 300 00:24 31.01.2022
5594 Clouds 16 1022 29 10000 3.13 0 22:33 30.01.2022
5595 Clouds 17 1022 30 10000 3.58 360 21:46 30.01.2022
5596 Clouds 17 1022 30 10000 3.58 360 21:24 30.01.2022
5597 Clouds 16 1022 30 10000 2.68 0 20:53 30.01.2022
5598 Clouds 16 1023 29 10000 2.68 0 20:31 30.01.2022
5599 Clear 16 1023 30 10000 1.34 340 19:56 30.01.2022
5600 Clouds 15 1024 31 10000 3.58 310 18:51 30.01.2022
5601 Clouds 15 1024 33 10000 1.79 0 18:22 30.01.2022
5602 Clouds 13 1026 40 10000 4.02 340 17:31 30.01.2022
5603 Clouds 12 1026 44 10000 4.02 340 16:43 30.01.2022
5604 Clouds 11 1026 45 10000 4.02 340 16:23 30.01.2022
5605 Clouds 11 1026 45 10000 4.02 340 16:23 30.01.2022
5606 Clear 10 1026 48 10000 1.79 0 15:55 30.01.2022
5607 Clouds 9 1026 44 10000 5.36 340 15:33 30.01.2022
5608 Clear 7 1025 46 10000 3.58 340 14:48 30.01.2022
5609 Clear 5 1024 50 10000 2.24 0 13:49 30.01.2022
5610 Clear 5 1024 53 10000 5.36 330 12:46 30.01.2022
5611 Clear 5 1023 52 10000 3.58 330 11:23 30.01.2022
5612 Clear 6 1023 49 10000 4.02 340 10:26 30.01.2022
5613 Clear 6 1022 47 10000 4.02 340 09:23 30.01.2022
5614 Clear 6 1022 54 10000 2.24 324 07:59 30.01.2022
5615 Clear 11 1021 47 10000 4.47 330 02:44 30.01.2022
5616 Clear 11 1020 48 10000 1.79 309 01:54 30.01.2022
5617 Clouds 14 1019 41 10000 4.02 300 23:49 29.01.2022
5618 Clouds 15 1018 42 10000 1.79 314 22:57 29.01.2022
5619 Clouds 15 1018 42 10000 4.47 300 21:35 29.01.2022
5620 Clouds 15 1018 43 10000 3.58 316 20:57 29.01.2022
5621 Clouds 14 1019 44 10000 5.81 300 19:52 29.01.2022
5622 Clouds 14 1019 44 10000 5.81 300 19:31 29.01.2022
5623 Clouds 14 1020 44 10000 5.36 310 18:44 29.01.2022
5624 Clouds 13 1020 45 10000 3.58 317 17:54 29.01.2022
5625 Clouds 12 1021 49 10000 6.71 320 16:44 29.01.2022
5626 Clouds 10 1020 56 10000 8.94 310 15:27 29.01.2022
5627 Clouds 11 1019 60 10000 6.71 320 13:48 29.01.2022
5628 Clouds 11 1019 62 10000 6.71 320 13:27 29.01.2022
5629 Clouds 11 1019 65 10000 4.02 313 12:58 29.01.2022
5630 Clouds 13 1016 64 10000 8.05 310 11:39 29.01.2022
5631 Clouds 16 1015 70 10000 7.15 310 10:32 29.01.2022
5632 Clouds 18 1015 78 10000 5.36 290 07:57 29.01.2022
5633 Clouds 20 1015 79 10000 3.13 250 02:26 29.01.2022
5634 Clear 21 1014 72 10000 2.68 0 00:31 29.01.2022
5635 Clouds 23 1013 63 10000 1.34 0 23:29 28.01.2022
5636 Clouds 23 1013 64 10000 3.13 270 22:46 28.01.2022
5637 Clouds 23 1013 65 10000 3.13 270 22:19 28.01.2022
5638 Clouds 23 1014 74 10000 1.34 294 20:41 28.01.2022
5639 Clouds 22 1014 79 10000 1.79 291 19:56 28.01.2022
5640 Clouds 21 1015 81 10000 3.6 270 18:52 28.01.2022
5641 Fog 21 1016 84 10000 1.79 299 17:52 28.01.2022
5642 Mist 18 1017 94 4828 2.24 270 15:52 28.01.2022
5643 Mist 17 1016 96 1609 3.13 270 14:50 28.01.2022
5644 Mist 17 1016 96 1207 1.34 311 12:42 28.01.2022
5645 Fog 17 1016 96 402 0.89 294 11:49 28.01.2022
5646 Mist 18 1015 94 10000 2.24 330 10:26 28.01.2022
5647 Clouds 18 1015 94 10000 2.24 310 09:46 28.01.2022
5648 Clouds 20 1016 89 10000 1.34 0 07:41 28.01.2022
5649 Clear 20 1017 90 10000 2.06 360 05:31 28.01.2022
5650 Clouds 21 1017 90 10000 2.24 0 03:50 28.01.2022
5651 Clouds 22 1017 90 10000 2.68 40 02:25 28.01.2022
5652 Clouds 22 1017 89 10000 0.45 33 01:36 28.01.2022
5653 Clouds 23 1016 87 10000 4.02 100 00:39 28.01.2022
5654 Clouds 25 1016 80 10000 4.47 90 22:18 27.01.2022
5655 Clouds 25 1016 78 10000 2.68 300 21:34 27.01.2022
5656 Clouds 26 1016 80 10000 1.34 134 20:58 27.01.2022
5657 Clouds 26 1017 74 10000 2.24 290 19:36 27.01.2022
5658 Clouds 25 1018 79 10000 2.57 0 18:18 27.01.2022
5659 Clouds 22 1019 89 10000 2.24 0 16:45 27.01.2022
5660 Mist 19 1018 97 9656 2.24 0 13:48 27.01.2022
5661 Mist 19 1017 96 9656 2.68 330 12:48 27.01.2022
5662 Mist 20 1016 96 9656 0.45 329 11:24 27.01.2022
5663 Mist 20 1016 97 6437 1.34 320 09:28 27.01.2022
5664 Mist 20 1016 96 9656 0 0 08:39 27.01.2022
5665 Clouds 21 1016 96 10000 1.34 0 07:23 27.01.2022
5666 Rain 22 1018 92 10000 0.45 2 02:59 27.01.2022
5667 Clouds 25 1015 82 4828 3.13 240 23:52 26.01.2022
5668 Clouds 26 1014 73 10000 4.02 260 22:27 26.01.2022
5669 Clouds 27 1014 72 10000 4.02 270 21:41 26.01.2022
5670 Clouds 27 1014 72 10000 6.26 260 20:42 26.01.2022
5671 Clouds 27 1015 72 10000 6.26 260 20:23 26.01.2022
5672 Clouds 27 1015 73 10000 5.81 250 19:28 26.01.2022
5673 Clouds 27 1016 74 10000 4.47 230 18:46 26.01.2022
5674 Rain 26 1016 79 10000 4.47 220 17:52 26.01.2022
5675 Clouds 26 1017 78 10000 4.47 220 17:24 26.01.2022
5676 Clouds 25 1017 80 10000 1.79 153 16:40 26.01.2022
5677 Clouds 24 1017 82 10000 3.58 190 15:50 26.01.2022
5678 Clouds 22 1016 89 10000 2.24 0 14:23 26.01.2022
5679 Clouds 21 1015 89 10000 0.45 178 11:59 26.01.2022
5680 Clouds 21 1014 83 10000 4.47 150 10:45 26.01.2022
5681 Clouds 21 1015 82 10000 2.68 140 09:49 26.01.2022
5682 Clouds 21 1015 79 10000 2.68 150 08:32 26.01.2022
5683 Clouds 21 1016 78 10000 5.36 120 06:20 26.01.2022
5684 Clouds 21 1016 78 10000 5.36 120 06:20 26.01.2022
5685 Clouds 21 1016 68 10000 3.58 90 00:18 26.01.2022
5686 Clouds 22 1016 66 10000 4.02 100 23:34 25.01.2022
5687 Clouds 22 1016 65 10000 4.47 100 22:48 25.01.2022
5688 Clouds 22 1016 65 10000 4.47 100 22:18 25.01.2022
5689 Clouds 23 1015 65 10000 4.47 110 21:22 25.01.2022
5690 Clouds 22 1015 65 10000 5.36 100 20:44 25.01.2022
5691 Clouds 23 1015 64 10000 3.58 110 19:53 25.01.2022
5692 Clouds 22 1016 61 10000 3.13 30 18:46 25.01.2022
5693 Clouds 21 1017 57 10000 1.34 50 17:45 25.01.2022
5694 Clouds 19 1017 51 10000 1.34 0 16:58 25.01.2022
5695 Clouds 18 1018 50 10000 1.34 0 16:34 25.01.2022
5696 Clouds 16 1018 52 10000 2.24 10 15:39 25.01.2022
5697 Clouds 15 1018 57 10000 0.45 354 14:58 25.01.2022
5698 Clouds 11 1016 71 10000 0 0 13:47 25.01.2022
5699 Clouds 11 1015 74 10000 0 0 11:30 25.01.2022
5700 Clouds 11 1015 74 10000 0 0 09:21 25.01.2022
5701 Clouds 11 1016 64 10000 0 0 07:31 25.01.2022
5702 Clouds 10 1016 35 10000 0.79 298 06:53 25.01.2022
5703 Clouds 12 1017 56 10000 0 0 05:23 25.01.2022
5704 Clouds 16 1016 43 10000 0 0 00:20 25.01.2022
5705 Clouds 17 1015 42 10000 1.34 20 23:36 24.01.2022
5706 Clouds 17 1015 39 10000 1.34 20 23:18 24.01.2022
5707 Clouds 18 1015 40 10000 2.24 0 22:42 24.01.2022
5708 Clear 18 1014 40 10000 0.89 20 21:57 24.01.2022
5709 Clear 18 1014 40 10000 0.89 20 21:57 24.01.2022
5710 Clouds 18 1015 40 10000 2.68 330 21:32 24.01.2022
5711 Clouds 17 1015 43 10000 4.02 330 20:34 24.01.2022
5712 Clear 16 1015 45 10000 1.79 339 19:58 24.01.2022
5713 Clear 16 1016 48 10000 4.02 290 19:37 24.01.2022
5714 Clouds 15 1017 52 10000 3.58 320 18:37 24.01.2022
5715 Clouds 13 1018 59 10000 4.47 290 17:24 24.01.2022
5716 Clear 12 1018 62 10000 2.68 313 16:55 24.01.2022
5717 Clouds 11 1018 66 10000 2.24 0 16:29 24.01.2022
5718 Clouds 8 1017 83 10000 2.24 330 14:49 24.01.2022
5719 Clouds 7 1017 86 10000 3.58 320 13:38 24.01.2022
5720 Clear 8 1016 83 10000 4.02 320 12:32 24.01.2022
5721 Clear 8 1015 82 10000 2.68 320 11:21 24.01.2022
5722 Clouds 8 1016 84 10000 2.68 300 09:49 24.01.2022
5723 Clouds 8 1015 84 10000 2.68 300 09:20 24.01.2022
5724 Clouds 9 1016 80 10000 3.58 310 07:20 24.01.2022
5725 Clouds 9 1016 80 10000 3.58 310 07:20 24.01.2022
5726 Clouds 13 1016 87 10000 3.6 310 01:32 24.01.2022
5727 Clouds 14 1017 85 10000 4.12 300 00:46 24.01.2022
5728 Clouds 14 1016 85 10000 3.09 290 00:27 24.01.2022
5729 Clouds 16 1016 77 10000 4.63 310 22:46 23.01.2022
5730 Clouds 16 1016 80 10000 5.14 280 21:50 23.01.2022
5731 Clouds 16 1016 80 10000 5.14 280 21:27 23.01.2022
5732 Clouds 18 1015 58 10000 4.46 306 20:54 23.01.2022
5733 Clouds 18 1016 80 10000 4.81 312 19:55 23.01.2022
5734 Clouds 17 1017 81 10000 4.12 290 18:52 23.01.2022
5735 Clouds 17 1019 84 10000 4.63 320 17:54 23.01.2022
5736 Clouds 15 1019 89 10000 3.13 0 16:52 23.01.2022
5737 Clouds 15 1018 91 10000 3.13 300 15:18 23.01.2022
5738 Clouds 15 1018 93 10000 4.02 350 14:33 23.01.2022
5739 Mist 15 1018 93 9656 3.13 310 13:27 23.01.2022
5740 Clouds 15 1018 95 10000 4.02 320 12:40 23.01.2022
5741 Clouds 15 1017 95 10000 4.02 320 12:18 23.01.2022
5742 Clouds 16 1017 95 10000 3.58 340 11:25 23.01.2022
5743 Clouds 16 1017 95 10000 0.89 329 10:57 23.01.2022
5744 Clouds 16 1017 95 10000 3.58 320 10:23 23.01.2022
5745 Clouds 17 1017 94 10000 4.02 310 09:25 23.01.2022
5746 Rain 18 1019 94 10000 0.45 360 05:59 23.01.2022
5747 Clouds 19 1019 90 10000 3.13 330 03:20 23.01.2022
5748 Clouds 19 1018 90 10000 3.13 330 01:36 23.01.2022
5749 Clouds 20 1018 88 10000 3.13 0 00:42 23.01.2022
5750 Clouds 21 1018 88 10000 1.79 322 23:57 22.01.2022
5751 Clouds 22 1017 85 10000 3.58 320 22:48 22.01.2022
5752 Clouds 23 1017 83 10000 1.79 316 21:58 22.01.2022
5753 Clouds 25 1018 79 10000 1.34 0 20:29 22.01.2022
5754 Clouds 25 1018 79 10000 1.34 0 19:37 22.01.2022
5755 Clouds 25 1018 78 10000 0.45 311 18:37 22.01.2022
5756 Clouds 25 1019 79 10000 3.58 330 17:42 22.01.2022
5757 Clouds 24 1019 81 10000 3.58 330 17:18 22.01.2022
5758 Clouds 23 1020 86 10000 1.34 340 16:22 22.01.2022
5759 Clouds 22 1020 91 10000 2.24 320 15:44 22.01.2022
5760 Mist 21 1019 96 9656 1.34 0 14:42 22.01.2022
5761 Mist 20 1018 97 6437 0.45 4 13:28 22.01.2022
5762 Fog 20 1018 97 805 2.24 0 12:37 22.01.2022
5763 Fog 20 1018 97 402 2.68 340 12:18 22.01.2022
5764 Mist 21 1017 96 10000 2.24 300 10:39 22.01.2022
5765 Mist 21 1017 96 10000 0 0 10:20 22.01.2022
5766 Mist 21 1017 96 9656 2.57 220 08:55 22.01.2022
5767 Clouds 21 1017 95 10000 2.24 170 08:31 22.01.2022
5768 Clouds 21 1018 94 10000 1.54 250 05:20 22.01.2022
5769 Clouds 23 1018 90 10000 1.34 150 02:39 22.01.2022
5770 Clouds 25 1016 82 10000 4.02 130 23:50 21.01.2022
5771 Clouds 26 1016 82 10000 1.34 150 22:59 21.01.2022
5772 Clouds 27 1016 75 10000 3.13 140 21:18 21.01.2022
5773 Clouds 27 1017 76 10000 4.02 100 19:30 21.01.2022
5774 Clouds 26 1019 79 10000 1.34 119 17:51 21.01.2022
5775 Clouds 24 1019 94 10000 1.34 116 15:56 21.01.2022
5776 Clouds 22 1019 98 10000 0.6 134 14:58 21.01.2022
5777 Clouds 21 1017 97 10000 2.24 170 12:43 21.01.2022
5778 Rain 20 1017 97 10000 0.45 225 11:29 21.01.2022
5779 Rain 20 1017 97 6437 0 0 10:47 21.01.2022
5780 Mist 21 1017 96 3219 3.6 240 08:59 21.01.2022
5781 Clouds 21 1017 96 10000 0 0 07:58 21.01.2022
5782 Mist 22 1018 93 4828 1.34 150 01:55 21.01.2022
5783 Mist 24 1017 87 4828 2.24 148 22:51 20.01.2022
5784 Clouds 25 1017 80 10000 1.34 136 21:49 20.01.2022
5785 Clouds 25 1017 76 10000 1.34 131 21:25 20.01.2022
5786 Clouds 26 1018 73 10000 1.34 144 19:54 20.01.2022
5787 Clouds 26 1019 69 10000 0.89 127 19:18 20.01.2022
5788 Clouds 26 1019 69 10000 0.89 127 19:18 20.01.2022
5789 Clouds 26 1021 71 10000 0.89 153 17:37 20.01.2022
5790 Clouds 25 1021 79 10000 0.89 110 16:24 20.01.2022
5791 Clouds 22 1021 86 10000 0.89 144 15:31 20.01.2022
5792 Clouds 21 1020 91 10000 0.45 127 14:20 20.01.2022
5793 Clouds 20 1020 95 10000 3.61 118 12:53 20.01.2022
5794 Clouds 19 1019 92 10000 0 0 12:29 20.01.2022
5795 Clouds 19 1019 92 10000 0 0 11:19 20.01.2022
5796 Clouds 20 1019 87 10000 0 0 10:18 20.01.2022
5797 Clouds 20 1020 81 10000 0.45 103 08:51 20.01.2022
5798 Clouds 20 1020 79 10000 0 0 07:23 20.01.2022
5799 Clouds 21 1021 71 10000 3.6 120 00:40 20.01.2022
5800 Clouds 23 1021 64 10000 0.89 79 22:39 19.01.2022
5801 Clouds 23 1021 62 10000 0.89 83 21:36 19.01.2022
5802 Clear 23 1021 63 10000 1.34 81 20:59 19.01.2022
5803 Clouds 23 1021 60 10000 1.34 0 20:40 19.01.2022
5804 Clear 24 1022 59 10000 1.34 108 18:59 19.01.2022
5805 Clouds 23 1023 58 10000 0.89 90 17:51 19.01.2022
5806 Clouds 23 1023 57 10000 1.34 80 17:18 19.01.2022
5807 Clouds 19 1023 71 10000 0 0 15:35 19.01.2022
5808 Clouds 13 1022 88 10000 0 0 13:26 19.01.2022
5809 Clouds 13 1022 82 10000 0 0 12:20 19.01.2022
5810 Clouds 13 1022 79 10000 2.06 320 11:38 19.01.2022
5811 Clouds 13 1022 72 10000 2.06 340 09:49 19.01.2022
5812 Clouds 13 1022 72 10000 2.06 340 09:22 19.01.2022
5813 Clouds 13 1023 67 10000 1.54 340 05:29 19.01.2022
5814 Clouds 17 1022 57 10000 0.45 57 00:22 19.01.2022
5815 Clouds 19 1021 46 10000 4.02 90 23:18 18.01.2022
5816 Clouds 20 1020 43 10000 1.34 58 21:50 18.01.2022
5817 Clouds 20 1021 45 10000 1.34 86 20:38 18.01.2022
5818 Clouds 20 1021 43 10000 0.45 318 19:51 18.01.2022
5819 Clouds 20 1021 43 10000 0.45 61 19:33 18.01.2022
5820 Clouds 19 1022 47 10000 1.34 335 18:25 18.01.2022
5821 Clear 18 1023 53 10000 1.34 39 17:33 18.01.2022
5822 Clouds 16 1023 62 10000 3.6 30 16:22 18.01.2022
5823 Clouds 15 1023 70 10000 2.57 30 15:25 18.01.2022
5824 Clouds 13 1022 80 10000 0.45 37 14:34 18.01.2022
5825 Clear 12 1020 83 10000 0 0 11:52 18.01.2022
5826 Clear 12 1019 78 10000 0 0 10:30 18.01.2022
5827 Clear 13 1019 75 10000 1.54 320 08:49 18.01.2022
5828 Clear 13 1019 76 10000 3.09 310 07:45 18.01.2022
5829 Clear 13 1019 76 10000 3.09 310 07:45 18.01.2022
5830 Clouds 18 1017 65 10000 2.24 312 01:34 18.01.2022
5831 Clouds 21 1015 55 10000 2.68 298 23:22 17.01.2022
5832 Clouds 23 1015 54 10000 3.13 309 21:58 17.01.2022
5833 Clouds 23 1014 52 10000 2.68 287 21:31 17.01.2022
5834 Clouds 22 1015 54 10000 3.13 291 19:42 17.01.2022
5835 Clouds 22 1016 59 10000 3.13 300 18:27 17.01.2022
5836 Clouds 21 1016 62 10000 3.13 333 17:22 17.01.2022
5837 Clouds 20 1017 68 10000 2.68 302 16:24 17.01.2022
5838 Clouds 17 1017 85 10000 0.89 290 14:58 17.01.2022
5839 Clouds 16 1016 81 10000 0.45 0 14:33 17.01.2022
5840 Clouds 15 1015 85 10000 1.54 260 13:19 17.01.2022
5841 Clear 15 1014 82 10000 1.34 300 12:52 17.01.2022
5842 Clouds 16 1013 82 10000 2.24 260 11:47 17.01.2022
5843 Clear 16 1013 84 10000 1.34 270 10:21 17.01.2022
5844 Clear 16 1013 85 10000 2.68 270 08:44 17.01.2022
5845 Clouds 17 1013 83 10000 2.68 260 07:22 17.01.2022
5846 Clouds 18 1013 82 10000 0.89 279 02:20 17.01.2022
5847 Clouds 19 1012 88 10000 3.13 260 00:43 17.01.2022
5848 Rain 19 1010 95 10000 5.81 230 21:22 16.01.2022
5849 Rain 19 1010 93 10000 5.36 220 20:30 16.01.2022
5850 Clouds 24 1010 76 10000 7.6 180 18:48 16.01.2022
5851 Clouds 25 1011 75 10000 6.71 170 17:51 16.01.2022
5852 Clear 25 1012 76 10000 3.13 162 16:55 16.01.2022
5853 Clouds 23 1013 76 10000 5.81 180 15:43 16.01.2022
5854 Clouds 23 1012 78 10000 5.81 170 14:29 16.01.2022
5855 Clouds 22 1012 80 10000 4.47 160 13:33 16.01.2022
5856 Clouds 22 1012 79 10000 4.47 160 12:22 16.01.2022
5857 Clouds 22 1013 79 10000 2.24 195 11:29 16.01.2022
5858 Clear 21 1013 79 10000 1.79 209 10:28 16.01.2022
5859 Clear 21 1013 79 10000 3.13 141 09:58 16.01.2022
5860 Clear 21 1014 78 10000 2.68 210 09:37 16.01.2022
5861 Clear 21 1014 79 10000 2.68 112 09:19 16.01.2022
5862 Clouds 21 1014 80 10000 1.34 114 07:19 16.01.2022
5863 Clouds 20 1016 65 10000 0.89 129 00:35 16.01.2022
5864 Clear 23 1016 53 10000 1.34 0 22:53 15.01.2022
5865 Smoke 24 1016 45 10000 1.79 149 21:22 15.01.2022
5866 Smoke 24 1016 45 10000 1.34 165 20:45 15.01.2022
5867 Smoke 24 1016 45 10000 0.89 122 20:22 15.01.2022
5868 Smoke 24 1018 42 10000 1.34 191 19:27 15.01.2022
5869 Smoke 23 1019 41 10000 1.34 179 18:18 15.01.2022
5870 Clouds 22 1020 48 10000 0.89 91 16:49 15.01.2022
5871 Clouds 15 1019 77 10000 0 0 14:38 15.01.2022
5872 Clear 12 1017 86 10000 0 0 12:40 15.01.2022
5873 Clear 12 1017 79 10000 0 0 11:26 15.01.2022
5874 Clear 13 1016 74 10000 0 0 09:46 15.01.2022
5875 Clear 18 1017 58 10000 3.62 350 01:58 15.01.2022
5876 Clouds 21 1015 47 10000 0.89 301 23:20 14.01.2022
5877 Clouds 22 1014 43 10000 2.24 316 21:18 14.01.2022
5878 Clouds 22 1015 43 10000 1.79 316 20:25 14.01.2022
5879 Clouds 22 1015 42 10000 4.47 330 19:50 14.01.2022
5880 Clouds 21 1015 47 10000 1.34 320 18:38 14.01.2022
5881 Clouds 20 1016 52 10000 2.24 324 17:21 14.01.2022
5882 Clouds 19 1017 57 10000 1.79 345 16:40 14.01.2022
5883 Clear 17 1016 73 10000 1.34 347 15:30 14.01.2022
5884 Clear 15 1015 84 10000 1.79 318 14:25 14.01.2022
5885 Clear 14 1015 88 10000 1.34 280 12:47 14.01.2022
5886 Clear 14 1014 88 10000 2.24 280 11:51 14.01.2022
5887 Clear 14 1014 87 10000 0.89 267 10:30 14.01.2022
5888 Clear 15 1013 86 10000 1.34 295 08:52 14.01.2022
5889 Clear 16 1013 84 10000 2.68 300 07:30 14.01.2022
5890 Clouds 20 1013 70 10000 4.02 270 02:20 14.01.2022
5891 Clouds 23 1012 60 10000 3.13 290 23:40 13.01.2022
5892 Clouds 25 1012 53 10000 4.02 300 21:46 13.01.2022
5893 Clouds 25 1012 54 10000 4.02 300 21:27 13.01.2022
5894 Clouds 25 1013 60 10000 2.68 290 19:45 13.01.2022
5895 Clouds 25 1013 60 10000 2.68 290 19:23 13.01.2022
5896 Clouds 24 1014 62 10000 1.79 295 18:36 13.01.2022
5897 Clouds 22 1016 77 10000 1.34 0 16:52 13.01.2022
5898 Rain 20 1016 88 10000 0.45 0 15:38 13.01.2022
5899 Rain 19 1016 88 10000 0 0 15:18 13.01.2022
5900 Clouds 18 1016 90 10000 2.24 330 13:28 13.01.2022
5901 Clouds 19 1016 90 10000 1.34 20 10:39 13.01.2022
5902 Clouds 19 1016 89 10000 1.34 30 09:23 13.01.2022
5903 Clouds 19 1017 90 10000 1.34 40 08:29 13.01.2022
5904 Clouds 19 1017 91 10000 3.72 66 07:58 13.01.2022
5905 Clouds 19 1017 89 10000 2.68 50 07:18 13.01.2022
5906 Clouds 20 1018 87 10000 2.68 70 05:20 13.01.2022
5907 Clouds 21 1018 83 10000 2.68 30 03:34 13.01.2022
5908 Clouds 21 1018 79 10000 3.13 50 01:38 13.01.2022
5909 Clouds 22 1018 73 10000 0.45 0 23:53 12.01.2022
5910 Clouds 23 1018 68 10000 3.58 50 23:34 12.01.2022
5911 Clouds 23 1018 63 10000 5.81 70 22:22 12.01.2022
5912 Clouds 24 1018 62 10000 5.36 60 21:43 12.01.2022
5913 Clouds 24 1018 62 10000 5.36 60 21:18 12.01.2022
5914 Clouds 24 1018 62 10000 5.81 50 20:44 12.01.2022
5915 Clouds 24 1020 62 10000 2.68 44 18:48 12.01.2022
5916 Clouds 24 1020 63 10000 2.24 13 18:18 12.01.2022
5917 Clouds 23 1022 69 10000 2.24 358 16:52 12.01.2022
5918 Clouds 21 1022 76 10000 1.79 86 14:50 12.01.2022
5919 Clouds 21 1022 77 10000 1.34 25 14:19 12.01.2022
5920 Clouds 21 1021 78 10000 2.24 45 12:57 12.01.2022
5921 Clouds 21 1020 83 10000 1.34 103 09:48 12.01.2022
5922 Rain 20 1021 87 10000 1.79 51 07:57 12.01.2022
5923 Rain 20 1022 89 10000 1.79 49 07:33 12.01.2022
5924 Rain 20 1022 89 10000 1.79 49 07:33 12.01.2022
5925 Rain 20 1023 93 10000 0.89 356 02:38 12.01.2022
5926 Rain 21 1022 87 10000 0.89 352 23:27 11.01.2022
5927 Clouds 22 1021 82 10000 1.79 13 22:39 11.01.2022
5928 Clouds 23 1021 78 10000 0.89 25 22:18 11.01.2022
5929 Clouds 24 1021 74 10000 2.24 44 20:40 11.01.2022
5930 Clouds 24 1021 74 10000 2.24 44 20:40 11.01.2022
5931 Clouds 24 1022 78 10000 2.24 40 19:40 11.01.2022
5932 Clouds 23 1024 83 10000 2.24 19 17:55 11.01.2022
5933 Clouds 22 1024 81 10000 1.79 31 16:47 11.01.2022
5934 Clouds 21 1024 83 10000 1.34 12 16:28 11.01.2022
5935 Clouds 20 1023 87 10000 1.79 332 14:57 11.01.2022
5936 Clouds 19 1023 89 10000 1.79 328 14:38 11.01.2022
5937 Clouds 18 1023 91 10000 1.79 327 13:52 11.01.2022
5938 Clouds 18 1022 92 10000 1.34 331 13:28 11.01.2022
5939 Clouds 19 1022 91 10000 1.79 326 12:36 11.01.2022
5940 Clear 19 1021 91 10000 1.34 323 10:45 11.01.2022
5941 Clouds 20 1021 91 10000 0.45 356 08:27 11.01.2022
5942 Clouds 22 1022 84 10000 1.34 70 04:30 11.01.2022
5943 Clouds 22 1022 84 10000 1.79 0 04:30 11.01.2022
5944 Clouds 24 1020 81 10000 2.24 80 00:28 11.01.2022
5945 Clouds 25 1020 78 10000 1.34 60 23:40 10.01.2022
5946 Clouds 26 1019 75 10000 2.24 120 22:43 10.01.2022
5947 Clouds 26 1020 75 10000 2.24 120 22:18 10.01.2022
5948 Clouds 26 1020 74 10000 2.24 0 21:42 10.01.2022
5949 Clouds 26 1020 73 10000 1.34 106 21:18 10.01.2022
5950 Clouds 26 1020 75 10000 1.34 94 20:55 10.01.2022
5951 Clouds 26 1020 74 10000 1.34 121 20:23 10.01.2022
5952 Clouds 27 1020 72 10000 0.45 18 19:39 10.01.2022
5953 Clouds 27 1020 71 10000 1.34 129 19:19 10.01.2022
5954 Clouds 27 1021 72 10000 1.34 37 18:47 10.01.2022
5955 Clouds 25 1023 80 10000 1.34 32 16:59 10.01.2022
5956 Clouds 25 1023 82 10000 1.34 40 16:41 10.01.2022
5957 Clouds 22 1023 95 10000 0.89 360 14:58 10.01.2022
5958 Clouds 21 1022 95 10000 2.06 360 13:35 10.01.2022
5959 Clouds 22 1021 94 10000 2.06 320 11:57 10.01.2022
5960 Clouds 22 1021 94 10000 1.54 320 11:24 10.01.2022
5961 Clouds 23 1021 90 10000 0 0 09:41 10.01.2022
5962 Clouds 24 1023 85 10000 4.02 110 05:52 10.01.2022
5963 Clouds 24 1023 85 10000 4.02 110 05:23 10.01.2022
5964 Clouds 23 1024 84 10000 7.6 100 01:24 10.01.2022
5965 Clouds 24 1024 82 10000 4.47 90 00:23 10.01.2022
5966 Clouds 24 1024 79 10000 6.26 100 23:28 09.01.2022
5967 Clouds 25 1023 79 10000 7.6 100 22:21 09.01.2022
5968 Clouds 25 1024 78 10000 6.26 100 21:42 09.01.2022
5969 Clouds 25 1024 78 10000 6.26 100 21:42 09.01.2022
5970 Clouds 25 1024 79 10000 1.34 84 21:23 09.01.2022
5971 Clouds 25 1024 79 10000 1.34 84 21:23 09.01.2022
5972 Clouds 25 1024 79 10000 9.39 90 20:49 09.01.2022
5973 Clouds 25 1024 77 10000 9.39 90 20:29 09.01.2022
5974 Clouds 25 1024 78 10000 2.24 76 19:44 09.01.2022
5975 Clouds 25 1024 78 10000 1.79 83 19:22 09.01.2022
5976 Clouds 25 1025 79 10000 6.26 70 18:49 09.01.2022
5977 Clouds 25 1025 78 10000 8.94 90 18:30 09.01.2022
5978 Clouds 26 1026 75 10000 8.94 90 17:30 09.01.2022
5979 Clouds 25 1026 78 10000 8.05 90 16:51 09.01.2022
5980 Clouds 24 1027 80 10000 2.24 79 15:56 09.01.2022
5981 Clouds 24 1027 80 10000 9.39 90 15:34 09.01.2022
5982 Clouds 24 1026 81 10000 6.71 90 14:40 09.01.2022
5983 Clouds 23 1026 82 10000 5.36 80 13:50 09.01.2022
5984 Clouds 23 1025 85 10000 2.24 73 12:44 09.01.2022
5985 Clouds 22 1025 88 10000 5.81 80 11:48 09.01.2022
5986 Clouds 22 1025 90 10000 1.79 0 10:49 09.01.2022
5987 Mist 22 1025 90 8047 1.79 0 09:42 09.01.2022
5988 Rain 22 1026 92 10000 0.89 74 08:31 09.01.2022
5989 Clouds 24 1027 83 10000 1.34 54 02:48 09.01.2022
5990 Clouds 24 1026 83 10000 1.79 63 01:21 09.01.2022
5991 Clouds 24 1025 84 10000 1.79 51 23:38 08.01.2022
5992 Clouds 24 1024 85 10000 1.79 57 22:59 08.01.2022
5993 Clouds 25 1024 79 10000 2.68 92 21:33 08.01.2022
5994 Clouds 26 1024 79 10000 2.68 48 20:58 08.01.2022
5995 Clouds 26 1024 78 10000 2.68 66 20:39 08.01.2022
5996 Clouds 26 1024 79 10000 2.68 61 20:19 08.01.2022
5997 Clouds 25 1025 79 10000 1.79 57 18:21 08.01.2022
5998 Clouds 26 1026 78 10000 1.79 48 17:22 08.01.2022
5999 Clear 24 1025 81 10000 1.34 63 15:51 08.01.2022
6000 Clouds 24 1025 83 10000 1.79 50 14:43 08.01.2022
6001 Clouds 23 1024 83 10000 1.79 58 13:25 08.01.2022
6002 Clouds 22 1023 84 10000 1.34 57 11:24 08.01.2022
6003 Clouds 23 1022 82 10000 1.79 46 10:25 08.01.2022
6004 Clouds 23 1022 81 10000 1.34 56 09:47 08.01.2022
6005 Clouds 23 1022 83 10000 1.34 58 07:21 08.01.2022
6006 Clouds 23 1021 87 10000 0.89 31 02:45 08.01.2022
6007 Clouds 24 1020 84 10000 0.45 70 00:41 08.01.2022
6008 Clouds 26 1019 77 10000 0.89 146 22:47 07.01.2022
6009 Clouds 27 1018 73 10000 1.34 141 20:56 07.01.2022
6010 Clouds 28 1018 67 10000 1.79 323 20:19 07.01.2022
6011 Clouds 28 1019 69 10000 0.45 0 19:18 07.01.2022
6012 Clouds 27 1019 71 10000 0.89 269 18:44 07.01.2022
6013 Clouds 27 1020 77 10000 0.89 294 17:26 07.01.2022
6014 Clouds 25 1021 83 10000 0.89 261 16:30 07.01.2022
6015 Clouds 22 1019 95 10000 0.45 311 13:54 07.01.2022
6016 Clouds 22 1018 95 10000 1.34 155 13:22 07.01.2022
6017 Clouds 21 1017 95 10000 2.24 170 12:49 07.01.2022
6018 Clouds 21 1017 91 10000 0 0 09:37 07.01.2022
6019 Clouds 22 1018 78 10000 2.85 172 02:56 07.01.2022
6020 Clouds 21 1017 79 10000 2.65 167 01:54 07.01.2022
6021 Clouds 22 1016 77 10000 2.57 130 01:28 07.01.2022
6022 Clouds 22 1016 79 10000 2.72 157 00:58 07.01.2022
6023 Clouds 22 1016 79 10000 2.59 163 00:58 07.01.2022
6024 Clouds 24 1016 69 10000 0.89 96 22:54 06.01.2022
6025 Clouds 26 1016 61 10000 1.79 103 21:28 06.01.2022
6026 Clouds 26 1016 56 10000 0.45 294 20:22 06.01.2022
6027 Clouds 26 1016 58 10000 0.45 219 19:45 06.01.2022
6028 Clouds 25 1018 61 10000 0.89 286 18:29 06.01.2022
6029 Clouds 24 1018 62 10000 1.34 323 17:40 06.01.2022
6030 Clouds 22 1018 66 10000 0.89 334 16:44 06.01.2022
6031 Clouds 20 1018 73 10000 0 0 15:47 06.01.2022
6032 Clouds 19 1018 76 10000 0.89 26 15:26 06.01.2022
6033 Clear 18 1018 83 10000 0.89 333 14:45 06.01.2022
6034 Clear 17 1018 85 10000 0.45 40 14:18 06.01.2022
6035 Clear 17 1017 89 10000 0.45 7 12:50 06.01.2022
6036 Clear 17 1016 89 10000 0.45 313 11:43 06.01.2022
6037 Clear 17 1016 88 10000 0 0 11:22 06.01.2022
6038 Clouds 19 1015 91 10000 0.45 320 08:51 06.01.2022
6039 Clouds 23 1015 79 10000 3.09 240 01:24 06.01.2022
6040 Clouds 25 1014 80 10000 1.79 260 23:38 05.01.2022
6041 Clouds 25 1014 79 10000 1.79 268 22:57 05.01.2022
6042 Clouds 26 1014 79 10000 0.45 161 22:32 05.01.2022
6043 Clouds 26 1013 80 10000 1.34 137 21:49 05.01.2022
6044 Clouds 26 1014 80 10000 0.45 243 21:20 05.01.2022
6045 Clouds 26 1014 82 10000 1.34 184 20:18 05.01.2022
6046 Clouds 25 1015 86 10000 1.34 157 18:44 05.01.2022
6047 Clouds 24 1017 86 10000 0.45 127 17:26 05.01.2022
6048 Clouds 24 1017 89 10000 3.09 0 16:50 05.01.2022
6049 Mist 23 1017 93 10000 0.45 85 15:26 05.01.2022
6050 Clouds 21 1017 90 10000 0.45 0 13:52 05.01.2022
6051 Clouds 21 1017 90 10000 0.45 50 13:22 05.01.2022
6052 Clouds 21 1017 86 10000 1.34 360 10:34 05.01.2022
6053 Clouds 22 1017 81 10000 3.58 110 07:47 05.01.2022
6054 Clouds 22 1017 81 10000 3.58 110 07:47 05.01.2022
6055 Clouds 22 1018 78 10000 3.58 110 06:25 05.01.2022
6056 Clouds 22 1020 72 10000 0.45 33 00:59 05.01.2022
6057 Clouds 23 1019 65 10000 4.02 50 23:28 04.01.2022
6058 Clouds 24 1019 66 10000 0.45 67 22:55 04.01.2022
6059 Clouds 25 1018 62 10000 4.47 80 21:31 04.01.2022
6060 Clouds 25 1018 62 10000 4.47 80 21:31 04.01.2022
6061 Clouds 25 1019 61 10000 1.34 66 19:20 04.01.2022
6062 Clouds 25 1021 62 10000 3.58 50 17:52 04.01.2022
6063 Clouds 23 1021 67 10000 2.68 20 16:44 04.01.2022
6064 Clouds 23 1021 69 10000 0.89 34 16:24 04.01.2022
6065 Clouds 20 1021 76 10000 0.89 358 14:54 04.01.2022
6066 Clouds 19 1021 77 10000 0.89 316 14:34 04.01.2022
6067 Clouds 17 1021 78 10000 2.24 330 13:29 04.01.2022
6068 Clouds 17 1019 72 10000 3.09 0 10:41 04.01.2022
6069 Clouds 17 1020 70 10000 2.06 320 09:47 04.01.2022
6070 Clouds 17 1020 69 10000 2.57 340 08:32 04.01.2022
6071 Clouds 20 1020 63 10000 3.13 360 02:32 04.01.2022
6072 Clouds 22 1019 70 10000 2.68 330 00:41 04.01.2022
6073 Clouds 23 1018 73 10000 2.68 330 23:26 03.01.2022
6074 Clouds 23 1018 75 10000 1.79 304 21:52 03.01.2022
6075 Clouds 23 1018 75 10000 1.79 318 21:33 03.01.2022
6076 Clouds 23 1018 75 10000 3.13 313 20:26 03.01.2022
6077 Clouds 23 1018 79 10000 1.79 308 18:54 03.01.2022
6078 Clouds 23 1019 82 10000 3.13 317 18:28 03.01.2022
6079 Clear 27 1019 75 10000 2.24 0 16:59 03.01.2022
6080 Clouds 26 1019 82 10000 2.24 237 15:40 03.01.2022
6081 Clouds 23 1018 92 10000 0.89 241 14:31 03.01.2022
6082 Clouds 23 1018 92 10000 0.89 241 14:31 03.01.2022
6083 Clear 21 1017 94 10000 0.89 181 12:48 03.01.2022
6084 Clear 21 1018 93 10000 0.89 204 11:39 03.01.2022
6085 Clouds 21 1018 91 10000 2.06 170 10:37 03.01.2022
6086 Clear 21 1019 87 10000 0.45 221 08:48 03.01.2022
6087 Clear 22 1019 85 10000 1.54 210 07:36 03.01.2022
6088 Clouds 25 1018 82 10000 0.89 193 00:29 03.01.2022
6089 Clouds 26 1017 81 10000 1.79 136 23:22 02.01.2022
6090 Clouds 26 1017 80 10000 2.24 131 22:55 02.01.2022
6091 Clouds 27 1017 76 10000 2.68 143 21:46 02.01.2022
6092 Clouds 28 1017 74 10000 2.24 125 20:41 02.01.2022
6093 Clouds 28 1017 73 10000 2.24 141 20:22 02.01.2022
6094 Clouds 28 1018 73 10000 2.24 162 19:31 02.01.2022
6095 Clouds 28 1018 70 10000 4.47 150 18:47 02.01.2022
6096 Clear 28 1019 73 10000 2.68 147 17:56 02.01.2022
6097 Clouds 28 1019 71 10000 6.71 170 17:37 02.01.2022
6098 Clouds 28 1019 72 10000 6.71 170 17:18 02.01.2022
6099 Clouds 27 1019 73 10000 5.36 170 16:26 02.01.2022
6100 Clouds 24 1018 82 10000 1.34 160 14:34 02.01.2022
6101 Clear 23 1017 85 10000 1.79 139 12:54 02.01.2022
6102 Clouds 23 1017 84 10000 2.68 150 12:25 02.01.2022
6103 Clouds 23 1017 84 10000 1.34 160 11:33 02.01.2022
6104 Clouds 23 1017 84 10000 2.24 160 10:49 02.01.2022
6105 Clouds 23 1017 84 10000 2.68 150 09:45 02.01.2022
6106 Clouds 23 1018 87 10000 2.24 160 07:26 02.01.2022
6107 Clouds 24 1019 84 10000 3.13 0 02:19 02.01.2022
6108 Clouds 25 1018 79 10000 5.36 150 23:40 01.01.2022
6109 Clouds 26 1017 78 10000 1.79 143 22:58 01.01.2022
6110 Clouds 27 1017 74 10000 5.81 140 22:23 01.01.2022
6111 Clouds 27 1017 72 10000 5.81 150 21:44 01.01.2022
6112 Clouds 27 1017 73 10000 1.79 0 20:55 01.01.2022
6113 Clouds 28 1018 74 10000 2.24 144 19:58 01.01.2022
6114 Clouds 27 1018 73 10000 5.81 120 19:26 01.01.2022
6115 Clouds 28 1019 72 10000 6.26 140 18:20 01.01.2022
6116 Clouds 27 1020 73 10000 4.47 140 16:43 01.01.2022
6117 Clouds 27 1020 75 10000 4.47 140 16:20 01.01.2022
6118 Clouds 25 1020 78 10000 4.02 120 15:27 01.01.2022
6119 Clear 23 1020 83 10000 1.79 134 13:59 01.01.2022
6120 Clouds 23 1019 84 10000 2.68 130 12:50 01.01.2022
6121 Clouds 23 1019 81 10000 2.24 134 11:58 01.01.2022
6122 Mist 23 1018 85 10000 2.24 110 11:23 01.01.2022
6123 Mist 22 1018 88 10000 2.68 130 10:40 01.01.2022
6124 Mist 22 1018 87 10000 1.34 100 09:46 01.01.2022
6125 Mist 22 1019 86 10000 1.34 110 08:26 01.01.2022
6126 Mist 23 1019 83 4023 0 0 07:55 01.01.2022
6127 Haze 23 1019 85 9656 1.34 110 07:34 01.01.2022
6128 Clouds 23 1019 86 10000 2.68 110 06:41 01.01.2022
6129 Clouds 23 1020 86 10000 2.68 110 04:38 01.01.2022
6130 Clear 23 1020 84 10000 0.45 97 02:54 01.01.2022
6131 Clouds 25 1018 77 10000 4.02 140 23:44 31.12.2021
6132 Clear 27 1018 72 10000 1.79 132 21:54 31.12.2021
6133 Clouds 28 1018 68 10000 4.47 120 20:41 31.12.2021
6134 Clouds 28 1018 68 10000 4.47 110 19:31 31.12.2021
6135 Clouds 28 1018 68 10000 4.47 110 19:31 31.12.2021
6136 Clouds 27 1020 65 10000 3.6 160 18:44 31.12.2021
6137 Clouds 27 1021 75 10000 2.68 120 17:45 31.12.2021
6138 Clouds 27 1021 75 10000 2.68 120 17:19 31.12.2021
6139 Clear 27 1021 78 10000 1.34 83 16:44 31.12.2021
6140 Clear 25 1021 87 10000 0.45 115 15:58 31.12.2021
6141 Clouds 24 1020 93 10000 1.34 50 15:31 31.12.2021
6142 Clear 23 1020 97 10000 1.84 164 14:57 31.12.2021
6143 Clear 23 1020 97 10000 1.84 164 14:57 31.12.2021
6144 Clouds 22 1020 98 10000 0 0 14:31 31.12.2021
6145 Clouds 20 1019 98 10000 0 0 13:42 31.12.2021
6146 Fog 20 1018 98 10000 0 0 12:49 31.12.2021
6147 Mist 20 1018 98 10000 0 0 11:52 31.12.2021
6148 Mist 20 1018 98 10000 0 0 11:33 31.12.2021
6149 Clouds 21 1018 95 10000 0 0 10:41 31.12.2021
6150 Clouds 21 1018 95 10000 0 0 10:23 31.12.2021
6151 Clouds 21 1018 95 10000 0 0 09:33 31.12.2021
6152 Clouds 22 1019 96 10000 0 0 08:49 31.12.2021
6153 Clouds 22 1019 95 10000 0 0 07:49 31.12.2021
6154 Clouds 25 1018 85 10000 3.58 130 00:47 31.12.2021
6155 Clouds 27 1018 79 10000 1.34 107 22:54 30.12.2021
6156 Clouds 27 1017 76 10000 5.36 130 22:27 30.12.2021
6157 Clouds 28 1018 73 10000 5.36 130 21:37 30.12.2021
6158 Clouds 28 1018 72 10000 4.02 120 20:49 30.12.2021
6159 Clouds 28 1018 71 10000 4.02 120 20:28 30.12.2021
6160 Clouds 28 1018 73 10000 4.02 120 19:50 30.12.2021
6161 Clouds 28 1019 73 10000 4.02 120 19:24 30.12.2021
6162 Clouds 28 1019 74 10000 4.02 140 18:21 30.12.2021
6163 Clouds 27 1020 78 10000 4.47 140 16:39 30.12.2021
6164 Clear 26 1021 84 10000 0.89 212 15:53 30.12.2021
6165 Mist 23 1020 95 10000 2.68 160 14:51 30.12.2021
6166 Mist 23 1020 95 10000 2.68 160 14:31 30.12.2021
6167 Clouds 22 1019 94 10000 2.24 0 13:24 30.12.2021
6168 Fog 21 1018 95 10000 0 0 11:45 30.12.2021
6169 Clouds 21 1018 93 10000 1.34 0 10:27 30.12.2021
6170 Clouds 22 1018 93 10000 0.45 130 09:27 30.12.2021
6171 Clear 23 1018 90 10000 0.45 138 06:56 30.12.2021
6172 Clear 23 1019 89 10000 3.26 153 04:56 30.12.2021
6173 Clear 23 1019 88 10000 2.24 140 03:40 30.12.2021
6174 Clear 23 1019 87 10000 1.34 140 02:19 30.12.2021
6175 Clouds 25 1018 77 10000 4.02 150 23:37 29.12.2021
6176 Clouds 26 1017 74 10000 5.36 120 22:33 29.12.2021
6177 Clouds 27 1017 70 10000 4.02 120 21:55 29.12.2021
6178 Clouds 28 1017 70 10000 2.24 139 20:56 29.12.2021
6179 Clouds 28 1017 68 10000 3.58 130 20:26 29.12.2021
6180 Clouds 28 1018 67 10000 5.36 120 19:31 29.12.2021
6181 Clouds 28 1019 67 10000 5.36 130 18:36 29.12.2021
6182 Clouds 27 1019 67 10000 5.81 130 17:42 29.12.2021
6183 Clouds 27 1020 68 10000 5.81 130 17:23 29.12.2021
6184 Clouds 27 1020 71 10000 5.36 130 16:21 29.12.2021
6185 Clouds 25 1019 79 10000 2.68 150 15:21 29.12.2021
6186 Clouds 22 1019 85 10000 4.22 164 12:57 29.12.2021
6187 Clouds 21 1018 87 10000 2.68 130 12:33 29.12.2021
6188 Clouds 22 1018 86 10000 2.24 130 11:23 29.12.2021
6189 Clouds 22 1017 85 10000 2.24 148 09:30 29.12.2021
6190 Clouds 22 1018 84 10000 1.34 0 07:45 29.12.2021
6191 Clouds 22 1018 84 10000 2.68 120 06:33 29.12.2021
6192 Clear 22 1018 84 10000 1.79 130 05:56 29.12.2021
6193 Clouds 22 1019 83 10000 1.34 134 04:58 29.12.2021
6194 Clouds 23 1018 77 10000 3.13 120 00:45 29.12.2021
6195 Clear 23 1017 76 10000 0.89 140 23:58 28.12.2021
6196 Clear 25 1017 70 10000 1.79 139 22:57 28.12.2021
6197 Clouds 25 1017 66 10000 3.58 140 22:25 28.12.2021
6198 Clear 26 1017 68 10000 1.79 140 21:54 28.12.2021
6199 Clouds 26 1017 67 10000 4.02 130 21:35 28.12.2021
6200 Clouds 26 1017 65 10000 5.36 120 20:32 28.12.2021
6201 Clouds 26 1017 67 10000 2.68 146 18:54 28.12.2021
6202 Clouds 26 1018 65 10000 6.26 140 18:28 28.12.2021
6203 Clouds 26 1019 66 10000 5.36 110 17:39 28.12.2021
6204 Clouds 25 1019 69 10000 6.26 120 16:21 28.12.2021
6205 Clouds 25 1019 73 10000 3.13 130 15:41 28.12.2021
6206 Clouds 23 1018 84 10000 3.64 127 14:57 28.12.2021
6207 Clouds 22 1018 83 10000 0 0 14:38 28.12.2021
6208 Clouds 22 1018 84 10000 0 0 14:20 28.12.2021
6209 Clouds 21 1018 82 10000 0 0 13:38 28.12.2021
6210 Clouds 21 1018 78 10000 2.97 142 12:56 28.12.2021
6211 Clouds 20 1018 88 10000 0 0 12:29 28.12.2021
6212 Clouds 20 1017 91 10000 0 0 10:51 28.12.2021
6213 Clouds 21 1018 89 10000 0 0 07:39 28.12.2021
6214 Clouds 22 1018 84 10000 2.68 130 03:37 28.12.2021
6215 Clouds 24 1017 71 10000 4.02 120 23:41 27.12.2021
6216 Clouds 26 1017 64 10000 3.58 110 22:31 27.12.2021
6217 Clouds 27 1017 61 10000 3.13 140 21:32 27.12.2021
6218 Clouds 27 1017 59 10000 1.79 106 20:40 27.12.2021
6219 Clear 27 1017 65 10000 1.34 147 19:56 27.12.2021
6220 Clouds 27 1018 60 10000 1.34 0 19:38 27.12.2021
6221 Clear 27 1019 59 10000 0.45 337 17:55 27.12.2021
6222 Clouds 26 1020 63 10000 2.68 290 17:29 27.12.2021
6223 Clear 25 1020 71 10000 1.34 310 16:32 27.12.2021
6224 Clouds 23 1020 80 10000 0.45 324 15:50 27.12.2021
6225 Clouds 19 1020 92 10000 0.45 315 14:29 27.12.2021
6226 Clear 19 1020 88 10000 0 0 13:32 27.12.2021
6227 Clear 19 1019 88 10000 2.24 340 11:34 27.12.2021
6228 Clear 20 1019 93 10000 0 0 10:27 27.12.2021
6229 Clear 19 1019 95 10000 2.24 300 09:38 27.12.2021
6230 Clouds 20 1019 88 10000 1.54 220 07:35 27.12.2021
6231 Clear 20 1020 86 10000 0 0 06:30 27.12.2021
6232 Clear 20 1020 86 10000 0 0 06:30 27.12.2021
6233 Clouds 22 1021 86 10000 3.02 66 01:59 27.12.2021
6234 Clouds 24 1018 77 10000 3.13 140 23:52 26.12.2021
6235 Clouds 24 1018 75 10000 3.13 140 23:34 26.12.2021
6236 Clouds 26 1018 68 10000 2.68 290 21:48 26.12.2021
6237 Clouds 27 1018 66 10000 2.68 0 20:31 26.12.2021
6238 Clouds 27 1018 65 10000 1.34 120 19:31 26.12.2021
6239 Clouds 27 1019 66 10000 1.79 129 18:23 26.12.2021
6240 Clear 24 1021 78 10000 0.89 324 15:56 26.12.2021
6241 Clouds 18 1020 94 10000 0 0 13:52 26.12.2021
6242 Clouds 18 1020 94 10000 0 0 13:32 26.12.2021
6243 Clear 18 1020 93 10000 1.34 350 12:39 26.12.2021
6244 Clear 18 1019 77 10000 1.28 166 11:58 26.12.2021
6245 Clear 19 1019 91 10000 0 0 10:22 26.12.2021
6246 Clear 18 1019 91 10000 0 0 09:18 26.12.2021
6247 Clear 18 1019 91 10000 0 0 08:40 26.12.2021
6248 Clear 20 1020 88 10000 0 0 07:25 26.12.2021
6249 Clear 22 1019 82 10000 3.66 126 00:59 26.12.2021
6250 Clear 23 1018 77 10000 3.02 116 23:53 25.12.2021
6251 Clouds 24 1018 72 10000 4.02 120 23:27 25.12.2021
6252 Clouds 25 1018 68 10000 4.02 150 22:23 25.12.2021
6253 Clouds 26 1018 67 10000 4.47 120 20:48 25.12.2021
6254 Clouds 26 1019 67 10000 4.47 140 19:23 25.12.2021
6255 Clear 26 1019 68 10000 1.79 90 18:55 25.12.2021
6256 Clouds 26 1020 67 10000 5.36 100 17:32 25.12.2021
6257 Clouds 25 1021 69 10000 4.02 100 16:36 25.12.2021
6258 Rain 21 1020 81 10000 0 0 14:46 25.12.2021
6259 Clouds 18 1020 81 10000 2.68 360 13:30 25.12.2021
6260 Clouds 18 1020 81 10000 2.68 360 13:30 25.12.2021
6261 Clouds 18 1020 84 10000 0 0 11:46 25.12.2021
6262 Clear 21 1019 72 10000 3.16 103 09:54 25.12.2021
6263 Clouds 19 1019 77 10000 0 0 09:34 25.12.2021
6264 Clouds 20 1021 70 10000 0 0 04:34 25.12.2021
6265 Clouds 21 1021 65 10000 2.24 50 01:23 25.12.2021
6266 Clouds 23 1020 64 10000 0.45 62 23:40 24.12.2021
6267 Clouds 26 1020 49 10000 4.47 30 19:46 24.12.2021
6268 Clouds 26 1020 47 10000 4.47 30 19:23 24.12.2021
6269 Clear 24 1022 67 10000 1.34 26 16:57 24.12.2021
6270 Clouds 22 1023 72 10000 2.24 310 16:22 24.12.2021
6271 Clouds 20 1022 79 10000 0.45 332 15:48 24.12.2021
6272 Clouds 19 1022 84 10000 0.45 309 15:18 24.12.2021
6273 Clouds 16 1021 90 10000 0 0 14:31 24.12.2021
6274 Clouds 15 1021 90 10000 0 0 13:42 24.12.2021
6275 Clouds 15 1021 88 10000 2.24 330 12:49 24.12.2021
6276 Clouds 15 1021 88 10000 2.24 330 12:21 24.12.2021
6277 Clouds 15 1020 88 10000 0 0 11:30 24.12.2021
6278 Clear 15 1020 60 10000 2.6 358 10:59 24.12.2021
6279 Clouds 15 1020 85 10000 2.06 340 10:31 24.12.2021
6280 Clouds 16 1020 81 10000 1.34 350 08:28 24.12.2021
6281 Clear 16 1020 87 10000 2.74 14 07:57 24.12.2021
6282 Clear 17 1020 74 10000 0 0 06:18 24.12.2021
6283 Clouds 20 1020 54 10000 2.24 340 00:20 24.12.2021
6284 Clouds 21 1019 52 10000 2.24 320 23:33 23.12.2021
6285 Clouds 23 1019 45 10000 3.13 340 22:44 23.12.2021
6286 Clouds 23 1019 44 10000 3.13 340 22:22 23.12.2021
6287 Clouds 23 1018 38 10000 0.89 70 21:39 23.12.2021
6288 Clouds 23 1019 38 10000 3.13 290 20:22 23.12.2021
6289 Clouds 23 1019 43 10000 2.24 0 19:27 23.12.2021
6290 Clear 22 1021 62 10000 0.89 358 17:58 23.12.2021
6291 Clear 21 1020 65 10000 3.13 340 17:18 23.12.2021
6292 Clear 19 1021 71 10000 3.13 310 16:26 23.12.2021
6293 Clear 17 1021 74 10000 3.13 340 15:32 23.12.2021
6294 Clear 15 1021 79 10000 0.89 323 14:58 23.12.2021
6295 Clear 14 1020 76 10000 1.34 340 14:38 23.12.2021
6296 Clear 12 1019 77 10000 2.24 340 13:25 23.12.2021
6297 Clear 13 1019 84 10000 2.24 340 11:27 23.12.2021
6298 Clear 14 1019 88 10000 0.89 331 09:53 23.12.2021
6299 Clear 14 1018 87 10000 2.24 340 09:33 23.12.2021
6300 Clear 15 1018 85 10000 1.34 0 08:28 23.12.2021
6301 Clear 16 1017 77 10000 0 0 05:30 23.12.2021
6302 Clouds 18 1015 69 10000 3.13 330 00:40 23.12.2021
6303 Rain 20 1014 65 10000 4.02 300 22:51 22.12.2021
6304 Clouds 21 1014 66 10000 1.34 308 21:59 22.12.2021
6305 Clouds 22 1013 62 10000 3.58 310 21:30 22.12.2021
6306 Clouds 22 1013 65 10000 1.79 307 20:59 22.12.2021
6307 Clouds 22 1013 63 10000 4.02 290 20:40 22.12.2021
6308 Clouds 21 1013 65 10000 4.02 290 19:50 22.12.2021
6309 Clouds 21 1014 66 10000 3.58 330 18:55 22.12.2021
6310 Clouds 20 1014 70 10000 3.58 350 17:38 22.12.2021
6311 Clouds 18 1015 77 10000 2.68 320 15:56 22.12.2021
6312 Clouds 17 1014 86 10000 4.02 330 14:23 22.12.2021
6313 Clouds 16 1012 91 10000 0.89 310 12:53 22.12.2021
6314 Clouds 17 1012 89 10000 3.58 310 11:42 22.12.2021
6315 Clouds 18 1011 90 10000 4.02 300 09:52 22.12.2021
6316 Clouds 20 1010 89 10000 5.36 310 07:57 22.12.2021
6317 Clouds 21 1010 94 10000 1.34 0 05:54 22.12.2021
6318 Clouds 21 1010 94 10000 3.58 230 05:34 22.12.2021
6319 Clouds 21 1010 94 10000 0.89 251 04:57 22.12.2021
6320 Clouds 21 1010 93 10000 3.13 250 04:37 22.12.2021
6321 Clouds 22 1010 91 10000 4.02 240 03:49 22.12.2021
6322 Clouds 22 1009 91 10000 4.02 240 03:31 22.12.2021
6323 Clouds 23 1008 88 10000 5.36 220 23:48 21.12.2021
6324 Clouds 23 1008 87 10000 5.81 230 22:41 21.12.2021
6325 Clouds 23 1008 87 10000 2.68 245 21:56 21.12.2021
6326 Clouds 23 1008 87 10000 6.71 210 21:32 21.12.2021
6327 Clouds 23 1008 88 10000 6.71 220 20:24 21.12.2021
6328 Clouds 23 1008 89 10000 1.34 234 19:55 21.12.2021
6329 Clouds 23 1008 88 10000 6.26 220 19:33 21.12.2021
6330 Clouds 23 1010 91 10000 4.02 210 18:23 21.12.2021
6331 Rain 23 1011 92 8047 5.14 200 17:53 21.12.2021
6332 Clouds 24 1011 86 8047 8.05 240 17:29 21.12.2021
6333 Clouds 26 1011 86 10000 5.36 200 15:34 21.12.2021
6334 Clouds 24 1011 88 10000 1.79 202 14:20 21.12.2021
6335 Clouds 24 1011 91 10000 2.24 183 13:41 21.12.2021
6336 Clouds 23 1011 93 10000 1.34 225 12:26 21.12.2021
6337 Clouds 22 1010 95 10000 2.57 160 10:38 21.12.2021
6338 Clouds 22 1011 95 10000 0.89 199 09:50 21.12.2021
6339 Clouds 22 1011 95 10000 0.45 228 08:55 21.12.2021
6340 Clouds 22 1012 94 10000 1.34 0 07:43 21.12.2021
6341 Clouds 22 1012 94 10000 1.34 0 07:20 21.12.2021
6342 Clouds 24 1014 89 10000 2.24 140 03:24 21.12.2021
6343 Clouds 24 1014 88 10000 3.13 120 01:20 21.12.2021
6344 Clouds 25 1014 86 10000 0.89 60 23:54 20.12.2021
6345 Clouds 26 1013 78 10000 3.58 90 22:35 20.12.2021
6346 Clouds 27 1013 74 10000 3.58 90 21:52 20.12.2021
6347 Clouds 27 1013 75 10000 3.58 90 21:24 20.12.2021
6348 Clouds 27 1014 76 10000 1.34 53 20:54 20.12.2021
6349 Clouds 27 1014 74 10000 3.13 0 20:19 20.12.2021
6350 Clouds 28 1014 73 10000 2.24 50 19:36 20.12.2021
6351 Clouds 27 1014 73 10000 2.24 50 19:18 20.12.2021
6352 Clouds 27 1015 74 10000 2.24 0 18:30 20.12.2021
6353 Clouds 26 1016 78 10000 3.13 40 17:49 20.12.2021
6354 Clouds 26 1016 78 10000 3.13 40 17:49 20.12.2021
6355 Clouds 25 1017 81 10000 1.34 0 16:46 20.12.2021
6356 Clouds 24 1017 87 10000 2.24 0 15:57 20.12.2021
6357 Clouds 24 1017 89 10000 2.24 0 15:31 20.12.2021
6358 Clouds 22 1016 96 10000 0 0 13:32 20.12.2021
6359 Clouds 22 1016 97 10000 2.24 340 12:30 20.12.2021
6360 Clouds 22 1015 96 10000 2.24 300 10:36 20.12.2021
6361 Mist 22 1015 97 9656 2.24 290 09:39 20.12.2021
6362 Mist 22 1015 97 8047 1.34 260 08:49 20.12.2021
6363 Mist 22 1015 97 8047 1.34 260 08:31 20.12.2021
6364 Clouds 22 1015 97 10000 0 0 07:32 20.12.2021
6365 Clouds 22 1016 96 10000 1.54 280 06:32 20.12.2021
6366 Clouds 25 1015 87 10000 2.68 170 00:20 20.12.2021
6367 Clouds 26 1015 86 10000 1.79 0 22:56 19.12.2021
6368 Clouds 27 1015 82 10000 3.58 100 22:24 19.12.2021
6369 Clouds 28 1015 78 10000 4.47 210 21:32 19.12.2021
6370 Clouds 28 1015 76 10000 3.13 200 20:36 19.12.2021
6371 Clouds 28 1015 79 10000 1.79 157 19:53 19.12.2021
6372 Clouds 28 1016 77 10000 4.02 210 19:34 19.12.2021
6373 Clouds 28 1016 74 10000 4.47 210 18:35 19.12.2021
6374 Clouds 28 1017 77 10000 2.24 139 17:53 19.12.2021
6375 Clouds 28 1018 79 10000 3.58 180 17:28 19.12.2021
6376 Clouds 26 1018 83 10000 2.68 190 16:27 19.12.2021
6377 Clouds 25 1018 87 10000 3.13 0 15:51 19.12.2021
6378 Clouds 24 1018 91 10000 3.13 0 15:23 19.12.2021
6379 Clouds 25 1018 88 10000 7.15 200 14:45 19.12.2021
6380 Clouds 24 1017 89 10000 3.13 150 13:26 19.12.2021
6381 Clouds 24 1017 89 10000 3.13 150 12:52 19.12.2021
6382 Clouds 24 1017 89 10000 3.13 150 12:28 19.12.2021
6383 Clouds 24 1016 91 10000 3.13 150 11:33 19.12.2021
6384 Clouds 24 1016 92 10000 3.58 150 10:47 19.12.2021
6385 Clouds 24 1016 92 10000 3.58 150 10:21 19.12.2021
6386 Clouds 24 1016 92 10000 2.68 130 08:46 19.12.2021
6387 Clouds 24 1018 91 10000 3.58 110 05:37 19.12.2021
6388 Clouds 25 1018 88 10000 3.58 120 01:39 19.12.2021
6389 Clouds 25 1017 89 10000 0.89 0 00:53 19.12.2021
6390 Clouds 26 1017 84 10000 5.36 120 22:51 18.12.2021
6391 Clouds 26 1017 85 10000 5.36 120 22:24 18.12.2021
6392 Thunderstorm 26 1018 86 10000 5.36 130 21:41 18.12.2021
6393 Thunderstorm 26 1017 86 10000 5.36 130 21:22 18.12.2021
6394 Rain 27 1018 78 10000 5.81 110 20:25 18.12.2021
6395 Clouds 28 1018 78 10000 6.26 120 19:27 18.12.2021
6396 Clouds 28 1019 76 10000 7.6 110 18:23 18.12.2021
6397 Clouds 28 1020 78 10000 8.94 100 17:49 18.12.2021
6398 Rain 27 1021 81 10000 6.71 90 16:27 18.12.2021
6399 Clouds 27 1021 83 10000 5.36 110 15:48 18.12.2021
6400 Clouds 25 1021 86 10000 1.34 78 14:53 18.12.2021
6401 Clouds 24 1020 88 10000 3.58 100 13:42 18.12.2021
6402 Clouds 24 1020 87 10000 2.24 100 11:48 18.12.2021
6403 Clouds 24 1020 84 10000 0.89 132 09:53 18.12.2021
6404 Clouds 24 1020 83 10000 3.58 100 09:30 18.12.2021
6405 Clouds 24 1020 83 10000 5.36 110 08:35 18.12.2021
6406 Clouds 25 1021 86 10000 4.02 100 06:27 18.12.2021
6407 Clear 25 1020 82 10000 4.47 100 00:42 18.12.2021
6408 Clouds 25 1020 79 10000 5.36 100 23:46 17.12.2021
6409 Clouds 26 1020 76 10000 6.71 80 22:18 17.12.2021
6410 Clouds 27 1020 74 10000 6.26 80 21:23 17.12.2021
6411 Clouds 27 1020 74 10000 6.71 80 20:42 17.12.2021
6412 Clouds 27 1020 74 10000 6.71 100 19:50 17.12.2021
6413 Clouds 27 1022 74 10000 6.71 110 18:39 17.12.2021
6414 Clouds 27 1022 74 10000 7.6 110 17:46 17.12.2021
6415 Clouds 27 1023 75 10000 7.6 90 16:50 17.12.2021
6416 Clouds 27 1023 75 10000 7.6 90 16:26 17.12.2021
6417 Clouds 26 1023 78 10000 6.71 100 15:25 17.12.2021
6418 Clouds 25 1022 83 10000 3.58 90 14:41 17.12.2021
6419 Clouds 23 1021 85 10000 3.13 90 13:30 17.12.2021
6420 Clouds 23 1021 83 10000 3.13 80 12:21 17.12.2021
6421 Clouds 23 1020 81 10000 3.58 90 10:39 17.12.2021
6422 Clouds 23 1020 82 10000 4.02 100 09:44 17.12.2021
6423 Clouds 23 1020 83 10000 3.13 90 08:31 17.12.2021
6424 Clouds 23 1021 81 10000 1.34 70 07:20 17.12.2021
6425 Clouds 24 1022 79 10000 4.02 80 04:40 17.12.2021
6426 Clouds 25 1021 76 10000 0.89 79 23:58 16.12.2021
6427 Clouds 26 1020 72 10000 6.26 110 22:24 16.12.2021
6428 Clouds 26 1020 72 10000 6.26 110 22:24 16.12.2021
6429 Clouds 26 1020 72 10000 6.26 110 22:23 16.12.2021
6430 Clouds 26 1020 72 10000 6.26 110 22:23 16.12.2021
6431 Clouds 27 1020 70 10000 8.05 90 21:45 16.12.2021
6432 Clouds 27 1020 72 10000 1.79 0 20:57 16.12.2021
6433 Clouds 27 1020 69 10000 6.71 110 20:27 16.12.2021
6434 Clouds 28 1021 69 10000 7.15 90 19:35 16.12.2021
6435 Clouds 28 1021 70 10000 6.71 110 18:37 16.12.2021
6436 Clouds 27 1022 71 10000 3.13 91 17:49 16.12.2021
6437 Clouds 27 1022 72 10000 1.79 51 17:19 16.12.2021
6438 Clouds 27 1022 74 10000 2.24 77 16:20 16.12.2021
6439 Clouds 25 1022 78 10000 7.6 90 14:50 16.12.2021
6440 Clouds 24 1021 82 10000 4.47 90 12:48 16.12.2021
6441 Clouds 24 1020 84 10000 3.13 80 11:19 16.12.2021
6442 Clouds 24 1020 84 10000 4.47 100 10:48 16.12.2021
6443 Clear 24 1020 84 10000 1.79 87 09:59 16.12.2021
6444 Clouds 24 1021 83 10000 4.47 90 07:21 16.12.2021
6445 Clouds 24 1021 83 10000 4.47 90 06:19 16.12.2021
6446 Clouds 24 1021 84 10000 2.24 0 00:53 16.12.2021
6447 Clouds 25 1020 82 10000 5.81 110 23:22 15.12.2021
6448 Clouds 25 1020 80 10000 7.6 80 22:29 15.12.2021
6449 Rain 26 1020 76 10000 6.26 90 21:52 15.12.2021
6450 Clouds 26 1020 76 10000 5.81 70 21:26 15.12.2021
6451 Clouds 27 1021 75 10000 2.24 101 19:55 15.12.2021
6452 Clouds 27 1021 73 10000 5.36 70 19:36 15.12.2021
6453 Clouds 27 1022 72 10000 7.15 90 18:36 15.12.2021
6454 Clear 27 1023 73 10000 2.24 70 17:49 15.12.2021
6455 Clear 27 1023 73 10000 2.24 93 17:28 15.12.2021
6456 Clouds 27 1023 77 10000 2.24 76 16:27 15.12.2021
6457 Clear 26 1023 80 10000 1.79 58 15:46 15.12.2021
6458 Clouds 25 1023 82 10000 1.79 76 15:27 15.12.2021
6459 Mist 23 1023 88 8047 3.58 80 14:18 15.12.2021
6460 Mist 22 1022 88 10000 0 0 12:32 15.12.2021
6461 Clouds 22 1022 87 10000 1.34 63 10:25 15.12.2021
6462 Clouds 23 1022 85 10000 0.89 42 08:54 15.12.2021
6463 Clouds 24 1023 83 10000 0.45 83 06:45 15.12.2021
6464 Clouds 25 1023 78 10000 3.58 50 01:20 15.12.2021
6465 Clouds 25 1022 75 10000 1.34 60 23:42 14.12.2021
6466 Clouds 26 1022 74 10000 1.34 57 22:48 14.12.2021
6467 Clouds 26 1022 73 10000 1.79 52 22:18 14.12.2021
6468 Clouds 27 1023 73 10000 1.34 101 20:27 14.12.2021
6469 Clouds 27 1023 69 10000 1.79 0 19:40 14.12.2021
6470 Clouds 28 1024 69 10000 2.68 57 18:44 14.12.2021
6471 Clear 27 1024 72 10000 2.24 63 17:58 14.12.2021
6472 Clouds 27 1025 70 10000 1.79 42 17:28 14.12.2021
6473 Clouds 27 1025 70 10000 1.79 60 16:38 14.12.2021
6474 Clouds 26 1025 75 10000 1.34 47 15:26 14.12.2021
6475 Clouds 22 1024 82 10000 2.24 360 13:31 14.12.2021
6476 Clouds 22 1024 82 10000 2.24 360 13:31 14.12.2021
6477 Clear 24 1023 79 10000 5.23 64 11:58 14.12.2021
6478 Clouds 23 1023 83 10000 2.24 10 11:23 14.12.2021
6479 Clear 23 1023 81 10000 0.45 72 09:57 14.12.2021
6480 Clouds 23 1023 82 10000 1.34 360 09:35 14.12.2021
6481 Clouds 23 1023 82 10000 0.89 50 08:25 14.12.2021
6482 Clouds 24 1023 81 10000 0.45 81 07:43 14.12.2021
6483 Clouds 24 1024 81 10000 0.89 67 02:27 14.12.2021
6484 Clear 26 1023 74 10000 1.79 0 22:55 13.12.2021
6485 Clouds 27 1023 70 10000 1.79 0 21:52 13.12.2021
6486 Clouds 27 1023 69 10000 2.24 20 21:18 13.12.2021
6487 Clouds 28 1023 69 10000 1.79 61 20:38 13.12.2021
6488 Clouds 28 1023 68 10000 2.24 10 19:52 13.12.2021
6489 Clear 28 1024 69 10000 1.79 62 17:56 13.12.2021
6490 Clouds 28 1024 68 10000 1.79 78 17:26 13.12.2021
6491 Clouds 27 1025 72 10000 5.81 70 15:51 13.12.2021
6492 Clouds 26 1024 74 10000 5.81 70 15:20 13.12.2021
6493 Clouds 23 1024 83 10000 2.24 40 13:39 13.12.2021
6494 Clouds 23 1023 83 10000 2.68 60 12:46 13.12.2021
6495 Clouds 23 1023 83 10000 2.68 60 12:46 13.12.2021
6496 Clouds 23 1024 83 10000 0.45 0 11:56 13.12.2021
6497 Clouds 23 1022 83 10000 2.24 50 11:35 13.12.2021
6498 Clouds 23 1022 81 10000 2.24 40 10:44 13.12.2021
6499 Clouds 24 1022 81 10000 2.68 50 09:29 13.12.2021
6500 Clouds 24 1022 81 10000 2.24 50 07:48 13.12.2021
6501 Clouds 24 1022 81 10000 1.34 40 05:35 13.12.2021
6502 Clouds 24 1022 79 10000 3.58 60 03:26 13.12.2021
6503 Clouds 27 1020 71 10000 3.58 60 22:23 12.12.2021
6504 Clouds 28 1020 70 10000 5.81 90 21:38 12.12.2021
6505 Clear 28 1020 70 10000 1.79 99 19:57 12.12.2021
6506 Clouds 28 1021 70 10000 1.79 73 18:36 12.12.2021
6507 Clouds 28 1021 70 10000 1.79 73 18:36 12.12.2021
6508 Clouds 28 1022 72 10000 1.79 83 17:31 12.12.2021
6509 Clouds 27 1022 76 10000 3.13 110 16:27 12.12.2021
6510 Clouds 26 1022 82 10000 0.45 0 15:45 12.12.2021
6511 Clouds 25 1022 87 10000 0.45 36 15:25 12.12.2021
6512 Clouds 23 1022 95 10000 0 0 14:34 12.12.2021
6513 Clear 22 1021 93 10000 0 0 13:26 12.12.2021
6514 Clouds 22 1020 93 10000 0 0 12:30 12.12.2021
6515 Rain 22 1020 90 10000 0 0 11:44 12.12.2021
6516 Clouds 22 1020 90 10000 0 0 11:20 12.12.2021
6517 Clouds 23 1019 89 10000 0 0 10:22 12.12.2021
6518 Clouds 23 1019 90 10000 2.68 110 09:38 12.12.2021
6519 Clouds 24 1019 89 10000 0.45 71 07:57 12.12.2021
6520 Clear 24 1020 88 10000 3.47 106 05:57 12.12.2021
6521 Clouds 24 1020 86 10000 0.45 68 04:56 12.12.2021
6522 Clouds 24 1020 85 10000 4.02 90 03:31 12.12.2021
6523 Clouds 25 1018 80 10000 3.13 130 23:44 11.12.2021
6524 Clouds 27 1018 75 10000 3.58 140 22:22 11.12.2021
6525 Clouds 28 1018 73 10000 4.02 130 21:51 11.12.2021
6526 Clouds 28 1018 72 10000 4.47 110 20:51 11.12.2021
6527 Clouds 28 1018 72 10000 5.36 140 19:27 11.12.2021
6528 Clouds 28 1018 73 10000 6.71 120 18:52 11.12.2021
6529 Clouds 28 1018 72 10000 6.71 120 18:21 11.12.2021
6530 Clouds 28 1020 72 10000 4.47 120 17:21 11.12.2021
6531 Clear 27 1020 77 10000 0.89 113 15:53 11.12.2021
6532 Clouds 26 1020 77 10000 3.58 100 15:28 11.12.2021
6533 Clear 23 1020 83 10000 4.23 103 12:57 11.12.2021
6534 Clouds 23 1019 86 10000 0 0 11:25 11.12.2021
6535 Clouds 24 1018 84 10000 0.45 0 09:46 11.12.2021
6536 Clouds 23 1019 87 10000 0.45 99 08:23 11.12.2021
6537 Clouds 24 1020 83 10000 0.45 82 02:29 11.12.2021
6538 Clouds 25 1019 82 10000 0.45 53 00:36 11.12.2021
6539 Clouds 26 1019 78 10000 0.89 75 23:21 10.12.2021
6540 Clear 27 1019 75 10000 1.34 91 21:57 10.12.2021
6541 Clouds 28 1019 72 10000 1.34 94 21:31 10.12.2021
6542 Clouds 28 1019 71 10000 5.81 110 19:22 10.12.2021
6543 Clouds 28 1020 72 10000 4.02 110 18:21 10.12.2021
6544 Clouds 28 1021 74 10000 1.34 104 16:56 10.12.2021
6545 Clouds 27 1021 75 10000 4.47 100 16:29 10.12.2021
6546 Clouds 26 1021 81 10000 1.34 50 15:41 10.12.2021
6547 Clouds 26 1021 85 10000 1.34 50 15:21 10.12.2021
6548 Clouds 22 1021 93 10000 1.34 360 13:52 10.12.2021
6549 Clouds 22 1020 93 10000 1.34 360 13:26 10.12.2021
6550 Clouds 21 1020 97 10000 0 0 12:45 10.12.2021
6551 Clouds 22 1019 98 10000 0 0 11:29 10.12.2021
6552 Clouds 22 1019 95 10000 0 0 10:38 10.12.2021
6553 Clear 22 1019 95 10000 1.29 78 08:58 10.12.2021
6554 Clouds 22 1020 92 10000 1.48 125 06:56 10.12.2021
6555 Clouds 24 1020 85 10000 2.24 110 02:48 10.12.2021
6556 Clouds 25 1020 87 10000 2.92 131 00:55 10.12.2021
6557 Clouds 26 1019 76 10000 2.68 130 23:23 09.12.2021
6558 Clouds 27 1019 72 10000 3.58 150 22:28 09.12.2021
6559 Clouds 27 1019 74 10000 0.89 101 21:59 09.12.2021
6560 Clouds 28 1018 69 10000 3.58 120 21:19 09.12.2021
6561 Clouds 28 1019 69 10000 2.24 120 20:28 09.12.2021
6562 Clouds 28 1019 69 10000 3.13 130 19:22 09.12.2021
6563 Clouds 28 1019 68 10000 2.24 0 18:49 09.12.2021
6564 Clear 28 1020 71 10000 1.34 0 17:57 09.12.2021
6565 Clouds 28 1020 71 10000 1.34 180 17:27 09.12.2021
6566 Rain 28 1020 75 10000 0.89 120 16:56 09.12.2021
6567 Clear 26 1020 82 10000 0.89 299 15:59 09.12.2021
6568 Mist 23 1020 97 8047 0.45 284 14:51 09.12.2021
6569 Mist 21 1019 99 9656 0 0 13:39 09.12.2021
6570 Mist 21 1018 98 10000 0 0 12:47 09.12.2021
6571 Mist 21 1018 95 10000 0 0 11:25 09.12.2021
6572 Clear 21 1018 95 10000 0 0 09:45 09.12.2021
6573 Clear 22 1019 91 10000 0 0 06:51 09.12.2021
6574 Clear 23 1018 87 10000 3.13 250 03:46 09.12.2021
6575 Clouds 26 1016 81 10000 3.13 0 23:50 08.12.2021
6576 Rain 26 1016 80 10000 3.13 0 23:31 08.12.2021
6577 Clear 27 1016 78 10000 0.89 187 22:53 08.12.2021
6578 Clouds 28 1016 72 10000 4.47 140 21:49 08.12.2021
6579 Clouds 28 1016 71 10000 4.47 140 21:30 08.12.2021
6580 Clouds 28 1017 69 10000 3.13 140 20:19 08.12.2021
6581 Clouds 28 1017 68 10000 1.34 0 19:39 08.12.2021
6582 Clouds 28 1018 70 10000 1.34 0 18:54 08.12.2021
6583 Clouds 28 1018 69 10000 3.13 0 18:21 08.12.2021
6584 Clouds 27 1019 72 10000 2.68 140 16:44 08.12.2021
6585 Clouds 26 1019 75 10000 0.89 130 15:40 08.12.2021
6586 Clouds 24 1019 82 10000 0.45 122 15:21 08.12.2021
6587 Clear 19 1018 88 10000 0 0 13:21 08.12.2021
6588 Clear 20 1017 85 10000 0 0 10:42 08.12.2021
6589 Clear 20 1018 88 10000 0 0 09:32 08.12.2021
6590 Clear 21 1018 88 10000 1.34 350 07:37 08.12.2021
6591 Clouds 22 1019 81 10000 2.65 71 04:58 08.12.2021
6592 Clouds 24 1018 78 10000 3.13 60 00:21 08.12.2021
6593 Clouds 26 1018 70 10000 0.45 78 22:48 07.12.2021
6594 Clouds 28 1017 65 10000 1.34 91 21:24 07.12.2021
6595 Clouds 28 1018 63 10000 2.68 10 20:25 07.12.2021
6596 Clouds 28 1019 64 10000 1.34 108 18:57 07.12.2021
6597 Clouds 28 1019 61 10000 1.34 101 18:19 07.12.2021
6598 Clouds 27 1019 65 10000 1.34 0 17:20 07.12.2021
6599 Clouds 25 1020 70 10000 2.68 70 16:37 07.12.2021
6600 Clouds 24 1020 77 10000 0.45 62 15:37 07.12.2021
6601 Clouds 22 1019 84 10000 0 0 14:37 07.12.2021
6602 Clouds 19 1019 89 10000 2.68 0 13:29 07.12.2021
6603 Clear 20 1018 88 10000 1.34 350 12:21 07.12.2021
6604 Clear 20 1018 95 10000 1.34 320 10:45 07.12.2021
6605 Clouds 21 1018 97 10000 0 0 09:19 07.12.2021
6606 Fog 22 1019 97 10000 1.34 260 06:40 07.12.2021
6607 Mist 22 1019 97 10000 0 0 05:47 07.12.2021
6608 Clouds 23 1018 95 10000 2.24 150 01:43 07.12.2021
6609 Rain 25 1017 87 10000 2.24 40 23:21 06.12.2021
6610 Clouds 26 1017 87 10000 1.34 0 22:40 06.12.2021
6611 Clouds 26 1017 88 10000 0.45 96 21:59 06.12.2021
6612 Clouds 25 1017 89 10000 1.34 280 21:21 06.12.2021
6613 Clouds 25 1017 93 10000 3.58 250 20:32 06.12.2021
6614 Clouds 27 1018 87 10000 3.58 140 19:24 06.12.2021
6615 Clouds 27 1018 84 10000 5.81 140 18:31 06.12.2021
6616 Clouds 27 1019 85 10000 0.89 205 17:53 06.12.2021
6617 Clouds 27 1020 84 10000 5.36 140 17:30 06.12.2021
6618 Clouds 25 1021 93 10000 0.45 185 15:51 06.12.2021
6619 Clouds 24 1020 97 10000 2.24 330 14:35 06.12.2021
6620 Clouds 23 1019 96 10000 1.34 350 12:40 06.12.2021
6621 Clear 22 1019 97 10000 0.45 75 11:55 06.12.2021
6622 Mist 22 1019 94 8047 2.68 100 09:44 06.12.2021
6623 Clouds 23 1019 90 10000 1.34 360 07:18 06.12.2021
6624 Clouds 24 1019 85 10000 4.47 110 00:38 06.12.2021
6625 Clouds 26 1018 74